<?xml version="1.0" encoding="UTF-8" ?>
<gpx xmlns="http://www.topografix.com/GPX/1/1" version="1.1" creator="RouteGadget GPS Tracking" xmlns:xsi="http://www.w3.org/2001/XMLSchema-instance" xmlns:tp1="http://www.garmin.com/xmlschemas/TrackPointExtension/v1" xsi:schemaLocation="http://www.topografix.com/GPX/1/1 http://www.topografix.com/GPX/1/1/gpx.xsd http://www.garmin.com/xmlschemas/TrackPointExtension/v1 http://www.garmin.com/xmlschemas/TrackPointExtensionv1.xsd">
<trk>
<trkseg><trkpt lat="46.045517" lon="11.172646">
<time>2020-11-25T08:49:20Z</time>
</trkpt>
<trkpt lat="46.04551" lon="11.172636">
<time>2020-11-25T08:49:21Z</time>
</trkpt>
<trkpt lat="46.0455" lon="11.172626">
<time>2020-11-25T08:49:22Z</time>
</trkpt>
<trkpt lat="46.045489" lon="11.172618">
<time>2020-11-25T08:49:23Z</time>
</trkpt>
<trkpt lat="46.045476" lon="11.17261">
<time>2020-11-25T08:49:24Z</time>
</trkpt>
<trkpt lat="46.045465" lon="11.172601">
<time>2020-11-25T08:49:25Z</time>
</trkpt>
<trkpt lat="46.045448" lon="11.172587">
<time>2020-11-25T08:49:26Z</time>
</trkpt>
<trkpt lat="46.045432" lon="11.172569">
<time>2020-11-25T08:49:27Z</time>
</trkpt>
<trkpt lat="46.045412" lon="11.172554">
<time>2020-11-25T08:49:28Z</time>
</trkpt>
<trkpt lat="46.045396" lon="11.172543">
<time>2020-11-25T08:49:29Z</time>
</trkpt>
<trkpt lat="46.045376" lon="11.17253">
<time>2020-11-25T08:49:30Z</time>
</trkpt>
<trkpt lat="46.045354" lon="11.172515">
<time>2020-11-25T08:49:31Z</time>
</trkpt>
<trkpt lat="46.04533" lon="11.172501">
<time>2020-11-25T08:49:32Z</time>
</trkpt>
<trkpt lat="46.045306" lon="11.172489">
<time>2020-11-25T08:49:33Z</time>
</trkpt>
<trkpt lat="46.045285" lon="11.172477">
<time>2020-11-25T08:49:34Z</time>
</trkpt>
<trkpt lat="46.045263" lon="11.172467">
<time>2020-11-25T08:49:35Z</time>
</trkpt>
<trkpt lat="46.045237" lon="11.172456">
<time>2020-11-25T08:49:36Z</time>
</trkpt>
<trkpt lat="46.045213" lon="11.172443">
<time>2020-11-25T08:49:37Z</time>
</trkpt>
<trkpt lat="46.045188" lon="11.17243">
<time>2020-11-25T08:49:38Z</time>
</trkpt>
<trkpt lat="46.045163" lon="11.172417">
<time>2020-11-25T08:49:39Z</time>
</trkpt>
<trkpt lat="46.045141" lon="11.172404">
<time>2020-11-25T08:49:40Z</time>
</trkpt>
<trkpt lat="46.045119" lon="11.172392">
<time>2020-11-25T08:49:41Z</time>
</trkpt>
<trkpt lat="46.045096" lon="11.172383">
<time>2020-11-25T08:49:42Z</time>
</trkpt>
<trkpt lat="46.045073" lon="11.17237">
<time>2020-11-25T08:49:43Z</time>
</trkpt>
<trkpt lat="46.045049" lon="11.172359">
<time>2020-11-25T08:49:44Z</time>
</trkpt>
<trkpt lat="46.045028" lon="11.172346">
<time>2020-11-25T08:49:45Z</time>
</trkpt>
<trkpt lat="46.045007" lon="11.172336">
<time>2020-11-25T08:49:46Z</time>
</trkpt>
<trkpt lat="46.044984" lon="11.172326">
<time>2020-11-25T08:49:47Z</time>
</trkpt>
<trkpt lat="46.044963" lon="11.172318">
<time>2020-11-25T08:49:48Z</time>
</trkpt>
<trkpt lat="46.044942" lon="11.172305">
<time>2020-11-25T08:49:49Z</time>
</trkpt>
<trkpt lat="46.044923" lon="11.172297">
<time>2020-11-25T08:49:50Z</time>
</trkpt>
<trkpt lat="46.044903" lon="11.17229">
<time>2020-11-25T08:49:51Z</time>
</trkpt>
<trkpt lat="46.044883" lon="11.172284">
<time>2020-11-25T08:49:52Z</time>
</trkpt>
<trkpt lat="46.044863" lon="11.172275">
<time>2020-11-25T08:49:53Z</time>
</trkpt>
<trkpt lat="46.044839" lon="11.172264">
<time>2020-11-25T08:49:54Z</time>
</trkpt>
<trkpt lat="46.044819" lon="11.172255">
<time>2020-11-25T08:49:55Z</time>
</trkpt>
<trkpt lat="46.044803" lon="11.172247">
<time>2020-11-25T08:49:56Z</time>
</trkpt>
<trkpt lat="46.044787" lon="11.17224">
<time>2020-11-25T08:49:57Z</time>
</trkpt>
<trkpt lat="46.044769" lon="11.172232">
<time>2020-11-25T08:49:58Z</time>
</trkpt>
<trkpt lat="46.044751" lon="11.172224">
<time>2020-11-25T08:49:59Z</time>
</trkpt>
<trkpt lat="46.044731" lon="11.172216">
<time>2020-11-25T08:50:00Z</time>
</trkpt>
<trkpt lat="46.044711" lon="11.17221">
<time>2020-11-25T08:50:01Z</time>
</trkpt>
<trkpt lat="46.044696" lon="11.172202">
<time>2020-11-25T08:50:02Z</time>
</trkpt>
<trkpt lat="46.044683" lon="11.172204">
<time>2020-11-25T08:50:03Z</time>
</trkpt>
<trkpt lat="46.044669" lon="11.172203">
<time>2020-11-25T08:50:04Z</time>
</trkpt>
<trkpt lat="46.044651" lon="11.172199">
<time>2020-11-25T08:50:05Z</time>
</trkpt>
<trkpt lat="46.044629" lon="11.172195">
<time>2020-11-25T08:50:06Z</time>
</trkpt>
<trkpt lat="46.044603" lon="11.172179">
<time>2020-11-25T08:50:07Z</time>
</trkpt>
<trkpt lat="46.044582" lon="11.172164">
<time>2020-11-25T08:50:08Z</time>
</trkpt>
<trkpt lat="46.044562" lon="11.172149">
<time>2020-11-25T08:50:09Z</time>
</trkpt>
<trkpt lat="46.044545" lon="11.172141">
<time>2020-11-25T08:50:10Z</time>
</trkpt>
<trkpt lat="46.044529" lon="11.172133">
<time>2020-11-25T08:50:11Z</time>
</trkpt>
<trkpt lat="46.044505" lon="11.172128">
<time>2020-11-25T08:50:12Z</time>
</trkpt>
<trkpt lat="46.044485" lon="11.172119">
<time>2020-11-25T08:50:13Z</time>
</trkpt>
<trkpt lat="46.044464" lon="11.172112">
<time>2020-11-25T08:50:14Z</time>
</trkpt>
<trkpt lat="46.044446" lon="11.172097">
<time>2020-11-25T08:50:15Z</time>
</trkpt>
<trkpt lat="46.044429" lon="11.172078">
<time>2020-11-25T08:50:16Z</time>
</trkpt>
<trkpt lat="46.044406" lon="11.172062">
<time>2020-11-25T08:50:17Z</time>
</trkpt>
<trkpt lat="46.044389" lon="11.172046">
<time>2020-11-25T08:50:18Z</time>
</trkpt>
<trkpt lat="46.044371" lon="11.17203">
<time>2020-11-25T08:50:19Z</time>
</trkpt>
<trkpt lat="46.044354" lon="11.172013">
<time>2020-11-25T08:50:20Z</time>
</trkpt>
<trkpt lat="46.044338" lon="11.171998">
<time>2020-11-25T08:50:21Z</time>
</trkpt>
<trkpt lat="46.044319" lon="11.171982">
<time>2020-11-25T08:50:22Z</time>
</trkpt>
<trkpt lat="46.044304" lon="11.171967">
<time>2020-11-25T08:50:23Z</time>
</trkpt>
<trkpt lat="46.044295" lon="11.171956">
<time>2020-11-25T08:50:24Z</time>
</trkpt>
<trkpt lat="46.04429" lon="11.171953">
<time>2020-11-25T08:50:25Z</time>
</trkpt>
<trkpt lat="46.044285" lon="11.171954">
<time>2020-11-25T08:50:26Z</time>
</trkpt>
<trkpt lat="46.044277" lon="11.171952">
<time>2020-11-25T08:50:27Z</time>
</trkpt>
<trkpt lat="46.044269" lon="11.171949">
<time>2020-11-25T08:50:28Z</time>
</trkpt>
<trkpt lat="46.044261" lon="11.171946">
<time>2020-11-25T08:50:29Z</time>
</trkpt>
<trkpt lat="46.044252" lon="11.171941">
<time>2020-11-25T08:50:30Z</time>
</trkpt>
<trkpt lat="46.044247" lon="11.171937">
<time>2020-11-25T08:50:31Z</time>
</trkpt>
<trkpt lat="46.04424" lon="11.171931">
<time>2020-11-25T08:50:32Z</time>
</trkpt>
<trkpt lat="46.044228" lon="11.171928">
<time>2020-11-25T08:50:33Z</time>
</trkpt>
<trkpt lat="46.044217" lon="11.171922">
<time>2020-11-25T08:50:34Z</time>
</trkpt>
<trkpt lat="46.044209" lon="11.171914">
<time>2020-11-25T08:50:35Z</time>
</trkpt>
<trkpt lat="46.044201" lon="11.171908">
<time>2020-11-25T08:50:36Z</time>
</trkpt>
<trkpt lat="46.044188" lon="11.1719">
<time>2020-11-25T08:50:37Z</time>
</trkpt>
<trkpt lat="46.044181" lon="11.171887">
<time>2020-11-25T08:50:38Z</time>
</trkpt>
<trkpt lat="46.044172" lon="11.171882">
<time>2020-11-25T08:50:39Z</time>
</trkpt>
<trkpt lat="46.044163" lon="11.171877">
<time>2020-11-25T08:50:40Z</time>
</trkpt>
<trkpt lat="46.044153" lon="11.171866">
<time>2020-11-25T08:50:41Z</time>
</trkpt>
<trkpt lat="46.044138" lon="11.17186">
<time>2020-11-25T08:50:42Z</time>
</trkpt>
<trkpt lat="46.044123" lon="11.171857">
<time>2020-11-25T08:50:43Z</time>
</trkpt>
<trkpt lat="46.04411" lon="11.171847">
<time>2020-11-25T08:50:44Z</time>
</trkpt>
<trkpt lat="46.044098" lon="11.17184">
<time>2020-11-25T08:50:45Z</time>
</trkpt>
<trkpt lat="46.044086" lon="11.171835">
<time>2020-11-25T08:50:46Z</time>
</trkpt>
<trkpt lat="46.044076" lon="11.171831">
<time>2020-11-25T08:50:47Z</time>
</trkpt>
<trkpt lat="46.044069" lon="11.171828">
<time>2020-11-25T08:50:48Z</time>
</trkpt>
<trkpt lat="46.044057" lon="11.171822">
<time>2020-11-25T08:50:49Z</time>
</trkpt>
<trkpt lat="46.044048" lon="11.171819">
<time>2020-11-25T08:50:50Z</time>
</trkpt>
<trkpt lat="46.044033" lon="11.171818">
<time>2020-11-25T08:50:51Z</time>
</trkpt>
<trkpt lat="46.044015" lon="11.171816">
<time>2020-11-25T08:50:52Z</time>
</trkpt>
<trkpt lat="46.044006" lon="11.171813">
<time>2020-11-25T08:50:53Z</time>
</trkpt>
<trkpt lat="46.044001" lon="11.171807">
<time>2020-11-25T08:50:54Z</time>
</trkpt>
<trkpt lat="46.043995" lon="11.171799">
<time>2020-11-25T08:50:55Z</time>
</trkpt>
<trkpt lat="46.043985" lon="11.171791">
<time>2020-11-25T08:50:56Z</time>
</trkpt>
<trkpt lat="46.043974" lon="11.171785">
<time>2020-11-25T08:50:57Z</time>
</trkpt>
<trkpt lat="46.043964" lon="11.171782">
<time>2020-11-25T08:50:58Z</time>
</trkpt>
<trkpt lat="46.043953" lon="11.171782">
<time>2020-11-25T08:50:59Z</time>
</trkpt>
<trkpt lat="46.04394" lon="11.171778">
<time>2020-11-25T08:51:00Z</time>
</trkpt>
<trkpt lat="46.04393" lon="11.171772">
<time>2020-11-25T08:51:01Z</time>
</trkpt>
<trkpt lat="46.043923" lon="11.171766">
<time>2020-11-25T08:51:02Z</time>
</trkpt>
<trkpt lat="46.043909" lon="11.171755">
<time>2020-11-25T08:51:03Z</time>
</trkpt>
<trkpt lat="46.043894" lon="11.171751">
<time>2020-11-25T08:51:04Z</time>
</trkpt>
<trkpt lat="46.04388" lon="11.171745">
<time>2020-11-25T08:51:05Z</time>
</trkpt>
<trkpt lat="46.043869" lon="11.171741">
<time>2020-11-25T08:51:06Z</time>
</trkpt>
<trkpt lat="46.043858" lon="11.171736">
<time>2020-11-25T08:51:07Z</time>
</trkpt>
<trkpt lat="46.043847" lon="11.171728">
<time>2020-11-25T08:51:08Z</time>
</trkpt>
<trkpt lat="46.043835" lon="11.171717">
<time>2020-11-25T08:51:09Z</time>
</trkpt>
<trkpt lat="46.043821" lon="11.171705">
<time>2020-11-25T08:51:10Z</time>
</trkpt>
<trkpt lat="46.04381" lon="11.171691">
<time>2020-11-25T08:51:11Z</time>
</trkpt>
<trkpt lat="46.0438" lon="11.171674">
<time>2020-11-25T08:51:12Z</time>
</trkpt>
<trkpt lat="46.043792" lon="11.171656">
<time>2020-11-25T08:51:13Z</time>
</trkpt>
<trkpt lat="46.043788" lon="11.171646">
<time>2020-11-25T08:51:14Z</time>
</trkpt>
<trkpt lat="46.043778" lon="11.171636">
<time>2020-11-25T08:51:15Z</time>
</trkpt>
<trkpt lat="46.043772" lon="11.171624">
<time>2020-11-25T08:51:16Z</time>
</trkpt>
<trkpt lat="46.043765" lon="11.171616">
<time>2020-11-25T08:51:17Z</time>
</trkpt>
<trkpt lat="46.043756" lon="11.171605">
<time>2020-11-25T08:51:18Z</time>
</trkpt>
<trkpt lat="46.043748" lon="11.171597">
<time>2020-11-25T08:51:19Z</time>
</trkpt>
<trkpt lat="46.04374" lon="11.171589">
<time>2020-11-25T08:51:20Z</time>
</trkpt>
<trkpt lat="46.043735" lon="11.171579">
<time>2020-11-25T08:51:21Z</time>
</trkpt>
<trkpt lat="46.04373" lon="11.171571">
<time>2020-11-25T08:51:22Z</time>
</trkpt>
<trkpt lat="46.043723" lon="11.171563">
<time>2020-11-25T08:51:23Z</time>
</trkpt>
<trkpt lat="46.043718" lon="11.171556">
<time>2020-11-25T08:51:24Z</time>
</trkpt>
<trkpt lat="46.04371" lon="11.171553">
<time>2020-11-25T08:51:25Z</time>
</trkpt>
<trkpt lat="46.043703" lon="11.171547">
<time>2020-11-25T08:51:26Z</time>
</trkpt>
<trkpt lat="46.043694" lon="11.171546">
<time>2020-11-25T08:51:27Z</time>
</trkpt>
<trkpt lat="46.043686" lon="11.171545">
<time>2020-11-25T08:51:28Z</time>
</trkpt>
<trkpt lat="46.043678" lon="11.171541">
<time>2020-11-25T08:51:29Z</time>
</trkpt>
<trkpt lat="46.043676" lon="11.171538">
<time>2020-11-25T08:51:30Z</time>
</trkpt>
<trkpt lat="46.043676" lon="11.171538">
<time>2020-11-25T08:51:31Z</time>
</trkpt>
<trkpt lat="46.043674" lon="11.171539">
<time>2020-11-25T08:51:32Z</time>
</trkpt>
<trkpt lat="46.043668" lon="11.171539">
<time>2020-11-25T08:51:33Z</time>
</trkpt>
<trkpt lat="46.043666" lon="11.171542">
<time>2020-11-25T08:51:34Z</time>
</trkpt>
<trkpt lat="46.043666" lon="11.171546">
<time>2020-11-25T08:51:35Z</time>
</trkpt>
<trkpt lat="46.043665" lon="11.171548">
<time>2020-11-25T08:51:36Z</time>
</trkpt>
<trkpt lat="46.043667" lon="11.171552">
<time>2020-11-25T08:51:37Z</time>
</trkpt>
<trkpt lat="46.043665" lon="11.171555">
<time>2020-11-25T08:51:38Z</time>
</trkpt>
<trkpt lat="46.04366" lon="11.171558">
<time>2020-11-25T08:51:39Z</time>
</trkpt>
<trkpt lat="46.043655" lon="11.171558">
<time>2020-11-25T08:51:40Z</time>
</trkpt>
<trkpt lat="46.043652" lon="11.17156">
<time>2020-11-25T08:51:41Z</time>
</trkpt>
<trkpt lat="46.043648" lon="11.171564">
<time>2020-11-25T08:51:42Z</time>
</trkpt>
<trkpt lat="46.043644" lon="11.171568">
<time>2020-11-25T08:51:43Z</time>
</trkpt>
<trkpt lat="46.043642" lon="11.171573">
<time>2020-11-25T08:51:44Z</time>
</trkpt>
<trkpt lat="46.043643" lon="11.171573">
<time>2020-11-25T08:51:45Z</time>
</trkpt>
<trkpt lat="46.043642" lon="11.171577">
<time>2020-11-25T08:51:46Z</time>
</trkpt>
<trkpt lat="46.043635" lon="11.171582">
<time>2020-11-25T08:51:47Z</time>
</trkpt>
<trkpt lat="46.043631" lon="11.171585">
<time>2020-11-25T08:51:48Z</time>
</trkpt>
<trkpt lat="46.043617" lon="11.171593">
<time>2020-11-25T08:51:49Z</time>
</trkpt>
<trkpt lat="46.04361" lon="11.171593">
<time>2020-11-25T08:51:50Z</time>
</trkpt>
<trkpt lat="46.043598" lon="11.171596">
<time>2020-11-25T08:51:51Z</time>
</trkpt>
<trkpt lat="46.04359" lon="11.171599">
<time>2020-11-25T08:51:52Z</time>
</trkpt>
<trkpt lat="46.043583" lon="11.171603">
<time>2020-11-25T08:51:53Z</time>
</trkpt>
<trkpt lat="46.043577" lon="11.171604">
<time>2020-11-25T08:51:54Z</time>
</trkpt>
<trkpt lat="46.043567" lon="11.171603">
<time>2020-11-25T08:51:55Z</time>
</trkpt>
<trkpt lat="46.04356" lon="11.1716">
<time>2020-11-25T08:51:56Z</time>
</trkpt>
<trkpt lat="46.043563" lon="11.171601">
<time>2020-11-25T08:51:57Z</time>
</trkpt>
<trkpt lat="46.043564" lon="11.171604">
<time>2020-11-25T08:51:58Z</time>
</trkpt>
<trkpt lat="46.043565" lon="11.171608">
<time>2020-11-25T08:51:59Z</time>
</trkpt>
<trkpt lat="46.043566" lon="11.171611">
<time>2020-11-25T08:52:00Z</time>
</trkpt>
<trkpt lat="46.043563" lon="11.171616">
<time>2020-11-25T08:52:01Z</time>
</trkpt>
<trkpt lat="46.043556" lon="11.171619">
<time>2020-11-25T08:52:02Z</time>
</trkpt>
<trkpt lat="46.043545" lon="11.171622">
<time>2020-11-25T08:52:03Z</time>
</trkpt>
<trkpt lat="46.043535" lon="11.171626">
<time>2020-11-25T08:52:04Z</time>
</trkpt>
<trkpt lat="46.043523" lon="11.171633">
<time>2020-11-25T08:52:05Z</time>
</trkpt>
<trkpt lat="46.043519" lon="11.171637">
<time>2020-11-25T08:52:06Z</time>
</trkpt>
<trkpt lat="46.043514" lon="11.171639">
<time>2020-11-25T08:52:07Z</time>
</trkpt>
<trkpt lat="46.043508" lon="11.171641">
<time>2020-11-25T08:52:08Z</time>
</trkpt>
<trkpt lat="46.043498" lon="11.171642">
<time>2020-11-25T08:52:09Z</time>
</trkpt>
<trkpt lat="46.043489" lon="11.171645">
<time>2020-11-25T08:52:10Z</time>
</trkpt>
<trkpt lat="46.043481" lon="11.171648">
<time>2020-11-25T08:52:11Z</time>
</trkpt>
<trkpt lat="46.043472" lon="11.17165">
<time>2020-11-25T08:52:12Z</time>
</trkpt>
<trkpt lat="46.043466" lon="11.171647">
<time>2020-11-25T08:52:13Z</time>
</trkpt>
<trkpt lat="46.043461" lon="11.171646">
<time>2020-11-25T08:52:14Z</time>
</trkpt>
<trkpt lat="46.043453" lon="11.171645">
<time>2020-11-25T08:52:15Z</time>
</trkpt>
<trkpt lat="46.043447" lon="11.171644">
<time>2020-11-25T08:52:16Z</time>
</trkpt>
<trkpt lat="46.043441" lon="11.171645">
<time>2020-11-25T08:52:17Z</time>
</trkpt>
<trkpt lat="46.043436" lon="11.171645">
<time>2020-11-25T08:52:18Z</time>
</trkpt>
<trkpt lat="46.043431" lon="11.171643">
<time>2020-11-25T08:52:19Z</time>
</trkpt>
<trkpt lat="46.043432" lon="11.171643">
<time>2020-11-25T08:52:20Z</time>
</trkpt>
<trkpt lat="46.043432" lon="11.17164">
<time>2020-11-25T08:52:21Z</time>
</trkpt>
<trkpt lat="46.043428" lon="11.171639">
<time>2020-11-25T08:52:22Z</time>
</trkpt>
<trkpt lat="46.043423" lon="11.171639">
<time>2020-11-25T08:52:23Z</time>
</trkpt>
<trkpt lat="46.043423" lon="11.171629">
<time>2020-11-25T08:52:24Z</time>
</trkpt>
<trkpt lat="46.043421" lon="11.171621">
<time>2020-11-25T08:52:25Z</time>
</trkpt>
<trkpt lat="46.043408" lon="11.171618">
<time>2020-11-25T08:52:26Z</time>
</trkpt>
<trkpt lat="46.043395" lon="11.171616">
<time>2020-11-25T08:52:27Z</time>
</trkpt>
<trkpt lat="46.043377" lon="11.171613">
<time>2020-11-25T08:52:28Z</time>
</trkpt>
<trkpt lat="46.043369" lon="11.171607">
<time>2020-11-25T08:52:29Z</time>
</trkpt>
<trkpt lat="46.043363" lon="11.171604">
<time>2020-11-25T08:52:30Z</time>
</trkpt>
<trkpt lat="46.043351" lon="11.171601">
<time>2020-11-25T08:52:31Z</time>
</trkpt>
<trkpt lat="46.043347" lon="11.171596">
<time>2020-11-25T08:52:32Z</time>
</trkpt>
<trkpt lat="46.043342" lon="11.171596">
<time>2020-11-25T08:52:33Z</time>
</trkpt>
<trkpt lat="46.043343" lon="11.171593">
<time>2020-11-25T08:52:34Z</time>
</trkpt>
<trkpt lat="46.043341" lon="11.171596">
<time>2020-11-25T08:52:35Z</time>
</trkpt>
<trkpt lat="46.043338" lon="11.171595">
<time>2020-11-25T08:52:36Z</time>
</trkpt>
<trkpt lat="46.043332" lon="11.171595">
<time>2020-11-25T08:52:37Z</time>
</trkpt>
<trkpt lat="46.043324" lon="11.171591">
<time>2020-11-25T08:52:38Z</time>
</trkpt>
<trkpt lat="46.043315" lon="11.171591">
<time>2020-11-25T08:52:39Z</time>
</trkpt>
<trkpt lat="46.043305" lon="11.171593">
<time>2020-11-25T08:52:40Z</time>
</trkpt>
<trkpt lat="46.043297" lon="11.171594">
<time>2020-11-25T08:52:41Z</time>
</trkpt>
<trkpt lat="46.043286" lon="11.171595">
<time>2020-11-25T08:52:42Z</time>
</trkpt>
<trkpt lat="46.043281" lon="11.171597">
<time>2020-11-25T08:52:43Z</time>
</trkpt>
<trkpt lat="46.043278" lon="11.171595">
<time>2020-11-25T08:52:44Z</time>
</trkpt>
<trkpt lat="46.04328" lon="11.171593">
<time>2020-11-25T08:52:45Z</time>
</trkpt>
<trkpt lat="46.043277" lon="11.171593">
<time>2020-11-25T08:52:46Z</time>
</trkpt>
<trkpt lat="46.043278" lon="11.171595">
<time>2020-11-25T08:52:47Z</time>
</trkpt>
<trkpt lat="46.04328" lon="11.171598">
<time>2020-11-25T08:52:48Z</time>
</trkpt>
<trkpt lat="46.043283" lon="11.1716">
<time>2020-11-25T08:52:49Z</time>
</trkpt>
<trkpt lat="46.043288" lon="11.1716">
<time>2020-11-25T08:52:50Z</time>
</trkpt>
<trkpt lat="46.043285" lon="11.171601">
<time>2020-11-25T08:52:51Z</time>
</trkpt>
<trkpt lat="46.043281" lon="11.171598">
<time>2020-11-25T08:52:52Z</time>
</trkpt>
<trkpt lat="46.043277" lon="11.171599">
<time>2020-11-25T08:52:53Z</time>
</trkpt>
<trkpt lat="46.04327" lon="11.171598">
<time>2020-11-25T08:52:54Z</time>
</trkpt>
<trkpt lat="46.043264" lon="11.171599">
<time>2020-11-25T08:52:55Z</time>
</trkpt>
<trkpt lat="46.043263" lon="11.171598">
<time>2020-11-25T08:52:56Z</time>
</trkpt>
<trkpt lat="46.043263" lon="11.171599">
<time>2020-11-25T08:52:57Z</time>
</trkpt>
<trkpt lat="46.043261" lon="11.171599">
<time>2020-11-25T08:52:58Z</time>
</trkpt>
<trkpt lat="46.04326" lon="11.171596">
<time>2020-11-25T08:52:59Z</time>
</trkpt>
<trkpt lat="46.043255" lon="11.171596">
<time>2020-11-25T08:53:00Z</time>
</trkpt>
<trkpt lat="46.043249" lon="11.171602">
<time>2020-11-25T08:53:01Z</time>
</trkpt>
<trkpt lat="46.043243" lon="11.171605">
<time>2020-11-25T08:53:02Z</time>
</trkpt>
<trkpt lat="46.043241" lon="11.171607">
<time>2020-11-25T08:53:03Z</time>
</trkpt>
<trkpt lat="46.043237" lon="11.17161">
<time>2020-11-25T08:53:04Z</time>
</trkpt>
<trkpt lat="46.043237" lon="11.17161">
<time>2020-11-25T08:53:05Z</time>
</trkpt>
<trkpt lat="46.043231" lon="11.171611">
<time>2020-11-25T08:53:06Z</time>
</trkpt>
<trkpt lat="46.043231" lon="11.171607">
<time>2020-11-25T08:53:07Z</time>
</trkpt>
<trkpt lat="46.043226" lon="11.171597">
<time>2020-11-25T08:53:08Z</time>
</trkpt>
<trkpt lat="46.043222" lon="11.171586">
<time>2020-11-25T08:53:09Z</time>
</trkpt>
<trkpt lat="46.043219" lon="11.171575">
<time>2020-11-25T08:53:10Z</time>
</trkpt>
<trkpt lat="46.043208" lon="11.171569">
<time>2020-11-25T08:53:11Z</time>
</trkpt>
<trkpt lat="46.043193" lon="11.171566">
<time>2020-11-25T08:53:12Z</time>
</trkpt>
<trkpt lat="46.04318" lon="11.171558">
<time>2020-11-25T08:53:13Z</time>
</trkpt>
<trkpt lat="46.043168" lon="11.171545">
<time>2020-11-25T08:53:14Z</time>
</trkpt>
<trkpt lat="46.043161" lon="11.171538">
<time>2020-11-25T08:53:15Z</time>
</trkpt>
<trkpt lat="46.043158" lon="11.171533">
<time>2020-11-25T08:53:16Z</time>
</trkpt>
<trkpt lat="46.043154" lon="11.171527">
<time>2020-11-25T08:53:17Z</time>
</trkpt>
<trkpt lat="46.043148" lon="11.171526">
<time>2020-11-25T08:53:18Z</time>
</trkpt>
<trkpt lat="46.043146" lon="11.171528">
<time>2020-11-25T08:53:19Z</time>
</trkpt>
<trkpt lat="46.043144" lon="11.171521">
<time>2020-11-25T08:53:20Z</time>
</trkpt>
<trkpt lat="46.043142" lon="11.171514">
<time>2020-11-25T08:53:21Z</time>
</trkpt>
<trkpt lat="46.043146" lon="11.171509">
<time>2020-11-25T08:53:22Z</time>
</trkpt>
<trkpt lat="46.04315" lon="11.171508">
<time>2020-11-25T08:53:23Z</time>
</trkpt>
<trkpt lat="46.04315" lon="11.171503">
<time>2020-11-25T08:53:24Z</time>
</trkpt>
<trkpt lat="46.043151" lon="11.171499">
<time>2020-11-25T08:53:25Z</time>
</trkpt>
<trkpt lat="46.043145" lon="11.1715">
<time>2020-11-25T08:53:26Z</time>
</trkpt>
<trkpt lat="46.043143" lon="11.171504">
<time>2020-11-25T08:53:27Z</time>
</trkpt>
<trkpt lat="46.043136" lon="11.171511">
<time>2020-11-25T08:53:28Z</time>
</trkpt>
<trkpt lat="46.043132" lon="11.171516">
<time>2020-11-25T08:53:29Z</time>
</trkpt>
<trkpt lat="46.043128" lon="11.171524">
<time>2020-11-25T08:53:30Z</time>
</trkpt>
<trkpt lat="46.043128" lon="11.171529">
<time>2020-11-25T08:53:31Z</time>
</trkpt>
<trkpt lat="46.043132" lon="11.171539">
<time>2020-11-25T08:53:32Z</time>
</trkpt>
<trkpt lat="46.043133" lon="11.171542">
<time>2020-11-25T08:53:33Z</time>
</trkpt>
<trkpt lat="46.043133" lon="11.171547">
<time>2020-11-25T08:53:34Z</time>
</trkpt>
<trkpt lat="46.043132" lon="11.171557">
<time>2020-11-25T08:53:35Z</time>
</trkpt>
<trkpt lat="46.043134" lon="11.171565">
<time>2020-11-25T08:53:36Z</time>
</trkpt>
<trkpt lat="46.043132" lon="11.171569">
<time>2020-11-25T08:53:37Z</time>
</trkpt>
<trkpt lat="46.043135" lon="11.171572">
<time>2020-11-25T08:53:38Z</time>
</trkpt>
<trkpt lat="46.043135" lon="11.171578">
<time>2020-11-25T08:53:39Z</time>
</trkpt>
<trkpt lat="46.043139" lon="11.171581">
<time>2020-11-25T08:53:40Z</time>
</trkpt>
<trkpt lat="46.043137" lon="11.171586">
<time>2020-11-25T08:53:41Z</time>
</trkpt>
<trkpt lat="46.043137" lon="11.171592">
<time>2020-11-25T08:53:42Z</time>
</trkpt>
<trkpt lat="46.043134" lon="11.171598">
<time>2020-11-25T08:53:43Z</time>
</trkpt>
<trkpt lat="46.043132" lon="11.171604">
<time>2020-11-25T08:53:44Z</time>
</trkpt>
<trkpt lat="46.043132" lon="11.171614">
<time>2020-11-25T08:53:45Z</time>
</trkpt>
<trkpt lat="46.043127" lon="11.171622">
<time>2020-11-25T08:53:46Z</time>
</trkpt>
<trkpt lat="46.043121" lon="11.171632">
<time>2020-11-25T08:53:47Z</time>
</trkpt>
<trkpt lat="46.043118" lon="11.171644">
<time>2020-11-25T08:53:48Z</time>
</trkpt>
<trkpt lat="46.043114" lon="11.171654">
<time>2020-11-25T08:53:49Z</time>
</trkpt>
<trkpt lat="46.043108" lon="11.171659">
<time>2020-11-25T08:53:50Z</time>
</trkpt>
<trkpt lat="46.043105" lon="11.171661">
<time>2020-11-25T08:53:51Z</time>
</trkpt>
<trkpt lat="46.043099" lon="11.171662">
<time>2020-11-25T08:53:52Z</time>
</trkpt>
<trkpt lat="46.043096" lon="11.171663">
<time>2020-11-25T08:53:53Z</time>
</trkpt>
<trkpt lat="46.043093" lon="11.171671">
<time>2020-11-25T08:53:54Z</time>
</trkpt>
<trkpt lat="46.043092" lon="11.171673">
<time>2020-11-25T08:53:55Z</time>
</trkpt>
<trkpt lat="46.043095" lon="11.171678">
<time>2020-11-25T08:53:56Z</time>
</trkpt>
<trkpt lat="46.043092" lon="11.171683">
<time>2020-11-25T08:53:57Z</time>
</trkpt>
<trkpt lat="46.043088" lon="11.171688">
<time>2020-11-25T08:53:58Z</time>
</trkpt>
<trkpt lat="46.043086" lon="11.171693">
<time>2020-11-25T08:53:59Z</time>
</trkpt>
<trkpt lat="46.043079" lon="11.1717">
<time>2020-11-25T08:54:00Z</time>
</trkpt>
<trkpt lat="46.043071" lon="11.171704">
<time>2020-11-25T08:54:01Z</time>
</trkpt>
<trkpt lat="46.043066" lon="11.171707">
<time>2020-11-25T08:54:02Z</time>
</trkpt>
<trkpt lat="46.04306" lon="11.171708">
<time>2020-11-25T08:54:03Z</time>
</trkpt>
<trkpt lat="46.043057" lon="11.17171">
<time>2020-11-25T08:54:04Z</time>
</trkpt>
<trkpt lat="46.043054" lon="11.171711">
<time>2020-11-25T08:54:05Z</time>
</trkpt>
<trkpt lat="46.043044" lon="11.171709">
<time>2020-11-25T08:54:06Z</time>
</trkpt>
<trkpt lat="46.043039" lon="11.171705">
<time>2020-11-25T08:54:07Z</time>
</trkpt>
<trkpt lat="46.043032" lon="11.171702">
<time>2020-11-25T08:54:08Z</time>
</trkpt>
<trkpt lat="46.043025" lon="11.171701">
<time>2020-11-25T08:54:09Z</time>
</trkpt>
<trkpt lat="46.04302" lon="11.171701">
<time>2020-11-25T08:54:10Z</time>
</trkpt>
<trkpt lat="46.043019" lon="11.1717">
<time>2020-11-25T08:54:11Z</time>
</trkpt>
<trkpt lat="46.043007" lon="11.171702">
<time>2020-11-25T08:54:12Z</time>
</trkpt>
<trkpt lat="46.042991" lon="11.17171">
<time>2020-11-25T08:54:13Z</time>
</trkpt>
<trkpt lat="46.042987" lon="11.171712">
<time>2020-11-25T08:54:14Z</time>
</trkpt>
<trkpt lat="46.042977" lon="11.171717">
<time>2020-11-25T08:54:15Z</time>
</trkpt>
<trkpt lat="46.042972" lon="11.171722">
<time>2020-11-25T08:54:16Z</time>
</trkpt>
<trkpt lat="46.042954" lon="11.171729">
<time>2020-11-25T08:54:17Z</time>
</trkpt>
<trkpt lat="46.042946" lon="11.171732">
<time>2020-11-25T08:54:18Z</time>
</trkpt>
<trkpt lat="46.042943" lon="11.171734">
<time>2020-11-25T08:54:19Z</time>
</trkpt>
<trkpt lat="46.04294" lon="11.171737">
<time>2020-11-25T08:54:20Z</time>
</trkpt>
<trkpt lat="46.042934" lon="11.171741">
<time>2020-11-25T08:54:21Z</time>
</trkpt>
<trkpt lat="46.042936" lon="11.171746">
<time>2020-11-25T08:54:22Z</time>
</trkpt>
<trkpt lat="46.042933" lon="11.171748">
<time>2020-11-25T08:54:23Z</time>
</trkpt>
<trkpt lat="46.042931" lon="11.17175">
<time>2020-11-25T08:54:24Z</time>
</trkpt>
<trkpt lat="46.042925" lon="11.171748">
<time>2020-11-25T08:54:25Z</time>
</trkpt>
<trkpt lat="46.042921" lon="11.171746">
<time>2020-11-25T08:54:26Z</time>
</trkpt>
<trkpt lat="46.042917" lon="11.171747">
<time>2020-11-25T08:54:27Z</time>
</trkpt>
<trkpt lat="46.042916" lon="11.171747">
<time>2020-11-25T08:54:28Z</time>
</trkpt>
<trkpt lat="46.042914" lon="11.171749">
<time>2020-11-25T08:54:29Z</time>
</trkpt>
<trkpt lat="46.042908" lon="11.171754">
<time>2020-11-25T08:54:30Z</time>
</trkpt>
<trkpt lat="46.042902" lon="11.171757">
<time>2020-11-25T08:54:31Z</time>
</trkpt>
<trkpt lat="46.0429" lon="11.171763">
<time>2020-11-25T08:54:32Z</time>
</trkpt>
<trkpt lat="46.042897" lon="11.171767">
<time>2020-11-25T08:54:33Z</time>
</trkpt>
<trkpt lat="46.042894" lon="11.171771">
<time>2020-11-25T08:54:34Z</time>
</trkpt>
<trkpt lat="46.04289" lon="11.171773">
<time>2020-11-25T08:54:35Z</time>
</trkpt>
<trkpt lat="46.042877" lon="11.171772">
<time>2020-11-25T08:54:36Z</time>
</trkpt>
<trkpt lat="46.042867" lon="11.171775">
<time>2020-11-25T08:54:37Z</time>
</trkpt>
<trkpt lat="46.042854" lon="11.171776">
<time>2020-11-25T08:54:38Z</time>
</trkpt>
<trkpt lat="46.042842" lon="11.171779">
<time>2020-11-25T08:54:39Z</time>
</trkpt>
<trkpt lat="46.042837" lon="11.171782">
<time>2020-11-25T08:54:40Z</time>
</trkpt>
<trkpt lat="46.042833" lon="11.171787">
<time>2020-11-25T08:54:41Z</time>
</trkpt>
<trkpt lat="46.042823" lon="11.171789">
<time>2020-11-25T08:54:42Z</time>
</trkpt>
<trkpt lat="46.042815" lon="11.171788">
<time>2020-11-25T08:54:43Z</time>
</trkpt>
<trkpt lat="46.042807" lon="11.171786">
<time>2020-11-25T08:54:44Z</time>
</trkpt>
<trkpt lat="46.042804" lon="11.171784">
<time>2020-11-25T08:54:45Z</time>
</trkpt>
<trkpt lat="46.042801" lon="11.171781">
<time>2020-11-25T08:54:46Z</time>
</trkpt>
<trkpt lat="46.042793" lon="11.17178">
<time>2020-11-25T08:54:47Z</time>
</trkpt>
<trkpt lat="46.042787" lon="11.171781">
<time>2020-11-25T08:54:48Z</time>
</trkpt>
<trkpt lat="46.042781" lon="11.171782">
<time>2020-11-25T08:54:49Z</time>
</trkpt>
<trkpt lat="46.042769" lon="11.171785">
<time>2020-11-25T08:54:50Z</time>
</trkpt>
<trkpt lat="46.042765" lon="11.171784">
<time>2020-11-25T08:54:51Z</time>
</trkpt>
<trkpt lat="46.04276" lon="11.171783">
<time>2020-11-25T08:54:52Z</time>
</trkpt>
<trkpt lat="46.042757" lon="11.171782">
<time>2020-11-25T08:54:53Z</time>
</trkpt>
<trkpt lat="46.042751" lon="11.17178">
<time>2020-11-25T08:54:54Z</time>
</trkpt>
<trkpt lat="46.04275" lon="11.171779">
<time>2020-11-25T08:54:55Z</time>
</trkpt>
<trkpt lat="46.042749" lon="11.171774">
<time>2020-11-25T08:54:56Z</time>
</trkpt>
<trkpt lat="46.042751" lon="11.17177">
<time>2020-11-25T08:54:57Z</time>
</trkpt>
<trkpt lat="46.042748" lon="11.171764">
<time>2020-11-25T08:54:58Z</time>
</trkpt>
<trkpt lat="46.042741" lon="11.17176">
<time>2020-11-25T08:54:59Z</time>
</trkpt>
<trkpt lat="46.042734" lon="11.17176">
<time>2020-11-25T08:55:00Z</time>
</trkpt>
<trkpt lat="46.042725" lon="11.171756">
<time>2020-11-25T08:55:01Z</time>
</trkpt>
<trkpt lat="46.042715" lon="11.171755">
<time>2020-11-25T08:55:02Z</time>
</trkpt>
<trkpt lat="46.042707" lon="11.171755">
<time>2020-11-25T08:55:03Z</time>
</trkpt>
<trkpt lat="46.042699" lon="11.171757">
<time>2020-11-25T08:55:04Z</time>
</trkpt>
<trkpt lat="46.042694" lon="11.171756">
<time>2020-11-25T08:55:05Z</time>
</trkpt>
<trkpt lat="46.04269" lon="11.171755">
<time>2020-11-25T08:55:06Z</time>
</trkpt>
<trkpt lat="46.042684" lon="11.171756">
<time>2020-11-25T08:55:07Z</time>
</trkpt>
<trkpt lat="46.042678" lon="11.171756">
<time>2020-11-25T08:55:08Z</time>
</trkpt>
<trkpt lat="46.042668" lon="11.171754">
<time>2020-11-25T08:55:09Z</time>
</trkpt>
<trkpt lat="46.042659" lon="11.171753">
<time>2020-11-25T08:55:10Z</time>
</trkpt>
<trkpt lat="46.042644" lon="11.171754">
<time>2020-11-25T08:55:11Z</time>
</trkpt>
<trkpt lat="46.042646" lon="11.17176">
<time>2020-11-25T08:55:12Z</time>
</trkpt>
<trkpt lat="46.042642" lon="11.171767">
<time>2020-11-25T08:55:13Z</time>
</trkpt>
<trkpt lat="46.042641" lon="11.171769">
<time>2020-11-25T08:55:14Z</time>
</trkpt>
<trkpt lat="46.042639" lon="11.171773">
<time>2020-11-25T08:55:15Z</time>
</trkpt>
<trkpt lat="46.042629" lon="11.171778">
<time>2020-11-25T08:55:16Z</time>
</trkpt>
<trkpt lat="46.042624" lon="11.171781">
<time>2020-11-25T08:55:17Z</time>
</trkpt>
<trkpt lat="46.042619" lon="11.171781">
<time>2020-11-25T08:55:18Z</time>
</trkpt>
<trkpt lat="46.042613" lon="11.171785">
<time>2020-11-25T08:55:19Z</time>
</trkpt>
<trkpt lat="46.042601" lon="11.171784">
<time>2020-11-25T08:55:20Z</time>
</trkpt>
<trkpt lat="46.042591" lon="11.171785">
<time>2020-11-25T08:55:21Z</time>
</trkpt>
<trkpt lat="46.042581" lon="11.17178">
<time>2020-11-25T08:55:22Z</time>
</trkpt>
<trkpt lat="46.042572" lon="11.171778">
<time>2020-11-25T08:55:23Z</time>
</trkpt>
<trkpt lat="46.042566" lon="11.171773">
<time>2020-11-25T08:55:24Z</time>
</trkpt>
<trkpt lat="46.042561" lon="11.171773">
<time>2020-11-25T08:55:25Z</time>
</trkpt>
<trkpt lat="46.042555" lon="11.171771">
<time>2020-11-25T08:55:26Z</time>
</trkpt>
<trkpt lat="46.042549" lon="11.171774">
<time>2020-11-25T08:55:27Z</time>
</trkpt>
<trkpt lat="46.042546" lon="11.171777">
<time>2020-11-25T08:55:28Z</time>
</trkpt>
<trkpt lat="46.042535" lon="11.171786">
<time>2020-11-25T08:55:29Z</time>
</trkpt>
<trkpt lat="46.04253" lon="11.171793">
<time>2020-11-25T08:55:30Z</time>
</trkpt>
<trkpt lat="46.042525" lon="11.1718">
<time>2020-11-25T08:55:31Z</time>
</trkpt>
<trkpt lat="46.042515" lon="11.171803">
<time>2020-11-25T08:55:32Z</time>
</trkpt>
<trkpt lat="46.042502" lon="11.17181">
<time>2020-11-25T08:55:33Z</time>
</trkpt>
<trkpt lat="46.042496" lon="11.171814">
<time>2020-11-25T08:55:34Z</time>
</trkpt>
<trkpt lat="46.042487" lon="11.17182">
<time>2020-11-25T08:55:35Z</time>
</trkpt>
<trkpt lat="46.042481" lon="11.171826">
<time>2020-11-25T08:55:36Z</time>
</trkpt>
<trkpt lat="46.04247" lon="11.171831">
<time>2020-11-25T08:55:37Z</time>
</trkpt>
<trkpt lat="46.042465" lon="11.171835">
<time>2020-11-25T08:55:38Z</time>
</trkpt>
<trkpt lat="46.042455" lon="11.171837">
<time>2020-11-25T08:55:39Z</time>
</trkpt>
<trkpt lat="46.042447" lon="11.171838">
<time>2020-11-25T08:55:40Z</time>
</trkpt>
<trkpt lat="46.042442" lon="11.171843">
<time>2020-11-25T08:55:41Z</time>
</trkpt>
<trkpt lat="46.04244" lon="11.171846">
<time>2020-11-25T08:55:42Z</time>
</trkpt>
<trkpt lat="46.042437" lon="11.17185">
<time>2020-11-25T08:55:43Z</time>
</trkpt>
<trkpt lat="46.042436" lon="11.171852">
<time>2020-11-25T08:55:44Z</time>
</trkpt>
<trkpt lat="46.042433" lon="11.171854">
<time>2020-11-25T08:55:45Z</time>
</trkpt>
<trkpt lat="46.042425" lon="11.171855">
<time>2020-11-25T08:55:46Z</time>
</trkpt>
<trkpt lat="46.042412" lon="11.171858">
<time>2020-11-25T08:55:47Z</time>
</trkpt>
<trkpt lat="46.042407" lon="11.171859">
<time>2020-11-25T08:55:48Z</time>
</trkpt>
<trkpt lat="46.042402" lon="11.171863">
<time>2020-11-25T08:55:49Z</time>
</trkpt>
<trkpt lat="46.042397" lon="11.171872">
<time>2020-11-25T08:55:50Z</time>
</trkpt>
<trkpt lat="46.042395" lon="11.171878">
<time>2020-11-25T08:55:51Z</time>
</trkpt>
<trkpt lat="46.04239" lon="11.171884">
<time>2020-11-25T08:55:52Z</time>
</trkpt>
<trkpt lat="46.042378" lon="11.171892">
<time>2020-11-25T08:55:53Z</time>
</trkpt>
<trkpt lat="46.042376" lon="11.171896">
<time>2020-11-25T08:55:54Z</time>
</trkpt>
<trkpt lat="46.042374" lon="11.171898">
<time>2020-11-25T08:55:55Z</time>
</trkpt>
<trkpt lat="46.042371" lon="11.171902">
<time>2020-11-25T08:55:56Z</time>
</trkpt>
<trkpt lat="46.042369" lon="11.171907">
<time>2020-11-25T08:55:57Z</time>
</trkpt>
<trkpt lat="46.042372" lon="11.17191">
<time>2020-11-25T08:55:58Z</time>
</trkpt>
<trkpt lat="46.042366" lon="11.171924">
<time>2020-11-25T08:55:59Z</time>
</trkpt>
<trkpt lat="46.042359" lon="11.171941">
<time>2020-11-25T08:56:00Z</time>
</trkpt>
<trkpt lat="46.042357" lon="11.17195">
<time>2020-11-25T08:56:01Z</time>
</trkpt>
<trkpt lat="46.042355" lon="11.171956">
<time>2020-11-25T08:56:02Z</time>
</trkpt>
<trkpt lat="46.042355" lon="11.171959">
<time>2020-11-25T08:56:03Z</time>
</trkpt>
<trkpt lat="46.042353" lon="11.171962">
<time>2020-11-25T08:56:04Z</time>
</trkpt>
<trkpt lat="46.042348" lon="11.171966">
<time>2020-11-25T08:56:05Z</time>
</trkpt>
<trkpt lat="46.042346" lon="11.171968">
<time>2020-11-25T08:56:06Z</time>
</trkpt>
<trkpt lat="46.042345" lon="11.171972">
<time>2020-11-25T08:56:07Z</time>
</trkpt>
<trkpt lat="46.04234" lon="11.171982">
<time>2020-11-25T08:56:08Z</time>
</trkpt>
<trkpt lat="46.042332" lon="11.171992">
<time>2020-11-25T08:56:09Z</time>
</trkpt>
<trkpt lat="46.042328" lon="11.172">
<time>2020-11-25T08:56:10Z</time>
</trkpt>
<trkpt lat="46.042323" lon="11.172011">
<time>2020-11-25T08:56:11Z</time>
</trkpt>
<trkpt lat="46.042316" lon="11.17202">
<time>2020-11-25T08:56:12Z</time>
</trkpt>
<trkpt lat="46.042312" lon="11.17203">
<time>2020-11-25T08:56:13Z</time>
</trkpt>
<trkpt lat="46.042309" lon="11.172038">
<time>2020-11-25T08:56:14Z</time>
</trkpt>
<trkpt lat="46.042304" lon="11.172045">
<time>2020-11-25T08:56:15Z</time>
</trkpt>
<trkpt lat="46.042301" lon="11.172054">
<time>2020-11-25T08:56:16Z</time>
</trkpt>
<trkpt lat="46.042302" lon="11.172062">
<time>2020-11-25T08:56:17Z</time>
</trkpt>
<trkpt lat="46.042304" lon="11.172068">
<time>2020-11-25T08:56:18Z</time>
</trkpt>
<trkpt lat="46.042299" lon="11.172074">
<time>2020-11-25T08:56:19Z</time>
</trkpt>
<trkpt lat="46.042291" lon="11.172083">
<time>2020-11-25T08:56:20Z</time>
</trkpt>
<trkpt lat="46.042268" lon="11.172097">
<time>2020-11-25T08:56:21Z</time>
</trkpt>
<trkpt lat="46.042257" lon="11.172109">
<time>2020-11-25T08:56:22Z</time>
</trkpt>
<trkpt lat="46.042246" lon="11.172123">
<time>2020-11-25T08:56:23Z</time>
</trkpt>
<trkpt lat="46.042234" lon="11.172137">
<time>2020-11-25T08:56:24Z</time>
</trkpt>
<trkpt lat="46.04223" lon="11.172153">
<time>2020-11-25T08:56:25Z</time>
</trkpt>
<trkpt lat="46.042213" lon="11.172172">
<time>2020-11-25T08:56:26Z</time>
</trkpt>
<trkpt lat="46.0422" lon="11.172185">
<time>2020-11-25T08:56:27Z</time>
</trkpt>
<trkpt lat="46.042184" lon="11.172208">
<time>2020-11-25T08:56:28Z</time>
</trkpt>
<trkpt lat="46.042165" lon="11.172226">
<time>2020-11-25T08:56:29Z</time>
</trkpt>
<trkpt lat="46.042148" lon="11.172248">
<time>2020-11-25T08:56:30Z</time>
</trkpt>
<trkpt lat="46.042134" lon="11.172264">
<time>2020-11-25T08:56:31Z</time>
</trkpt>
<trkpt lat="46.042123" lon="11.172281">
<time>2020-11-25T08:56:32Z</time>
</trkpt>
<trkpt lat="46.042114" lon="11.172297">
<time>2020-11-25T08:56:33Z</time>
</trkpt>
<trkpt lat="46.042107" lon="11.172312">
<time>2020-11-25T08:56:34Z</time>
</trkpt>
<trkpt lat="46.042097" lon="11.172329">
<time>2020-11-25T08:56:35Z</time>
</trkpt>
<trkpt lat="46.042091" lon="11.172347">
<time>2020-11-25T08:56:36Z</time>
</trkpt>
<trkpt lat="46.042086" lon="11.172366">
<time>2020-11-25T08:56:37Z</time>
</trkpt>
<trkpt lat="46.04208" lon="11.17239">
<time>2020-11-25T08:56:38Z</time>
</trkpt>
<trkpt lat="46.042074" lon="11.172415">
<time>2020-11-25T08:56:39Z</time>
</trkpt>
<trkpt lat="46.042074" lon="11.17244">
<time>2020-11-25T08:56:40Z</time>
</trkpt>
<trkpt lat="46.042072" lon="11.172465">
<time>2020-11-25T08:56:41Z</time>
</trkpt>
<trkpt lat="46.042069" lon="11.172487">
<time>2020-11-25T08:56:42Z</time>
</trkpt>
<trkpt lat="46.04207" lon="11.172506">
<time>2020-11-25T08:56:43Z</time>
</trkpt>
<trkpt lat="46.042075" lon="11.17253">
<time>2020-11-25T08:56:44Z</time>
</trkpt>
<trkpt lat="46.042076" lon="11.172556">
<time>2020-11-25T08:56:45Z</time>
</trkpt>
<trkpt lat="46.042073" lon="11.172573">
<time>2020-11-25T08:56:46Z</time>
</trkpt>
<trkpt lat="46.042071" lon="11.172592">
<time>2020-11-25T08:56:47Z</time>
</trkpt>
<trkpt lat="46.042072" lon="11.172613">
<time>2020-11-25T08:56:48Z</time>
</trkpt>
<trkpt lat="46.042065" lon="11.172634">
<time>2020-11-25T08:56:49Z</time>
</trkpt>
<trkpt lat="46.042061" lon="11.172657">
<time>2020-11-25T08:56:50Z</time>
</trkpt>
<trkpt lat="46.042059" lon="11.172679">
<time>2020-11-25T08:56:51Z</time>
</trkpt>
<trkpt lat="46.04206" lon="11.172696">
<time>2020-11-25T08:56:52Z</time>
</trkpt>
<trkpt lat="46.042055" lon="11.172712">
<time>2020-11-25T08:56:53Z</time>
</trkpt>
<trkpt lat="46.042054" lon="11.172725">
<time>2020-11-25T08:56:54Z</time>
</trkpt>
<trkpt lat="46.04205" lon="11.17274">
<time>2020-11-25T08:56:55Z</time>
</trkpt>
<trkpt lat="46.042051" lon="11.172756">
<time>2020-11-25T08:56:56Z</time>
</trkpt>
<trkpt lat="46.042056" lon="11.17277">
<time>2020-11-25T08:56:57Z</time>
</trkpt>
<trkpt lat="46.042058" lon="11.172782">
<time>2020-11-25T08:56:58Z</time>
</trkpt>
<trkpt lat="46.04206" lon="11.172795">
<time>2020-11-25T08:56:59Z</time>
</trkpt>
<trkpt lat="46.042062" lon="11.172806">
<time>2020-11-25T08:57:01Z</time>
</trkpt>
<trkpt lat="46.042062" lon="11.172817">
<time>2020-11-25T08:57:02Z</time>
</trkpt>
<trkpt lat="46.04206" lon="11.172832">
<time>2020-11-25T08:57:03Z</time>
</trkpt>
<trkpt lat="46.04206" lon="11.172849">
<time>2020-11-25T08:57:04Z</time>
</trkpt>
<trkpt lat="46.042063" lon="11.172864">
<time>2020-11-25T08:57:05Z</time>
</trkpt>
<trkpt lat="46.042051" lon="11.172883">
<time>2020-11-25T08:57:06Z</time>
</trkpt>
<trkpt lat="46.04205" lon="11.172901">
<time>2020-11-25T08:57:07Z</time>
</trkpt>
<trkpt lat="46.042042" lon="11.172923">
<time>2020-11-25T08:57:08Z</time>
</trkpt>
<trkpt lat="46.042044" lon="11.172944">
<time>2020-11-25T08:57:09Z</time>
</trkpt>
<trkpt lat="46.042046" lon="11.172969">
<time>2020-11-25T08:57:10Z</time>
</trkpt>
<trkpt lat="46.042044" lon="11.172991">
<time>2020-11-25T08:57:11Z</time>
</trkpt>
<trkpt lat="46.042042" lon="11.173011">
<time>2020-11-25T08:57:12Z</time>
</trkpt>
<trkpt lat="46.042041" lon="11.173026">
<time>2020-11-25T08:57:13Z</time>
</trkpt>
<trkpt lat="46.042035" lon="11.173039">
<time>2020-11-25T08:57:14Z</time>
</trkpt>
<trkpt lat="46.042025" lon="11.173052">
<time>2020-11-25T08:57:15Z</time>
</trkpt>
<trkpt lat="46.042026" lon="11.173069">
<time>2020-11-25T08:57:16Z</time>
</trkpt>
<trkpt lat="46.042021" lon="11.17309">
<time>2020-11-25T08:57:17Z</time>
</trkpt>
<trkpt lat="46.04202" lon="11.173111">
<time>2020-11-25T08:57:18Z</time>
</trkpt>
<trkpt lat="46.042025" lon="11.173133">
<time>2020-11-25T08:57:19Z</time>
</trkpt>
<trkpt lat="46.042028" lon="11.173154">
<time>2020-11-25T08:57:20Z</time>
</trkpt>
<trkpt lat="46.042034" lon="11.173175">
<time>2020-11-25T08:57:21Z</time>
</trkpt>
<trkpt lat="46.042044" lon="11.173199">
<time>2020-11-25T08:57:22Z</time>
</trkpt>
<trkpt lat="46.042048" lon="11.173216">
<time>2020-11-25T08:57:23Z</time>
</trkpt>
<trkpt lat="46.04205" lon="11.173232">
<time>2020-11-25T08:57:24Z</time>
</trkpt>
<trkpt lat="46.042053" lon="11.173248">
<time>2020-11-25T08:57:25Z</time>
</trkpt>
<trkpt lat="46.042059" lon="11.173262">
<time>2020-11-25T08:57:26Z</time>
</trkpt>
<trkpt lat="46.042065" lon="11.173273">
<time>2020-11-25T08:57:27Z</time>
</trkpt>
<trkpt lat="46.042064" lon="11.173281">
<time>2020-11-25T08:57:28Z</time>
</trkpt>
<trkpt lat="46.042068" lon="11.173294">
<time>2020-11-25T08:57:29Z</time>
</trkpt>
<trkpt lat="46.042073" lon="11.173308">
<time>2020-11-25T08:57:30Z</time>
</trkpt>
<trkpt lat="46.04209" lon="11.173326">
<time>2020-11-25T08:57:31Z</time>
</trkpt>
<trkpt lat="46.042108" lon="11.173345">
<time>2020-11-25T08:57:32Z</time>
</trkpt>
<trkpt lat="46.042143" lon="11.173369">
<time>2020-11-25T08:57:33Z</time>
</trkpt>
<trkpt lat="46.042165" lon="11.173386">
<time>2020-11-25T08:57:34Z</time>
</trkpt>
<trkpt lat="46.042184" lon="11.173405">
<time>2020-11-25T08:57:35Z</time>
</trkpt>
<trkpt lat="46.042195" lon="11.173421">
<time>2020-11-25T08:57:36Z</time>
</trkpt>
<trkpt lat="46.042205" lon="11.173436">
<time>2020-11-25T08:57:37Z</time>
</trkpt>
<trkpt lat="46.04222" lon="11.173445">
<time>2020-11-25T08:57:38Z</time>
</trkpt>
<trkpt lat="46.042234" lon="11.17345">
<time>2020-11-25T08:57:39Z</time>
</trkpt>
<trkpt lat="46.042249" lon="11.173454">
<time>2020-11-25T08:57:40Z</time>
</trkpt>
<trkpt lat="46.042269" lon="11.17346">
<time>2020-11-25T08:57:41Z</time>
</trkpt>
<trkpt lat="46.042291" lon="11.173468">
<time>2020-11-25T08:57:42Z</time>
</trkpt>
<trkpt lat="46.04231" lon="11.173472">
<time>2020-11-25T08:57:43Z</time>
</trkpt>
<trkpt lat="46.042332" lon="11.173475">
<time>2020-11-25T08:57:44Z</time>
</trkpt>
<trkpt lat="46.042357" lon="11.173478">
<time>2020-11-25T08:57:45Z</time>
</trkpt>
<trkpt lat="46.042379" lon="11.17348">
<time>2020-11-25T08:57:46Z</time>
</trkpt>
<trkpt lat="46.042397" lon="11.173483">
<time>2020-11-25T08:57:47Z</time>
</trkpt>
<trkpt lat="46.04242" lon="11.173486">
<time>2020-11-25T08:57:48Z</time>
</trkpt>
<trkpt lat="46.042442" lon="11.173487">
<time>2020-11-25T08:57:49Z</time>
</trkpt>
<trkpt lat="46.042463" lon="11.17349">
<time>2020-11-25T08:57:50Z</time>
</trkpt>
<trkpt lat="46.042482" lon="11.17349">
<time>2020-11-25T08:57:51Z</time>
</trkpt>
<trkpt lat="46.042505" lon="11.173496">
<time>2020-11-25T08:57:52Z</time>
</trkpt>
<trkpt lat="46.042526" lon="11.173503">
<time>2020-11-25T08:57:53Z</time>
</trkpt>
<trkpt lat="46.042544" lon="11.173508">
<time>2020-11-25T08:57:54Z</time>
</trkpt>
<trkpt lat="46.042565" lon="11.173508">
<time>2020-11-25T08:57:55Z</time>
</trkpt>
<trkpt lat="46.042582" lon="11.17351">
<time>2020-11-25T08:57:56Z</time>
</trkpt>
<trkpt lat="46.0426" lon="11.173507">
<time>2020-11-25T08:57:57Z</time>
</trkpt>
<trkpt lat="46.042622" lon="11.173511">
<time>2020-11-25T08:57:58Z</time>
</trkpt>
<trkpt lat="46.042647" lon="11.173518">
<time>2020-11-25T08:57:59Z</time>
</trkpt>
<trkpt lat="46.042665" lon="11.173525">
<time>2020-11-25T08:58:00Z</time>
</trkpt>
<trkpt lat="46.042682" lon="11.173532">
<time>2020-11-25T08:58:01Z</time>
</trkpt>
<trkpt lat="46.042701" lon="11.173543">
<time>2020-11-25T08:58:02Z</time>
</trkpt>
<trkpt lat="46.042723" lon="11.173558">
<time>2020-11-25T08:58:03Z</time>
</trkpt>
<trkpt lat="46.042742" lon="11.173571">
<time>2020-11-25T08:58:04Z</time>
</trkpt>
<trkpt lat="46.042762" lon="11.173585">
<time>2020-11-25T08:58:05Z</time>
</trkpt>
<trkpt lat="46.042786" lon="11.173599">
<time>2020-11-25T08:58:06Z</time>
</trkpt>
<trkpt lat="46.042805" lon="11.173614">
<time>2020-11-25T08:58:07Z</time>
</trkpt>
<trkpt lat="46.042825" lon="11.173626">
<time>2020-11-25T08:58:08Z</time>
</trkpt>
<trkpt lat="46.042844" lon="11.173638">
<time>2020-11-25T08:58:09Z</time>
</trkpt>
<trkpt lat="46.04287" lon="11.173648">
<time>2020-11-25T08:58:10Z</time>
</trkpt>
<trkpt lat="46.04289" lon="11.173658">
<time>2020-11-25T08:58:11Z</time>
</trkpt>
<trkpt lat="46.042919" lon="11.17367">
<time>2020-11-25T08:58:12Z</time>
</trkpt>
<trkpt lat="46.042939" lon="11.173684">
<time>2020-11-25T08:58:13Z</time>
</trkpt>
<trkpt lat="46.042959" lon="11.173699">
<time>2020-11-25T08:58:14Z</time>
</trkpt>
<trkpt lat="46.042981" lon="11.173712">
<time>2020-11-25T08:58:15Z</time>
</trkpt>
<trkpt lat="46.043003" lon="11.173726">
<time>2020-11-25T08:58:16Z</time>
</trkpt>
<trkpt lat="46.043018" lon="11.17374">
<time>2020-11-25T08:58:17Z</time>
</trkpt>
<trkpt lat="46.043036" lon="11.173753">
<time>2020-11-25T08:58:18Z</time>
</trkpt>
<trkpt lat="46.043057" lon="11.173767">
<time>2020-11-25T08:58:19Z</time>
</trkpt>
<trkpt lat="46.043078" lon="11.173777">
<time>2020-11-25T08:58:20Z</time>
</trkpt>
<trkpt lat="46.043095" lon="11.173793">
<time>2020-11-25T08:58:21Z</time>
</trkpt>
<trkpt lat="46.043116" lon="11.173807">
<time>2020-11-25T08:58:22Z</time>
</trkpt>
<trkpt lat="46.043136" lon="11.173819">
<time>2020-11-25T08:58:23Z</time>
</trkpt>
<trkpt lat="46.043153" lon="11.17383">
<time>2020-11-25T08:58:24Z</time>
</trkpt>
<trkpt lat="46.043167" lon="11.17384">
<time>2020-11-25T08:58:25Z</time>
</trkpt>
<trkpt lat="46.043183" lon="11.173853">
<time>2020-11-25T08:58:26Z</time>
</trkpt>
<trkpt lat="46.043199" lon="11.173864">
<time>2020-11-25T08:58:27Z</time>
</trkpt>
<trkpt lat="46.043216" lon="11.173879">
<time>2020-11-25T08:58:28Z</time>
</trkpt>
<trkpt lat="46.043234" lon="11.1739">
<time>2020-11-25T08:58:29Z</time>
</trkpt>
<trkpt lat="46.043251" lon="11.173921">
<time>2020-11-25T08:58:30Z</time>
</trkpt>
<trkpt lat="46.04326" lon="11.17394">
<time>2020-11-25T08:58:31Z</time>
</trkpt>
<trkpt lat="46.043275" lon="11.17397">
<time>2020-11-25T08:58:32Z</time>
</trkpt>
<trkpt lat="46.043295" lon="11.173997">
<time>2020-11-25T08:58:33Z</time>
</trkpt>
<trkpt lat="46.04331" lon="11.174026">
<time>2020-11-25T08:58:34Z</time>
</trkpt>
<trkpt lat="46.043326" lon="11.17405">
<time>2020-11-25T08:58:35Z</time>
</trkpt>
<trkpt lat="46.04334" lon="11.174089">
<time>2020-11-25T08:58:36Z</time>
</trkpt>
<trkpt lat="46.043354" lon="11.174114">
<time>2020-11-25T08:58:37Z</time>
</trkpt>
<trkpt lat="46.043366" lon="11.174141">
<time>2020-11-25T08:58:38Z</time>
</trkpt>
<trkpt lat="46.043382" lon="11.17417">
<time>2020-11-25T08:58:39Z</time>
</trkpt>
<trkpt lat="46.043398" lon="11.174197">
<time>2020-11-25T08:58:40Z</time>
</trkpt>
<trkpt lat="46.043413" lon="11.174227">
<time>2020-11-25T08:58:41Z</time>
</trkpt>
<trkpt lat="46.043427" lon="11.174261">
<time>2020-11-25T08:58:42Z</time>
</trkpt>
<trkpt lat="46.043434" lon="11.174291">
<time>2020-11-25T08:58:43Z</time>
</trkpt>
<trkpt lat="46.043444" lon="11.174322">
<time>2020-11-25T08:58:44Z</time>
</trkpt>
<trkpt lat="46.043465" lon="11.174357">
<time>2020-11-25T08:58:45Z</time>
</trkpt>
<trkpt lat="46.043477" lon="11.174391">
<time>2020-11-25T08:58:46Z</time>
</trkpt>
<trkpt lat="46.043486" lon="11.174413">
<time>2020-11-25T08:58:47Z</time>
</trkpt>
<trkpt lat="46.043494" lon="11.174431">
<time>2020-11-25T08:58:48Z</time>
</trkpt>
<trkpt lat="46.043502" lon="11.174452">
<time>2020-11-25T08:58:49Z</time>
</trkpt>
<trkpt lat="46.04351" lon="11.174474">
<time>2020-11-25T08:58:50Z</time>
</trkpt>
<trkpt lat="46.043522" lon="11.174502">
<time>2020-11-25T08:58:51Z</time>
</trkpt>
<trkpt lat="46.043535" lon="11.174525">
<time>2020-11-25T08:58:52Z</time>
</trkpt>
<trkpt lat="46.043544" lon="11.174548">
<time>2020-11-25T08:58:53Z</time>
</trkpt>
<trkpt lat="46.043542" lon="11.174571">
<time>2020-11-25T08:58:54Z</time>
</trkpt>
<trkpt lat="46.043538" lon="11.1746">
<time>2020-11-25T08:58:55Z</time>
</trkpt>
<trkpt lat="46.04354" lon="11.174625">
<time>2020-11-25T08:58:56Z</time>
</trkpt>
<trkpt lat="46.043532" lon="11.174658">
<time>2020-11-25T08:58:57Z</time>
</trkpt>
<trkpt lat="46.043526" lon="11.174682">
<time>2020-11-25T08:58:58Z</time>
</trkpt>
<trkpt lat="46.043525" lon="11.174704">
<time>2020-11-25T08:58:59Z</time>
</trkpt>
<trkpt lat="46.043524" lon="11.174724">
<time>2020-11-25T08:59:00Z</time>
</trkpt>
<trkpt lat="46.043525" lon="11.174744">
<time>2020-11-25T08:59:01Z</time>
</trkpt>
<trkpt lat="46.043523" lon="11.174768">
<time>2020-11-25T08:59:02Z</time>
</trkpt>
<trkpt lat="46.043525" lon="11.174789">
<time>2020-11-25T08:59:03Z</time>
</trkpt>
<trkpt lat="46.043528" lon="11.174808">
<time>2020-11-25T08:59:04Z</time>
</trkpt>
<trkpt lat="46.04353" lon="11.174823">
<time>2020-11-25T08:59:05Z</time>
</trkpt>
<trkpt lat="46.043526" lon="11.174838">
<time>2020-11-25T08:59:06Z</time>
</trkpt>
<trkpt lat="46.043542" lon="11.17486">
<time>2020-11-25T08:59:07Z</time>
</trkpt>
<trkpt lat="46.043535" lon="11.174879">
<time>2020-11-25T08:59:08Z</time>
</trkpt>
<trkpt lat="46.043537" lon="11.174894">
<time>2020-11-25T08:59:09Z</time>
</trkpt>
<trkpt lat="46.043537" lon="11.174906">
<time>2020-11-25T08:59:10Z</time>
</trkpt>
<trkpt lat="46.043529" lon="11.174922">
<time>2020-11-25T08:59:11Z</time>
</trkpt>
<trkpt lat="46.043531" lon="11.174937">
<time>2020-11-25T08:59:12Z</time>
</trkpt>
<trkpt lat="46.043537" lon="11.174952">
<time>2020-11-25T08:59:13Z</time>
</trkpt>
<trkpt lat="46.043543" lon="11.174962">
<time>2020-11-25T08:59:14Z</time>
</trkpt>
<trkpt lat="46.04355" lon="11.174973">
<time>2020-11-25T08:59:15Z</time>
</trkpt>
<trkpt lat="46.043562" lon="11.175">
<time>2020-11-25T08:59:16Z</time>
</trkpt>
<trkpt lat="46.043568" lon="11.175026">
<time>2020-11-25T08:59:17Z</time>
</trkpt>
<trkpt lat="46.043575" lon="11.175052">
<time>2020-11-25T08:59:18Z</time>
</trkpt>
<trkpt lat="46.043578" lon="11.175075">
<time>2020-11-25T08:59:19Z</time>
</trkpt>
<trkpt lat="46.043576" lon="11.175092">
<time>2020-11-25T08:59:20Z</time>
</trkpt>
<trkpt lat="46.043571" lon="11.175106">
<time>2020-11-25T08:59:21Z</time>
</trkpt>
<trkpt lat="46.043567" lon="11.175117">
<time>2020-11-25T08:59:22Z</time>
</trkpt>
<trkpt lat="46.043573" lon="11.175129">
<time>2020-11-25T08:59:23Z</time>
</trkpt>
<trkpt lat="46.04357" lon="11.17514">
<time>2020-11-25T08:59:24Z</time>
</trkpt>
<trkpt lat="46.043568" lon="11.175148">
<time>2020-11-25T08:59:25Z</time>
</trkpt>
<trkpt lat="46.043567" lon="11.175156">
<time>2020-11-25T08:59:26Z</time>
</trkpt>
<trkpt lat="46.043569" lon="11.175166">
<time>2020-11-25T08:59:27Z</time>
</trkpt>
<trkpt lat="46.043572" lon="11.175177">
<time>2020-11-25T08:59:28Z</time>
</trkpt>
<trkpt lat="46.043575" lon="11.175186">
<time>2020-11-25T08:59:29Z</time>
</trkpt>
<trkpt lat="46.043575" lon="11.175197">
<time>2020-11-25T08:59:30Z</time>
</trkpt>
<trkpt lat="46.04358" lon="11.175208">
<time>2020-11-25T08:59:31Z</time>
</trkpt>
<trkpt lat="46.043586" lon="11.175225">
<time>2020-11-25T08:59:32Z</time>
</trkpt>
<trkpt lat="46.043591" lon="11.175239">
<time>2020-11-25T08:59:33Z</time>
</trkpt>
<trkpt lat="46.043601" lon="11.175251">
<time>2020-11-25T08:59:34Z</time>
</trkpt>
<trkpt lat="46.043614" lon="11.175267">
<time>2020-11-25T08:59:35Z</time>
</trkpt>
<trkpt lat="46.043628" lon="11.17528">
<time>2020-11-25T08:59:36Z</time>
</trkpt>
<trkpt lat="46.043633" lon="11.175292">
<time>2020-11-25T08:59:37Z</time>
</trkpt>
<trkpt lat="46.043634" lon="11.175306">
<time>2020-11-25T08:59:38Z</time>
</trkpt>
<trkpt lat="46.043633" lon="11.175316">
<time>2020-11-25T08:59:39Z</time>
</trkpt>
<trkpt lat="46.043636" lon="11.175323">
<time>2020-11-25T08:59:40Z</time>
</trkpt>
<trkpt lat="46.043634" lon="11.175329">
<time>2020-11-25T08:59:41Z</time>
</trkpt>
<trkpt lat="46.043634" lon="11.175333">
<time>2020-11-25T08:59:42Z</time>
</trkpt>
<trkpt lat="46.043637" lon="11.175344">
<time>2020-11-25T08:59:43Z</time>
</trkpt>
<trkpt lat="46.043636" lon="11.175351">
<time>2020-11-25T08:59:44Z</time>
</trkpt>
<trkpt lat="46.043635" lon="11.175364">
<time>2020-11-25T08:59:45Z</time>
</trkpt>
<trkpt lat="46.043634" lon="11.175377">
<time>2020-11-25T08:59:46Z</time>
</trkpt>
<trkpt lat="46.043631" lon="11.175384">
<time>2020-11-25T08:59:47Z</time>
</trkpt>
<trkpt lat="46.04363" lon="11.175395">
<time>2020-11-25T08:59:48Z</time>
</trkpt>
<trkpt lat="46.043628" lon="11.175408">
<time>2020-11-25T08:59:49Z</time>
</trkpt>
<trkpt lat="46.043628" lon="11.175418">
<time>2020-11-25T08:59:50Z</time>
</trkpt>
<trkpt lat="46.043628" lon="11.175427">
<time>2020-11-25T08:59:51Z</time>
</trkpt>
<trkpt lat="46.043634" lon="11.175433">
<time>2020-11-25T08:59:52Z</time>
</trkpt>
<trkpt lat="46.043635" lon="11.175441">
<time>2020-11-25T08:59:53Z</time>
</trkpt>
<trkpt lat="46.043637" lon="11.175455">
<time>2020-11-25T08:59:54Z</time>
</trkpt>
<trkpt lat="46.043634" lon="11.175466">
<time>2020-11-25T08:59:55Z</time>
</trkpt>
<trkpt lat="46.043633" lon="11.175476">
<time>2020-11-25T08:59:56Z</time>
</trkpt>
<trkpt lat="46.043632" lon="11.175478">
<time>2020-11-25T08:59:57Z</time>
</trkpt>
<trkpt lat="46.043631" lon="11.175486">
<time>2020-11-25T08:59:58Z</time>
</trkpt>
<trkpt lat="46.04363" lon="11.175494">
<time>2020-11-25T08:59:59Z</time>
</trkpt>
<trkpt lat="46.04364" lon="11.175504">
<time>2020-11-25T09:00:00Z</time>
</trkpt>
<trkpt lat="46.04365" lon="11.175517">
<time>2020-11-25T09:00:01Z</time>
</trkpt>
<trkpt lat="46.043654" lon="11.175528">
<time>2020-11-25T09:00:02Z</time>
</trkpt>
<trkpt lat="46.04366" lon="11.175535">
<time>2020-11-25T09:00:03Z</time>
</trkpt>
<trkpt lat="46.043666" lon="11.175541">
<time>2020-11-25T09:00:04Z</time>
</trkpt>
<trkpt lat="46.043672" lon="11.175548">
<time>2020-11-25T09:00:05Z</time>
</trkpt>
<trkpt lat="46.043676" lon="11.175553">
<time>2020-11-25T09:00:06Z</time>
</trkpt>
<trkpt lat="46.043683" lon="11.175559">
<time>2020-11-25T09:00:07Z</time>
</trkpt>
<trkpt lat="46.043687" lon="11.175562">
<time>2020-11-25T09:00:08Z</time>
</trkpt>
<trkpt lat="46.043695" lon="11.175568">
<time>2020-11-25T09:00:09Z</time>
</trkpt>
<trkpt lat="46.043695" lon="11.175569">
<time>2020-11-25T09:00:10Z</time>
</trkpt>
<trkpt lat="46.043699" lon="11.17557">
<time>2020-11-25T09:00:11Z</time>
</trkpt>
<trkpt lat="46.043699" lon="11.175572">
<time>2020-11-25T09:00:12Z</time>
</trkpt>
<trkpt lat="46.0437" lon="11.175575">
<time>2020-11-25T09:00:13Z</time>
</trkpt>
<trkpt lat="46.043704" lon="11.175575">
<time>2020-11-25T09:00:14Z</time>
</trkpt>
<trkpt lat="46.043708" lon="11.175575">
<time>2020-11-25T09:00:15Z</time>
</trkpt>
<trkpt lat="46.043706" lon="11.175576">
<time>2020-11-25T09:00:16Z</time>
</trkpt>
<trkpt lat="46.043708" lon="11.175575">
<time>2020-11-25T09:00:17Z</time>
</trkpt>
<trkpt lat="46.043708" lon="11.175579">
<time>2020-11-25T09:00:18Z</time>
</trkpt>
<trkpt lat="46.043708" lon="11.175577">
<time>2020-11-25T09:00:19Z</time>
</trkpt>
<trkpt lat="46.043708" lon="11.175578">
<time>2020-11-25T09:00:20Z</time>
</trkpt>
<trkpt lat="46.04371" lon="11.17558">
<time>2020-11-25T09:00:21Z</time>
</trkpt>
<trkpt lat="46.043709" lon="11.175584">
<time>2020-11-25T09:00:22Z</time>
</trkpt>
<trkpt lat="46.043702" lon="11.175589">
<time>2020-11-25T09:00:23Z</time>
</trkpt>
<trkpt lat="46.043697" lon="11.175591">
<time>2020-11-25T09:00:24Z</time>
</trkpt>
<trkpt lat="46.043697" lon="11.175598">
<time>2020-11-25T09:00:25Z</time>
</trkpt>
<trkpt lat="46.043697" lon="11.1756">
<time>2020-11-25T09:00:26Z</time>
</trkpt>
<trkpt lat="46.043689" lon="11.175604">
<time>2020-11-25T09:00:27Z</time>
</trkpt>
<trkpt lat="46.043689" lon="11.17561">
<time>2020-11-25T09:00:28Z</time>
</trkpt>
<trkpt lat="46.043691" lon="11.175612">
<time>2020-11-25T09:00:29Z</time>
</trkpt>
<trkpt lat="46.043694" lon="11.175614">
<time>2020-11-25T09:00:30Z</time>
</trkpt>
<trkpt lat="46.043695" lon="11.175618">
<time>2020-11-25T09:00:31Z</time>
</trkpt>
<trkpt lat="46.043698" lon="11.175617">
<time>2020-11-25T09:00:32Z</time>
</trkpt>
<trkpt lat="46.0437" lon="11.17562">
<time>2020-11-25T09:00:33Z</time>
</trkpt>
<trkpt lat="46.043699" lon="11.175621">
<time>2020-11-25T09:00:34Z</time>
</trkpt>
<trkpt lat="46.043692" lon="11.175623">
<time>2020-11-25T09:00:35Z</time>
</trkpt>
<trkpt lat="46.043665" lon="11.175636">
<time>2020-11-25T09:00:36Z</time>
</trkpt>
<trkpt lat="46.043667" lon="11.175636">
<time>2020-11-25T09:00:37Z</time>
</trkpt>
<trkpt lat="46.043674" lon="11.175632">
<time>2020-11-25T09:00:38Z</time>
</trkpt>
<trkpt lat="46.043677" lon="11.175629">
<time>2020-11-25T09:00:39Z</time>
</trkpt>
<trkpt lat="46.043683" lon="11.175629">
<time>2020-11-25T09:00:40Z</time>
</trkpt>
<trkpt lat="46.04369" lon="11.175629">
<time>2020-11-25T09:00:41Z</time>
</trkpt>
<trkpt lat="46.043694" lon="11.175637">
<time>2020-11-25T09:00:42Z</time>
</trkpt>
<trkpt lat="46.043699" lon="11.175638">
<time>2020-11-25T09:00:43Z</time>
</trkpt>
<trkpt lat="46.043701" lon="11.175637">
<time>2020-11-25T09:00:44Z</time>
</trkpt>
<trkpt lat="46.043708" lon="11.175638">
<time>2020-11-25T09:00:45Z</time>
</trkpt>
<trkpt lat="46.043719" lon="11.17565">
<time>2020-11-25T09:00:46Z</time>
</trkpt>
<trkpt lat="46.043725" lon="11.17566">
<time>2020-11-25T09:00:47Z</time>
</trkpt>
<trkpt lat="46.04373" lon="11.175672">
<time>2020-11-25T09:00:48Z</time>
</trkpt>
<trkpt lat="46.043735" lon="11.175684">
<time>2020-11-25T09:00:49Z</time>
</trkpt>
<trkpt lat="46.043741" lon="11.175697">
<time>2020-11-25T09:00:50Z</time>
</trkpt>
<trkpt lat="46.043743" lon="11.175708">
<time>2020-11-25T09:00:51Z</time>
</trkpt>
<trkpt lat="46.043743" lon="11.17574">
<time>2020-11-25T09:00:52Z</time>
</trkpt>
<trkpt lat="46.043741" lon="11.175768">
<time>2020-11-25T09:00:53Z</time>
</trkpt>
<trkpt lat="46.043741" lon="11.17579">
<time>2020-11-25T09:00:54Z</time>
</trkpt>
<trkpt lat="46.043741" lon="11.175803">
<time>2020-11-25T09:00:55Z</time>
</trkpt>
<trkpt lat="46.043746" lon="11.175811">
<time>2020-11-25T09:00:56Z</time>
</trkpt>
<trkpt lat="46.043749" lon="11.175824">
<time>2020-11-25T09:00:57Z</time>
</trkpt>
<trkpt lat="46.043761" lon="11.175832">
<time>2020-11-25T09:00:58Z</time>
</trkpt>
<trkpt lat="46.043772" lon="11.175829">
<time>2020-11-25T09:00:59Z</time>
</trkpt>
<trkpt lat="46.043784" lon="11.175828">
<time>2020-11-25T09:01:00Z</time>
</trkpt>
<trkpt lat="46.043788" lon="11.175834">
<time>2020-11-25T09:01:01Z</time>
</trkpt>
<trkpt lat="46.043798" lon="11.175842">
<time>2020-11-25T09:01:02Z</time>
</trkpt>
<trkpt lat="46.043804" lon="11.175853">
<time>2020-11-25T09:01:03Z</time>
</trkpt>
<trkpt lat="46.04381" lon="11.17586">
<time>2020-11-25T09:01:04Z</time>
</trkpt>
<trkpt lat="46.043814" lon="11.175863">
<time>2020-11-25T09:01:05Z</time>
</trkpt>
<trkpt lat="46.043817" lon="11.175863">
<time>2020-11-25T09:01:06Z</time>
</trkpt>
<trkpt lat="46.043817" lon="11.175862">
<time>2020-11-25T09:01:07Z</time>
</trkpt>
<trkpt lat="46.043819" lon="11.175864">
<time>2020-11-25T09:01:08Z</time>
</trkpt>
<trkpt lat="46.043823" lon="11.175866">
<time>2020-11-25T09:01:09Z</time>
</trkpt>
<trkpt lat="46.043829" lon="11.175866">
<time>2020-11-25T09:01:10Z</time>
</trkpt>
<trkpt lat="46.043836" lon="11.175868">
<time>2020-11-25T09:01:11Z</time>
</trkpt>
<trkpt lat="46.043842" lon="11.17587">
<time>2020-11-25T09:01:12Z</time>
</trkpt>
<trkpt lat="46.043846" lon="11.175872">
<time>2020-11-25T09:01:13Z</time>
</trkpt>
<trkpt lat="46.043849" lon="11.175876">
<time>2020-11-25T09:01:14Z</time>
</trkpt>
<trkpt lat="46.043847" lon="11.175882">
<time>2020-11-25T09:01:15Z</time>
</trkpt>
<trkpt lat="46.043845" lon="11.175884">
<time>2020-11-25T09:01:16Z</time>
</trkpt>
<trkpt lat="46.043843" lon="11.175886">
<time>2020-11-25T09:01:17Z</time>
</trkpt>
<trkpt lat="46.043845" lon="11.175893">
<time>2020-11-25T09:01:18Z</time>
</trkpt>
<trkpt lat="46.043846" lon="11.175897">
<time>2020-11-25T09:01:19Z</time>
</trkpt>
<trkpt lat="46.043844" lon="11.175898">
<time>2020-11-25T09:01:20Z</time>
</trkpt>
<trkpt lat="46.043848" lon="11.1759">
<time>2020-11-25T09:01:21Z</time>
</trkpt>
<trkpt lat="46.043853" lon="11.175899">
<time>2020-11-25T09:01:22Z</time>
</trkpt>
<trkpt lat="46.043856" lon="11.1759">
<time>2020-11-25T09:01:23Z</time>
</trkpt>
<trkpt lat="46.04386" lon="11.175907">
<time>2020-11-25T09:01:24Z</time>
</trkpt>
<trkpt lat="46.043861" lon="11.17591">
<time>2020-11-25T09:01:25Z</time>
</trkpt>
<trkpt lat="46.043862" lon="11.175913">
<time>2020-11-25T09:01:26Z</time>
</trkpt>
<trkpt lat="46.043864" lon="11.175917">
<time>2020-11-25T09:01:27Z</time>
</trkpt>
<trkpt lat="46.043871" lon="11.175924">
<time>2020-11-25T09:01:28Z</time>
</trkpt>
<trkpt lat="46.043879" lon="11.175928">
<time>2020-11-25T09:01:29Z</time>
</trkpt>
<trkpt lat="46.043887" lon="11.175931">
<time>2020-11-25T09:01:30Z</time>
</trkpt>
<trkpt lat="46.043893" lon="11.175931">
<time>2020-11-25T09:01:31Z</time>
</trkpt>
<trkpt lat="46.043904" lon="11.175928">
<time>2020-11-25T09:01:32Z</time>
</trkpt>
<trkpt lat="46.043914" lon="11.175931">
<time>2020-11-25T09:01:33Z</time>
</trkpt>
<trkpt lat="46.043924" lon="11.175932">
<time>2020-11-25T09:01:34Z</time>
</trkpt>
<trkpt lat="46.04393" lon="11.175932">
<time>2020-11-25T09:01:35Z</time>
</trkpt>
<trkpt lat="46.043937" lon="11.175936">
<time>2020-11-25T09:01:36Z</time>
</trkpt>
<trkpt lat="46.043942" lon="11.175937">
<time>2020-11-25T09:01:37Z</time>
</trkpt>
<trkpt lat="46.043948" lon="11.175926">
<time>2020-11-25T09:01:38Z</time>
</trkpt>
<trkpt lat="46.043956" lon="11.175921">
<time>2020-11-25T09:01:39Z</time>
</trkpt>
<trkpt lat="46.043964" lon="11.175923">
<time>2020-11-25T09:01:40Z</time>
</trkpt>
<trkpt lat="46.043975" lon="11.175927">
<time>2020-11-25T09:01:41Z</time>
</trkpt>
<trkpt lat="46.04398" lon="11.17593">
<time>2020-11-25T09:01:42Z</time>
</trkpt>
<trkpt lat="46.043983" lon="11.175942">
<time>2020-11-25T09:01:43Z</time>
</trkpt>
<trkpt lat="46.043984" lon="11.17597">
<time>2020-11-25T09:01:44Z</time>
</trkpt>
<trkpt lat="46.04399" lon="11.175996">
<time>2020-11-25T09:01:45Z</time>
</trkpt>
<trkpt lat="46.043992" lon="11.176016">
<time>2020-11-25T09:01:46Z</time>
</trkpt>
<trkpt lat="46.043999" lon="11.17603">
<time>2020-11-25T09:01:47Z</time>
</trkpt>
<trkpt lat="46.044007" lon="11.176042">
<time>2020-11-25T09:01:48Z</time>
</trkpt>
<trkpt lat="46.04401" lon="11.176054">
<time>2020-11-25T09:01:49Z</time>
</trkpt>
<trkpt lat="46.044013" lon="11.176067">
<time>2020-11-25T09:01:50Z</time>
</trkpt>
<trkpt lat="46.044017" lon="11.176074">
<time>2020-11-25T09:01:51Z</time>
</trkpt>
<trkpt lat="46.044023" lon="11.176077">
<time>2020-11-25T09:01:52Z</time>
</trkpt>
<trkpt lat="46.044027" lon="11.17608">
<time>2020-11-25T09:01:53Z</time>
</trkpt>
<trkpt lat="46.044027" lon="11.17609">
<time>2020-11-25T09:01:54Z</time>
</trkpt>
<trkpt lat="46.044032" lon="11.176102">
<time>2020-11-25T09:01:55Z</time>
</trkpt>
<trkpt lat="46.044039" lon="11.176113">
<time>2020-11-25T09:01:56Z</time>
</trkpt>
<trkpt lat="46.044043" lon="11.176122">
<time>2020-11-25T09:01:57Z</time>
</trkpt>
<trkpt lat="46.044047" lon="11.17613">
<time>2020-11-25T09:01:58Z</time>
</trkpt>
<trkpt lat="46.044052" lon="11.176142">
<time>2020-11-25T09:01:59Z</time>
</trkpt>
<trkpt lat="46.044057" lon="11.17615">
<time>2020-11-25T09:02:00Z</time>
</trkpt>
<trkpt lat="46.044061" lon="11.176155">
<time>2020-11-25T09:02:01Z</time>
</trkpt>
<trkpt lat="46.044065" lon="11.176158">
<time>2020-11-25T09:02:02Z</time>
</trkpt>
<trkpt lat="46.04407" lon="11.176165">
<time>2020-11-25T09:02:03Z</time>
</trkpt>
<trkpt lat="46.044073" lon="11.17617">
<time>2020-11-25T09:02:04Z</time>
</trkpt>
<trkpt lat="46.044075" lon="11.176172">
<time>2020-11-25T09:02:05Z</time>
</trkpt>
<trkpt lat="46.044079" lon="11.176173">
<time>2020-11-25T09:02:06Z</time>
</trkpt>
<trkpt lat="46.04408" lon="11.176177">
<time>2020-11-25T09:02:07Z</time>
</trkpt>
<trkpt lat="46.04408" lon="11.176182">
<time>2020-11-25T09:02:08Z</time>
</trkpt>
<trkpt lat="46.044081" lon="11.176189">
<time>2020-11-25T09:02:09Z</time>
</trkpt>
<trkpt lat="46.044084" lon="11.176195">
<time>2020-11-25T09:02:10Z</time>
</trkpt>
<trkpt lat="46.04409" lon="11.176203">
<time>2020-11-25T09:02:11Z</time>
</trkpt>
<trkpt lat="46.044095" lon="11.176207">
<time>2020-11-25T09:02:12Z</time>
</trkpt>
<trkpt lat="46.044097" lon="11.176208">
<time>2020-11-25T09:02:13Z</time>
</trkpt>
<trkpt lat="46.044094" lon="11.176211">
<time>2020-11-25T09:02:14Z</time>
</trkpt>
<trkpt lat="46.044095" lon="11.176215">
<time>2020-11-25T09:02:15Z</time>
</trkpt>
<trkpt lat="46.044101" lon="11.176216">
<time>2020-11-25T09:02:16Z</time>
</trkpt>
<trkpt lat="46.044105" lon="11.176218">
<time>2020-11-25T09:02:17Z</time>
</trkpt>
<trkpt lat="46.044103" lon="11.176224">
<time>2020-11-25T09:02:18Z</time>
</trkpt>
<trkpt lat="46.044104" lon="11.176231">
<time>2020-11-25T09:02:19Z</time>
</trkpt>
<trkpt lat="46.044102" lon="11.176239">
<time>2020-11-25T09:02:20Z</time>
</trkpt>
<trkpt lat="46.044112" lon="11.176246">
<time>2020-11-25T09:02:21Z</time>
</trkpt>
<trkpt lat="46.044125" lon="11.176249">
<time>2020-11-25T09:02:22Z</time>
</trkpt>
<trkpt lat="46.04413" lon="11.176252">
<time>2020-11-25T09:02:23Z</time>
</trkpt>
<trkpt lat="46.044138" lon="11.176255">
<time>2020-11-25T09:02:24Z</time>
</trkpt>
<trkpt lat="46.044144" lon="11.176252">
<time>2020-11-25T09:02:25Z</time>
</trkpt>
<trkpt lat="46.044148" lon="11.176247">
<time>2020-11-25T09:02:26Z</time>
</trkpt>
<trkpt lat="46.044151" lon="11.176249">
<time>2020-11-25T09:02:27Z</time>
</trkpt>
<trkpt lat="46.044153" lon="11.176249">
<time>2020-11-25T09:02:28Z</time>
</trkpt>
<trkpt lat="46.044154" lon="11.176248">
<time>2020-11-25T09:02:29Z</time>
</trkpt>
<trkpt lat="46.044158" lon="11.176247">
<time>2020-11-25T09:02:30Z</time>
</trkpt>
<trkpt lat="46.044161" lon="11.176247">
<time>2020-11-25T09:02:31Z</time>
</trkpt>
<trkpt lat="46.044165" lon="11.176246">
<time>2020-11-25T09:02:32Z</time>
</trkpt>
<trkpt lat="46.044172" lon="11.176247">
<time>2020-11-25T09:02:33Z</time>
</trkpt>
<trkpt lat="46.044182" lon="11.176246">
<time>2020-11-25T09:02:34Z</time>
</trkpt>
<trkpt lat="46.044193" lon="11.176245">
<time>2020-11-25T09:02:35Z</time>
</trkpt>
<trkpt lat="46.0442" lon="11.176246">
<time>2020-11-25T09:02:36Z</time>
</trkpt>
<trkpt lat="46.044194" lon="11.176248">
<time>2020-11-25T09:02:37Z</time>
</trkpt>
<trkpt lat="46.044196" lon="11.176249">
<time>2020-11-25T09:02:38Z</time>
</trkpt>
<trkpt lat="46.044198" lon="11.17625">
<time>2020-11-25T09:02:39Z</time>
</trkpt>
<trkpt lat="46.0442" lon="11.176257">
<time>2020-11-25T09:02:40Z</time>
</trkpt>
<trkpt lat="46.044201" lon="11.176264">
<time>2020-11-25T09:02:41Z</time>
</trkpt>
<trkpt lat="46.044204" lon="11.176275">
<time>2020-11-25T09:02:42Z</time>
</trkpt>
<trkpt lat="46.044206" lon="11.176282">
<time>2020-11-25T09:02:43Z</time>
</trkpt>
<trkpt lat="46.04421" lon="11.176286">
<time>2020-11-25T09:02:44Z</time>
</trkpt>
<trkpt lat="46.044211" lon="11.176289">
<time>2020-11-25T09:02:45Z</time>
</trkpt>
<trkpt lat="46.044211" lon="11.17629">
<time>2020-11-25T09:02:46Z</time>
</trkpt>
<trkpt lat="46.04421" lon="11.176292">
<time>2020-11-25T09:02:47Z</time>
</trkpt>
<trkpt lat="46.04421" lon="11.176295">
<time>2020-11-25T09:02:48Z</time>
</trkpt>
<trkpt lat="46.044212" lon="11.176299">
<time>2020-11-25T09:02:49Z</time>
</trkpt>
<trkpt lat="46.044219" lon="11.176313">
<time>2020-11-25T09:02:50Z</time>
</trkpt>
<trkpt lat="46.044217" lon="11.176326">
<time>2020-11-25T09:02:51Z</time>
</trkpt>
<trkpt lat="46.04422" lon="11.176332">
<time>2020-11-25T09:02:52Z</time>
</trkpt>
<trkpt lat="46.04422" lon="11.17634">
<time>2020-11-25T09:02:53Z</time>
</trkpt>
<trkpt lat="46.044215" lon="11.17637">
<time>2020-11-25T09:02:54Z</time>
</trkpt>
<trkpt lat="46.044219" lon="11.176393">
<time>2020-11-25T09:02:55Z</time>
</trkpt>
<trkpt lat="46.04423" lon="11.176414">
<time>2020-11-25T09:02:56Z</time>
</trkpt>
<trkpt lat="46.04424" lon="11.176427">
<time>2020-11-25T09:02:57Z</time>
</trkpt>
<trkpt lat="46.044245" lon="11.176438">
<time>2020-11-25T09:02:58Z</time>
</trkpt>
<trkpt lat="46.044253" lon="11.176454">
<time>2020-11-25T09:02:59Z</time>
</trkpt>
<trkpt lat="46.044261" lon="11.176465">
<time>2020-11-25T09:03:00Z</time>
</trkpt>
<trkpt lat="46.044271" lon="11.176481">
<time>2020-11-25T09:03:01Z</time>
</trkpt>
<trkpt lat="46.044281" lon="11.176494">
<time>2020-11-25T09:03:02Z</time>
</trkpt>
<trkpt lat="46.044288" lon="11.176508">
<time>2020-11-25T09:03:03Z</time>
</trkpt>
<trkpt lat="46.044294" lon="11.176535">
<time>2020-11-25T09:03:04Z</time>
</trkpt>
<trkpt lat="46.044301" lon="11.176562">
<time>2020-11-25T09:03:05Z</time>
</trkpt>
<trkpt lat="46.044303" lon="11.176586">
<time>2020-11-25T09:03:06Z</time>
</trkpt>
<trkpt lat="46.044308" lon="11.176602">
<time>2020-11-25T09:03:07Z</time>
</trkpt>
<trkpt lat="46.044316" lon="11.176617">
<time>2020-11-25T09:03:08Z</time>
</trkpt>
<trkpt lat="46.044326" lon="11.176627">
<time>2020-11-25T09:03:09Z</time>
</trkpt>
<trkpt lat="46.044336" lon="11.176638">
<time>2020-11-25T09:03:10Z</time>
</trkpt>
<trkpt lat="46.044342" lon="11.176652">
<time>2020-11-25T09:03:11Z</time>
</trkpt>
<trkpt lat="46.044346" lon="11.176661">
<time>2020-11-25T09:03:12Z</time>
</trkpt>
<trkpt lat="46.044349" lon="11.17667">
<time>2020-11-25T09:03:13Z</time>
</trkpt>
<trkpt lat="46.044353" lon="11.176679">
<time>2020-11-25T09:03:14Z</time>
</trkpt>
<trkpt lat="46.044355" lon="11.176688">
<time>2020-11-25T09:03:15Z</time>
</trkpt>
<trkpt lat="46.044356" lon="11.176695">
<time>2020-11-25T09:03:16Z</time>
</trkpt>
<trkpt lat="46.04435" lon="11.176705">
<time>2020-11-25T09:03:17Z</time>
</trkpt>
<trkpt lat="46.044349" lon="11.176714">
<time>2020-11-25T09:03:18Z</time>
</trkpt>
<trkpt lat="46.044349" lon="11.17672">
<time>2020-11-25T09:03:19Z</time>
</trkpt>
<trkpt lat="46.044351" lon="11.176725">
<time>2020-11-25T09:03:20Z</time>
</trkpt>
<trkpt lat="46.044355" lon="11.176724">
<time>2020-11-25T09:03:21Z</time>
</trkpt>
<trkpt lat="46.044361" lon="11.176723">
<time>2020-11-25T09:03:22Z</time>
</trkpt>
<trkpt lat="46.044363" lon="11.176726">
<time>2020-11-25T09:03:23Z</time>
</trkpt>
<trkpt lat="46.044366" lon="11.176731">
<time>2020-11-25T09:03:24Z</time>
</trkpt>
<trkpt lat="46.04437" lon="11.176735">
<time>2020-11-25T09:03:25Z</time>
</trkpt>
<trkpt lat="46.04437" lon="11.17674">
<time>2020-11-25T09:03:26Z</time>
</trkpt>
<trkpt lat="46.044369" lon="11.176745">
<time>2020-11-25T09:03:27Z</time>
</trkpt>
<trkpt lat="46.04437" lon="11.17675">
<time>2020-11-25T09:03:28Z</time>
</trkpt>
<trkpt lat="46.044369" lon="11.176758">
<time>2020-11-25T09:03:29Z</time>
</trkpt>
<trkpt lat="46.044365" lon="11.176768">
<time>2020-11-25T09:03:30Z</time>
</trkpt>
<trkpt lat="46.044363" lon="11.176775">
<time>2020-11-25T09:03:31Z</time>
</trkpt>
<trkpt lat="46.044365" lon="11.17678">
<time>2020-11-25T09:03:32Z</time>
</trkpt>
<trkpt lat="46.044363" lon="11.176791">
<time>2020-11-25T09:03:33Z</time>
</trkpt>
<trkpt lat="46.044364" lon="11.176797">
<time>2020-11-25T09:03:34Z</time>
</trkpt>
<trkpt lat="46.04436" lon="11.176799">
<time>2020-11-25T09:03:35Z</time>
</trkpt>
<trkpt lat="46.044358" lon="11.176802">
<time>2020-11-25T09:03:36Z</time>
</trkpt>
<trkpt lat="46.044365" lon="11.176805">
<time>2020-11-25T09:03:37Z</time>
</trkpt>
<trkpt lat="46.044369" lon="11.17681">
<time>2020-11-25T09:03:38Z</time>
</trkpt>
<trkpt lat="46.044368" lon="11.176816">
<time>2020-11-25T09:03:39Z</time>
</trkpt>
<trkpt lat="46.044374" lon="11.176818">
<time>2020-11-25T09:03:40Z</time>
</trkpt>
<trkpt lat="46.04438" lon="11.176819">
<time>2020-11-25T09:03:41Z</time>
</trkpt>
<trkpt lat="46.044388" lon="11.176822">
<time>2020-11-25T09:03:42Z</time>
</trkpt>
<trkpt lat="46.044392" lon="11.176824">
<time>2020-11-25T09:03:43Z</time>
</trkpt>
<trkpt lat="46.044397" lon="11.176822">
<time>2020-11-25T09:03:44Z</time>
</trkpt>
<trkpt lat="46.044398" lon="11.176823">
<time>2020-11-25T09:03:45Z</time>
</trkpt>
<trkpt lat="46.044396" lon="11.17683">
<time>2020-11-25T09:03:46Z</time>
</trkpt>
<trkpt lat="46.044398" lon="11.176836">
<time>2020-11-25T09:03:47Z</time>
</trkpt>
<trkpt lat="46.044401" lon="11.176843">
<time>2020-11-25T09:03:48Z</time>
</trkpt>
<trkpt lat="46.044406" lon="11.176854">
<time>2020-11-25T09:03:49Z</time>
</trkpt>
<trkpt lat="46.04441" lon="11.176866">
<time>2020-11-25T09:03:50Z</time>
</trkpt>
<trkpt lat="46.044419" lon="11.176876">
<time>2020-11-25T09:03:51Z</time>
</trkpt>
<trkpt lat="46.04443" lon="11.176887">
<time>2020-11-25T09:03:52Z</time>
</trkpt>
<trkpt lat="46.04444" lon="11.176905">
<time>2020-11-25T09:03:53Z</time>
</trkpt>
<trkpt lat="46.044457" lon="11.176927">
<time>2020-11-25T09:03:54Z</time>
</trkpt>
<trkpt lat="46.044471" lon="11.17695">
<time>2020-11-25T09:03:55Z</time>
</trkpt>
<trkpt lat="46.044487" lon="11.176969">
<time>2020-11-25T09:03:56Z</time>
</trkpt>
<trkpt lat="46.0445" lon="11.176988">
<time>2020-11-25T09:03:57Z</time>
</trkpt>
<trkpt lat="46.044515" lon="11.177002">
<time>2020-11-25T09:03:58Z</time>
</trkpt>
<trkpt lat="46.044525" lon="11.177007">
<time>2020-11-25T09:03:59Z</time>
</trkpt>
<trkpt lat="46.04453" lon="11.177021">
<time>2020-11-25T09:04:00Z</time>
</trkpt>
<trkpt lat="46.044539" lon="11.177031">
<time>2020-11-25T09:04:01Z</time>
</trkpt>
<trkpt lat="46.044547" lon="11.17704">
<time>2020-11-25T09:04:02Z</time>
</trkpt>
<trkpt lat="46.044557" lon="11.177047">
<time>2020-11-25T09:04:03Z</time>
</trkpt>
<trkpt lat="46.044568" lon="11.177052">
<time>2020-11-25T09:04:04Z</time>
</trkpt>
<trkpt lat="46.044578" lon="11.177056">
<time>2020-11-25T09:04:05Z</time>
</trkpt>
<trkpt lat="46.044582" lon="11.177056">
<time>2020-11-25T09:04:06Z</time>
</trkpt>
<trkpt lat="46.044585" lon="11.177059">
<time>2020-11-25T09:04:07Z</time>
</trkpt>
<trkpt lat="46.044592" lon="11.177062">
<time>2020-11-25T09:04:08Z</time>
</trkpt>
<trkpt lat="46.044598" lon="11.177068">
<time>2020-11-25T09:04:09Z</time>
</trkpt>
<trkpt lat="46.044606" lon="11.177074">
<time>2020-11-25T09:04:10Z</time>
</trkpt>
<trkpt lat="46.044612" lon="11.177081">
<time>2020-11-25T09:04:11Z</time>
</trkpt>
<trkpt lat="46.044617" lon="11.177085">
<time>2020-11-25T09:04:12Z</time>
</trkpt>
<trkpt lat="46.044625" lon="11.177082">
<time>2020-11-25T09:04:13Z</time>
</trkpt>
<trkpt lat="46.04463" lon="11.177081">
<time>2020-11-25T09:04:14Z</time>
</trkpt>
<trkpt lat="46.044634" lon="11.177086">
<time>2020-11-25T09:04:15Z</time>
</trkpt>
<trkpt lat="46.044637" lon="11.17709">
<time>2020-11-25T09:04:16Z</time>
</trkpt>
<trkpt lat="46.044634" lon="11.177097">
<time>2020-11-25T09:04:17Z</time>
</trkpt>
<trkpt lat="46.044626" lon="11.177107">
<time>2020-11-25T09:04:18Z</time>
</trkpt>
<trkpt lat="46.044627" lon="11.177121">
<time>2020-11-25T09:04:19Z</time>
</trkpt>
<trkpt lat="46.044631" lon="11.177142">
<time>2020-11-25T09:04:20Z</time>
</trkpt>
<trkpt lat="46.044633" lon="11.177169">
<time>2020-11-25T09:04:21Z</time>
</trkpt>
<trkpt lat="46.044634" lon="11.177191">
<time>2020-11-25T09:04:22Z</time>
</trkpt>
<trkpt lat="46.044636" lon="11.177204">
<time>2020-11-25T09:04:23Z</time>
</trkpt>
<trkpt lat="46.044636" lon="11.177215">
<time>2020-11-25T09:04:24Z</time>
</trkpt>
<trkpt lat="46.044638" lon="11.17722">
<time>2020-11-25T09:04:25Z</time>
</trkpt>
<trkpt lat="46.044638" lon="11.177224">
<time>2020-11-25T09:04:26Z</time>
</trkpt>
<trkpt lat="46.044637" lon="11.17723">
<time>2020-11-25T09:04:27Z</time>
</trkpt>
<trkpt lat="46.044641" lon="11.177234">
<time>2020-11-25T09:04:28Z</time>
</trkpt>
<trkpt lat="46.04464" lon="11.177237">
<time>2020-11-25T09:04:29Z</time>
</trkpt>
<trkpt lat="46.044641" lon="11.177244">
<time>2020-11-25T09:04:30Z</time>
</trkpt>
<trkpt lat="46.044647" lon="11.177253">
<time>2020-11-25T09:04:31Z</time>
</trkpt>
<trkpt lat="46.04465" lon="11.177258">
<time>2020-11-25T09:04:32Z</time>
</trkpt>
<trkpt lat="46.044651" lon="11.177257">
<time>2020-11-25T09:04:33Z</time>
</trkpt>
<trkpt lat="46.044652" lon="11.177261">
<time>2020-11-25T09:04:34Z</time>
</trkpt>
<trkpt lat="46.044653" lon="11.177267">
<time>2020-11-25T09:04:35Z</time>
</trkpt>
<trkpt lat="46.044651" lon="11.177273">
<time>2020-11-25T09:04:36Z</time>
</trkpt>
<trkpt lat="46.04465" lon="11.177279">
<time>2020-11-25T09:04:37Z</time>
</trkpt>
<trkpt lat="46.044651" lon="11.177282">
<time>2020-11-25T09:04:38Z</time>
</trkpt>
<trkpt lat="46.044651" lon="11.177283">
<time>2020-11-25T09:04:39Z</time>
</trkpt>
<trkpt lat="46.044653" lon="11.17728">
<time>2020-11-25T09:04:40Z</time>
</trkpt>
<trkpt lat="46.044653" lon="11.17728">
<time>2020-11-25T09:04:41Z</time>
</trkpt>
<trkpt lat="46.044647" lon="11.177286">
<time>2020-11-25T09:04:42Z</time>
</trkpt>
<trkpt lat="46.044641" lon="11.177292">
<time>2020-11-25T09:04:43Z</time>
</trkpt>
<trkpt lat="46.044637" lon="11.177298">
<time>2020-11-25T09:04:44Z</time>
</trkpt>
<trkpt lat="46.044632" lon="11.177306">
<time>2020-11-25T09:04:45Z</time>
</trkpt>
<trkpt lat="46.044632" lon="11.177311">
<time>2020-11-25T09:04:46Z</time>
</trkpt>
<trkpt lat="46.044632" lon="11.177317">
<time>2020-11-25T09:04:47Z</time>
</trkpt>
<trkpt lat="46.044637" lon="11.177323">
<time>2020-11-25T09:04:48Z</time>
</trkpt>
<trkpt lat="46.044646" lon="11.177326">
<time>2020-11-25T09:04:49Z</time>
</trkpt>
<trkpt lat="46.044652" lon="11.177328">
<time>2020-11-25T09:04:50Z</time>
</trkpt>
<trkpt lat="46.044657" lon="11.177333">
<time>2020-11-25T09:04:51Z</time>
</trkpt>
<trkpt lat="46.044661" lon="11.177338">
<time>2020-11-25T09:04:52Z</time>
</trkpt>
<trkpt lat="46.044662" lon="11.177346">
<time>2020-11-25T09:04:53Z</time>
</trkpt>
<trkpt lat="46.044661" lon="11.17735">
<time>2020-11-25T09:04:54Z</time>
</trkpt>
<trkpt lat="46.044665" lon="11.177355">
<time>2020-11-25T09:04:55Z</time>
</trkpt>
<trkpt lat="46.044669" lon="11.17736">
<time>2020-11-25T09:04:56Z</time>
</trkpt>
<trkpt lat="46.044674" lon="11.177367">
<time>2020-11-25T09:04:57Z</time>
</trkpt>
<trkpt lat="46.044678" lon="11.177374">
<time>2020-11-25T09:04:58Z</time>
</trkpt>
<trkpt lat="46.044681" lon="11.177381">
<time>2020-11-25T09:04:59Z</time>
</trkpt>
<trkpt lat="46.044683" lon="11.177387">
<time>2020-11-25T09:05:00Z</time>
</trkpt>
<trkpt lat="46.044682" lon="11.17739">
<time>2020-11-25T09:05:01Z</time>
</trkpt>
<trkpt lat="46.044673" lon="11.17739">
<time>2020-11-25T09:05:02Z</time>
</trkpt>
<trkpt lat="46.044674" lon="11.177392">
<time>2020-11-25T09:05:03Z</time>
</trkpt>
<trkpt lat="46.044675" lon="11.177393">
<time>2020-11-25T09:05:04Z</time>
</trkpt>
<trkpt lat="46.044679" lon="11.177397">
<time>2020-11-25T09:05:05Z</time>
</trkpt>
<trkpt lat="46.044679" lon="11.177404">
<time>2020-11-25T09:05:06Z</time>
</trkpt>
<trkpt lat="46.044677" lon="11.177414">
<time>2020-11-25T09:05:07Z</time>
</trkpt>
<trkpt lat="46.044675" lon="11.177424">
<time>2020-11-25T09:05:08Z</time>
</trkpt>
<trkpt lat="46.044667" lon="11.17743">
<time>2020-11-25T09:05:09Z</time>
</trkpt>
<trkpt lat="46.044664" lon="11.177439">
<time>2020-11-25T09:05:10Z</time>
</trkpt>
<trkpt lat="46.044662" lon="11.177442">
<time>2020-11-25T09:05:11Z</time>
</trkpt>
<trkpt lat="46.044675" lon="11.177447">
<time>2020-11-25T09:05:12Z</time>
</trkpt>
<trkpt lat="46.044676" lon="11.177453">
<time>2020-11-25T09:05:13Z</time>
</trkpt>
<trkpt lat="46.044675" lon="11.177458">
<time>2020-11-25T09:05:14Z</time>
</trkpt>
<trkpt lat="46.044681" lon="11.177465">
<time>2020-11-25T09:05:15Z</time>
</trkpt>
<trkpt lat="46.044682" lon="11.177479">
<time>2020-11-25T09:05:16Z</time>
</trkpt>
<trkpt lat="46.044681" lon="11.177483">
<time>2020-11-25T09:05:17Z</time>
</trkpt>
<trkpt lat="46.044682" lon="11.177482">
<time>2020-11-25T09:05:18Z</time>
</trkpt>
<trkpt lat="46.044687" lon="11.177481">
<time>2020-11-25T09:05:19Z</time>
</trkpt>
<trkpt lat="46.04469" lon="11.177487">
<time>2020-11-25T09:05:20Z</time>
</trkpt>
<trkpt lat="46.044688" lon="11.177496">
<time>2020-11-25T09:05:21Z</time>
</trkpt>
<trkpt lat="46.044681" lon="11.177509">
<time>2020-11-25T09:05:22Z</time>
</trkpt>
<trkpt lat="46.044679" lon="11.177521">
<time>2020-11-25T09:05:23Z</time>
</trkpt>
<trkpt lat="46.044676" lon="11.177543">
<time>2020-11-25T09:05:24Z</time>
</trkpt>
<trkpt lat="46.044668" lon="11.177564">
<time>2020-11-25T09:05:25Z</time>
</trkpt>
<trkpt lat="46.044663" lon="11.177575">
<time>2020-11-25T09:05:26Z</time>
</trkpt>
<trkpt lat="46.044664" lon="11.177588">
<time>2020-11-25T09:05:27Z</time>
</trkpt>
<trkpt lat="46.044663" lon="11.177597">
<time>2020-11-25T09:05:28Z</time>
</trkpt>
<trkpt lat="46.044667" lon="11.177605">
<time>2020-11-25T09:05:29Z</time>
</trkpt>
<trkpt lat="46.04467" lon="11.177613">
<time>2020-11-25T09:05:30Z</time>
</trkpt>
<trkpt lat="46.044673" lon="11.177621">
<time>2020-11-25T09:05:31Z</time>
</trkpt>
<trkpt lat="46.044677" lon="11.177626">
<time>2020-11-25T09:05:32Z</time>
</trkpt>
<trkpt lat="46.044682" lon="11.177629">
<time>2020-11-25T09:05:33Z</time>
</trkpt>
<trkpt lat="46.044684" lon="11.177631">
<time>2020-11-25T09:05:34Z</time>
</trkpt>
<trkpt lat="46.044686" lon="11.177633">
<time>2020-11-25T09:05:35Z</time>
</trkpt>
<trkpt lat="46.044684" lon="11.177639">
<time>2020-11-25T09:05:36Z</time>
</trkpt>
<trkpt lat="46.044676" lon="11.177642">
<time>2020-11-25T09:05:37Z</time>
</trkpt>
<trkpt lat="46.044674" lon="11.177648">
<time>2020-11-25T09:05:38Z</time>
</trkpt>
<trkpt lat="46.044672" lon="11.177653">
<time>2020-11-25T09:05:39Z</time>
</trkpt>
<trkpt lat="46.044676" lon="11.177659">
<time>2020-11-25T09:05:40Z</time>
</trkpt>
<trkpt lat="46.044679" lon="11.177663">
<time>2020-11-25T09:05:41Z</time>
</trkpt>
<trkpt lat="46.044677" lon="11.177669">
<time>2020-11-25T09:05:42Z</time>
</trkpt>
<trkpt lat="46.044675" lon="11.177675">
<time>2020-11-25T09:05:43Z</time>
</trkpt>
<trkpt lat="46.044673" lon="11.177681">
<time>2020-11-25T09:05:44Z</time>
</trkpt>
<trkpt lat="46.044673" lon="11.177686">
<time>2020-11-25T09:05:45Z</time>
</trkpt>
<trkpt lat="46.044671" lon="11.17769">
<time>2020-11-25T09:05:46Z</time>
</trkpt>
<trkpt lat="46.044663" lon="11.1777">
<time>2020-11-25T09:05:47Z</time>
</trkpt>
<trkpt lat="46.044664" lon="11.177708">
<time>2020-11-25T09:05:48Z</time>
</trkpt>
<trkpt lat="46.044659" lon="11.177715">
<time>2020-11-25T09:05:49Z</time>
</trkpt>
<trkpt lat="46.044655" lon="11.177721">
<time>2020-11-25T09:05:50Z</time>
</trkpt>
<trkpt lat="46.044651" lon="11.177728">
<time>2020-11-25T09:05:51Z</time>
</trkpt>
<trkpt lat="46.044646" lon="11.177735">
<time>2020-11-25T09:05:52Z</time>
</trkpt>
<trkpt lat="46.044644" lon="11.177739">
<time>2020-11-25T09:05:53Z</time>
</trkpt>
<trkpt lat="46.04464" lon="11.177742">
<time>2020-11-25T09:05:54Z</time>
</trkpt>
<trkpt lat="46.044638" lon="11.177744">
<time>2020-11-25T09:05:55Z</time>
</trkpt>
<trkpt lat="46.044641" lon="11.177745">
<time>2020-11-25T09:05:56Z</time>
</trkpt>
<trkpt lat="46.044642" lon="11.177747">
<time>2020-11-25T09:05:57Z</time>
</trkpt>
<trkpt lat="46.044641" lon="11.17775">
<time>2020-11-25T09:05:58Z</time>
</trkpt>
<trkpt lat="46.044645" lon="11.177756">
<time>2020-11-25T09:05:59Z</time>
</trkpt>
<trkpt lat="46.04465" lon="11.177765">
<time>2020-11-25T09:06:00Z</time>
</trkpt>
<trkpt lat="46.044656" lon="11.177775">
<time>2020-11-25T09:06:01Z</time>
</trkpt>
<trkpt lat="46.044655" lon="11.17778">
<time>2020-11-25T09:06:02Z</time>
</trkpt>
<trkpt lat="46.044654" lon="11.17779">
<time>2020-11-25T09:06:03Z</time>
</trkpt>
<trkpt lat="46.044651" lon="11.177798">
<time>2020-11-25T09:06:04Z</time>
</trkpt>
<trkpt lat="46.044644" lon="11.177807">
<time>2020-11-25T09:06:05Z</time>
</trkpt>
<trkpt lat="46.044626" lon="11.177821">
<time>2020-11-25T09:06:06Z</time>
</trkpt>
<trkpt lat="46.044617" lon="11.177843">
<time>2020-11-25T09:06:07Z</time>
</trkpt>
<trkpt lat="46.044607" lon="11.17786">
<time>2020-11-25T09:06:08Z</time>
</trkpt>
<trkpt lat="46.044597" lon="11.177875">
<time>2020-11-25T09:06:09Z</time>
</trkpt>
<trkpt lat="46.04459" lon="11.177888">
<time>2020-11-25T09:06:10Z</time>
</trkpt>
<trkpt lat="46.044585" lon="11.177897">
<time>2020-11-25T09:06:11Z</time>
</trkpt>
<trkpt lat="46.044582" lon="11.177908">
<time>2020-11-25T09:06:12Z</time>
</trkpt>
<trkpt lat="46.044577" lon="11.177917">
<time>2020-11-25T09:06:13Z</time>
</trkpt>
<trkpt lat="46.044568" lon="11.177924">
<time>2020-11-25T09:06:14Z</time>
</trkpt>
<trkpt lat="46.044564" lon="11.177936">
<time>2020-11-25T09:06:15Z</time>
</trkpt>
<trkpt lat="46.044558" lon="11.17795">
<time>2020-11-25T09:06:16Z</time>
</trkpt>
<trkpt lat="46.044558" lon="11.177961">
<time>2020-11-25T09:06:17Z</time>
</trkpt>
<trkpt lat="46.044558" lon="11.177967">
<time>2020-11-25T09:06:18Z</time>
</trkpt>
<trkpt lat="46.044558" lon="11.177971">
<time>2020-11-25T09:06:19Z</time>
</trkpt>
<trkpt lat="46.044559" lon="11.177974">
<time>2020-11-25T09:06:20Z</time>
</trkpt>
<trkpt lat="46.04456" lon="11.177977">
<time>2020-11-25T09:06:21Z</time>
</trkpt>
<trkpt lat="46.044563" lon="11.177981">
<time>2020-11-25T09:06:22Z</time>
</trkpt>
<trkpt lat="46.044569" lon="11.177983">
<time>2020-11-25T09:06:23Z</time>
</trkpt>
<trkpt lat="46.044573" lon="11.177987">
<time>2020-11-25T09:06:24Z</time>
</trkpt>
<trkpt lat="46.044575" lon="11.17799">
<time>2020-11-25T09:06:25Z</time>
</trkpt>
<trkpt lat="46.044574" lon="11.177995">
<time>2020-11-25T09:06:26Z</time>
</trkpt>
<trkpt lat="46.044567" lon="11.178008">
<time>2020-11-25T09:06:27Z</time>
</trkpt>
<trkpt lat="46.044546" lon="11.178029">
<time>2020-11-25T09:06:28Z</time>
</trkpt>
<trkpt lat="46.044522" lon="11.178053">
<time>2020-11-25T09:06:29Z</time>
</trkpt>
<trkpt lat="46.044502" lon="11.17807">
<time>2020-11-25T09:06:30Z</time>
</trkpt>
<trkpt lat="46.044493" lon="11.178079">
<time>2020-11-25T09:06:31Z</time>
</trkpt>
<trkpt lat="46.044481" lon="11.178087">
<time>2020-11-25T09:06:32Z</time>
</trkpt>
<trkpt lat="46.044474" lon="11.178096">
<time>2020-11-25T09:06:33Z</time>
</trkpt>
<trkpt lat="46.04447" lon="11.178109">
<time>2020-11-25T09:06:34Z</time>
</trkpt>
<trkpt lat="46.04446" lon="11.178122">
<time>2020-11-25T09:06:35Z</time>
</trkpt>
<trkpt lat="46.044454" lon="11.178133">
<time>2020-11-25T09:06:36Z</time>
</trkpt>
<trkpt lat="46.044446" lon="11.178144">
<time>2020-11-25T09:06:37Z</time>
</trkpt>
<trkpt lat="46.044445" lon="11.178154">
<time>2020-11-25T09:06:38Z</time>
</trkpt>
<trkpt lat="46.044446" lon="11.17816">
<time>2020-11-25T09:06:39Z</time>
</trkpt>
<trkpt lat="46.044446" lon="11.178164">
<time>2020-11-25T09:06:40Z</time>
</trkpt>
<trkpt lat="46.044444" lon="11.17817">
<time>2020-11-25T09:06:41Z</time>
</trkpt>
<trkpt lat="46.044446" lon="11.178174">
<time>2020-11-25T09:06:42Z</time>
</trkpt>
<trkpt lat="46.044435" lon="11.178178">
<time>2020-11-25T09:06:43Z</time>
</trkpt>
<trkpt lat="46.044425" lon="11.178181">
<time>2020-11-25T09:06:44Z</time>
</trkpt>
<trkpt lat="46.044413" lon="11.17818">
<time>2020-11-25T09:06:45Z</time>
</trkpt>
<trkpt lat="46.044401" lon="11.178179">
<time>2020-11-25T09:06:46Z</time>
</trkpt>
<trkpt lat="46.044396" lon="11.178179">
<time>2020-11-25T09:06:47Z</time>
</trkpt>
<trkpt lat="46.044369" lon="11.17819">
<time>2020-11-25T09:06:48Z</time>
</trkpt>
<trkpt lat="46.04436" lon="11.178197">
<time>2020-11-25T09:06:49Z</time>
</trkpt>
<trkpt lat="46.044351" lon="11.178205">
<time>2020-11-25T09:06:50Z</time>
</trkpt>
<trkpt lat="46.044349" lon="11.178215">
<time>2020-11-25T09:06:51Z</time>
</trkpt>
<trkpt lat="46.044357" lon="11.178231">
<time>2020-11-25T09:06:52Z</time>
</trkpt>
<trkpt lat="46.044348" lon="11.178237">
<time>2020-11-25T09:06:53Z</time>
</trkpt>
<trkpt lat="46.044333" lon="11.178238">
<time>2020-11-25T09:06:54Z</time>
</trkpt>
<trkpt lat="46.044322" lon="11.17824">
<time>2020-11-25T09:06:55Z</time>
</trkpt>
<trkpt lat="46.044314" lon="11.178242">
<time>2020-11-25T09:06:56Z</time>
</trkpt>
<trkpt lat="46.044308" lon="11.178243">
<time>2020-11-25T09:06:57Z</time>
</trkpt>
<trkpt lat="46.044297" lon="11.178242">
<time>2020-11-25T09:06:58Z</time>
</trkpt>
<trkpt lat="46.044285" lon="11.178245">
<time>2020-11-25T09:06:59Z</time>
</trkpt>
<trkpt lat="46.044279" lon="11.178247">
<time>2020-11-25T09:07:00Z</time>
</trkpt>
<trkpt lat="46.044271" lon="11.178251">
<time>2020-11-25T09:07:01Z</time>
</trkpt>
<trkpt lat="46.044255" lon="11.178257">
<time>2020-11-25T09:07:02Z</time>
</trkpt>
<trkpt lat="46.044246" lon="11.178263">
<time>2020-11-25T09:07:03Z</time>
</trkpt>
<trkpt lat="46.044237" lon="11.178266">
<time>2020-11-25T09:07:04Z</time>
</trkpt>
<trkpt lat="46.04423" lon="11.17827">
<time>2020-11-25T09:07:05Z</time>
</trkpt>
<trkpt lat="46.044221" lon="11.178271">
<time>2020-11-25T09:07:06Z</time>
</trkpt>
<trkpt lat="46.044209" lon="11.178267">
<time>2020-11-25T09:07:07Z</time>
</trkpt>
<trkpt lat="46.044193" lon="11.178265">
<time>2020-11-25T09:07:08Z</time>
</trkpt>
<trkpt lat="46.044179" lon="11.178268">
<time>2020-11-25T09:07:09Z</time>
</trkpt>
<trkpt lat="46.04416" lon="11.178275">
<time>2020-11-25T09:07:10Z</time>
</trkpt>
<trkpt lat="46.044152" lon="11.178277">
<time>2020-11-25T09:07:11Z</time>
</trkpt>
<trkpt lat="46.044142" lon="11.178282">
<time>2020-11-25T09:07:12Z</time>
</trkpt>
<trkpt lat="46.044135" lon="11.178282">
<time>2020-11-25T09:07:13Z</time>
</trkpt>
<trkpt lat="46.044127" lon="11.178284">
<time>2020-11-25T09:07:14Z</time>
</trkpt>
<trkpt lat="46.044119" lon="11.178286">
<time>2020-11-25T09:07:15Z</time>
</trkpt>
<trkpt lat="46.044108" lon="11.178287">
<time>2020-11-25T09:07:16Z</time>
</trkpt>
<trkpt lat="46.044097" lon="11.17829">
<time>2020-11-25T09:07:17Z</time>
</trkpt>
<trkpt lat="46.044083" lon="11.17829">
<time>2020-11-25T09:07:18Z</time>
</trkpt>
<trkpt lat="46.044071" lon="11.17829">
<time>2020-11-25T09:07:19Z</time>
</trkpt>
<trkpt lat="46.044059" lon="11.178285">
<time>2020-11-25T09:07:20Z</time>
</trkpt>
<trkpt lat="46.044038" lon="11.178284">
<time>2020-11-25T09:07:21Z</time>
</trkpt>
<trkpt lat="46.044031" lon="11.178278">
<time>2020-11-25T09:07:22Z</time>
</trkpt>
<trkpt lat="46.044027" lon="11.178278">
<time>2020-11-25T09:07:23Z</time>
</trkpt>
<trkpt lat="46.044022" lon="11.178277">
<time>2020-11-25T09:07:24Z</time>
</trkpt>
<trkpt lat="46.044016" lon="11.178275">
<time>2020-11-25T09:07:25Z</time>
</trkpt>
<trkpt lat="46.044015" lon="11.178271">
<time>2020-11-25T09:07:26Z</time>
</trkpt>
<trkpt lat="46.044016" lon="11.178265">
<time>2020-11-25T09:07:27Z</time>
</trkpt>
<trkpt lat="46.044011" lon="11.178263">
<time>2020-11-25T09:07:28Z</time>
</trkpt>
<trkpt lat="46.044008" lon="11.178259">
<time>2020-11-25T09:07:29Z</time>
</trkpt>
<trkpt lat="46.044012" lon="11.178258">
<time>2020-11-25T09:07:30Z</time>
</trkpt>
<trkpt lat="46.044008" lon="11.178258">
<time>2020-11-25T09:07:31Z</time>
</trkpt>
<trkpt lat="46.04401" lon="11.178258">
<time>2020-11-25T09:07:32Z</time>
</trkpt>
<trkpt lat="46.04401" lon="11.178256">
<time>2020-11-25T09:07:33Z</time>
</trkpt>
<trkpt lat="46.044014" lon="11.178255">
<time>2020-11-25T09:07:34Z</time>
</trkpt>
<trkpt lat="46.044009" lon="11.178252">
<time>2020-11-25T09:07:35Z</time>
</trkpt>
<trkpt lat="46.044" lon="11.17825">
<time>2020-11-25T09:07:36Z</time>
</trkpt>
<trkpt lat="46.043986" lon="11.17825">
<time>2020-11-25T09:07:37Z</time>
</trkpt>
<trkpt lat="46.043973" lon="11.178251">
<time>2020-11-25T09:07:38Z</time>
</trkpt>
<trkpt lat="46.043962" lon="11.178253">
<time>2020-11-25T09:07:39Z</time>
</trkpt>
<trkpt lat="46.043953" lon="11.178255">
<time>2020-11-25T09:07:40Z</time>
</trkpt>
<trkpt lat="46.043945" lon="11.178254">
<time>2020-11-25T09:07:41Z</time>
</trkpt>
<trkpt lat="46.043936" lon="11.178255">
<time>2020-11-25T09:07:42Z</time>
</trkpt>
<trkpt lat="46.043925" lon="11.178255">
<time>2020-11-25T09:07:43Z</time>
</trkpt>
<trkpt lat="46.043914" lon="11.178254">
<time>2020-11-25T09:07:44Z</time>
</trkpt>
<trkpt lat="46.043909" lon="11.178248">
<time>2020-11-25T09:07:45Z</time>
</trkpt>
<trkpt lat="46.043895" lon="11.178243">
<time>2020-11-25T09:07:46Z</time>
</trkpt>
<trkpt lat="46.043877" lon="11.178234">
<time>2020-11-25T09:07:47Z</time>
</trkpt>
<trkpt lat="46.04386" lon="11.178231">
<time>2020-11-25T09:07:48Z</time>
</trkpt>
<trkpt lat="46.043846" lon="11.178226">
<time>2020-11-25T09:07:49Z</time>
</trkpt>
<trkpt lat="46.043839" lon="11.178222">
<time>2020-11-25T09:07:50Z</time>
</trkpt>
<trkpt lat="46.043833" lon="11.178218">
<time>2020-11-25T09:07:51Z</time>
</trkpt>
<trkpt lat="46.04383" lon="11.178213">
<time>2020-11-25T09:07:52Z</time>
</trkpt>
<trkpt lat="46.043825" lon="11.178208">
<time>2020-11-25T09:07:53Z</time>
</trkpt>
<trkpt lat="46.043821" lon="11.178203">
<time>2020-11-25T09:07:54Z</time>
</trkpt>
<trkpt lat="46.043819" lon="11.178196">
<time>2020-11-25T09:07:55Z</time>
</trkpt>
<trkpt lat="46.043819" lon="11.178188">
<time>2020-11-25T09:07:56Z</time>
</trkpt>
<trkpt lat="46.043814" lon="11.178184">
<time>2020-11-25T09:07:57Z</time>
</trkpt>
<trkpt lat="46.043812" lon="11.178184">
<time>2020-11-25T09:07:58Z</time>
</trkpt>
<trkpt lat="46.043813" lon="11.178186">
<time>2020-11-25T09:07:59Z</time>
</trkpt>
<trkpt lat="46.043812" lon="11.178187">
<time>2020-11-25T09:08:00Z</time>
</trkpt>
<trkpt lat="46.043814" lon="11.178183">
<time>2020-11-25T09:08:01Z</time>
</trkpt>
<trkpt lat="46.043811" lon="11.178178">
<time>2020-11-25T09:08:02Z</time>
</trkpt>
<trkpt lat="46.043807" lon="11.178174">
<time>2020-11-25T09:08:03Z</time>
</trkpt>
<trkpt lat="46.043804" lon="11.178167">
<time>2020-11-25T09:08:04Z</time>
</trkpt>
<trkpt lat="46.043796" lon="11.178159">
<time>2020-11-25T09:08:05Z</time>
</trkpt>
<trkpt lat="46.043787" lon="11.17815">
<time>2020-11-25T09:08:06Z</time>
</trkpt>
<trkpt lat="46.043777" lon="11.178144">
<time>2020-11-25T09:08:07Z</time>
</trkpt>
<trkpt lat="46.043768" lon="11.178141">
<time>2020-11-25T09:08:08Z</time>
</trkpt>
<trkpt lat="46.043764" lon="11.17814">
<time>2020-11-25T09:08:09Z</time>
</trkpt>
<trkpt lat="46.043755" lon="11.178141">
<time>2020-11-25T09:08:10Z</time>
</trkpt>
<trkpt lat="46.043748" lon="11.178143">
<time>2020-11-25T09:08:11Z</time>
</trkpt>
<trkpt lat="46.043739" lon="11.178143">
<time>2020-11-25T09:08:12Z</time>
</trkpt>
<trkpt lat="46.043731" lon="11.178145">
<time>2020-11-25T09:08:13Z</time>
</trkpt>
<trkpt lat="46.043725" lon="11.178154">
<time>2020-11-25T09:08:14Z</time>
</trkpt>
<trkpt lat="46.043716" lon="11.178158">
<time>2020-11-25T09:08:15Z</time>
</trkpt>
<trkpt lat="46.043712" lon="11.17816">
<time>2020-11-25T09:08:16Z</time>
</trkpt>
<trkpt lat="46.043706" lon="11.178163">
<time>2020-11-25T09:08:17Z</time>
</trkpt>
<trkpt lat="46.043695" lon="11.178166">
<time>2020-11-25T09:08:18Z</time>
</trkpt>
<trkpt lat="46.043671" lon="11.178167">
<time>2020-11-25T09:08:19Z</time>
</trkpt>
<trkpt lat="46.043658" lon="11.17817">
<time>2020-11-25T09:08:20Z</time>
</trkpt>
<trkpt lat="46.043653" lon="11.178171">
<time>2020-11-25T09:08:21Z</time>
</trkpt>
<trkpt lat="46.043649" lon="11.178174">
<time>2020-11-25T09:08:22Z</time>
</trkpt>
<trkpt lat="46.043642" lon="11.178176">
<time>2020-11-25T09:08:23Z</time>
</trkpt>
<trkpt lat="46.043633" lon="11.178178">
<time>2020-11-25T09:08:24Z</time>
</trkpt>
<trkpt lat="46.043621" lon="11.178178">
<time>2020-11-25T09:08:25Z</time>
</trkpt>
<trkpt lat="46.043613" lon="11.178178">
<time>2020-11-25T09:08:26Z</time>
</trkpt>
<trkpt lat="46.043608" lon="11.178177">
<time>2020-11-25T09:08:27Z</time>
</trkpt>
<trkpt lat="46.043604" lon="11.178176">
<time>2020-11-25T09:08:28Z</time>
</trkpt>
<trkpt lat="46.043594" lon="11.178174">
<time>2020-11-25T09:08:29Z</time>
</trkpt>
<trkpt lat="46.043586" lon="11.17817">
<time>2020-11-25T09:08:30Z</time>
</trkpt>
<trkpt lat="46.04358" lon="11.178167">
<time>2020-11-25T09:08:31Z</time>
</trkpt>
<trkpt lat="46.043576" lon="11.178164">
<time>2020-11-25T09:08:32Z</time>
</trkpt>
<trkpt lat="46.043569" lon="11.178157">
<time>2020-11-25T09:08:33Z</time>
</trkpt>
<trkpt lat="46.043561" lon="11.17815">
<time>2020-11-25T09:08:34Z</time>
</trkpt>
<trkpt lat="46.043555" lon="11.178141">
<time>2020-11-25T09:08:35Z</time>
</trkpt>
<trkpt lat="46.043539" lon="11.178132">
<time>2020-11-25T09:08:36Z</time>
</trkpt>
<trkpt lat="46.043519" lon="11.178124">
<time>2020-11-25T09:08:37Z</time>
</trkpt>
<trkpt lat="46.043505" lon="11.178116">
<time>2020-11-25T09:08:38Z</time>
</trkpt>
<trkpt lat="46.043485" lon="11.178107">
<time>2020-11-25T09:08:39Z</time>
</trkpt>
<trkpt lat="46.04347" lon="11.178098">
<time>2020-11-25T09:08:40Z</time>
</trkpt>
<trkpt lat="46.043457" lon="11.178094">
<time>2020-11-25T09:08:41Z</time>
</trkpt>
<trkpt lat="46.043445" lon="11.17809">
<time>2020-11-25T09:08:42Z</time>
</trkpt>
<trkpt lat="46.043429" lon="11.178085">
<time>2020-11-25T09:08:43Z</time>
</trkpt>
<trkpt lat="46.043412" lon="11.178079">
<time>2020-11-25T09:08:44Z</time>
</trkpt>
<trkpt lat="46.043397" lon="11.178074">
<time>2020-11-25T09:08:45Z</time>
</trkpt>
<trkpt lat="46.043388" lon="11.178068">
<time>2020-11-25T09:08:46Z</time>
</trkpt>
<trkpt lat="46.043376" lon="11.178061">
<time>2020-11-25T09:08:47Z</time>
</trkpt>
<trkpt lat="46.043364" lon="11.178051">
<time>2020-11-25T09:08:48Z</time>
</trkpt>
<trkpt lat="46.043355" lon="11.178038">
<time>2020-11-25T09:08:49Z</time>
</trkpt>
<trkpt lat="46.043345" lon="11.178028">
<time>2020-11-25T09:08:50Z</time>
</trkpt>
<trkpt lat="46.04333" lon="11.178018">
<time>2020-11-25T09:08:51Z</time>
</trkpt>
<trkpt lat="46.043313" lon="11.178011">
<time>2020-11-25T09:08:52Z</time>
</trkpt>
<trkpt lat="46.043307" lon="11.17801">
<time>2020-11-25T09:08:53Z</time>
</trkpt>
<trkpt lat="46.043303" lon="11.178008">
<time>2020-11-25T09:08:54Z</time>
</trkpt>
<trkpt lat="46.043299" lon="11.178004">
<time>2020-11-25T09:08:55Z</time>
</trkpt>
<trkpt lat="46.04329" lon="11.177999">
<time>2020-11-25T09:08:56Z</time>
</trkpt>
<trkpt lat="46.043289" lon="11.177992">
<time>2020-11-25T09:08:57Z</time>
</trkpt>
<trkpt lat="46.043287" lon="11.177985">
<time>2020-11-25T09:08:58Z</time>
</trkpt>
<trkpt lat="46.04329" lon="11.177979">
<time>2020-11-25T09:08:59Z</time>
</trkpt>
<trkpt lat="46.043291" lon="11.177969">
<time>2020-11-25T09:09:00Z</time>
</trkpt>
<trkpt lat="46.04329" lon="11.177963">
<time>2020-11-25T09:09:01Z</time>
</trkpt>
<trkpt lat="46.043295" lon="11.177957">
<time>2020-11-25T09:09:02Z</time>
</trkpt>
<trkpt lat="46.043305" lon="11.177948">
<time>2020-11-25T09:09:03Z</time>
</trkpt>
<trkpt lat="46.043313" lon="11.177946">
<time>2020-11-25T09:09:04Z</time>
</trkpt>
<trkpt lat="46.043316" lon="11.177946">
<time>2020-11-25T09:09:05Z</time>
</trkpt>
<trkpt lat="46.043315" lon="11.17794">
<time>2020-11-25T09:09:06Z</time>
</trkpt>
<trkpt lat="46.043318" lon="11.177935">
<time>2020-11-25T09:09:07Z</time>
</trkpt>
<trkpt lat="46.04332" lon="11.177929">
<time>2020-11-25T09:09:08Z</time>
</trkpt>
<trkpt lat="46.043321" lon="11.177926">
<time>2020-11-25T09:09:09Z</time>
</trkpt>
<trkpt lat="46.043319" lon="11.177926">
<time>2020-11-25T09:09:10Z</time>
</trkpt>
<trkpt lat="46.043322" lon="11.177926">
<time>2020-11-25T09:09:11Z</time>
</trkpt>
<trkpt lat="46.043322" lon="11.177923">
<time>2020-11-25T09:09:12Z</time>
</trkpt>
<trkpt lat="46.043317" lon="11.177922">
<time>2020-11-25T09:09:13Z</time>
</trkpt>
<trkpt lat="46.043314" lon="11.177922">
<time>2020-11-25T09:09:14Z</time>
</trkpt>
<trkpt lat="46.043304" lon="11.177922">
<time>2020-11-25T09:09:15Z</time>
</trkpt>
<trkpt lat="46.043295" lon="11.177923">
<time>2020-11-25T09:09:16Z</time>
</trkpt>
<trkpt lat="46.04329" lon="11.177923">
<time>2020-11-25T09:09:17Z</time>
</trkpt>
<trkpt lat="46.043289" lon="11.177922">
<time>2020-11-25T09:09:18Z</time>
</trkpt>
<trkpt lat="46.043286" lon="11.177923">
<time>2020-11-25T09:09:19Z</time>
</trkpt>
<trkpt lat="46.043283" lon="11.177925">
<time>2020-11-25T09:09:20Z</time>
</trkpt>
<trkpt lat="46.04328" lon="11.177923">
<time>2020-11-25T09:09:21Z</time>
</trkpt>
<trkpt lat="46.043283" lon="11.177921">
<time>2020-11-25T09:09:22Z</time>
</trkpt>
<trkpt lat="46.043273" lon="11.177924">
<time>2020-11-25T09:09:23Z</time>
</trkpt>
<trkpt lat="46.043266" lon="11.177919">
<time>2020-11-25T09:09:24Z</time>
</trkpt>
<trkpt lat="46.043256" lon="11.177914">
<time>2020-11-25T09:09:25Z</time>
</trkpt>
<trkpt lat="46.043244" lon="11.177908">
<time>2020-11-25T09:09:26Z</time>
</trkpt>
<trkpt lat="46.043231" lon="11.177902">
<time>2020-11-25T09:09:27Z</time>
</trkpt>
<trkpt lat="46.043211" lon="11.177892">
<time>2020-11-25T09:09:28Z</time>
</trkpt>
<trkpt lat="46.043194" lon="11.177879">
<time>2020-11-25T09:09:29Z</time>
</trkpt>
<trkpt lat="46.043179" lon="11.177855">
<time>2020-11-25T09:09:30Z</time>
</trkpt>
<trkpt lat="46.043162" lon="11.177827">
<time>2020-11-25T09:09:31Z</time>
</trkpt>
<trkpt lat="46.04315" lon="11.177793">
<time>2020-11-25T09:09:32Z</time>
</trkpt>
<trkpt lat="46.043136" lon="11.177768">
<time>2020-11-25T09:09:33Z</time>
</trkpt>
<trkpt lat="46.04313" lon="11.177754">
<time>2020-11-25T09:09:34Z</time>
</trkpt>
<trkpt lat="46.043124" lon="11.177749">
<time>2020-11-25T09:09:35Z</time>
</trkpt>
<trkpt lat="46.043116" lon="11.177747">
<time>2020-11-25T09:09:36Z</time>
</trkpt>
<trkpt lat="46.043106" lon="11.177745">
<time>2020-11-25T09:09:37Z</time>
</trkpt>
<trkpt lat="46.043096" lon="11.177738">
<time>2020-11-25T09:09:38Z</time>
</trkpt>
<trkpt lat="46.04308" lon="11.177727">
<time>2020-11-25T09:09:39Z</time>
</trkpt>
<trkpt lat="46.043063" lon="11.177717">
<time>2020-11-25T09:09:40Z</time>
</trkpt>
<trkpt lat="46.043052" lon="11.177708">
<time>2020-11-25T09:09:41Z</time>
</trkpt>
<trkpt lat="46.043045" lon="11.177703">
<time>2020-11-25T09:09:42Z</time>
</trkpt>
<trkpt lat="46.043038" lon="11.177701">
<time>2020-11-25T09:09:43Z</time>
</trkpt>
<trkpt lat="46.043033" lon="11.177701">
<time>2020-11-25T09:09:44Z</time>
</trkpt>
<trkpt lat="46.043029" lon="11.177702">
<time>2020-11-25T09:09:45Z</time>
</trkpt>
<trkpt lat="46.043024" lon="11.177701">
<time>2020-11-25T09:09:46Z</time>
</trkpt>
<trkpt lat="46.04302" lon="11.177701">
<time>2020-11-25T09:09:47Z</time>
</trkpt>
<trkpt lat="46.043021" lon="11.177701">
<time>2020-11-25T09:09:48Z</time>
</trkpt>
<trkpt lat="46.04302" lon="11.177703">
<time>2020-11-25T09:09:49Z</time>
</trkpt>
<trkpt lat="46.043016" lon="11.177703">
<time>2020-11-25T09:09:50Z</time>
</trkpt>
<trkpt lat="46.043013" lon="11.177706">
<time>2020-11-25T09:09:51Z</time>
</trkpt>
<trkpt lat="46.043014" lon="11.177708">
<time>2020-11-25T09:09:52Z</time>
</trkpt>
<trkpt lat="46.043011" lon="11.177712">
<time>2020-11-25T09:09:53Z</time>
</trkpt>
<trkpt lat="46.043012" lon="11.177715">
<time>2020-11-25T09:09:54Z</time>
</trkpt>
<trkpt lat="46.043014" lon="11.177719">
<time>2020-11-25T09:09:55Z</time>
</trkpt>
<trkpt lat="46.043014" lon="11.177721">
<time>2020-11-25T09:09:56Z</time>
</trkpt>
<trkpt lat="46.043012" lon="11.177724">
<time>2020-11-25T09:09:57Z</time>
</trkpt>
<trkpt lat="46.043007" lon="11.177726">
<time>2020-11-25T09:09:58Z</time>
</trkpt>
<trkpt lat="46.043004" lon="11.177725">
<time>2020-11-25T09:09:59Z</time>
</trkpt>
<trkpt lat="46.043004" lon="11.177724">
<time>2020-11-25T09:10:00Z</time>
</trkpt>
<trkpt lat="46.043007" lon="11.177724">
<time>2020-11-25T09:10:01Z</time>
</trkpt>
<trkpt lat="46.043011" lon="11.17772">
<time>2020-11-25T09:10:02Z</time>
</trkpt>
<trkpt lat="46.04301" lon="11.177715">
<time>2020-11-25T09:10:03Z</time>
</trkpt>
<trkpt lat="46.043005" lon="11.177712">
<time>2020-11-25T09:10:04Z</time>
</trkpt>
<trkpt lat="46.042997" lon="11.177712">
<time>2020-11-25T09:10:05Z</time>
</trkpt>
<trkpt lat="46.042986" lon="11.177711">
<time>2020-11-25T09:10:06Z</time>
</trkpt>
<trkpt lat="46.042971" lon="11.177713">
<time>2020-11-25T09:10:07Z</time>
</trkpt>
<trkpt lat="46.042961" lon="11.177713">
<time>2020-11-25T09:10:08Z</time>
</trkpt>
<trkpt lat="46.042956" lon="11.177712">
<time>2020-11-25T09:10:09Z</time>
</trkpt>
<trkpt lat="46.042938" lon="11.177713">
<time>2020-11-25T09:10:10Z</time>
</trkpt>
<trkpt lat="46.042927" lon="11.177715">
<time>2020-11-25T09:10:11Z</time>
</trkpt>
<trkpt lat="46.042922" lon="11.177714">
<time>2020-11-25T09:10:12Z</time>
</trkpt>
<trkpt lat="46.042902" lon="11.177708">
<time>2020-11-25T09:10:13Z</time>
</trkpt>
<trkpt lat="46.042897" lon="11.177708">
<time>2020-11-25T09:10:14Z</time>
</trkpt>
<trkpt lat="46.042891" lon="11.177706">
<time>2020-11-25T09:10:15Z</time>
</trkpt>
<trkpt lat="46.042882" lon="11.177702">
<time>2020-11-25T09:10:16Z</time>
</trkpt>
<trkpt lat="46.04287" lon="11.177695">
<time>2020-11-25T09:10:17Z</time>
</trkpt>
<trkpt lat="46.042863" lon="11.177688">
<time>2020-11-25T09:10:18Z</time>
</trkpt>
<trkpt lat="46.042856" lon="11.177687">
<time>2020-11-25T09:10:19Z</time>
</trkpt>
<trkpt lat="46.042843" lon="11.177685">
<time>2020-11-25T09:10:20Z</time>
</trkpt>
<trkpt lat="46.04283" lon="11.177679">
<time>2020-11-25T09:10:21Z</time>
</trkpt>
<trkpt lat="46.042821" lon="11.17767">
<time>2020-11-25T09:10:22Z</time>
</trkpt>
<trkpt lat="46.042799" lon="11.17767">
<time>2020-11-25T09:10:23Z</time>
</trkpt>
<trkpt lat="46.042785" lon="11.177673">
<time>2020-11-25T09:10:24Z</time>
</trkpt>
<trkpt lat="46.042768" lon="11.177671">
<time>2020-11-25T09:10:25Z</time>
</trkpt>
<trkpt lat="46.042754" lon="11.177661">
<time>2020-11-25T09:10:26Z</time>
</trkpt>
<trkpt lat="46.042743" lon="11.177655">
<time>2020-11-25T09:10:27Z</time>
</trkpt>
<trkpt lat="46.042729" lon="11.177654">
<time>2020-11-25T09:10:28Z</time>
</trkpt>
<trkpt lat="46.042712" lon="11.177649">
<time>2020-11-25T09:10:29Z</time>
</trkpt>
<trkpt lat="46.042705" lon="11.177647">
<time>2020-11-25T09:10:30Z</time>
</trkpt>
<trkpt lat="46.042704" lon="11.177647">
<time>2020-11-25T09:10:31Z</time>
</trkpt>
<trkpt lat="46.042693" lon="11.177643">
<time>2020-11-25T09:10:32Z</time>
</trkpt>
<trkpt lat="46.042676" lon="11.177639">
<time>2020-11-25T09:10:33Z</time>
</trkpt>
<trkpt lat="46.042668" lon="11.17763">
<time>2020-11-25T09:10:34Z</time>
</trkpt>
<trkpt lat="46.042658" lon="11.177612">
<time>2020-11-25T09:10:35Z</time>
</trkpt>
<trkpt lat="46.042645" lon="11.177592">
<time>2020-11-25T09:10:36Z</time>
</trkpt>
<trkpt lat="46.04264" lon="11.177579">
<time>2020-11-25T09:10:37Z</time>
</trkpt>
<trkpt lat="46.042638" lon="11.177564">
<time>2020-11-25T09:10:38Z</time>
</trkpt>
<trkpt lat="46.042636" lon="11.177557">
<time>2020-11-25T09:10:39Z</time>
</trkpt>
<trkpt lat="46.042638" lon="11.177547">
<time>2020-11-25T09:10:40Z</time>
</trkpt>
<trkpt lat="46.042638" lon="11.17754">
<time>2020-11-25T09:10:41Z</time>
</trkpt>
<trkpt lat="46.042638" lon="11.177532">
<time>2020-11-25T09:10:42Z</time>
</trkpt>
<trkpt lat="46.042632" lon="11.177526">
<time>2020-11-25T09:10:43Z</time>
</trkpt>
<trkpt lat="46.042627" lon="11.177522">
<time>2020-11-25T09:10:44Z</time>
</trkpt>
<trkpt lat="46.042621" lon="11.177519">
<time>2020-11-25T09:10:45Z</time>
</trkpt>
<trkpt lat="46.042612" lon="11.177516">
<time>2020-11-25T09:10:46Z</time>
</trkpt>
<trkpt lat="46.042603" lon="11.177513">
<time>2020-11-25T09:10:47Z</time>
</trkpt>
<trkpt lat="46.042591" lon="11.177506">
<time>2020-11-25T09:10:48Z</time>
</trkpt>
<trkpt lat="46.042584" lon="11.177501">
<time>2020-11-25T09:10:49Z</time>
</trkpt>
<trkpt lat="46.042576" lon="11.177497">
<time>2020-11-25T09:10:50Z</time>
</trkpt>
<trkpt lat="46.042568" lon="11.177491">
<time>2020-11-25T09:10:51Z</time>
</trkpt>
<trkpt lat="46.042556" lon="11.177488">
<time>2020-11-25T09:10:52Z</time>
</trkpt>
<trkpt lat="46.042552" lon="11.177487">
<time>2020-11-25T09:10:53Z</time>
</trkpt>
<trkpt lat="46.042547" lon="11.177489">
<time>2020-11-25T09:10:54Z</time>
</trkpt>
<trkpt lat="46.042543" lon="11.177493">
<time>2020-11-25T09:10:55Z</time>
</trkpt>
<trkpt lat="46.042539" lon="11.177496">
<time>2020-11-25T09:10:56Z</time>
</trkpt>
<trkpt lat="46.042531" lon="11.177498">
<time>2020-11-25T09:10:57Z</time>
</trkpt>
<trkpt lat="46.042519" lon="11.1775">
<time>2020-11-25T09:10:58Z</time>
</trkpt>
<trkpt lat="46.042517" lon="11.177499">
<time>2020-11-25T09:10:59Z</time>
</trkpt>
<trkpt lat="46.042512" lon="11.177498">
<time>2020-11-25T09:11:00Z</time>
</trkpt>
<trkpt lat="46.042509" lon="11.177496">
<time>2020-11-25T09:11:01Z</time>
</trkpt>
<trkpt lat="46.042513" lon="11.177491">
<time>2020-11-25T09:11:02Z</time>
</trkpt>
<trkpt lat="46.042513" lon="11.17749">
<time>2020-11-25T09:11:03Z</time>
</trkpt>
<trkpt lat="46.042514" lon="11.177488">
<time>2020-11-25T09:11:04Z</time>
</trkpt>
<trkpt lat="46.042527" lon="11.177489">
<time>2020-11-25T09:11:05Z</time>
</trkpt>
<trkpt lat="46.042531" lon="11.177485">
<time>2020-11-25T09:11:06Z</time>
</trkpt>
<trkpt lat="46.042522" lon="11.177488">
<time>2020-11-25T09:11:07Z</time>
</trkpt>
<trkpt lat="46.042516" lon="11.177493">
<time>2020-11-25T09:11:08Z</time>
</trkpt>
<trkpt lat="46.042512" lon="11.177498">
<time>2020-11-25T09:11:09Z</time>
</trkpt>
<trkpt lat="46.042512" lon="11.1775">
<time>2020-11-25T09:11:10Z</time>
</trkpt>
<trkpt lat="46.042511" lon="11.177504">
<time>2020-11-25T09:11:11Z</time>
</trkpt>
<trkpt lat="46.042509" lon="11.177506">
<time>2020-11-25T09:11:12Z</time>
</trkpt>
<trkpt lat="46.042556" lon="11.177486">
<time>2020-11-25T09:11:13Z</time>
</trkpt>
<trkpt lat="46.042566" lon="11.177483">
<time>2020-11-25T09:11:14Z</time>
</trkpt>
<trkpt lat="46.042571" lon="11.177477">
<time>2020-11-25T09:11:15Z</time>
</trkpt>
<trkpt lat="46.042574" lon="11.17747">
<time>2020-11-25T09:11:16Z</time>
</trkpt>
<trkpt lat="46.042584" lon="11.17746">
<time>2020-11-25T09:11:17Z</time>
</trkpt>
<trkpt lat="46.042586" lon="11.177455">
<time>2020-11-25T09:11:18Z</time>
</trkpt>
<trkpt lat="46.042587" lon="11.177448">
<time>2020-11-25T09:11:19Z</time>
</trkpt>
<trkpt lat="46.042595" lon="11.177432">
<time>2020-11-25T09:11:20Z</time>
</trkpt>
<trkpt lat="46.042611" lon="11.177417">
<time>2020-11-25T09:11:21Z</time>
</trkpt>
<trkpt lat="46.04262" lon="11.177404">
<time>2020-11-25T09:11:22Z</time>
</trkpt>
<trkpt lat="46.042625" lon="11.177395">
<time>2020-11-25T09:11:23Z</time>
</trkpt>
<trkpt lat="46.042624" lon="11.177391">
<time>2020-11-25T09:11:24Z</time>
</trkpt>
<trkpt lat="46.042621" lon="11.177381">
<time>2020-11-25T09:11:25Z</time>
</trkpt>
<trkpt lat="46.042626" lon="11.177363">
<time>2020-11-25T09:11:26Z</time>
</trkpt>
<trkpt lat="46.04263" lon="11.177338">
<time>2020-11-25T09:11:27Z</time>
</trkpt>
<trkpt lat="46.042633" lon="11.17731">
<time>2020-11-25T09:11:28Z</time>
</trkpt>
<trkpt lat="46.042632" lon="11.177284">
<time>2020-11-25T09:11:29Z</time>
</trkpt>
<trkpt lat="46.042629" lon="11.177267">
<time>2020-11-25T09:11:30Z</time>
</trkpt>
<trkpt lat="46.042632" lon="11.177248">
<time>2020-11-25T09:11:31Z</time>
</trkpt>
<trkpt lat="46.042633" lon="11.17723">
<time>2020-11-25T09:11:32Z</time>
</trkpt>
<trkpt lat="46.042643" lon="11.177206">
<time>2020-11-25T09:11:33Z</time>
</trkpt>
<trkpt lat="46.042656" lon="11.177185">
<time>2020-11-25T09:11:34Z</time>
</trkpt>
<trkpt lat="46.042668" lon="11.177164">
<time>2020-11-25T09:11:35Z</time>
</trkpt>
<trkpt lat="46.042683" lon="11.177147">
<time>2020-11-25T09:11:36Z</time>
</trkpt>
<trkpt lat="46.042704" lon="11.177131">
<time>2020-11-25T09:11:37Z</time>
</trkpt>
<trkpt lat="46.042719" lon="11.177109">
<time>2020-11-25T09:11:38Z</time>
</trkpt>
<trkpt lat="46.042728" lon="11.177086">
<time>2020-11-25T09:11:39Z</time>
</trkpt>
<trkpt lat="46.042735" lon="11.177064">
<time>2020-11-25T09:11:40Z</time>
</trkpt>
<trkpt lat="46.04274" lon="11.177049">
<time>2020-11-25T09:11:41Z</time>
</trkpt>
<trkpt lat="46.042737" lon="11.177035">
<time>2020-11-25T09:11:42Z</time>
</trkpt>
<trkpt lat="46.042747" lon="11.177015">
<time>2020-11-25T09:11:43Z</time>
</trkpt>
<trkpt lat="46.042758" lon="11.176996">
<time>2020-11-25T09:11:44Z</time>
</trkpt>
<trkpt lat="46.042768" lon="11.17698">
<time>2020-11-25T09:11:45Z</time>
</trkpt>
<trkpt lat="46.042773" lon="11.17696">
<time>2020-11-25T09:11:46Z</time>
</trkpt>
<trkpt lat="46.04278" lon="11.17695">
<time>2020-11-25T09:11:47Z</time>
</trkpt>
<trkpt lat="46.042785" lon="11.176943">
<time>2020-11-25T09:11:48Z</time>
</trkpt>
<trkpt lat="46.042787" lon="11.176938">
<time>2020-11-25T09:11:49Z</time>
</trkpt>
<trkpt lat="46.04279" lon="11.176934">
<time>2020-11-25T09:11:50Z</time>
</trkpt>
<trkpt lat="46.042792" lon="11.176932">
<time>2020-11-25T09:11:51Z</time>
</trkpt>
<trkpt lat="46.042796" lon="11.176933">
<time>2020-11-25T09:11:52Z</time>
</trkpt>
<trkpt lat="46.042797" lon="11.176924">
<time>2020-11-25T09:11:53Z</time>
</trkpt>
<trkpt lat="46.042798" lon="11.176914">
<time>2020-11-25T09:11:54Z</time>
</trkpt>
<trkpt lat="46.042801" lon="11.176899">
<time>2020-11-25T09:11:55Z</time>
</trkpt>
<trkpt lat="46.042805" lon="11.176888">
<time>2020-11-25T09:11:56Z</time>
</trkpt>
<trkpt lat="46.042807" lon="11.176874">
<time>2020-11-25T09:11:57Z</time>
</trkpt>
<trkpt lat="46.042803" lon="11.176854">
<time>2020-11-25T09:11:58Z</time>
</trkpt>
<trkpt lat="46.042799" lon="11.17683">
<time>2020-11-25T09:11:59Z</time>
</trkpt>
<trkpt lat="46.042794" lon="11.176807">
<time>2020-11-25T09:12:00Z</time>
</trkpt>
<trkpt lat="46.04279" lon="11.176792">
<time>2020-11-25T09:12:01Z</time>
</trkpt>
<trkpt lat="46.042781" lon="11.176781">
<time>2020-11-25T09:12:02Z</time>
</trkpt>
<trkpt lat="46.042773" lon="11.17677">
<time>2020-11-25T09:12:03Z</time>
</trkpt>
<trkpt lat="46.042769" lon="11.176757">
<time>2020-11-25T09:12:04Z</time>
</trkpt>
<trkpt lat="46.042761" lon="11.176746">
<time>2020-11-25T09:12:05Z</time>
</trkpt>
<trkpt lat="46.042751" lon="11.176741">
<time>2020-11-25T09:12:06Z</time>
</trkpt>
<trkpt lat="46.042738" lon="11.176737">
<time>2020-11-25T09:12:07Z</time>
</trkpt>
<trkpt lat="46.042722" lon="11.176733">
<time>2020-11-25T09:12:08Z</time>
</trkpt>
<trkpt lat="46.042708" lon="11.176727">
<time>2020-11-25T09:12:09Z</time>
</trkpt>
<trkpt lat="46.042696" lon="11.176723">
<time>2020-11-25T09:12:10Z</time>
</trkpt>
<trkpt lat="46.042677" lon="11.176717">
<time>2020-11-25T09:12:11Z</time>
</trkpt>
<trkpt lat="46.042666" lon="11.17671">
<time>2020-11-25T09:12:12Z</time>
</trkpt>
<trkpt lat="46.042653" lon="11.176698">
<time>2020-11-25T09:12:13Z</time>
</trkpt>
<trkpt lat="46.042642" lon="11.17668">
<time>2020-11-25T09:12:14Z</time>
</trkpt>
<trkpt lat="46.042632" lon="11.176665">
<time>2020-11-25T09:12:15Z</time>
</trkpt>
<trkpt lat="46.042627" lon="11.176653">
<time>2020-11-25T09:12:16Z</time>
</trkpt>
<trkpt lat="46.042619" lon="11.176643">
<time>2020-11-25T09:12:17Z</time>
</trkpt>
<trkpt lat="46.042616" lon="11.176637">
<time>2020-11-25T09:12:18Z</time>
</trkpt>
<trkpt lat="46.042616" lon="11.176631">
<time>2020-11-25T09:12:19Z</time>
</trkpt>
<trkpt lat="46.042614" lon="11.176623">
<time>2020-11-25T09:12:20Z</time>
</trkpt>
<trkpt lat="46.04261" lon="11.176616">
<time>2020-11-25T09:12:21Z</time>
</trkpt>
<trkpt lat="46.04261" lon="11.176606">
<time>2020-11-25T09:12:22Z</time>
</trkpt>
<trkpt lat="46.042603" lon="11.1766">
<time>2020-11-25T09:12:23Z</time>
</trkpt>
<trkpt lat="46.042601" lon="11.176594">
<time>2020-11-25T09:12:24Z</time>
</trkpt>
<trkpt lat="46.042597" lon="11.176585">
<time>2020-11-25T09:12:25Z</time>
</trkpt>
<trkpt lat="46.042598" lon="11.17657">
<time>2020-11-25T09:12:26Z</time>
</trkpt>
<trkpt lat="46.042599" lon="11.176556">
<time>2020-11-25T09:12:27Z</time>
</trkpt>
<trkpt lat="46.0426" lon="11.176546">
<time>2020-11-25T09:12:28Z</time>
</trkpt>
<trkpt lat="46.042604" lon="11.176535">
<time>2020-11-25T09:12:29Z</time>
</trkpt>
<trkpt lat="46.04261" lon="11.176525">
<time>2020-11-25T09:12:30Z</time>
</trkpt>
<trkpt lat="46.042611" lon="11.176519">
<time>2020-11-25T09:12:31Z</time>
</trkpt>
<trkpt lat="46.042612" lon="11.176514">
<time>2020-11-25T09:12:32Z</time>
</trkpt>
<trkpt lat="46.042609" lon="11.176511">
<time>2020-11-25T09:12:33Z</time>
</trkpt>
<trkpt lat="46.042603" lon="11.176512">
<time>2020-11-25T09:12:34Z</time>
</trkpt>
<trkpt lat="46.042597" lon="11.176508">
<time>2020-11-25T09:12:35Z</time>
</trkpt>
<trkpt lat="46.042595" lon="11.176501">
<time>2020-11-25T09:12:36Z</time>
</trkpt>
<trkpt lat="46.042588" lon="11.17649">
<time>2020-11-25T09:12:37Z</time>
</trkpt>
<trkpt lat="46.042582" lon="11.176482">
<time>2020-11-25T09:12:38Z</time>
</trkpt>
<trkpt lat="46.042574" lon="11.176475">
<time>2020-11-25T09:12:39Z</time>
</trkpt>
<trkpt lat="46.042561" lon="11.176465">
<time>2020-11-25T09:12:40Z</time>
</trkpt>
<trkpt lat="46.042556" lon="11.176458">
<time>2020-11-25T09:12:41Z</time>
</trkpt>
<trkpt lat="46.042549" lon="11.176452">
<time>2020-11-25T09:12:42Z</time>
</trkpt>
<trkpt lat="46.042538" lon="11.176447">
<time>2020-11-25T09:12:43Z</time>
</trkpt>
<trkpt lat="46.042538" lon="11.176442">
<time>2020-11-25T09:12:44Z</time>
</trkpt>
<trkpt lat="46.04254" lon="11.176436">
<time>2020-11-25T09:12:45Z</time>
</trkpt>
<trkpt lat="46.042538" lon="11.17643">
<time>2020-11-25T09:12:46Z</time>
</trkpt>
<trkpt lat="46.042532" lon="11.176423">
<time>2020-11-25T09:12:47Z</time>
</trkpt>
<trkpt lat="46.042527" lon="11.176417">
<time>2020-11-25T09:12:48Z</time>
</trkpt>
<trkpt lat="46.042519" lon="11.176408">
<time>2020-11-25T09:12:49Z</time>
</trkpt>
<trkpt lat="46.042519" lon="11.176395">
<time>2020-11-25T09:12:50Z</time>
</trkpt>
<trkpt lat="46.042512" lon="11.176384">
<time>2020-11-25T09:12:51Z</time>
</trkpt>
<trkpt lat="46.042509" lon="11.176374">
<time>2020-11-25T09:12:52Z</time>
</trkpt>
<trkpt lat="46.04251" lon="11.176362">
<time>2020-11-25T09:12:53Z</time>
</trkpt>
<trkpt lat="46.042508" lon="11.176351">
<time>2020-11-25T09:12:54Z</time>
</trkpt>
<trkpt lat="46.042504" lon="11.176343">
<time>2020-11-25T09:12:55Z</time>
</trkpt>
<trkpt lat="46.0425" lon="11.176334">
<time>2020-11-25T09:12:56Z</time>
</trkpt>
<trkpt lat="46.042496" lon="11.176325">
<time>2020-11-25T09:12:57Z</time>
</trkpt>
<trkpt lat="46.042495" lon="11.176316">
<time>2020-11-25T09:12:58Z</time>
</trkpt>
<trkpt lat="46.042499" lon="11.176311">
<time>2020-11-25T09:12:59Z</time>
</trkpt>
<trkpt lat="46.042496" lon="11.176305">
<time>2020-11-25T09:13:00Z</time>
</trkpt>
<trkpt lat="46.042496" lon="11.176299">
<time>2020-11-25T09:13:01Z</time>
</trkpt>
<trkpt lat="46.042486" lon="11.176291">
<time>2020-11-25T09:13:02Z</time>
</trkpt>
<trkpt lat="46.042472" lon="11.176286">
<time>2020-11-25T09:13:03Z</time>
</trkpt>
<trkpt lat="46.042471" lon="11.176279">
<time>2020-11-25T09:13:04Z</time>
</trkpt>
<trkpt lat="46.042466" lon="11.176271">
<time>2020-11-25T09:13:05Z</time>
</trkpt>
<trkpt lat="46.042459" lon="11.176261">
<time>2020-11-25T09:13:06Z</time>
</trkpt>
<trkpt lat="46.042453" lon="11.176251">
<time>2020-11-25T09:13:07Z</time>
</trkpt>
<trkpt lat="46.042441" lon="11.17624">
<time>2020-11-25T09:13:08Z</time>
</trkpt>
<trkpt lat="46.042437" lon="11.176225">
<time>2020-11-25T09:13:09Z</time>
</trkpt>
<trkpt lat="46.042433" lon="11.17621">
<time>2020-11-25T09:13:10Z</time>
</trkpt>
<trkpt lat="46.042431" lon="11.176199">
<time>2020-11-25T09:13:11Z</time>
</trkpt>
<trkpt lat="46.042428" lon="11.176192">
<time>2020-11-25T09:13:12Z</time>
</trkpt>
<trkpt lat="46.042421" lon="11.176185">
<time>2020-11-25T09:13:13Z</time>
</trkpt>
<trkpt lat="46.042409" lon="11.176174">
<time>2020-11-25T09:13:14Z</time>
</trkpt>
<trkpt lat="46.04239" lon="11.176155">
<time>2020-11-25T09:13:15Z</time>
</trkpt>
<trkpt lat="46.042367" lon="11.176135">
<time>2020-11-25T09:13:16Z</time>
</trkpt>
<trkpt lat="46.042344" lon="11.176116">
<time>2020-11-25T09:13:17Z</time>
</trkpt>
<trkpt lat="46.042325" lon="11.1761">
<time>2020-11-25T09:13:18Z</time>
</trkpt>
<trkpt lat="46.042303" lon="11.176084">
<time>2020-11-25T09:13:19Z</time>
</trkpt>
<trkpt lat="46.042288" lon="11.176071">
<time>2020-11-25T09:13:20Z</time>
</trkpt>
<trkpt lat="46.042262" lon="11.176022">
<time>2020-11-25T09:13:28Z</time>
</trkpt>
<trkpt lat="46.042251" lon="11.176013">
<time>2020-11-25T09:13:29Z</time>
</trkpt>
<trkpt lat="46.042239" lon="11.176004">
<time>2020-11-25T09:13:30Z</time>
</trkpt>
<trkpt lat="46.042228" lon="11.175997">
<time>2020-11-25T09:13:31Z</time>
</trkpt>
<trkpt lat="46.042226" lon="11.175989">
<time>2020-11-25T09:13:32Z</time>
</trkpt>
<trkpt lat="46.04223" lon="11.175984">
<time>2020-11-25T09:13:33Z</time>
</trkpt>
<trkpt lat="46.042236" lon="11.17598">
<time>2020-11-25T09:13:34Z</time>
</trkpt>
<trkpt lat="46.042244" lon="11.175974">
<time>2020-11-25T09:13:35Z</time>
</trkpt>
<trkpt lat="46.042248" lon="11.17596">
<time>2020-11-25T09:13:36Z</time>
</trkpt>
<trkpt lat="46.042246" lon="11.175946">
<time>2020-11-25T09:13:37Z</time>
</trkpt>
<trkpt lat="46.042243" lon="11.175935">
<time>2020-11-25T09:13:38Z</time>
</trkpt>
<trkpt lat="46.042237" lon="11.175926">
<time>2020-11-25T09:13:39Z</time>
</trkpt>
<trkpt lat="46.042235" lon="11.175917">
<time>2020-11-25T09:13:40Z</time>
</trkpt>
<trkpt lat="46.042233" lon="11.175908">
<time>2020-11-25T09:13:41Z</time>
</trkpt>
<trkpt lat="46.042229" lon="11.175906">
<time>2020-11-25T09:13:42Z</time>
</trkpt>
<trkpt lat="46.042228" lon="11.175903">
<time>2020-11-25T09:13:43Z</time>
</trkpt>
<trkpt lat="46.042227" lon="11.175896">
<time>2020-11-25T09:13:44Z</time>
</trkpt>
<trkpt lat="46.042232" lon="11.175888">
<time>2020-11-25T09:13:45Z</time>
</trkpt>
<trkpt lat="46.042234" lon="11.175882">
<time>2020-11-25T09:13:46Z</time>
</trkpt>
<trkpt lat="46.042229" lon="11.175873">
<time>2020-11-25T09:13:47Z</time>
</trkpt>
<trkpt lat="46.042222" lon="11.175857">
<time>2020-11-25T09:13:48Z</time>
</trkpt>
<trkpt lat="46.042216" lon="11.175844">
<time>2020-11-25T09:13:49Z</time>
</trkpt>
<trkpt lat="46.042211" lon="11.175831">
<time>2020-11-25T09:13:50Z</time>
</trkpt>
<trkpt lat="46.042211" lon="11.175821">
<time>2020-11-25T09:13:51Z</time>
</trkpt>
<trkpt lat="46.042215" lon="11.175812">
<time>2020-11-25T09:13:52Z</time>
</trkpt>
<trkpt lat="46.042213" lon="11.175802">
<time>2020-11-25T09:13:53Z</time>
</trkpt>
<trkpt lat="46.042208" lon="11.175782">
<time>2020-11-25T09:13:54Z</time>
</trkpt>
<trkpt lat="46.042198" lon="11.175762">
<time>2020-11-25T09:13:55Z</time>
</trkpt>
<trkpt lat="46.042193" lon="11.175743">
<time>2020-11-25T09:13:56Z</time>
</trkpt>
<trkpt lat="46.042193" lon="11.175721">
<time>2020-11-25T09:13:57Z</time>
</trkpt>
<trkpt lat="46.042187" lon="11.175697">
<time>2020-11-25T09:13:58Z</time>
</trkpt>
<trkpt lat="46.042185" lon="11.175678">
<time>2020-11-25T09:13:59Z</time>
</trkpt>
<trkpt lat="46.042178" lon="11.17566">
<time>2020-11-25T09:14:00Z</time>
</trkpt>
<trkpt lat="46.04217" lon="11.175647">
<time>2020-11-25T09:14:01Z</time>
</trkpt>
<trkpt lat="46.042161" lon="11.175636">
<time>2020-11-25T09:14:02Z</time>
</trkpt>
<trkpt lat="46.042144" lon="11.175622">
<time>2020-11-25T09:14:03Z</time>
</trkpt>
<trkpt lat="46.042134" lon="11.175608">
<time>2020-11-25T09:14:04Z</time>
</trkpt>
<trkpt lat="46.042127" lon="11.17559">
<time>2020-11-25T09:14:05Z</time>
</trkpt>
<trkpt lat="46.042116" lon="11.175576">
<time>2020-11-25T09:14:06Z</time>
</trkpt>
<trkpt lat="46.042105" lon="11.17556">
<time>2020-11-25T09:14:07Z</time>
</trkpt>
<trkpt lat="46.042092" lon="11.175539">
<time>2020-11-25T09:14:08Z</time>
</trkpt>
<trkpt lat="46.042076" lon="11.175519">
<time>2020-11-25T09:14:09Z</time>
</trkpt>
<trkpt lat="46.04206" lon="11.175503">
<time>2020-11-25T09:14:10Z</time>
</trkpt>
<trkpt lat="46.042045" lon="11.175489">
<time>2020-11-25T09:14:11Z</time>
</trkpt>
<trkpt lat="46.042035" lon="11.175478">
<time>2020-11-25T09:14:12Z</time>
</trkpt>
<trkpt lat="46.042025" lon="11.175468">
<time>2020-11-25T09:14:13Z</time>
</trkpt>
<trkpt lat="46.042011" lon="11.175456">
<time>2020-11-25T09:14:14Z</time>
</trkpt>
<trkpt lat="46.041991" lon="11.17545">
<time>2020-11-25T09:14:15Z</time>
</trkpt>
<trkpt lat="46.041974" lon="11.175443">
<time>2020-11-25T09:14:16Z</time>
</trkpt>
<trkpt lat="46.041961" lon="11.175439">
<time>2020-11-25T09:14:17Z</time>
</trkpt>
<trkpt lat="46.041951" lon="11.175434">
<time>2020-11-25T09:14:18Z</time>
</trkpt>
<trkpt lat="46.041946" lon="11.175428">
<time>2020-11-25T09:14:19Z</time>
</trkpt>
<trkpt lat="46.041941" lon="11.17542">
<time>2020-11-25T09:14:20Z</time>
</trkpt>
<trkpt lat="46.041937" lon="11.175414">
<time>2020-11-25T09:14:21Z</time>
</trkpt>
<trkpt lat="46.041938" lon="11.175405">
<time>2020-11-25T09:14:22Z</time>
</trkpt>
<trkpt lat="46.041938" lon="11.175396">
<time>2020-11-25T09:14:23Z</time>
</trkpt>
<trkpt lat="46.041942" lon="11.17538">
<time>2020-11-25T09:14:24Z</time>
</trkpt>
<trkpt lat="46.041926" lon="11.175369">
<time>2020-11-25T09:14:25Z</time>
</trkpt>
<trkpt lat="46.041916" lon="11.175355">
<time>2020-11-25T09:14:26Z</time>
</trkpt>
<trkpt lat="46.04191" lon="11.175346">
<time>2020-11-25T09:14:27Z</time>
</trkpt>
<trkpt lat="46.041902" lon="11.175336">
<time>2020-11-25T09:14:28Z</time>
</trkpt>
<trkpt lat="46.041891" lon="11.175325">
<time>2020-11-25T09:14:29Z</time>
</trkpt>
<trkpt lat="46.041889" lon="11.175314">
<time>2020-11-25T09:14:30Z</time>
</trkpt>
<trkpt lat="46.041884" lon="11.175304">
<time>2020-11-25T09:14:31Z</time>
</trkpt>
<trkpt lat="46.041878" lon="11.175293">
<time>2020-11-25T09:14:32Z</time>
</trkpt>
<trkpt lat="46.041863" lon="11.175283">
<time>2020-11-25T09:14:33Z</time>
</trkpt>
<trkpt lat="46.041845" lon="11.175275">
<time>2020-11-25T09:14:34Z</time>
</trkpt>
<trkpt lat="46.041832" lon="11.175273">
<time>2020-11-25T09:14:35Z</time>
</trkpt>
<trkpt lat="46.041812" lon="11.175275">
<time>2020-11-25T09:14:36Z</time>
</trkpt>
<trkpt lat="46.041794" lon="11.175274">
<time>2020-11-25T09:14:37Z</time>
</trkpt>
<trkpt lat="46.041783" lon="11.175275">
<time>2020-11-25T09:14:38Z</time>
</trkpt>
<trkpt lat="46.041773" lon="11.175277">
<time>2020-11-25T09:14:39Z</time>
</trkpt>
<trkpt lat="46.041763" lon="11.175279">
<time>2020-11-25T09:14:40Z</time>
</trkpt>
<trkpt lat="46.041759" lon="11.175282">
<time>2020-11-25T09:14:41Z</time>
</trkpt>
<trkpt lat="46.041751" lon="11.175287">
<time>2020-11-25T09:14:42Z</time>
</trkpt>
<trkpt lat="46.041739" lon="11.175295">
<time>2020-11-25T09:14:43Z</time>
</trkpt>
<trkpt lat="46.041731" lon="11.1753">
<time>2020-11-25T09:14:44Z</time>
</trkpt>
<trkpt lat="46.041721" lon="11.175303">
<time>2020-11-25T09:14:45Z</time>
</trkpt>
<trkpt lat="46.041711" lon="11.175307">
<time>2020-11-25T09:14:46Z</time>
</trkpt>
<trkpt lat="46.041712" lon="11.175312">
<time>2020-11-25T09:14:47Z</time>
</trkpt>
<trkpt lat="46.041706" lon="11.175314">
<time>2020-11-25T09:14:48Z</time>
</trkpt>
<trkpt lat="46.041699" lon="11.175311">
<time>2020-11-25T09:14:49Z</time>
</trkpt>
<trkpt lat="46.041702" lon="11.175313">
<time>2020-11-25T09:14:50Z</time>
</trkpt>
<trkpt lat="46.041698" lon="11.175314">
<time>2020-11-25T09:14:51Z</time>
</trkpt>
<trkpt lat="46.041692" lon="11.175313">
<time>2020-11-25T09:14:52Z</time>
</trkpt>
<trkpt lat="46.041687" lon="11.175313">
<time>2020-11-25T09:14:53Z</time>
</trkpt>
<trkpt lat="46.041681" lon="11.175313">
<time>2020-11-25T09:14:54Z</time>
</trkpt>
<trkpt lat="46.041674" lon="11.175313">
<time>2020-11-25T09:14:55Z</time>
</trkpt>
<trkpt lat="46.041668" lon="11.175313">
<time>2020-11-25T09:14:56Z</time>
</trkpt>
<trkpt lat="46.041658" lon="11.175317">
<time>2020-11-25T09:14:57Z</time>
</trkpt>
<trkpt lat="46.041654" lon="11.17532">
<time>2020-11-25T09:14:58Z</time>
</trkpt>
<trkpt lat="46.04165" lon="11.175321">
<time>2020-11-25T09:14:59Z</time>
</trkpt>
<trkpt lat="46.041644" lon="11.175321">
<time>2020-11-25T09:15:00Z</time>
</trkpt>
<trkpt lat="46.041642" lon="11.175326">
<time>2020-11-25T09:15:01Z</time>
</trkpt>
<trkpt lat="46.04164" lon="11.175328">
<time>2020-11-25T09:15:02Z</time>
</trkpt>
<trkpt lat="46.041634" lon="11.17533">
<time>2020-11-25T09:15:03Z</time>
</trkpt>
<trkpt lat="46.041631" lon="11.175334">
<time>2020-11-25T09:15:04Z</time>
</trkpt>
<trkpt lat="46.04163" lon="11.175338">
<time>2020-11-25T09:15:05Z</time>
</trkpt>
<trkpt lat="46.041627" lon="11.175341">
<time>2020-11-25T09:15:06Z</time>
</trkpt>
<trkpt lat="46.041623" lon="11.175343">
<time>2020-11-25T09:15:07Z</time>
</trkpt>
<trkpt lat="46.041608" lon="11.175352">
<time>2020-11-25T09:15:08Z</time>
</trkpt>
<trkpt lat="46.041594" lon="11.175361">
<time>2020-11-25T09:15:09Z</time>
</trkpt>
<trkpt lat="46.041573" lon="11.175372">
<time>2020-11-25T09:15:10Z</time>
</trkpt>
<trkpt lat="46.041553" lon="11.175384">
<time>2020-11-25T09:15:11Z</time>
</trkpt>
<trkpt lat="46.041543" lon="11.175395">
<time>2020-11-25T09:15:12Z</time>
</trkpt>
<trkpt lat="46.041533" lon="11.175401">
<time>2020-11-25T09:15:13Z</time>
</trkpt>
<trkpt lat="46.041531" lon="11.175407">
<time>2020-11-25T09:15:14Z</time>
</trkpt>
<trkpt lat="46.041524" lon="11.175409">
<time>2020-11-25T09:15:15Z</time>
</trkpt>
<trkpt lat="46.041516" lon="11.175417">
<time>2020-11-25T09:15:16Z</time>
</trkpt>
<trkpt lat="46.041488" lon="11.175429">
<time>2020-11-25T09:15:17Z</time>
</trkpt>
<trkpt lat="46.041483" lon="11.17543">
<time>2020-11-25T09:15:18Z</time>
</trkpt>
<trkpt lat="46.041486" lon="11.175431">
<time>2020-11-25T09:15:19Z</time>
</trkpt>
<trkpt lat="46.041493" lon="11.175428">
<time>2020-11-25T09:15:20Z</time>
</trkpt>
<trkpt lat="46.041497" lon="11.175427">
<time>2020-11-25T09:15:21Z</time>
</trkpt>
<trkpt lat="46.041489" lon="11.175435">
<time>2020-11-25T09:15:22Z</time>
</trkpt>
<trkpt lat="46.041471" lon="11.175436">
<time>2020-11-25T09:15:23Z</time>
</trkpt>
<trkpt lat="46.041459" lon="11.175433">
<time>2020-11-25T09:15:24Z</time>
</trkpt>
<trkpt lat="46.041448" lon="11.175427">
<time>2020-11-25T09:15:25Z</time>
</trkpt>
<trkpt lat="46.041434" lon="11.175427">
<time>2020-11-25T09:15:26Z</time>
</trkpt>
<trkpt lat="46.041417" lon="11.175428">
<time>2020-11-25T09:15:27Z</time>
</trkpt>
<trkpt lat="46.041398" lon="11.17543">
<time>2020-11-25T09:15:28Z</time>
</trkpt>
<trkpt lat="46.04138" lon="11.175434">
<time>2020-11-25T09:15:29Z</time>
</trkpt>
<trkpt lat="46.041369" lon="11.175437">
<time>2020-11-25T09:15:30Z</time>
</trkpt>
<trkpt lat="46.041355" lon="11.175439">
<time>2020-11-25T09:15:31Z</time>
</trkpt>
<trkpt lat="46.041342" lon="11.175444">
<time>2020-11-25T09:15:32Z</time>
</trkpt>
<trkpt lat="46.041336" lon="11.175446">
<time>2020-11-25T09:15:33Z</time>
</trkpt>
<trkpt lat="46.041328" lon="11.175451">
<time>2020-11-25T09:15:34Z</time>
</trkpt>
<trkpt lat="46.041321" lon="11.175458">
<time>2020-11-25T09:15:35Z</time>
</trkpt>
<trkpt lat="46.041311" lon="11.17546">
<time>2020-11-25T09:15:36Z</time>
</trkpt>
<trkpt lat="46.041304" lon="11.175462">
<time>2020-11-25T09:15:37Z</time>
</trkpt>
<trkpt lat="46.041298" lon="11.175462">
<time>2020-11-25T09:15:38Z</time>
</trkpt>
<trkpt lat="46.041294" lon="11.175462">
<time>2020-11-25T09:15:39Z</time>
</trkpt>
<trkpt lat="46.041288" lon="11.175463">
<time>2020-11-25T09:15:40Z</time>
</trkpt>
<trkpt lat="46.041285" lon="11.175465">
<time>2020-11-25T09:15:41Z</time>
</trkpt>
<trkpt lat="46.041282" lon="11.175468">
<time>2020-11-25T09:15:42Z</time>
</trkpt>
<trkpt lat="46.041283" lon="11.17547">
<time>2020-11-25T09:15:43Z</time>
</trkpt>
<trkpt lat="46.041282" lon="11.17547">
<time>2020-11-25T09:15:44Z</time>
</trkpt>
<trkpt lat="46.041285" lon="11.175469">
<time>2020-11-25T09:15:45Z</time>
</trkpt>
<trkpt lat="46.04128" lon="11.17547">
<time>2020-11-25T09:15:46Z</time>
</trkpt>
<trkpt lat="46.041278" lon="11.175474">
<time>2020-11-25T09:15:47Z</time>
</trkpt>
<trkpt lat="46.041277" lon="11.175479">
<time>2020-11-25T09:15:48Z</time>
</trkpt>
<trkpt lat="46.041276" lon="11.175483">
<time>2020-11-25T09:15:49Z</time>
</trkpt>
<trkpt lat="46.041275" lon="11.175486">
<time>2020-11-25T09:15:50Z</time>
</trkpt>
<trkpt lat="46.041273" lon="11.175487">
<time>2020-11-25T09:15:51Z</time>
</trkpt>
<trkpt lat="46.041268" lon="11.175488">
<time>2020-11-25T09:15:52Z</time>
</trkpt>
<trkpt lat="46.041262" lon="11.175489">
<time>2020-11-25T09:15:53Z</time>
</trkpt>
<trkpt lat="46.041253" lon="11.17549">
<time>2020-11-25T09:15:54Z</time>
</trkpt>
<trkpt lat="46.041246" lon="11.175492">
<time>2020-11-25T09:15:55Z</time>
</trkpt>
<trkpt lat="46.041242" lon="11.175493">
<time>2020-11-25T09:15:56Z</time>
</trkpt>
<trkpt lat="46.041239" lon="11.175496">
<time>2020-11-25T09:15:57Z</time>
</trkpt>
<trkpt lat="46.041235" lon="11.1755">
<time>2020-11-25T09:15:58Z</time>
</trkpt>
<trkpt lat="46.04123" lon="11.175504">
<time>2020-11-25T09:15:59Z</time>
</trkpt>
<trkpt lat="46.041224" lon="11.175508">
<time>2020-11-25T09:16:00Z</time>
</trkpt>
<trkpt lat="46.041223" lon="11.175511">
<time>2020-11-25T09:16:01Z</time>
</trkpt>
<trkpt lat="46.041223" lon="11.175511">
<time>2020-11-25T09:16:02Z</time>
</trkpt>
<trkpt lat="46.04122" lon="11.175511">
<time>2020-11-25T09:16:03Z</time>
</trkpt>
<trkpt lat="46.041216" lon="11.175509">
<time>2020-11-25T09:16:04Z</time>
</trkpt>
<trkpt lat="46.041207" lon="11.175508">
<time>2020-11-25T09:16:05Z</time>
</trkpt>
<trkpt lat="46.041202" lon="11.175509">
<time>2020-11-25T09:16:06Z</time>
</trkpt>
<trkpt lat="46.041191" lon="11.175508">
<time>2020-11-25T09:16:07Z</time>
</trkpt>
<trkpt lat="46.041216" lon="11.175515">
<time>2020-11-25T09:16:08Z</time>
</trkpt>
<trkpt lat="46.041222" lon="11.175515">
<time>2020-11-25T09:16:09Z</time>
</trkpt>
<trkpt lat="46.041232" lon="11.175505">
<time>2020-11-25T09:16:10Z</time>
</trkpt>
<trkpt lat="46.041246" lon="11.175501">
<time>2020-11-25T09:16:11Z</time>
</trkpt>
<trkpt lat="46.041258" lon="11.175501">
<time>2020-11-25T09:16:12Z</time>
</trkpt>
<trkpt lat="46.041268" lon="11.175505">
<time>2020-11-25T09:16:13Z</time>
</trkpt>
<trkpt lat="46.04128" lon="11.175513">
<time>2020-11-25T09:16:14Z</time>
</trkpt>
<trkpt lat="46.041287" lon="11.175527">
<time>2020-11-25T09:16:15Z</time>
</trkpt>
<trkpt lat="46.041296" lon="11.175541">
<time>2020-11-25T09:16:16Z</time>
</trkpt>
<trkpt lat="46.041305" lon="11.175552">
<time>2020-11-25T09:16:17Z</time>
</trkpt>
<trkpt lat="46.04132" lon="11.175557">
<time>2020-11-25T09:16:18Z</time>
</trkpt>
<trkpt lat="46.04133" lon="11.175557">
<time>2020-11-25T09:16:19Z</time>
</trkpt>
<trkpt lat="46.041334" lon="11.175552">
<time>2020-11-25T09:16:20Z</time>
</trkpt>
<trkpt lat="46.04134" lon="11.175554">
<time>2020-11-25T09:16:21Z</time>
</trkpt>
<trkpt lat="46.041347" lon="11.175556">
<time>2020-11-25T09:16:22Z</time>
</trkpt>
<trkpt lat="46.041355" lon="11.175555">
<time>2020-11-25T09:16:23Z</time>
</trkpt>
<trkpt lat="46.041362" lon="11.175561">
<time>2020-11-25T09:16:24Z</time>
</trkpt>
<trkpt lat="46.041367" lon="11.17557">
<time>2020-11-25T09:16:25Z</time>
</trkpt>
<trkpt lat="46.041375" lon="11.175577">
<time>2020-11-25T09:16:26Z</time>
</trkpt>
<trkpt lat="46.041382" lon="11.175583">
<time>2020-11-25T09:16:27Z</time>
</trkpt>
<trkpt lat="46.04139" lon="11.175587">
<time>2020-11-25T09:16:28Z</time>
</trkpt>
<trkpt lat="46.041392" lon="11.175592">
<time>2020-11-25T09:16:29Z</time>
</trkpt>
<trkpt lat="46.041393" lon="11.175596">
<time>2020-11-25T09:16:30Z</time>
</trkpt>
<trkpt lat="46.041395" lon="11.1756">
<time>2020-11-25T09:16:31Z</time>
</trkpt>
<trkpt lat="46.041397" lon="11.175605">
<time>2020-11-25T09:16:32Z</time>
</trkpt>
<trkpt lat="46.041381" lon="11.175615">
<time>2020-11-25T09:16:33Z</time>
</trkpt>
<trkpt lat="46.041381" lon="11.175627">
<time>2020-11-25T09:16:34Z</time>
</trkpt>
<trkpt lat="46.041379" lon="11.175639">
<time>2020-11-25T09:16:35Z</time>
</trkpt>
<trkpt lat="46.041384" lon="11.175651">
<time>2020-11-25T09:16:36Z</time>
</trkpt>
<trkpt lat="46.041392" lon="11.175661">
<time>2020-11-25T09:16:37Z</time>
</trkpt>
<trkpt lat="46.041397" lon="11.175665">
<time>2020-11-25T09:16:38Z</time>
</trkpt>
<trkpt lat="46.041397" lon="11.175671">
<time>2020-11-25T09:16:39Z</time>
</trkpt>
<trkpt lat="46.041396" lon="11.175678">
<time>2020-11-25T09:16:40Z</time>
</trkpt>
<trkpt lat="46.041396" lon="11.175686">
<time>2020-11-25T09:16:41Z</time>
</trkpt>
<trkpt lat="46.041393" lon="11.175692">
<time>2020-11-25T09:16:42Z</time>
</trkpt>
<trkpt lat="46.041398" lon="11.175697">
<time>2020-11-25T09:16:43Z</time>
</trkpt>
<trkpt lat="46.041402" lon="11.175699">
<time>2020-11-25T09:16:44Z</time>
</trkpt>
<trkpt lat="46.041407" lon="11.175702">
<time>2020-11-25T09:16:45Z</time>
</trkpt>
<trkpt lat="46.041415" lon="11.175705">
<time>2020-11-25T09:16:46Z</time>
</trkpt>
<trkpt lat="46.041424" lon="11.175709">
<time>2020-11-25T09:16:47Z</time>
</trkpt>
<trkpt lat="46.04143" lon="11.175712">
<time>2020-11-25T09:16:48Z</time>
</trkpt>
<trkpt lat="46.041433" lon="11.175716">
<time>2020-11-25T09:16:49Z</time>
</trkpt>
<trkpt lat="46.041439" lon="11.175717">
<time>2020-11-25T09:16:50Z</time>
</trkpt>
<trkpt lat="46.041444" lon="11.175723">
<time>2020-11-25T09:16:51Z</time>
</trkpt>
<trkpt lat="46.041453" lon="11.175729">
<time>2020-11-25T09:16:52Z</time>
</trkpt>
<trkpt lat="46.041448" lon="11.175738">
<time>2020-11-25T09:16:53Z</time>
</trkpt>
<trkpt lat="46.041451" lon="11.175746">
<time>2020-11-25T09:16:54Z</time>
</trkpt>
<trkpt lat="46.041457" lon="11.175763">
<time>2020-11-25T09:16:55Z</time>
</trkpt>
<trkpt lat="46.041459" lon="11.175791">
<time>2020-11-25T09:16:56Z</time>
</trkpt>
<trkpt lat="46.041471" lon="11.175817">
<time>2020-11-25T09:16:57Z</time>
</trkpt>
<trkpt lat="46.041473" lon="11.175831">
<time>2020-11-25T09:16:58Z</time>
</trkpt>
<trkpt lat="46.04146" lon="11.175844">
<time>2020-11-25T09:16:59Z</time>
</trkpt>
<trkpt lat="46.041451" lon="11.175853">
<time>2020-11-25T09:17:00Z</time>
</trkpt>
<trkpt lat="46.041443" lon="11.175865">
<time>2020-11-25T09:17:01Z</time>
</trkpt>
<trkpt lat="46.041436" lon="11.175878">
<time>2020-11-25T09:17:02Z</time>
</trkpt>
<trkpt lat="46.041439" lon="11.175887">
<time>2020-11-25T09:17:03Z</time>
</trkpt>
<trkpt lat="46.04144" lon="11.175895">
<time>2020-11-25T09:17:04Z</time>
</trkpt>
<trkpt lat="46.041441" lon="11.175903">
<time>2020-11-25T09:17:05Z</time>
</trkpt>
<trkpt lat="46.041443" lon="11.175911">
<time>2020-11-25T09:17:06Z</time>
</trkpt>
<trkpt lat="46.041438" lon="11.17592">
<time>2020-11-25T09:17:07Z</time>
</trkpt>
<trkpt lat="46.041438" lon="11.175931">
<time>2020-11-25T09:17:08Z</time>
</trkpt>
<trkpt lat="46.041438" lon="11.175941">
<time>2020-11-25T09:17:09Z</time>
</trkpt>
<trkpt lat="46.041444" lon="11.175953">
<time>2020-11-25T09:17:10Z</time>
</trkpt>
<trkpt lat="46.041452" lon="11.175962">
<time>2020-11-25T09:17:11Z</time>
</trkpt>
<trkpt lat="46.041457" lon="11.175974">
<time>2020-11-25T09:17:12Z</time>
</trkpt>
<trkpt lat="46.041467" lon="11.175985">
<time>2020-11-25T09:17:13Z</time>
</trkpt>
<trkpt lat="46.041478" lon="11.175997">
<time>2020-11-25T09:17:14Z</time>
</trkpt>
<trkpt lat="46.041487" lon="11.176006">
<time>2020-11-25T09:17:15Z</time>
</trkpt>
<trkpt lat="46.041491" lon="11.176018">
<time>2020-11-25T09:17:16Z</time>
</trkpt>
<trkpt lat="46.041494" lon="11.176028">
<time>2020-11-25T09:17:17Z</time>
</trkpt>
<trkpt lat="46.041503" lon="11.176039">
<time>2020-11-25T09:17:18Z</time>
</trkpt>
<trkpt lat="46.041507" lon="11.176049">
<time>2020-11-25T09:17:19Z</time>
</trkpt>
<trkpt lat="46.041506" lon="11.176059">
<time>2020-11-25T09:17:20Z</time>
</trkpt>
<trkpt lat="46.041509" lon="11.176074">
<time>2020-11-25T09:17:21Z</time>
</trkpt>
<trkpt lat="46.041515" lon="11.176087">
<time>2020-11-25T09:17:22Z</time>
</trkpt>
<trkpt lat="46.041522" lon="11.176099">
<time>2020-11-25T09:17:23Z</time>
</trkpt>
<trkpt lat="46.041521" lon="11.176113">
<time>2020-11-25T09:17:24Z</time>
</trkpt>
<trkpt lat="46.041524" lon="11.176126">
<time>2020-11-25T09:17:25Z</time>
</trkpt>
<trkpt lat="46.041528" lon="11.176135">
<time>2020-11-25T09:17:26Z</time>
</trkpt>
<trkpt lat="46.041528" lon="11.176146">
<time>2020-11-25T09:17:27Z</time>
</trkpt>
<trkpt lat="46.041528" lon="11.17616">
<time>2020-11-25T09:17:28Z</time>
</trkpt>
<trkpt lat="46.041529" lon="11.176171">
<time>2020-11-25T09:17:29Z</time>
</trkpt>
<trkpt lat="46.041529" lon="11.176182">
<time>2020-11-25T09:17:30Z</time>
</trkpt>
<trkpt lat="46.041526" lon="11.176193">
<time>2020-11-25T09:17:31Z</time>
</trkpt>
<trkpt lat="46.041539" lon="11.176212">
<time>2020-11-25T09:17:32Z</time>
</trkpt>
<trkpt lat="46.041544" lon="11.176231">
<time>2020-11-25T09:17:33Z</time>
</trkpt>
<trkpt lat="46.041535" lon="11.176247">
<time>2020-11-25T09:17:34Z</time>
</trkpt>
<trkpt lat="46.041535" lon="11.17626">
<time>2020-11-25T09:17:35Z</time>
</trkpt>
<trkpt lat="46.041537" lon="11.176268">
<time>2020-11-25T09:17:36Z</time>
</trkpt>
<trkpt lat="46.041539" lon="11.176277">
<time>2020-11-25T09:17:37Z</time>
</trkpt>
<trkpt lat="46.04154" lon="11.176289">
<time>2020-11-25T09:17:38Z</time>
</trkpt>
<trkpt lat="46.041544" lon="11.176295">
<time>2020-11-25T09:17:39Z</time>
</trkpt>
<trkpt lat="46.041546" lon="11.176299">
<time>2020-11-25T09:17:40Z</time>
</trkpt>
<trkpt lat="46.041548" lon="11.176306">
<time>2020-11-25T09:17:41Z</time>
</trkpt>
<trkpt lat="46.041551" lon="11.176318">
<time>2020-11-25T09:17:42Z</time>
</trkpt>
<trkpt lat="46.041555" lon="11.176334">
<time>2020-11-25T09:17:43Z</time>
</trkpt>
<trkpt lat="46.041553" lon="11.17635">
<time>2020-11-25T09:17:44Z</time>
</trkpt>
<trkpt lat="46.041548" lon="11.176364">
<time>2020-11-25T09:17:45Z</time>
</trkpt>
<trkpt lat="46.041546" lon="11.176385">
<time>2020-11-25T09:17:46Z</time>
</trkpt>
<trkpt lat="46.041546" lon="11.176399">
<time>2020-11-25T09:17:47Z</time>
</trkpt>
<trkpt lat="46.041544" lon="11.176418">
<time>2020-11-25T09:17:48Z</time>
</trkpt>
<trkpt lat="46.041539" lon="11.176436">
<time>2020-11-25T09:17:49Z</time>
</trkpt>
<trkpt lat="46.041541" lon="11.176449">
<time>2020-11-25T09:17:50Z</time>
</trkpt>
<trkpt lat="46.041549" lon="11.176458">
<time>2020-11-25T09:17:51Z</time>
</trkpt>
<trkpt lat="46.04155" lon="11.176466">
<time>2020-11-25T09:17:52Z</time>
</trkpt>
<trkpt lat="46.04155" lon="11.176474">
<time>2020-11-25T09:17:53Z</time>
</trkpt>
<trkpt lat="46.04155" lon="11.176484">
<time>2020-11-25T09:17:54Z</time>
</trkpt>
<trkpt lat="46.041547" lon="11.176494">
<time>2020-11-25T09:17:55Z</time>
</trkpt>
<trkpt lat="46.04155" lon="11.176502">
<time>2020-11-25T09:17:56Z</time>
</trkpt>
<trkpt lat="46.041554" lon="11.176512">
<time>2020-11-25T09:17:57Z</time>
</trkpt>
<trkpt lat="46.041559" lon="11.176521">
<time>2020-11-25T09:17:58Z</time>
</trkpt>
<trkpt lat="46.041561" lon="11.176527">
<time>2020-11-25T09:17:59Z</time>
</trkpt>
<trkpt lat="46.041557" lon="11.176532">
<time>2020-11-25T09:18:00Z</time>
</trkpt>
<trkpt lat="46.041557" lon="11.176537">
<time>2020-11-25T09:18:01Z</time>
</trkpt>
<trkpt lat="46.041555" lon="11.176542">
<time>2020-11-25T09:18:02Z</time>
</trkpt>
<trkpt lat="46.041554" lon="11.17655">
<time>2020-11-25T09:18:03Z</time>
</trkpt>
<trkpt lat="46.04155" lon="11.176558">
<time>2020-11-25T09:18:04Z</time>
</trkpt>
<trkpt lat="46.041553" lon="11.176562">
<time>2020-11-25T09:18:05Z</time>
</trkpt>
<trkpt lat="46.041553" lon="11.176562">
<time>2020-11-25T09:18:06Z</time>
</trkpt>
<trkpt lat="46.041556" lon="11.176562">
<time>2020-11-25T09:18:07Z</time>
</trkpt>
<trkpt lat="46.041563" lon="11.176561">
<time>2020-11-25T09:18:08Z</time>
</trkpt>
<trkpt lat="46.041567" lon="11.176564">
<time>2020-11-25T09:18:09Z</time>
</trkpt>
<trkpt lat="46.041568" lon="11.176569">
<time>2020-11-25T09:18:10Z</time>
</trkpt>
<trkpt lat="46.041567" lon="11.176573">
<time>2020-11-25T09:18:11Z</time>
</trkpt>
<trkpt lat="46.04157" lon="11.176579">
<time>2020-11-25T09:18:12Z</time>
</trkpt>
<trkpt lat="46.041575" lon="11.176581">
<time>2020-11-25T09:18:13Z</time>
</trkpt>
<trkpt lat="46.041576" lon="11.176583">
<time>2020-11-25T09:18:14Z</time>
</trkpt>
<trkpt lat="46.041578" lon="11.176582">
<time>2020-11-25T09:18:15Z</time>
</trkpt>
<trkpt lat="46.041582" lon="11.176583">
<time>2020-11-25T09:18:16Z</time>
</trkpt>
<trkpt lat="46.041582" lon="11.176583">
<time>2020-11-25T09:18:17Z</time>
</trkpt>
<trkpt lat="46.041586" lon="11.176581">
<time>2020-11-25T09:18:18Z</time>
</trkpt>
<trkpt lat="46.041589" lon="11.176582">
<time>2020-11-25T09:18:19Z</time>
</trkpt>
<trkpt lat="46.041591" lon="11.176581">
<time>2020-11-25T09:18:20Z</time>
</trkpt>
<trkpt lat="46.041594" lon="11.176581">
<time>2020-11-25T09:18:21Z</time>
</trkpt>
<trkpt lat="46.041595" lon="11.176583">
<time>2020-11-25T09:18:22Z</time>
</trkpt>
<trkpt lat="46.041595" lon="11.176585">
<time>2020-11-25T09:18:23Z</time>
</trkpt>
<trkpt lat="46.041597" lon="11.176585">
<time>2020-11-25T09:18:24Z</time>
</trkpt>
<trkpt lat="46.041601" lon="11.176587">
<time>2020-11-25T09:18:25Z</time>
</trkpt>
<trkpt lat="46.041606" lon="11.176588">
<time>2020-11-25T09:18:26Z</time>
</trkpt>
<trkpt lat="46.041617" lon="11.1766">
<time>2020-11-25T09:18:27Z</time>
</trkpt>
<trkpt lat="46.041634" lon="11.176621">
<time>2020-11-25T09:18:28Z</time>
</trkpt>
<trkpt lat="46.041648" lon="11.176644">
<time>2020-11-25T09:18:29Z</time>
</trkpt>
<trkpt lat="46.041665" lon="11.176664">
<time>2020-11-25T09:18:30Z</time>
</trkpt>
<trkpt lat="46.041686" lon="11.17668">
<time>2020-11-25T09:18:31Z</time>
</trkpt>
<trkpt lat="46.041702" lon="11.17669">
<time>2020-11-25T09:18:32Z</time>
</trkpt>
<trkpt lat="46.041707" lon="11.176694">
<time>2020-11-25T09:18:33Z</time>
</trkpt>
<trkpt lat="46.041716" lon="11.176696">
<time>2020-11-25T09:18:34Z</time>
</trkpt>
<trkpt lat="46.041722" lon="11.176701">
<time>2020-11-25T09:18:35Z</time>
</trkpt>
<trkpt lat="46.041728" lon="11.176707">
<time>2020-11-25T09:18:36Z</time>
</trkpt>
<trkpt lat="46.041731" lon="11.176716">
<time>2020-11-25T09:18:37Z</time>
</trkpt>
<trkpt lat="46.041736" lon="11.176727">
<time>2020-11-25T09:18:38Z</time>
</trkpt>
<trkpt lat="46.041737" lon="11.176734">
<time>2020-11-25T09:18:39Z</time>
</trkpt>
<trkpt lat="46.041741" lon="11.176743">
<time>2020-11-25T09:18:40Z</time>
</trkpt>
<trkpt lat="46.041733" lon="11.17675">
<time>2020-11-25T09:18:41Z</time>
</trkpt>
<trkpt lat="46.041734" lon="11.176756">
<time>2020-11-25T09:18:42Z</time>
</trkpt>
<trkpt lat="46.041743" lon="11.176761">
<time>2020-11-25T09:18:43Z</time>
</trkpt>
<trkpt lat="46.041743" lon="11.176765">
<time>2020-11-25T09:18:44Z</time>
</trkpt>
<trkpt lat="46.041741" lon="11.176767">
<time>2020-11-25T09:18:45Z</time>
</trkpt>
<trkpt lat="46.041736" lon="11.176771">
<time>2020-11-25T09:18:46Z</time>
</trkpt>
<trkpt lat="46.041733" lon="11.176775">
<time>2020-11-25T09:18:47Z</time>
</trkpt>
<trkpt lat="46.041732" lon="11.176783">
<time>2020-11-25T09:18:48Z</time>
</trkpt>
<trkpt lat="46.04174" lon="11.176791">
<time>2020-11-25T09:18:49Z</time>
</trkpt>
<trkpt lat="46.04174" lon="11.176797">
<time>2020-11-25T09:18:50Z</time>
</trkpt>
<trkpt lat="46.041743" lon="11.176798">
<time>2020-11-25T09:18:51Z</time>
</trkpt>
<trkpt lat="46.041746" lon="11.1768">
<time>2020-11-25T09:18:52Z</time>
</trkpt>
<trkpt lat="46.041749" lon="11.176805">
<time>2020-11-25T09:18:53Z</time>
</trkpt>
<trkpt lat="46.041753" lon="11.17681">
<time>2020-11-25T09:18:54Z</time>
</trkpt>
<trkpt lat="46.041756" lon="11.176826">
<time>2020-11-25T09:18:55Z</time>
</trkpt>
<trkpt lat="46.041764" lon="11.176836">
<time>2020-11-25T09:18:56Z</time>
</trkpt>
<trkpt lat="46.041763" lon="11.176847">
<time>2020-11-25T09:18:57Z</time>
</trkpt>
<trkpt lat="46.041766" lon="11.176856">
<time>2020-11-25T09:18:58Z</time>
</trkpt>
<trkpt lat="46.041769" lon="11.176858">
<time>2020-11-25T09:18:59Z</time>
</trkpt>
<trkpt lat="46.04177" lon="11.176863">
<time>2020-11-25T09:19:00Z</time>
</trkpt>
<trkpt lat="46.041773" lon="11.176868">
<time>2020-11-25T09:19:01Z</time>
</trkpt>
<trkpt lat="46.041778" lon="11.176873">
<time>2020-11-25T09:19:02Z</time>
</trkpt>
<trkpt lat="46.04178" lon="11.176875">
<time>2020-11-25T09:19:03Z</time>
</trkpt>
<trkpt lat="46.041787" lon="11.176874">
<time>2020-11-25T09:19:04Z</time>
</trkpt>
<trkpt lat="46.041794" lon="11.176879">
<time>2020-11-25T09:19:05Z</time>
</trkpt>
<trkpt lat="46.041802" lon="11.176884">
<time>2020-11-25T09:19:06Z</time>
</trkpt>
<trkpt lat="46.041806" lon="11.176884">
<time>2020-11-25T09:19:07Z</time>
</trkpt>
<trkpt lat="46.041811" lon="11.176885">
<time>2020-11-25T09:19:08Z</time>
</trkpt>
<trkpt lat="46.041816" lon="11.176888">
<time>2020-11-25T09:19:09Z</time>
</trkpt>
<trkpt lat="46.041816" lon="11.176891">
<time>2020-11-25T09:19:10Z</time>
</trkpt>
<trkpt lat="46.041819" lon="11.176896">
<time>2020-11-25T09:19:11Z</time>
</trkpt>
<trkpt lat="46.041822" lon="11.176899">
<time>2020-11-25T09:19:12Z</time>
</trkpt>
<trkpt lat="46.041827" lon="11.176898">
<time>2020-11-25T09:19:13Z</time>
</trkpt>
<trkpt lat="46.041836" lon="11.176896">
<time>2020-11-25T09:19:14Z</time>
</trkpt>
<trkpt lat="46.041843" lon="11.176893">
<time>2020-11-25T09:19:15Z</time>
</trkpt>
<trkpt lat="46.04185" lon="11.176889">
<time>2020-11-25T09:19:16Z</time>
</trkpt>
<trkpt lat="46.041855" lon="11.176889">
<time>2020-11-25T09:19:17Z</time>
</trkpt>
<trkpt lat="46.041861" lon="11.176891">
<time>2020-11-25T09:19:18Z</time>
</trkpt>
<trkpt lat="46.041864" lon="11.176897">
<time>2020-11-25T09:19:19Z</time>
</trkpt>
<trkpt lat="46.041864" lon="11.176904">
<time>2020-11-25T09:19:20Z</time>
</trkpt>
<trkpt lat="46.041863" lon="11.176911">
<time>2020-11-25T09:19:21Z</time>
</trkpt>
<trkpt lat="46.041867" lon="11.176916">
<time>2020-11-25T09:19:22Z</time>
</trkpt>
<trkpt lat="46.041872" lon="11.176924">
<time>2020-11-25T09:19:23Z</time>
</trkpt>
<trkpt lat="46.041865" lon="11.176927">
<time>2020-11-25T09:19:24Z</time>
</trkpt>
<trkpt lat="46.041861" lon="11.17693">
<time>2020-11-25T09:19:25Z</time>
</trkpt>
<trkpt lat="46.041859" lon="11.176936">
<time>2020-11-25T09:19:26Z</time>
</trkpt>
<trkpt lat="46.041858" lon="11.176947">
<time>2020-11-25T09:19:27Z</time>
</trkpt>
<trkpt lat="46.041857" lon="11.17696">
<time>2020-11-25T09:19:28Z</time>
</trkpt>
<trkpt lat="46.041857" lon="11.176972">
<time>2020-11-25T09:19:29Z</time>
</trkpt>
<trkpt lat="46.04186" lon="11.176984">
<time>2020-11-25T09:19:30Z</time>
</trkpt>
<trkpt lat="46.041864" lon="11.176993">
<time>2020-11-25T09:19:31Z</time>
</trkpt>
<trkpt lat="46.041867" lon="11.177001">
<time>2020-11-25T09:19:32Z</time>
</trkpt>
<trkpt lat="46.041871" lon="11.177007">
<time>2020-11-25T09:19:33Z</time>
</trkpt>
<trkpt lat="46.041874" lon="11.177012">
<time>2020-11-25T09:19:34Z</time>
</trkpt>
<trkpt lat="46.041874" lon="11.177015">
<time>2020-11-25T09:19:35Z</time>
</trkpt>
<trkpt lat="46.041874" lon="11.177017">
<time>2020-11-25T09:19:36Z</time>
</trkpt>
<trkpt lat="46.041875" lon="11.177018">
<time>2020-11-25T09:19:37Z</time>
</trkpt>
<trkpt lat="46.041877" lon="11.17702">
<time>2020-11-25T09:19:38Z</time>
</trkpt>
<trkpt lat="46.041877" lon="11.17702">
<time>2020-11-25T09:19:39Z</time>
</trkpt>
<trkpt lat="46.041877" lon="11.177021">
<time>2020-11-25T09:19:40Z</time>
</trkpt>
<trkpt lat="46.041877" lon="11.17702">
<time>2020-11-25T09:19:41Z</time>
</trkpt>
<trkpt lat="46.041877" lon="11.17702">
<time>2020-11-25T09:19:42Z</time>
</trkpt>
<trkpt lat="46.041876" lon="11.17702">
<time>2020-11-25T09:19:43Z</time>
</trkpt>
<trkpt lat="46.041875" lon="11.177026">
<time>2020-11-25T09:19:44Z</time>
</trkpt>
<trkpt lat="46.041881" lon="11.177037">
<time>2020-11-25T09:19:45Z</time>
</trkpt>
<trkpt lat="46.041897" lon="11.177049">
<time>2020-11-25T09:19:46Z</time>
</trkpt>
<trkpt lat="46.041905" lon="11.177065">
<time>2020-11-25T09:19:47Z</time>
</trkpt>
<trkpt lat="46.041912" lon="11.177084">
<time>2020-11-25T09:19:48Z</time>
</trkpt>
<trkpt lat="46.041925" lon="11.1771">
<time>2020-11-25T09:19:49Z</time>
</trkpt>
<trkpt lat="46.041942" lon="11.177112">
<time>2020-11-25T09:19:50Z</time>
</trkpt>
<trkpt lat="46.041958" lon="11.17712">
<time>2020-11-25T09:19:51Z</time>
</trkpt>
<trkpt lat="46.041971" lon="11.177127">
<time>2020-11-25T09:19:52Z</time>
</trkpt>
<trkpt lat="46.041978" lon="11.177133">
<time>2020-11-25T09:19:53Z</time>
</trkpt>
<trkpt lat="46.041982" lon="11.177137">
<time>2020-11-25T09:19:54Z</time>
</trkpt>
<trkpt lat="46.041988" lon="11.17714">
<time>2020-11-25T09:19:55Z</time>
</trkpt>
<trkpt lat="46.041997" lon="11.17715">
<time>2020-11-25T09:19:56Z</time>
</trkpt>
<trkpt lat="46.042006" lon="11.177162">
<time>2020-11-25T09:19:57Z</time>
</trkpt>
<trkpt lat="46.042016" lon="11.177173">
<time>2020-11-25T09:19:58Z</time>
</trkpt>
<trkpt lat="46.042027" lon="11.177185">
<time>2020-11-25T09:19:59Z</time>
</trkpt>
<trkpt lat="46.042036" lon="11.177194">
<time>2020-11-25T09:20:00Z</time>
</trkpt>
<trkpt lat="46.042044" lon="11.177205">
<time>2020-11-25T09:20:01Z</time>
</trkpt>
<trkpt lat="46.042053" lon="11.177212">
<time>2020-11-25T09:20:02Z</time>
</trkpt>
<trkpt lat="46.042061" lon="11.177213">
<time>2020-11-25T09:20:03Z</time>
</trkpt>
<trkpt lat="46.042072" lon="11.177218">
<time>2020-11-25T09:20:04Z</time>
</trkpt>
<trkpt lat="46.042079" lon="11.177222">
<time>2020-11-25T09:20:05Z</time>
</trkpt>
<trkpt lat="46.042087" lon="11.177231">
<time>2020-11-25T09:20:06Z</time>
</trkpt>
<trkpt lat="46.042094" lon="11.177237">
<time>2020-11-25T09:20:07Z</time>
</trkpt>
<trkpt lat="46.042116" lon="11.177244">
<time>2020-11-25T09:20:08Z</time>
</trkpt>
<trkpt lat="46.042148" lon="11.177253">
<time>2020-11-25T09:20:09Z</time>
</trkpt>
<trkpt lat="46.042178" lon="11.177261">
<time>2020-11-25T09:20:10Z</time>
</trkpt>
<trkpt lat="46.0422" lon="11.177265">
<time>2020-11-25T09:20:11Z</time>
</trkpt>
<trkpt lat="46.042221" lon="11.177272">
<time>2020-11-25T09:20:12Z</time>
</trkpt>
<trkpt lat="46.042241" lon="11.177281">
<time>2020-11-25T09:20:13Z</time>
</trkpt>
<trkpt lat="46.042264" lon="11.177294">
<time>2020-11-25T09:20:14Z</time>
</trkpt>
<trkpt lat="46.04228" lon="11.177314">
<time>2020-11-25T09:20:15Z</time>
</trkpt>
<trkpt lat="46.042299" lon="11.177333">
<time>2020-11-25T09:20:16Z</time>
</trkpt>
<trkpt lat="46.042312" lon="11.177351">
<time>2020-11-25T09:20:17Z</time>
</trkpt>
<trkpt lat="46.04232" lon="11.177363">
<time>2020-11-25T09:20:18Z</time>
</trkpt>
<trkpt lat="46.042324" lon="11.177372">
<time>2020-11-25T09:20:19Z</time>
</trkpt>
<trkpt lat="46.042321" lon="11.177383">
<time>2020-11-25T09:20:20Z</time>
</trkpt>
<trkpt lat="46.042317" lon="11.177393">
<time>2020-11-25T09:20:21Z</time>
</trkpt>
<trkpt lat="46.042317" lon="11.177395">
<time>2020-11-25T09:20:22Z</time>
</trkpt>
<trkpt lat="46.042312" lon="11.177399">
<time>2020-11-25T09:20:23Z</time>
</trkpt>
<trkpt lat="46.042305" lon="11.177408">
<time>2020-11-25T09:20:24Z</time>
</trkpt>
<trkpt lat="46.042307" lon="11.177418">
<time>2020-11-25T09:20:25Z</time>
</trkpt>
<trkpt lat="46.042306" lon="11.177425">
<time>2020-11-25T09:20:26Z</time>
</trkpt>
<trkpt lat="46.042298" lon="11.177436">
<time>2020-11-25T09:20:27Z</time>
</trkpt>
<trkpt lat="46.042281" lon="11.177456">
<time>2020-11-25T09:20:28Z</time>
</trkpt>
<trkpt lat="46.042275" lon="11.177482">
<time>2020-11-25T09:20:29Z</time>
</trkpt>
<trkpt lat="46.042287" lon="11.177508">
<time>2020-11-25T09:20:30Z</time>
</trkpt>
<trkpt lat="46.042293" lon="11.17753">
<time>2020-11-25T09:20:31Z</time>
</trkpt>
<trkpt lat="46.042293" lon="11.177553">
<time>2020-11-25T09:20:32Z</time>
</trkpt>
<trkpt lat="46.042294" lon="11.177572">
<time>2020-11-25T09:20:33Z</time>
</trkpt>
<trkpt lat="46.042296" lon="11.177588">
<time>2020-11-25T09:20:34Z</time>
</trkpt>
<trkpt lat="46.042299" lon="11.177598">
<time>2020-11-25T09:20:35Z</time>
</trkpt>
<trkpt lat="46.042304" lon="11.177605">
<time>2020-11-25T09:20:36Z</time>
</trkpt>
<trkpt lat="46.042302" lon="11.177613">
<time>2020-11-25T09:20:37Z</time>
</trkpt>
<trkpt lat="46.042301" lon="11.177621">
<time>2020-11-25T09:20:38Z</time>
</trkpt>
<trkpt lat="46.042296" lon="11.177628">
<time>2020-11-25T09:20:39Z</time>
</trkpt>
<trkpt lat="46.042299" lon="11.177634">
<time>2020-11-25T09:20:40Z</time>
</trkpt>
<trkpt lat="46.042294" lon="11.17764">
<time>2020-11-25T09:20:41Z</time>
</trkpt>
<trkpt lat="46.042292" lon="11.17765">
<time>2020-11-25T09:20:42Z</time>
</trkpt>
<trkpt lat="46.042292" lon="11.177659">
<time>2020-11-25T09:20:43Z</time>
</trkpt>
<trkpt lat="46.042289" lon="11.177678">
<time>2020-11-25T09:20:44Z</time>
</trkpt>
<trkpt lat="46.042281" lon="11.177697">
<time>2020-11-25T09:20:45Z</time>
</trkpt>
<trkpt lat="46.042277" lon="11.177714">
<time>2020-11-25T09:20:46Z</time>
</trkpt>
<trkpt lat="46.042273" lon="11.177731">
<time>2020-11-25T09:20:47Z</time>
</trkpt>
<trkpt lat="46.042266" lon="11.177743">
<time>2020-11-25T09:20:48Z</time>
</trkpt>
<trkpt lat="46.04226" lon="11.177753">
<time>2020-11-25T09:20:49Z</time>
</trkpt>
<trkpt lat="46.042259" lon="11.177764">
<time>2020-11-25T09:20:50Z</time>
</trkpt>
<trkpt lat="46.042262" lon="11.177777">
<time>2020-11-25T09:20:51Z</time>
</trkpt>
<trkpt lat="46.042264" lon="11.177789">
<time>2020-11-25T09:20:52Z</time>
</trkpt>
<trkpt lat="46.04227" lon="11.177799">
<time>2020-11-25T09:20:53Z</time>
</trkpt>
<trkpt lat="46.042272" lon="11.177812">
<time>2020-11-25T09:20:54Z</time>
</trkpt>
<trkpt lat="46.042268" lon="11.177828">
<time>2020-11-25T09:20:55Z</time>
</trkpt>
<trkpt lat="46.042263" lon="11.177836">
<time>2020-11-25T09:20:56Z</time>
</trkpt>
<trkpt lat="46.042266" lon="11.177838">
<time>2020-11-25T09:20:57Z</time>
</trkpt>
<trkpt lat="46.042276" lon="11.177845">
<time>2020-11-25T09:20:58Z</time>
</trkpt>
<trkpt lat="46.042281" lon="11.177851">
<time>2020-11-25T09:20:59Z</time>
</trkpt>
<trkpt lat="46.042288" lon="11.177856">
<time>2020-11-25T09:21:00Z</time>
</trkpt>
<trkpt lat="46.042298" lon="11.177863">
<time>2020-11-25T09:21:01Z</time>
</trkpt>
<trkpt lat="46.042302" lon="11.177872">
<time>2020-11-25T09:21:02Z</time>
</trkpt>
<trkpt lat="46.042322" lon="11.17789">
<time>2020-11-25T09:21:03Z</time>
</trkpt>
<trkpt lat="46.04233" lon="11.177908">
<time>2020-11-25T09:21:04Z</time>
</trkpt>
<trkpt lat="46.042342" lon="11.177924">
<time>2020-11-25T09:21:05Z</time>
</trkpt>
<trkpt lat="46.042354" lon="11.177936">
<time>2020-11-25T09:21:06Z</time>
</trkpt>
<trkpt lat="46.042363" lon="11.177946">
<time>2020-11-25T09:21:07Z</time>
</trkpt>
<trkpt lat="46.042368" lon="11.177956">
<time>2020-11-25T09:21:08Z</time>
</trkpt>
<trkpt lat="46.042373" lon="11.177966">
<time>2020-11-25T09:21:09Z</time>
</trkpt>
<trkpt lat="46.042382" lon="11.177977">
<time>2020-11-25T09:21:10Z</time>
</trkpt>
<trkpt lat="46.042387" lon="11.177987">
<time>2020-11-25T09:21:11Z</time>
</trkpt>
<trkpt lat="46.042398" lon="11.178">
<time>2020-11-25T09:21:12Z</time>
</trkpt>
<trkpt lat="46.042406" lon="11.178008">
<time>2020-11-25T09:21:13Z</time>
</trkpt>
<trkpt lat="46.042403" lon="11.178015">
<time>2020-11-25T09:21:14Z</time>
</trkpt>
<trkpt lat="46.04241" lon="11.178019">
<time>2020-11-25T09:21:15Z</time>
</trkpt>
<trkpt lat="46.042417" lon="11.178024">
<time>2020-11-25T09:21:16Z</time>
</trkpt>
<trkpt lat="46.042423" lon="11.178021">
<time>2020-11-25T09:21:17Z</time>
</trkpt>
<trkpt lat="46.042427" lon="11.178019">
<time>2020-11-25T09:21:18Z</time>
</trkpt>
<trkpt lat="46.042432" lon="11.178021">
<time>2020-11-25T09:21:19Z</time>
</trkpt>
<trkpt lat="46.04244" lon="11.178016">
<time>2020-11-25T09:21:20Z</time>
</trkpt>
<trkpt lat="46.042443" lon="11.178013">
<time>2020-11-25T09:21:21Z</time>
</trkpt>
<trkpt lat="46.042443" lon="11.178009">
<time>2020-11-25T09:21:22Z</time>
</trkpt>
<trkpt lat="46.042448" lon="11.178009">
<time>2020-11-25T09:21:23Z</time>
</trkpt>
<trkpt lat="46.042448" lon="11.178008">
<time>2020-11-25T09:21:24Z</time>
</trkpt>
<trkpt lat="46.042455" lon="11.178008">
<time>2020-11-25T09:21:25Z</time>
</trkpt>
<trkpt lat="46.042469" lon="11.178013">
<time>2020-11-25T09:21:26Z</time>
</trkpt>
<trkpt lat="46.042477" lon="11.178015">
<time>2020-11-25T09:21:27Z</time>
</trkpt>
<trkpt lat="46.042483" lon="11.178014">
<time>2020-11-25T09:21:28Z</time>
</trkpt>
<trkpt lat="46.042479" lon="11.178018">
<time>2020-11-25T09:21:29Z</time>
</trkpt>
<trkpt lat="46.042473" lon="11.178021">
<time>2020-11-25T09:21:30Z</time>
</trkpt>
<trkpt lat="46.042472" lon="11.178024">
<time>2020-11-25T09:21:31Z</time>
</trkpt>
<trkpt lat="46.042471" lon="11.178039">
<time>2020-11-25T09:21:32Z</time>
</trkpt>
<trkpt lat="46.042472" lon="11.178052">
<time>2020-11-25T09:21:33Z</time>
</trkpt>
<trkpt lat="46.042482" lon="11.178063">
<time>2020-11-25T09:21:34Z</time>
</trkpt>
<trkpt lat="46.042486" lon="11.178073">
<time>2020-11-25T09:21:35Z</time>
</trkpt>
<trkpt lat="46.042479" lon="11.178083">
<time>2020-11-25T09:21:36Z</time>
</trkpt>
<trkpt lat="46.042479" lon="11.178081">
<time>2020-11-25T09:21:37Z</time>
</trkpt>
<trkpt lat="46.042474" lon="11.178091">
<time>2020-11-25T09:21:38Z</time>
</trkpt>
<trkpt lat="46.04247" lon="11.178107">
<time>2020-11-25T09:21:39Z</time>
</trkpt>
<trkpt lat="46.042473" lon="11.178118">
<time>2020-11-25T09:21:40Z</time>
</trkpt>
<trkpt lat="46.042479" lon="11.178131">
<time>2020-11-25T09:21:41Z</time>
</trkpt>
<trkpt lat="46.042484" lon="11.178143">
<time>2020-11-25T09:21:42Z</time>
</trkpt>
<trkpt lat="46.042489" lon="11.178155">
<time>2020-11-25T09:21:43Z</time>
</trkpt>
<trkpt lat="46.042493" lon="11.178166">
<time>2020-11-25T09:21:44Z</time>
</trkpt>
<trkpt lat="46.042502" lon="11.178184">
<time>2020-11-25T09:21:45Z</time>
</trkpt>
<trkpt lat="46.042516" lon="11.178205">
<time>2020-11-25T09:21:46Z</time>
</trkpt>
<trkpt lat="46.042525" lon="11.178213">
<time>2020-11-25T09:21:47Z</time>
</trkpt>
<trkpt lat="46.042533" lon="11.178225">
<time>2020-11-25T09:21:48Z</time>
</trkpt>
<trkpt lat="46.042542" lon="11.178243">
<time>2020-11-25T09:21:49Z</time>
</trkpt>
<trkpt lat="46.04255" lon="11.178257">
<time>2020-11-25T09:21:50Z</time>
</trkpt>
<trkpt lat="46.042554" lon="11.178267">
<time>2020-11-25T09:21:51Z</time>
</trkpt>
<trkpt lat="46.042559" lon="11.178278">
<time>2020-11-25T09:21:52Z</time>
</trkpt>
<trkpt lat="46.042559" lon="11.178295">
<time>2020-11-25T09:21:53Z</time>
</trkpt>
<trkpt lat="46.04256" lon="11.178308">
<time>2020-11-25T09:21:54Z</time>
</trkpt>
<trkpt lat="46.042558" lon="11.178321">
<time>2020-11-25T09:21:55Z</time>
</trkpt>
<trkpt lat="46.042555" lon="11.178329">
<time>2020-11-25T09:21:56Z</time>
</trkpt>
<trkpt lat="46.042548" lon="11.17834">
<time>2020-11-25T09:21:57Z</time>
</trkpt>
<trkpt lat="46.042558" lon="11.178353">
<time>2020-11-25T09:21:58Z</time>
</trkpt>
<trkpt lat="46.042557" lon="11.178363">
<time>2020-11-25T09:21:59Z</time>
</trkpt>
<trkpt lat="46.042554" lon="11.178379">
<time>2020-11-25T09:22:00Z</time>
</trkpt>
<trkpt lat="46.042557" lon="11.178391">
<time>2020-11-25T09:22:01Z</time>
</trkpt>
<trkpt lat="46.042552" lon="11.17841">
<time>2020-11-25T09:22:02Z</time>
</trkpt>
<trkpt lat="46.042545" lon="11.178424">
<time>2020-11-25T09:22:03Z</time>
</trkpt>
<trkpt lat="46.042544" lon="11.178436">
<time>2020-11-25T09:22:04Z</time>
</trkpt>
<trkpt lat="46.042547" lon="11.178446">
<time>2020-11-25T09:22:05Z</time>
</trkpt>
<trkpt lat="46.042552" lon="11.178454">
<time>2020-11-25T09:22:06Z</time>
</trkpt>
<trkpt lat="46.042554" lon="11.178461">
<time>2020-11-25T09:22:07Z</time>
</trkpt>
<trkpt lat="46.042557" lon="11.17847">
<time>2020-11-25T09:22:08Z</time>
</trkpt>
<trkpt lat="46.042557" lon="11.178479">
<time>2020-11-25T09:22:09Z</time>
</trkpt>
<trkpt lat="46.042557" lon="11.178488">
<time>2020-11-25T09:22:10Z</time>
</trkpt>
<trkpt lat="46.04256" lon="11.178498">
<time>2020-11-25T09:22:11Z</time>
</trkpt>
<trkpt lat="46.042553" lon="11.178506">
<time>2020-11-25T09:22:12Z</time>
</trkpt>
<trkpt lat="46.042551" lon="11.178515">
<time>2020-11-25T09:22:13Z</time>
</trkpt>
<trkpt lat="46.042548" lon="11.178522">
<time>2020-11-25T09:22:14Z</time>
</trkpt>
<trkpt lat="46.042558" lon="11.178532">
<time>2020-11-25T09:22:15Z</time>
</trkpt>
<trkpt lat="46.042561" lon="11.178539">
<time>2020-11-25T09:22:16Z</time>
</trkpt>
<trkpt lat="46.042564" lon="11.178546">
<time>2020-11-25T09:22:17Z</time>
</trkpt>
<trkpt lat="46.042567" lon="11.178551">
<time>2020-11-25T09:22:18Z</time>
</trkpt>
<trkpt lat="46.042574" lon="11.17856">
<time>2020-11-25T09:22:19Z</time>
</trkpt>
<trkpt lat="46.042578" lon="11.178562">
<time>2020-11-25T09:22:20Z</time>
</trkpt>
<trkpt lat="46.042583" lon="11.178563">
<time>2020-11-25T09:22:21Z</time>
</trkpt>
<trkpt lat="46.042584" lon="11.17857">
<time>2020-11-25T09:22:22Z</time>
</trkpt>
<trkpt lat="46.042585" lon="11.178578">
<time>2020-11-25T09:22:23Z</time>
</trkpt>
<trkpt lat="46.042585" lon="11.178583">
<time>2020-11-25T09:22:24Z</time>
</trkpt>
<trkpt lat="46.042581" lon="11.178586">
<time>2020-11-25T09:22:25Z</time>
</trkpt>
<trkpt lat="46.042564" lon="11.178593">
<time>2020-11-25T09:22:26Z</time>
</trkpt>
<trkpt lat="46.042558" lon="11.178593">
<time>2020-11-25T09:22:27Z</time>
</trkpt>
<trkpt lat="46.042557" lon="11.178593">
<time>2020-11-25T09:22:28Z</time>
</trkpt>
<trkpt lat="46.042553" lon="11.178598">
<time>2020-11-25T09:22:29Z</time>
</trkpt>
<trkpt lat="46.04255" lon="11.178604">
<time>2020-11-25T09:22:30Z</time>
</trkpt>
<trkpt lat="46.042558" lon="11.178611">
<time>2020-11-25T09:22:31Z</time>
</trkpt>
<trkpt lat="46.042568" lon="11.17862">
<time>2020-11-25T09:22:32Z</time>
</trkpt>
<trkpt lat="46.042571" lon="11.178631">
<time>2020-11-25T09:22:33Z</time>
</trkpt>
<trkpt lat="46.042576" lon="11.178641">
<time>2020-11-25T09:22:34Z</time>
</trkpt>
<trkpt lat="46.042577" lon="11.178649">
<time>2020-11-25T09:22:35Z</time>
</trkpt>
<trkpt lat="46.042577" lon="11.178661">
<time>2020-11-25T09:22:36Z</time>
</trkpt>
<trkpt lat="46.042573" lon="11.178669">
<time>2020-11-25T09:22:37Z</time>
</trkpt>
<trkpt lat="46.042575" lon="11.178679">
<time>2020-11-25T09:22:38Z</time>
</trkpt>
<trkpt lat="46.042575" lon="11.178688">
<time>2020-11-25T09:22:39Z</time>
</trkpt>
<trkpt lat="46.042571" lon="11.178696">
<time>2020-11-25T09:22:40Z</time>
</trkpt>
<trkpt lat="46.04257" lon="11.178702">
<time>2020-11-25T09:22:41Z</time>
</trkpt>
<trkpt lat="46.04257" lon="11.17871">
<time>2020-11-25T09:22:42Z</time>
</trkpt>
<trkpt lat="46.042571" lon="11.178721">
<time>2020-11-25T09:22:43Z</time>
</trkpt>
<trkpt lat="46.042572" lon="11.178729">
<time>2020-11-25T09:22:44Z</time>
</trkpt>
<trkpt lat="46.042569" lon="11.178737">
<time>2020-11-25T09:22:45Z</time>
</trkpt>
<trkpt lat="46.042578" lon="11.178743">
<time>2020-11-25T09:22:46Z</time>
</trkpt>
<trkpt lat="46.04258" lon="11.17875">
<time>2020-11-25T09:22:47Z</time>
</trkpt>
<trkpt lat="46.042579" lon="11.178756">
<time>2020-11-25T09:22:48Z</time>
</trkpt>
<trkpt lat="46.042581" lon="11.178763">
<time>2020-11-25T09:22:49Z</time>
</trkpt>
<trkpt lat="46.042581" lon="11.178773">
<time>2020-11-25T09:22:50Z</time>
</trkpt>
<trkpt lat="46.042582" lon="11.178783">
<time>2020-11-25T09:22:51Z</time>
</trkpt>
<trkpt lat="46.042589" lon="11.178787">
<time>2020-11-25T09:22:52Z</time>
</trkpt>
<trkpt lat="46.042596" lon="11.17879">
<time>2020-11-25T09:22:53Z</time>
</trkpt>
<trkpt lat="46.042607" lon="11.17879">
<time>2020-11-25T09:22:54Z</time>
</trkpt>
<trkpt lat="46.042615" lon="11.178791">
<time>2020-11-25T09:22:55Z</time>
</trkpt>
<trkpt lat="46.04262" lon="11.178796">
<time>2020-11-25T09:22:56Z</time>
</trkpt>
<trkpt lat="46.042627" lon="11.178801">
<time>2020-11-25T09:22:57Z</time>
</trkpt>
<trkpt lat="46.042633" lon="11.178806">
<time>2020-11-25T09:22:58Z</time>
</trkpt>
<trkpt lat="46.042635" lon="11.178814">
<time>2020-11-25T09:22:59Z</time>
</trkpt>
<trkpt lat="46.042641" lon="11.178821">
<time>2020-11-25T09:23:00Z</time>
</trkpt>
<trkpt lat="46.042652" lon="11.178828">
<time>2020-11-25T09:23:01Z</time>
</trkpt>
<trkpt lat="46.042655" lon="11.178832">
<time>2020-11-25T09:23:02Z</time>
</trkpt>
<trkpt lat="46.042656" lon="11.178839">
<time>2020-11-25T09:23:03Z</time>
</trkpt>
<trkpt lat="46.042659" lon="11.178844">
<time>2020-11-25T09:23:04Z</time>
</trkpt>
<trkpt lat="46.042661" lon="11.178851">
<time>2020-11-25T09:23:05Z</time>
</trkpt>
<trkpt lat="46.04266" lon="11.178859">
<time>2020-11-25T09:23:06Z</time>
</trkpt>
<trkpt lat="46.042659" lon="11.178865">
<time>2020-11-25T09:23:07Z</time>
</trkpt>
<trkpt lat="46.04267" lon="11.178871">
<time>2020-11-25T09:23:08Z</time>
</trkpt>
<trkpt lat="46.042674" lon="11.17888">
<time>2020-11-25T09:23:09Z</time>
</trkpt>
<trkpt lat="46.042681" lon="11.178888">
<time>2020-11-25T09:23:10Z</time>
</trkpt>
<trkpt lat="46.042686" lon="11.178902">
<time>2020-11-25T09:23:11Z</time>
</trkpt>
<trkpt lat="46.042689" lon="11.178906">
<time>2020-11-25T09:23:12Z</time>
</trkpt>
<trkpt lat="46.042689" lon="11.178906">
<time>2020-11-25T09:23:13Z</time>
</trkpt>
<trkpt lat="46.042691" lon="11.178905">
<time>2020-11-25T09:23:14Z</time>
</trkpt>
<trkpt lat="46.04269" lon="11.178907">
<time>2020-11-25T09:23:15Z</time>
</trkpt>
<trkpt lat="46.042687" lon="11.178915">
<time>2020-11-25T09:23:16Z</time>
</trkpt>
<trkpt lat="46.042677" lon="11.178932">
<time>2020-11-25T09:23:17Z</time>
</trkpt>
<trkpt lat="46.042676" lon="11.178949">
<time>2020-11-25T09:23:18Z</time>
</trkpt>
<trkpt lat="46.042669" lon="11.178968">
<time>2020-11-25T09:23:19Z</time>
</trkpt>
<trkpt lat="46.042665" lon="11.178986">
<time>2020-11-25T09:23:20Z</time>
</trkpt>
<trkpt lat="46.042653" lon="11.179005">
<time>2020-11-25T09:23:21Z</time>
</trkpt>
<trkpt lat="46.04265" lon="11.17902">
<time>2020-11-25T09:23:22Z</time>
</trkpt>
<trkpt lat="46.042653" lon="11.179033">
<time>2020-11-25T09:23:23Z</time>
</trkpt>
<trkpt lat="46.04266" lon="11.179038">
<time>2020-11-25T09:23:24Z</time>
</trkpt>
<trkpt lat="46.042661" lon="11.179045">
<time>2020-11-25T09:23:25Z</time>
</trkpt>
<trkpt lat="46.042663" lon="11.179054">
<time>2020-11-25T09:23:26Z</time>
</trkpt>
<trkpt lat="46.042667" lon="11.179068">
<time>2020-11-25T09:23:27Z</time>
</trkpt>
<trkpt lat="46.042668" lon="11.179081">
<time>2020-11-25T09:23:28Z</time>
</trkpt>
<trkpt lat="46.042668" lon="11.179089">
<time>2020-11-25T09:23:29Z</time>
</trkpt>
<trkpt lat="46.042667" lon="11.179096">
<time>2020-11-25T09:23:30Z</time>
</trkpt>
<trkpt lat="46.042674" lon="11.179102">
<time>2020-11-25T09:23:31Z</time>
</trkpt>
<trkpt lat="46.042689" lon="11.179108">
<time>2020-11-25T09:23:32Z</time>
</trkpt>
<trkpt lat="46.042698" lon="11.179113">
<time>2020-11-25T09:23:33Z</time>
</trkpt>
<trkpt lat="46.042702" lon="11.179119">
<time>2020-11-25T09:23:34Z</time>
</trkpt>
<trkpt lat="46.042703" lon="11.179124">
<time>2020-11-25T09:23:35Z</time>
</trkpt>
<trkpt lat="46.042702" lon="11.179131">
<time>2020-11-25T09:23:36Z</time>
</trkpt>
<trkpt lat="46.042695" lon="11.179139">
<time>2020-11-25T09:23:37Z</time>
</trkpt>
<trkpt lat="46.042697" lon="11.179148">
<time>2020-11-25T09:23:38Z</time>
</trkpt>
<trkpt lat="46.042694" lon="11.179159">
<time>2020-11-25T09:23:39Z</time>
</trkpt>
<trkpt lat="46.042704" lon="11.179175">
<time>2020-11-25T09:23:40Z</time>
</trkpt>
<trkpt lat="46.042715" lon="11.179188">
<time>2020-11-25T09:23:41Z</time>
</trkpt>
<trkpt lat="46.042721" lon="11.1792">
<time>2020-11-25T09:23:42Z</time>
</trkpt>
<trkpt lat="46.042722" lon="11.179207">
<time>2020-11-25T09:23:43Z</time>
</trkpt>
<trkpt lat="46.042722" lon="11.179212">
<time>2020-11-25T09:23:44Z</time>
</trkpt>
<trkpt lat="46.042726" lon="11.17922">
<time>2020-11-25T09:23:45Z</time>
</trkpt>
<trkpt lat="46.04273" lon="11.179225">
<time>2020-11-25T09:23:46Z</time>
</trkpt>
<trkpt lat="46.042734" lon="11.179229">
<time>2020-11-25T09:23:47Z</time>
</trkpt>
<trkpt lat="46.042742" lon="11.179239">
<time>2020-11-25T09:23:48Z</time>
</trkpt>
<trkpt lat="46.04275" lon="11.179251">
<time>2020-11-25T09:23:49Z</time>
</trkpt>
<trkpt lat="46.042765" lon="11.179263">
<time>2020-11-25T09:23:50Z</time>
</trkpt>
<trkpt lat="46.042766" lon="11.179272">
<time>2020-11-25T09:23:51Z</time>
</trkpt>
<trkpt lat="46.042774" lon="11.179282">
<time>2020-11-25T09:23:52Z</time>
</trkpt>
<trkpt lat="46.04278" lon="11.179294">
<time>2020-11-25T09:23:53Z</time>
</trkpt>
<trkpt lat="46.042786" lon="11.179304">
<time>2020-11-25T09:23:54Z</time>
</trkpt>
<trkpt lat="46.042793" lon="11.179313">
<time>2020-11-25T09:23:55Z</time>
</trkpt>
<trkpt lat="46.042799" lon="11.179322">
<time>2020-11-25T09:23:56Z</time>
</trkpt>
<trkpt lat="46.042799" lon="11.179329">
<time>2020-11-25T09:23:57Z</time>
</trkpt>
<trkpt lat="46.042793" lon="11.179335">
<time>2020-11-25T09:23:58Z</time>
</trkpt>
<trkpt lat="46.042796" lon="11.179335">
<time>2020-11-25T09:23:59Z</time>
</trkpt>
<trkpt lat="46.042798" lon="11.179336">
<time>2020-11-25T09:24:00Z</time>
</trkpt>
<trkpt lat="46.042804" lon="11.17934">
<time>2020-11-25T09:24:01Z</time>
</trkpt>
<trkpt lat="46.04281" lon="11.179344">
<time>2020-11-25T09:24:02Z</time>
</trkpt>
<trkpt lat="46.042813" lon="11.17935">
<time>2020-11-25T09:24:03Z</time>
</trkpt>
<trkpt lat="46.042816" lon="11.179361">
<time>2020-11-25T09:24:04Z</time>
</trkpt>
<trkpt lat="46.042818" lon="11.179372">
<time>2020-11-25T09:24:05Z</time>
</trkpt>
<trkpt lat="46.042827" lon="11.179384">
<time>2020-11-25T09:24:06Z</time>
</trkpt>
<trkpt lat="46.042835" lon="11.179395">
<time>2020-11-25T09:24:07Z</time>
</trkpt>
<trkpt lat="46.042843" lon="11.179398">
<time>2020-11-25T09:24:08Z</time>
</trkpt>
<trkpt lat="46.042849" lon="11.179407">
<time>2020-11-25T09:24:09Z</time>
</trkpt>
<trkpt lat="46.042858" lon="11.179418">
<time>2020-11-25T09:24:10Z</time>
</trkpt>
<trkpt lat="46.042868" lon="11.179427">
<time>2020-11-25T09:24:11Z</time>
</trkpt>
<trkpt lat="46.042879" lon="11.179438">
<time>2020-11-25T09:24:12Z</time>
</trkpt>
<trkpt lat="46.042889" lon="11.179449">
<time>2020-11-25T09:24:13Z</time>
</trkpt>
<trkpt lat="46.042894" lon="11.179457">
<time>2020-11-25T09:24:14Z</time>
</trkpt>
<trkpt lat="46.0429" lon="11.179464">
<time>2020-11-25T09:24:15Z</time>
</trkpt>
<trkpt lat="46.0429" lon="11.17947">
<time>2020-11-25T09:24:16Z</time>
</trkpt>
<trkpt lat="46.042897" lon="11.179475">
<time>2020-11-25T09:24:17Z</time>
</trkpt>
<trkpt lat="46.0429" lon="11.179481">
<time>2020-11-25T09:24:18Z</time>
</trkpt>
<trkpt lat="46.0429" lon="11.179483">
<time>2020-11-25T09:24:19Z</time>
</trkpt>
<trkpt lat="46.0429" lon="11.179481">
<time>2020-11-25T09:24:20Z</time>
</trkpt>
<trkpt lat="46.042897" lon="11.179479">
<time>2020-11-25T09:24:21Z</time>
</trkpt>
<trkpt lat="46.04289" lon="11.179475">
<time>2020-11-25T09:24:22Z</time>
</trkpt>
<trkpt lat="46.042884" lon="11.179472">
<time>2020-11-25T09:24:23Z</time>
</trkpt>
<trkpt lat="46.042883" lon="11.179467">
<time>2020-11-25T09:24:24Z</time>
</trkpt>
<trkpt lat="46.04288" lon="11.17946">
<time>2020-11-25T09:24:25Z</time>
</trkpt>
<trkpt lat="46.042871" lon="11.179456">
<time>2020-11-25T09:24:26Z</time>
</trkpt>
<trkpt lat="46.042877" lon="11.179454">
<time>2020-11-25T09:24:27Z</time>
</trkpt>
<trkpt lat="46.042881" lon="11.17945">
<time>2020-11-25T09:24:28Z</time>
</trkpt>
<trkpt lat="46.042881" lon="11.179446">
<time>2020-11-25T09:24:29Z</time>
</trkpt>
<trkpt lat="46.042882" lon="11.179438">
<time>2020-11-25T09:24:30Z</time>
</trkpt>
<trkpt lat="46.042881" lon="11.179425">
<time>2020-11-25T09:24:31Z</time>
</trkpt>
<trkpt lat="46.042878" lon="11.179415">
<time>2020-11-25T09:24:32Z</time>
</trkpt>
<trkpt lat="46.04287" lon="11.179411">
<time>2020-11-25T09:24:33Z</time>
</trkpt>
<trkpt lat="46.042867" lon="11.179412">
<time>2020-11-25T09:24:34Z</time>
</trkpt>
<trkpt lat="46.04287" lon="11.179415">
<time>2020-11-25T09:24:35Z</time>
</trkpt>
<trkpt lat="46.042872" lon="11.179422">
<time>2020-11-25T09:24:36Z</time>
</trkpt>
<trkpt lat="46.042881" lon="11.179428">
<time>2020-11-25T09:24:37Z</time>
</trkpt>
<trkpt lat="46.042893" lon="11.179427">
<time>2020-11-25T09:24:38Z</time>
</trkpt>
<trkpt lat="46.042898" lon="11.179429">
<time>2020-11-25T09:24:39Z</time>
</trkpt>
<trkpt lat="46.042906" lon="11.179428">
<time>2020-11-25T09:24:40Z</time>
</trkpt>
<trkpt lat="46.042911" lon="11.179432">
<time>2020-11-25T09:24:41Z</time>
</trkpt>
<trkpt lat="46.042918" lon="11.17944">
<time>2020-11-25T09:24:42Z</time>
</trkpt>
<trkpt lat="46.042925" lon="11.179451">
<time>2020-11-25T09:24:43Z</time>
</trkpt>
<trkpt lat="46.042933" lon="11.179467">
<time>2020-11-25T09:24:44Z</time>
</trkpt>
<trkpt lat="46.042943" lon="11.179487">
<time>2020-11-25T09:24:45Z</time>
</trkpt>
<trkpt lat="46.042964" lon="11.179509">
<time>2020-11-25T09:24:46Z</time>
</trkpt>
<trkpt lat="46.042979" lon="11.179528">
<time>2020-11-25T09:24:47Z</time>
</trkpt>
<trkpt lat="46.042993" lon="11.179548">
<time>2020-11-25T09:24:48Z</time>
</trkpt>
<trkpt lat="46.042997" lon="11.179567">
<time>2020-11-25T09:24:49Z</time>
</trkpt>
<trkpt lat="46.04301" lon="11.179581">
<time>2020-11-25T09:24:50Z</time>
</trkpt>
<trkpt lat="46.04302" lon="11.179601">
<time>2020-11-25T09:24:51Z</time>
</trkpt>
<trkpt lat="46.043033" lon="11.179618">
<time>2020-11-25T09:24:52Z</time>
</trkpt>
<trkpt lat="46.043037" lon="11.179632">
<time>2020-11-25T09:24:53Z</time>
</trkpt>
<trkpt lat="46.043038" lon="11.179646">
<time>2020-11-25T09:24:54Z</time>
</trkpt>
<trkpt lat="46.04305" lon="11.17966">
<time>2020-11-25T09:24:55Z</time>
</trkpt>
<trkpt lat="46.043056" lon="11.179674">
<time>2020-11-25T09:24:56Z</time>
</trkpt>
<trkpt lat="46.043061" lon="11.179682">
<time>2020-11-25T09:24:57Z</time>
</trkpt>
<trkpt lat="46.043064" lon="11.179689">
<time>2020-11-25T09:24:58Z</time>
</trkpt>
<trkpt lat="46.043069" lon="11.179699">
<time>2020-11-25T09:24:59Z</time>
</trkpt>
<trkpt lat="46.043074" lon="11.179705">
<time>2020-11-25T09:25:00Z</time>
</trkpt>
<trkpt lat="46.043077" lon="11.17971">
<time>2020-11-25T09:25:01Z</time>
</trkpt>
<trkpt lat="46.04307" lon="11.17972">
<time>2020-11-25T09:25:02Z</time>
</trkpt>
<trkpt lat="46.043066" lon="11.179735">
<time>2020-11-25T09:25:03Z</time>
</trkpt>
<trkpt lat="46.043068" lon="11.179752">
<time>2020-11-25T09:25:04Z</time>
</trkpt>
<trkpt lat="46.043071" lon="11.179765">
<time>2020-11-25T09:25:05Z</time>
</trkpt>
<trkpt lat="46.043073" lon="11.179779">
<time>2020-11-25T09:25:06Z</time>
</trkpt>
<trkpt lat="46.043084" lon="11.179795">
<time>2020-11-25T09:25:07Z</time>
</trkpt>
<trkpt lat="46.043093" lon="11.179806">
<time>2020-11-25T09:25:08Z</time>
</trkpt>
<trkpt lat="46.043098" lon="11.179814">
<time>2020-11-25T09:25:09Z</time>
</trkpt>
<trkpt lat="46.043102" lon="11.17982">
<time>2020-11-25T09:25:10Z</time>
</trkpt>
<trkpt lat="46.043113" lon="11.179825">
<time>2020-11-25T09:25:11Z</time>
</trkpt>
<trkpt lat="46.043125" lon="11.179829">
<time>2020-11-25T09:25:12Z</time>
</trkpt>
<trkpt lat="46.043133" lon="11.179833">
<time>2020-11-25T09:25:13Z</time>
</trkpt>
<trkpt lat="46.043141" lon="11.179839">
<time>2020-11-25T09:25:14Z</time>
</trkpt>
<trkpt lat="46.043154" lon="11.179847">
<time>2020-11-25T09:25:15Z</time>
</trkpt>
<trkpt lat="46.04316" lon="11.179858">
<time>2020-11-25T09:25:16Z</time>
</trkpt>
<trkpt lat="46.043177" lon="11.179867">
<time>2020-11-25T09:25:17Z</time>
</trkpt>
<trkpt lat="46.043187" lon="11.179876">
<time>2020-11-25T09:25:18Z</time>
</trkpt>
<trkpt lat="46.043193" lon="11.179887">
<time>2020-11-25T09:25:19Z</time>
</trkpt>
<trkpt lat="46.0432" lon="11.179895">
<time>2020-11-25T09:25:20Z</time>
</trkpt>
<trkpt lat="46.043209" lon="11.179902">
<time>2020-11-25T09:25:21Z</time>
</trkpt>
<trkpt lat="46.043217" lon="11.179914">
<time>2020-11-25T09:25:22Z</time>
</trkpt>
<trkpt lat="46.043224" lon="11.179923">
<time>2020-11-25T09:25:23Z</time>
</trkpt>
<trkpt lat="46.043226" lon="11.179932">
<time>2020-11-25T09:25:24Z</time>
</trkpt>
<trkpt lat="46.043221" lon="11.179945">
<time>2020-11-25T09:25:25Z</time>
</trkpt>
<trkpt lat="46.043216" lon="11.179952">
<time>2020-11-25T09:25:26Z</time>
</trkpt>
<trkpt lat="46.04321" lon="11.17996">
<time>2020-11-25T09:25:27Z</time>
</trkpt>
<trkpt lat="46.043212" lon="11.179968">
<time>2020-11-25T09:25:28Z</time>
</trkpt>
<trkpt lat="46.04322" lon="11.179974">
<time>2020-11-25T09:25:29Z</time>
</trkpt>
<trkpt lat="46.043231" lon="11.179978">
<time>2020-11-25T09:25:30Z</time>
</trkpt>
<trkpt lat="46.043243" lon="11.179981">
<time>2020-11-25T09:25:31Z</time>
</trkpt>
<trkpt lat="46.043252" lon="11.179983">
<time>2020-11-25T09:25:32Z</time>
</trkpt>
<trkpt lat="46.043264" lon="11.179987">
<time>2020-11-25T09:25:33Z</time>
</trkpt>
<trkpt lat="46.043284" lon="11.17999">
<time>2020-11-25T09:25:34Z</time>
</trkpt>
<trkpt lat="46.043301" lon="11.179992">
<time>2020-11-25T09:25:35Z</time>
</trkpt>
<trkpt lat="46.043312" lon="11.17999">
<time>2020-11-25T09:25:36Z</time>
</trkpt>
<trkpt lat="46.043328" lon="11.179991">
<time>2020-11-25T09:25:37Z</time>
</trkpt>
<trkpt lat="46.043336" lon="11.179991">
<time>2020-11-25T09:25:38Z</time>
</trkpt>
<trkpt lat="46.043344" lon="11.17999">
<time>2020-11-25T09:25:39Z</time>
</trkpt>
<trkpt lat="46.043357" lon="11.179994">
<time>2020-11-25T09:25:40Z</time>
</trkpt>
<trkpt lat="46.04336" lon="11.179997">
<time>2020-11-25T09:25:41Z</time>
</trkpt>
<trkpt lat="46.043366" lon="11.180001">
<time>2020-11-25T09:25:42Z</time>
</trkpt>
<trkpt lat="46.043374" lon="11.180004">
<time>2020-11-25T09:25:43Z</time>
</trkpt>
<trkpt lat="46.043381" lon="11.180009">
<time>2020-11-25T09:25:44Z</time>
</trkpt>
<trkpt lat="46.043395" lon="11.180019">
<time>2020-11-25T09:25:45Z</time>
</trkpt>
<trkpt lat="46.043402" lon="11.180032">
<time>2020-11-25T09:25:46Z</time>
</trkpt>
<trkpt lat="46.043409" lon="11.180045">
<time>2020-11-25T09:25:47Z</time>
</trkpt>
<trkpt lat="46.043427" lon="11.180057">
<time>2020-11-25T09:25:48Z</time>
</trkpt>
<trkpt lat="46.043436" lon="11.180061">
<time>2020-11-25T09:25:49Z</time>
</trkpt>
<trkpt lat="46.043443" lon="11.180067">
<time>2020-11-25T09:25:50Z</time>
</trkpt>
<trkpt lat="46.043447" lon="11.180068">
<time>2020-11-25T09:25:51Z</time>
</trkpt>
<trkpt lat="46.04345" lon="11.180075">
<time>2020-11-25T09:25:52Z</time>
</trkpt>
<trkpt lat="46.043457" lon="11.180081">
<time>2020-11-25T09:25:53Z</time>
</trkpt>
<trkpt lat="46.04347" lon="11.180086">
<time>2020-11-25T09:25:54Z</time>
</trkpt>
<trkpt lat="46.043484" lon="11.180084">
<time>2020-11-25T09:25:55Z</time>
</trkpt>
<trkpt lat="46.04349" lon="11.180086">
<time>2020-11-25T09:25:56Z</time>
</trkpt>
<trkpt lat="46.043502" lon="11.180087">
<time>2020-11-25T09:25:57Z</time>
</trkpt>
<trkpt lat="46.043509" lon="11.180091">
<time>2020-11-25T09:25:58Z</time>
</trkpt>
<trkpt lat="46.04352" lon="11.180093">
<time>2020-11-25T09:25:59Z</time>
</trkpt>
<trkpt lat="46.043519" lon="11.180096">
<time>2020-11-25T09:26:00Z</time>
</trkpt>
<trkpt lat="46.043521" lon="11.180097">
<time>2020-11-25T09:26:01Z</time>
</trkpt>
<trkpt lat="46.043522" lon="11.180115">
<time>2020-11-25T09:26:02Z</time>
</trkpt>
<trkpt lat="46.043526" lon="11.180124">
<time>2020-11-25T09:26:03Z</time>
</trkpt>
<trkpt lat="46.043532" lon="11.180132">
<time>2020-11-25T09:26:04Z</time>
</trkpt>
<trkpt lat="46.043529" lon="11.180143">
<time>2020-11-25T09:26:05Z</time>
</trkpt>
<trkpt lat="46.043528" lon="11.180151">
<time>2020-11-25T09:26:06Z</time>
</trkpt>
<trkpt lat="46.043537" lon="11.180159">
<time>2020-11-25T09:26:07Z</time>
</trkpt>
<trkpt lat="46.043538" lon="11.180163">
<time>2020-11-25T09:26:08Z</time>
</trkpt>
<trkpt lat="46.043547" lon="11.180166">
<time>2020-11-25T09:26:09Z</time>
</trkpt>
<trkpt lat="46.043551" lon="11.180172">
<time>2020-11-25T09:26:10Z</time>
</trkpt>
<trkpt lat="46.043557" lon="11.180175">
<time>2020-11-25T09:26:11Z</time>
</trkpt>
<trkpt lat="46.043575" lon="11.180184">
<time>2020-11-25T09:26:12Z</time>
</trkpt>
<trkpt lat="46.043583" lon="11.180204">
<time>2020-11-25T09:26:13Z</time>
</trkpt>
<trkpt lat="46.043584" lon="11.180217">
<time>2020-11-25T09:26:14Z</time>
</trkpt>
<trkpt lat="46.043583" lon="11.180228">
<time>2020-11-25T09:26:15Z</time>
</trkpt>
<trkpt lat="46.043585" lon="11.180243">
<time>2020-11-25T09:26:16Z</time>
</trkpt>
<trkpt lat="46.043586" lon="11.180259">
<time>2020-11-25T09:26:17Z</time>
</trkpt>
<trkpt lat="46.04359" lon="11.180273">
<time>2020-11-25T09:26:18Z</time>
</trkpt>
<trkpt lat="46.043609" lon="11.180284">
<time>2020-11-25T09:26:19Z</time>
</trkpt>
<trkpt lat="46.043626" lon="11.180293">
<time>2020-11-25T09:26:20Z</time>
</trkpt>
<trkpt lat="46.043653" lon="11.180308">
<time>2020-11-25T09:26:21Z</time>
</trkpt>
<trkpt lat="46.043677" lon="11.180325">
<time>2020-11-25T09:26:22Z</time>
</trkpt>
<trkpt lat="46.043702" lon="11.180343">
<time>2020-11-25T09:26:23Z</time>
</trkpt>
<trkpt lat="46.043724" lon="11.18037">
<time>2020-11-25T09:26:24Z</time>
</trkpt>
<trkpt lat="46.043733" lon="11.180392">
<time>2020-11-25T09:26:25Z</time>
</trkpt>
<trkpt lat="46.043743" lon="11.180407">
<time>2020-11-25T09:26:26Z</time>
</trkpt>
<trkpt lat="46.043753" lon="11.180414">
<time>2020-11-25T09:26:27Z</time>
</trkpt>
<trkpt lat="46.043759" lon="11.18042">
<time>2020-11-25T09:26:28Z</time>
</trkpt>
<trkpt lat="46.043767" lon="11.180429">
<time>2020-11-25T09:26:29Z</time>
</trkpt>
<trkpt lat="46.043771" lon="11.180443">
<time>2020-11-25T09:26:30Z</time>
</trkpt>
<trkpt lat="46.043778" lon="11.180449">
<time>2020-11-25T09:26:31Z</time>
</trkpt>
<trkpt lat="46.043784" lon="11.180455">
<time>2020-11-25T09:26:32Z</time>
</trkpt>
<trkpt lat="46.043791" lon="11.180462">
<time>2020-11-25T09:26:33Z</time>
</trkpt>
<trkpt lat="46.043787" lon="11.180473">
<time>2020-11-25T09:26:34Z</time>
</trkpt>
<trkpt lat="46.043786" lon="11.180479">
<time>2020-11-25T09:26:35Z</time>
</trkpt>
<trkpt lat="46.043787" lon="11.180482">
<time>2020-11-25T09:26:36Z</time>
</trkpt>
<trkpt lat="46.043791" lon="11.180486">
<time>2020-11-25T09:26:37Z</time>
</trkpt>
<trkpt lat="46.043795" lon="11.18049">
<time>2020-11-25T09:26:38Z</time>
</trkpt>
<trkpt lat="46.0438" lon="11.180491">
<time>2020-11-25T09:26:39Z</time>
</trkpt>
<trkpt lat="46.043807" lon="11.180495">
<time>2020-11-25T09:26:40Z</time>
</trkpt>
<trkpt lat="46.043809" lon="11.180505">
<time>2020-11-25T09:26:41Z</time>
</trkpt>
<trkpt lat="46.043807" lon="11.180514">
<time>2020-11-25T09:26:42Z</time>
</trkpt>
<trkpt lat="46.043815" lon="11.180516">
<time>2020-11-25T09:26:43Z</time>
</trkpt>
<trkpt lat="46.043825" lon="11.180522">
<time>2020-11-25T09:26:44Z</time>
</trkpt>
<trkpt lat="46.043833" lon="11.18053">
<time>2020-11-25T09:26:45Z</time>
</trkpt>
<trkpt lat="46.043836" lon="11.180531">
<time>2020-11-25T09:26:46Z</time>
</trkpt>
<trkpt lat="46.043851" lon="11.180537">
<time>2020-11-25T09:26:47Z</time>
</trkpt>
<trkpt lat="46.043857" lon="11.180537">
<time>2020-11-25T09:26:48Z</time>
</trkpt>
<trkpt lat="46.043862" lon="11.180542">
<time>2020-11-25T09:26:49Z</time>
</trkpt>
<trkpt lat="46.043867" lon="11.180549">
<time>2020-11-25T09:26:50Z</time>
</trkpt>
<trkpt lat="46.043878" lon="11.180557">
<time>2020-11-25T09:26:51Z</time>
</trkpt>
<trkpt lat="46.043898" lon="11.180565">
<time>2020-11-25T09:26:52Z</time>
</trkpt>
<trkpt lat="46.043917" lon="11.180572">
<time>2020-11-25T09:26:53Z</time>
</trkpt>
<trkpt lat="46.043927" lon="11.180575">
<time>2020-11-25T09:26:54Z</time>
</trkpt>
<trkpt lat="46.043945" lon="11.180581">
<time>2020-11-25T09:26:55Z</time>
</trkpt>
<trkpt lat="46.043958" lon="11.180582">
<time>2020-11-25T09:26:56Z</time>
</trkpt>
<trkpt lat="46.04397" lon="11.180583">
<time>2020-11-25T09:26:57Z</time>
</trkpt>
<trkpt lat="46.043982" lon="11.180585">
<time>2020-11-25T09:26:58Z</time>
</trkpt>
<trkpt lat="46.043985" lon="11.180589">
<time>2020-11-25T09:26:59Z</time>
</trkpt>
<trkpt lat="46.043988" lon="11.180591">
<time>2020-11-25T09:27:00Z</time>
</trkpt>
<trkpt lat="46.043993" lon="11.180595">
<time>2020-11-25T09:27:01Z</time>
</trkpt>
<trkpt lat="46.043998" lon="11.180597">
<time>2020-11-25T09:27:02Z</time>
</trkpt>
<trkpt lat="46.044003" lon="11.180596">
<time>2020-11-25T09:27:03Z</time>
</trkpt>
<trkpt lat="46.044007" lon="11.180596">
<time>2020-11-25T09:27:04Z</time>
</trkpt>
<trkpt lat="46.044011" lon="11.180595">
<time>2020-11-25T09:27:05Z</time>
</trkpt>
<trkpt lat="46.04401" lon="11.180593">
<time>2020-11-25T09:27:06Z</time>
</trkpt>
<trkpt lat="46.044007" lon="11.180586">
<time>2020-11-25T09:27:07Z</time>
</trkpt>
<trkpt lat="46.044" lon="11.180579">
<time>2020-11-25T09:27:08Z</time>
</trkpt>
<trkpt lat="46.043991" lon="11.180571">
<time>2020-11-25T09:27:09Z</time>
</trkpt>
<trkpt lat="46.043983" lon="11.180557">
<time>2020-11-25T09:27:10Z</time>
</trkpt>
<trkpt lat="46.043977" lon="11.180537">
<time>2020-11-25T09:27:11Z</time>
</trkpt>
<trkpt lat="46.04397" lon="11.180529">
<time>2020-11-25T09:27:12Z</time>
</trkpt>
<trkpt lat="46.043962" lon="11.180525">
<time>2020-11-25T09:27:13Z</time>
</trkpt>
<trkpt lat="46.043962" lon="11.180518">
<time>2020-11-25T09:27:14Z</time>
</trkpt>
<trkpt lat="46.043967" lon="11.180514">
<time>2020-11-25T09:27:15Z</time>
</trkpt>
<trkpt lat="46.043972" lon="11.180515">
<time>2020-11-25T09:27:16Z</time>
</trkpt>
<trkpt lat="46.043977" lon="11.180516">
<time>2020-11-25T09:27:17Z</time>
</trkpt>
<trkpt lat="46.043981" lon="11.180512">
<time>2020-11-25T09:27:18Z</time>
</trkpt>
<trkpt lat="46.043982" lon="11.180504">
<time>2020-11-25T09:27:19Z</time>
</trkpt>
<trkpt lat="46.043979" lon="11.180495">
<time>2020-11-25T09:27:20Z</time>
</trkpt>
<trkpt lat="46.043971" lon="11.180487">
<time>2020-11-25T09:27:21Z</time>
</trkpt>
<trkpt lat="46.04397" lon="11.180481">
<time>2020-11-25T09:27:22Z</time>
</trkpt>
<trkpt lat="46.043971" lon="11.180477">
<time>2020-11-25T09:27:23Z</time>
</trkpt>
<trkpt lat="46.043974" lon="11.180473">
<time>2020-11-25T09:27:24Z</time>
</trkpt>
<trkpt lat="46.043971" lon="11.180468">
<time>2020-11-25T09:27:25Z</time>
</trkpt>
<trkpt lat="46.043979" lon="11.18046">
<time>2020-11-25T09:27:26Z</time>
</trkpt>
<trkpt lat="46.043979" lon="11.180456">
<time>2020-11-25T09:27:27Z</time>
</trkpt>
<trkpt lat="46.043985" lon="11.180449">
<time>2020-11-25T09:27:28Z</time>
</trkpt>
<trkpt lat="46.043992" lon="11.180443">
<time>2020-11-25T09:27:29Z</time>
</trkpt>
<trkpt lat="46.043996" lon="11.180438">
<time>2020-11-25T09:27:30Z</time>
</trkpt>
<trkpt lat="46.044003" lon="11.180434">
<time>2020-11-25T09:27:31Z</time>
</trkpt>
<trkpt lat="46.044013" lon="11.18043">
<time>2020-11-25T09:27:32Z</time>
</trkpt>
<trkpt lat="46.044017" lon="11.180432">
<time>2020-11-25T09:27:33Z</time>
</trkpt>
<trkpt lat="46.044016" lon="11.180435">
<time>2020-11-25T09:27:34Z</time>
</trkpt>
<trkpt lat="46.044024" lon="11.180438">
<time>2020-11-25T09:27:35Z</time>
</trkpt>
<trkpt lat="46.044038" lon="11.180442">
<time>2020-11-25T09:27:36Z</time>
</trkpt>
<trkpt lat="46.044052" lon="11.180445">
<time>2020-11-25T09:27:37Z</time>
</trkpt>
<trkpt lat="46.044065" lon="11.180454">
<time>2020-11-25T09:27:38Z</time>
</trkpt>
<trkpt lat="46.044082" lon="11.180459">
<time>2020-11-25T09:27:39Z</time>
</trkpt>
<trkpt lat="46.044099" lon="11.180455">
<time>2020-11-25T09:27:40Z</time>
</trkpt>
<trkpt lat="46.044114" lon="11.180454">
<time>2020-11-25T09:27:41Z</time>
</trkpt>
<trkpt lat="46.044135" lon="11.180454">
<time>2020-11-25T09:27:42Z</time>
</trkpt>
<trkpt lat="46.044165" lon="11.180452">
<time>2020-11-25T09:27:43Z</time>
</trkpt>
<trkpt lat="46.044191" lon="11.180444">
<time>2020-11-25T09:27:44Z</time>
</trkpt>
<trkpt lat="46.044209" lon="11.180437">
<time>2020-11-25T09:27:45Z</time>
</trkpt>
<trkpt lat="46.044221" lon="11.180431">
<time>2020-11-25T09:27:46Z</time>
</trkpt>
<trkpt lat="46.04423" lon="11.180427">
<time>2020-11-25T09:27:47Z</time>
</trkpt>
<trkpt lat="46.04424" lon="11.180423">
<time>2020-11-25T09:27:48Z</time>
</trkpt>
<trkpt lat="46.04425" lon="11.18042">
<time>2020-11-25T09:27:49Z</time>
</trkpt>
<trkpt lat="46.044258" lon="11.180417">
<time>2020-11-25T09:27:50Z</time>
</trkpt>
<trkpt lat="46.044272" lon="11.180412">
<time>2020-11-25T09:27:51Z</time>
</trkpt>
<trkpt lat="46.044286" lon="11.180407">
<time>2020-11-25T09:27:52Z</time>
</trkpt>
<trkpt lat="46.044299" lon="11.180404">
<time>2020-11-25T09:27:53Z</time>
</trkpt>
<trkpt lat="46.044314" lon="11.180399">
<time>2020-11-25T09:27:54Z</time>
</trkpt>
<trkpt lat="46.044337" lon="11.180392">
<time>2020-11-25T09:27:55Z</time>
</trkpt>
<trkpt lat="46.044357" lon="11.180381">
<time>2020-11-25T09:27:56Z</time>
</trkpt>
<trkpt lat="46.044375" lon="11.180368">
<time>2020-11-25T09:27:57Z</time>
</trkpt>
<trkpt lat="46.044393" lon="11.180355">
<time>2020-11-25T09:27:58Z</time>
</trkpt>
<trkpt lat="46.044418" lon="11.180341">
<time>2020-11-25T09:27:59Z</time>
</trkpt>
<trkpt lat="46.044442" lon="11.180325">
<time>2020-11-25T09:28:00Z</time>
</trkpt>
<trkpt lat="46.044464" lon="11.180309">
<time>2020-11-25T09:28:01Z</time>
</trkpt>
<trkpt lat="46.044492" lon="11.180294">
<time>2020-11-25T09:28:02Z</time>
</trkpt>
<trkpt lat="46.044519" lon="11.180285">
<time>2020-11-25T09:28:03Z</time>
</trkpt>
<trkpt lat="46.044542" lon="11.180284">
<time>2020-11-25T09:28:04Z</time>
</trkpt>
<trkpt lat="46.044574" lon="11.180289">
<time>2020-11-25T09:28:05Z</time>
</trkpt>
<trkpt lat="46.044601" lon="11.180297">
<time>2020-11-25T09:28:06Z</time>
</trkpt>
<trkpt lat="46.044626" lon="11.180303">
<time>2020-11-25T09:28:07Z</time>
</trkpt>
<trkpt lat="46.044647" lon="11.180304">
<time>2020-11-25T09:28:08Z</time>
</trkpt>
<trkpt lat="46.044669" lon="11.180307">
<time>2020-11-25T09:28:09Z</time>
</trkpt>
<trkpt lat="46.044689" lon="11.180305">
<time>2020-11-25T09:28:10Z</time>
</trkpt>
<trkpt lat="46.044713" lon="11.180301">
<time>2020-11-25T09:28:11Z</time>
</trkpt>
<trkpt lat="46.044739" lon="11.180293">
<time>2020-11-25T09:28:12Z</time>
</trkpt>
<trkpt lat="46.044763" lon="11.18028">
<time>2020-11-25T09:28:13Z</time>
</trkpt>
<trkpt lat="46.044784" lon="11.180264">
<time>2020-11-25T09:28:14Z</time>
</trkpt>
<trkpt lat="46.044808" lon="11.180246">
<time>2020-11-25T09:28:15Z</time>
</trkpt>
<trkpt lat="46.044837" lon="11.180227">
<time>2020-11-25T09:28:16Z</time>
</trkpt>
<trkpt lat="46.044865" lon="11.18021">
<time>2020-11-25T09:28:17Z</time>
</trkpt>
<trkpt lat="46.044889" lon="11.180198">
<time>2020-11-25T09:28:18Z</time>
</trkpt>
<trkpt lat="46.04492" lon="11.180182">
<time>2020-11-25T09:28:19Z</time>
</trkpt>
<trkpt lat="46.044953" lon="11.180165">
<time>2020-11-25T09:28:20Z</time>
</trkpt>
<trkpt lat="46.044978" lon="11.180149">
<time>2020-11-25T09:28:21Z</time>
</trkpt>
<trkpt lat="46.044997" lon="11.180131">
<time>2020-11-25T09:28:22Z</time>
</trkpt>
<trkpt lat="46.045013" lon="11.18011">
<time>2020-11-25T09:28:23Z</time>
</trkpt>
<trkpt lat="46.04503" lon="11.180093">
<time>2020-11-25T09:28:24Z</time>
</trkpt>
<trkpt lat="46.045036" lon="11.180084">
<time>2020-11-25T09:28:25Z</time>
</trkpt>
<trkpt lat="46.045052" lon="11.180072">
<time>2020-11-25T09:28:26Z</time>
</trkpt>
<trkpt lat="46.045068" lon="11.180061">
<time>2020-11-25T09:28:27Z</time>
</trkpt>
<trkpt lat="46.045087" lon="11.180052">
<time>2020-11-25T09:28:28Z</time>
</trkpt>
<trkpt lat="46.045104" lon="11.180043">
<time>2020-11-25T09:28:29Z</time>
</trkpt>
<trkpt lat="46.045115" lon="11.180037">
<time>2020-11-25T09:28:30Z</time>
</trkpt>
<trkpt lat="46.045123" lon="11.180035">
<time>2020-11-25T09:28:31Z</time>
</trkpt>
<trkpt lat="46.045133" lon="11.180032">
<time>2020-11-25T09:28:32Z</time>
</trkpt>
<trkpt lat="46.045146" lon="11.180028">
<time>2020-11-25T09:28:33Z</time>
</trkpt>
<trkpt lat="46.045161" lon="11.180022">
<time>2020-11-25T09:28:34Z</time>
</trkpt>
<trkpt lat="46.045175" lon="11.180015">
<time>2020-11-25T09:28:35Z</time>
</trkpt>
<trkpt lat="46.045193" lon="11.180002">
<time>2020-11-25T09:28:36Z</time>
</trkpt>
<trkpt lat="46.045204" lon="11.179993">
<time>2020-11-25T09:28:37Z</time>
</trkpt>
<trkpt lat="46.045214" lon="11.179986">
<time>2020-11-25T09:28:38Z</time>
</trkpt>
<trkpt lat="46.045218" lon="11.179983">
<time>2020-11-25T09:28:39Z</time>
</trkpt>
<trkpt lat="46.045225" lon="11.179976">
<time>2020-11-25T09:28:40Z</time>
</trkpt>
<trkpt lat="46.045237" lon="11.179971">
<time>2020-11-25T09:28:41Z</time>
</trkpt>
<trkpt lat="46.045246" lon="11.179962">
<time>2020-11-25T09:28:42Z</time>
</trkpt>
<trkpt lat="46.045262" lon="11.179956">
<time>2020-11-25T09:28:43Z</time>
</trkpt>
<trkpt lat="46.045269" lon="11.179943">
<time>2020-11-25T09:28:44Z</time>
</trkpt>
<trkpt lat="46.045273" lon="11.179931">
<time>2020-11-25T09:28:45Z</time>
</trkpt>
<trkpt lat="46.045279" lon="11.179923">
<time>2020-11-25T09:28:46Z</time>
</trkpt>
<trkpt lat="46.045289" lon="11.179912">
<time>2020-11-25T09:28:47Z</time>
</trkpt>
<trkpt lat="46.045309" lon="11.179902">
<time>2020-11-25T09:28:48Z</time>
</trkpt>
<trkpt lat="46.04533" lon="11.179891">
<time>2020-11-25T09:28:49Z</time>
</trkpt>
<trkpt lat="46.045349" lon="11.179883">
<time>2020-11-25T09:28:50Z</time>
</trkpt>
<trkpt lat="46.045367" lon="11.179873">
<time>2020-11-25T09:28:51Z</time>
</trkpt>
<trkpt lat="46.045385" lon="11.17986">
<time>2020-11-25T09:28:52Z</time>
</trkpt>
<trkpt lat="46.045396" lon="11.179852">
<time>2020-11-25T09:28:53Z</time>
</trkpt>
<trkpt lat="46.0454" lon="11.179843">
<time>2020-11-25T09:28:54Z</time>
</trkpt>
<trkpt lat="46.045404" lon="11.179835">
<time>2020-11-25T09:28:55Z</time>
</trkpt>
<trkpt lat="46.045416" lon="11.179829">
<time>2020-11-25T09:28:56Z</time>
</trkpt>
<trkpt lat="46.04543" lon="11.179825">
<time>2020-11-25T09:28:57Z</time>
</trkpt>
<trkpt lat="46.045435" lon="11.179827">
<time>2020-11-25T09:28:58Z</time>
</trkpt>
<trkpt lat="46.045451" lon="11.179819">
<time>2020-11-25T09:28:59Z</time>
</trkpt>
<trkpt lat="46.045471" lon="11.179811">
<time>2020-11-25T09:29:00Z</time>
</trkpt>
<trkpt lat="46.045489" lon="11.179801">
<time>2020-11-25T09:29:01Z</time>
</trkpt>
<trkpt lat="46.045508" lon="11.179789">
<time>2020-11-25T09:29:02Z</time>
</trkpt>
<trkpt lat="46.045522" lon="11.179775">
<time>2020-11-25T09:29:03Z</time>
</trkpt>
<trkpt lat="46.045545" lon="11.179757">
<time>2020-11-25T09:29:04Z</time>
</trkpt>
<trkpt lat="46.045574" lon="11.179732">
<time>2020-11-25T09:29:05Z</time>
</trkpt>
<trkpt lat="46.045599" lon="11.17971">
<time>2020-11-25T09:29:06Z</time>
</trkpt>
<trkpt lat="46.045627" lon="11.179697">
<time>2020-11-25T09:29:07Z</time>
</trkpt>
<trkpt lat="46.045649" lon="11.179685">
<time>2020-11-25T09:29:08Z</time>
</trkpt>
<trkpt lat="46.045675" lon="11.179669">
<time>2020-11-25T09:29:09Z</time>
</trkpt>
<trkpt lat="46.045698" lon="11.179656">
<time>2020-11-25T09:29:10Z</time>
</trkpt>
<trkpt lat="46.045723" lon="11.179645">
<time>2020-11-25T09:29:11Z</time>
</trkpt>
<trkpt lat="46.045748" lon="11.179631">
<time>2020-11-25T09:29:12Z</time>
</trkpt>
<trkpt lat="46.045775" lon="11.179623">
<time>2020-11-25T09:29:13Z</time>
</trkpt>
<trkpt lat="46.045801" lon="11.179615">
<time>2020-11-25T09:29:14Z</time>
</trkpt>
<trkpt lat="46.045822" lon="11.179611">
<time>2020-11-25T09:29:15Z</time>
</trkpt>
<trkpt lat="46.045834" lon="11.179609">
<time>2020-11-25T09:29:16Z</time>
</trkpt>
<trkpt lat="46.045848" lon="11.179608">
<time>2020-11-25T09:29:17Z</time>
</trkpt>
<trkpt lat="46.045858" lon="11.179607">
<time>2020-11-25T09:29:18Z</time>
</trkpt>
<trkpt lat="46.045858" lon="11.17961">
<time>2020-11-25T09:29:19Z</time>
</trkpt>
<trkpt lat="46.045863" lon="11.179612">
<time>2020-11-25T09:29:20Z</time>
</trkpt>
<trkpt lat="46.04587" lon="11.179616">
<time>2020-11-25T09:29:21Z</time>
</trkpt>
<trkpt lat="46.045875" lon="11.179613">
<time>2020-11-25T09:29:22Z</time>
</trkpt>
<trkpt lat="46.045885" lon="11.179609">
<time>2020-11-25T09:29:23Z</time>
</trkpt>
<trkpt lat="46.045892" lon="11.17961">
<time>2020-11-25T09:29:24Z</time>
</trkpt>
<trkpt lat="46.045911" lon="11.179615">
<time>2020-11-25T09:29:25Z</time>
</trkpt>
<trkpt lat="46.045918" lon="11.179627">
<time>2020-11-25T09:29:26Z</time>
</trkpt>
<trkpt lat="46.04593" lon="11.179635">
<time>2020-11-25T09:29:27Z</time>
</trkpt>
<trkpt lat="46.045951" lon="11.179648">
<time>2020-11-25T09:29:28Z</time>
</trkpt>
<trkpt lat="46.045971" lon="11.179655">
<time>2020-11-25T09:29:29Z</time>
</trkpt>
<trkpt lat="46.045988" lon="11.179658">
<time>2020-11-25T09:29:30Z</time>
</trkpt>
<trkpt lat="46.046" lon="11.179659">
<time>2020-11-25T09:29:31Z</time>
</trkpt>
<trkpt lat="46.046008" lon="11.179664">
<time>2020-11-25T09:29:32Z</time>
</trkpt>
<trkpt lat="46.046014" lon="11.179666">
<time>2020-11-25T09:29:33Z</time>
</trkpt>
<trkpt lat="46.046021" lon="11.179669">
<time>2020-11-25T09:29:34Z</time>
</trkpt>
<trkpt lat="46.046031" lon="11.17967">
<time>2020-11-25T09:29:35Z</time>
</trkpt>
<trkpt lat="46.04604" lon="11.179674">
<time>2020-11-25T09:29:36Z</time>
</trkpt>
<trkpt lat="46.04605" lon="11.179673">
<time>2020-11-25T09:29:37Z</time>
</trkpt>
<trkpt lat="46.046059" lon="11.179681">
<time>2020-11-25T09:29:38Z</time>
</trkpt>
<trkpt lat="46.04607" lon="11.179683">
<time>2020-11-25T09:29:39Z</time>
</trkpt>
<trkpt lat="46.046076" lon="11.179682">
<time>2020-11-25T09:29:40Z</time>
</trkpt>
<trkpt lat="46.046087" lon="11.179678">
<time>2020-11-25T09:29:41Z</time>
</trkpt>
<trkpt lat="46.046095" lon="11.179675">
<time>2020-11-25T09:29:42Z</time>
</trkpt>
<trkpt lat="46.046105" lon="11.179674">
<time>2020-11-25T09:29:43Z</time>
</trkpt>
<trkpt lat="46.046113" lon="11.179671">
<time>2020-11-25T09:29:44Z</time>
</trkpt>
<trkpt lat="46.046123" lon="11.179668">
<time>2020-11-25T09:29:45Z</time>
</trkpt>
<trkpt lat="46.046124" lon="11.179662">
<time>2020-11-25T09:29:46Z</time>
</trkpt>
<trkpt lat="46.046126" lon="11.179667">
<time>2020-11-25T09:29:47Z</time>
</trkpt>
<trkpt lat="46.046128" lon="11.179674">
<time>2020-11-25T09:29:48Z</time>
</trkpt>
<trkpt lat="46.046133" lon="11.179679">
<time>2020-11-25T09:29:49Z</time>
</trkpt>
<trkpt lat="46.04614" lon="11.179679">
<time>2020-11-25T09:29:50Z</time>
</trkpt>
<trkpt lat="46.046144" lon="11.179678">
<time>2020-11-25T09:29:51Z</time>
</trkpt>
<trkpt lat="46.046155" lon="11.179677">
<time>2020-11-25T09:29:52Z</time>
</trkpt>
<trkpt lat="46.046162" lon="11.179677">
<time>2020-11-25T09:29:53Z</time>
</trkpt>
<trkpt lat="46.046175" lon="11.17968">
<time>2020-11-25T09:29:54Z</time>
</trkpt>
<trkpt lat="46.046179" lon="11.179683">
<time>2020-11-25T09:29:55Z</time>
</trkpt>
<trkpt lat="46.046186" lon="11.179685">
<time>2020-11-25T09:29:56Z</time>
</trkpt>
<trkpt lat="46.046189" lon="11.179687">
<time>2020-11-25T09:29:57Z</time>
</trkpt>
<trkpt lat="46.046193" lon="11.179689">
<time>2020-11-25T09:29:58Z</time>
</trkpt>
<trkpt lat="46.046204" lon="11.179691">
<time>2020-11-25T09:29:59Z</time>
</trkpt>
<trkpt lat="46.046215" lon="11.179696">
<time>2020-11-25T09:30:00Z</time>
</trkpt>
<trkpt lat="46.046228" lon="11.179706">
<time>2020-11-25T09:30:01Z</time>
</trkpt>
<trkpt lat="46.046248" lon="11.179718">
<time>2020-11-25T09:30:02Z</time>
</trkpt>
<trkpt lat="46.046261" lon="11.179736">
<time>2020-11-25T09:30:03Z</time>
</trkpt>
<trkpt lat="46.046272" lon="11.179748">
<time>2020-11-25T09:30:04Z</time>
</trkpt>
<trkpt lat="46.046278" lon="11.17976">
<time>2020-11-25T09:30:05Z</time>
</trkpt>
<trkpt lat="46.046284" lon="11.179769">
<time>2020-11-25T09:30:06Z</time>
</trkpt>
<trkpt lat="46.04629" lon="11.179779">
<time>2020-11-25T09:30:07Z</time>
</trkpt>
<trkpt lat="46.046304" lon="11.179786">
<time>2020-11-25T09:30:08Z</time>
</trkpt>
<trkpt lat="46.046322" lon="11.17979">
<time>2020-11-25T09:30:09Z</time>
</trkpt>
<trkpt lat="46.046338" lon="11.179791">
<time>2020-11-25T09:30:10Z</time>
</trkpt>
<trkpt lat="46.046353" lon="11.179791">
<time>2020-11-25T09:30:11Z</time>
</trkpt>
<trkpt lat="46.046367" lon="11.179791">
<time>2020-11-25T09:30:12Z</time>
</trkpt>
<trkpt lat="46.046386" lon="11.179795">
<time>2020-11-25T09:30:13Z</time>
</trkpt>
<trkpt lat="46.046399" lon="11.179798">
<time>2020-11-25T09:30:14Z</time>
</trkpt>
<trkpt lat="46.046407" lon="11.179803">
<time>2020-11-25T09:30:15Z</time>
</trkpt>
<trkpt lat="46.046412" lon="11.179809">
<time>2020-11-25T09:30:16Z</time>
</trkpt>
<trkpt lat="46.046417" lon="11.179813">
<time>2020-11-25T09:30:17Z</time>
</trkpt>
<trkpt lat="46.046426" lon="11.179819">
<time>2020-11-25T09:30:18Z</time>
</trkpt>
<trkpt lat="46.046431" lon="11.179829">
<time>2020-11-25T09:30:19Z</time>
</trkpt>
<trkpt lat="46.046437" lon="11.17984">
<time>2020-11-25T09:30:20Z</time>
</trkpt>
<trkpt lat="46.046446" lon="11.179845">
<time>2020-11-25T09:30:21Z</time>
</trkpt>
<trkpt lat="46.046455" lon="11.179851">
<time>2020-11-25T09:30:22Z</time>
</trkpt>
<trkpt lat="46.04646" lon="11.179864">
<time>2020-11-25T09:30:23Z</time>
</trkpt>
<trkpt lat="46.046467" lon="11.179878">
<time>2020-11-25T09:30:24Z</time>
</trkpt>
<trkpt lat="46.04647" lon="11.179889">
<time>2020-11-25T09:30:25Z</time>
</trkpt>
<trkpt lat="46.046482" lon="11.179896">
<time>2020-11-25T09:30:26Z</time>
</trkpt>
<trkpt lat="46.046493" lon="11.1799">
<time>2020-11-25T09:30:27Z</time>
</trkpt>
<trkpt lat="46.04652" lon="11.179899">
<time>2020-11-25T09:30:28Z</time>
</trkpt>
<trkpt lat="46.046545" lon="11.179894">
<time>2020-11-25T09:30:29Z</time>
</trkpt>
<trkpt lat="46.046562" lon="11.179891">
<time>2020-11-25T09:30:30Z</time>
</trkpt>
<trkpt lat="46.046571" lon="11.179893">
<time>2020-11-25T09:30:31Z</time>
</trkpt>
<trkpt lat="46.046581" lon="11.179894">
<time>2020-11-25T09:30:32Z</time>
</trkpt>
<trkpt lat="46.046588" lon="11.179896">
<time>2020-11-25T09:30:33Z</time>
</trkpt>
<trkpt lat="46.046599" lon="11.179895">
<time>2020-11-25T09:30:34Z</time>
</trkpt>
<trkpt lat="46.046613" lon="11.179895">
<time>2020-11-25T09:30:35Z</time>
</trkpt>
<trkpt lat="46.046625" lon="11.179902">
<time>2020-11-25T09:30:36Z</time>
</trkpt>
<trkpt lat="46.046635" lon="11.179904">
<time>2020-11-25T09:30:37Z</time>
</trkpt>
<trkpt lat="46.046646" lon="11.179931">
<time>2020-11-25T09:30:38Z</time>
</trkpt>
<trkpt lat="46.046657" lon="11.179933">
<time>2020-11-25T09:30:39Z</time>
</trkpt>
<trkpt lat="46.046663" lon="11.179935">
<time>2020-11-25T09:30:40Z</time>
</trkpt>
<trkpt lat="46.04667" lon="11.179933">
<time>2020-11-25T09:30:41Z</time>
</trkpt>
<trkpt lat="46.04667" lon="11.179931">
<time>2020-11-25T09:30:42Z</time>
</trkpt>
<trkpt lat="46.046669" lon="11.179935">
<time>2020-11-25T09:30:43Z</time>
</trkpt>
<trkpt lat="46.046667" lon="11.179944">
<time>2020-11-25T09:30:44Z</time>
</trkpt>
<trkpt lat="46.046666" lon="11.179944">
<time>2020-11-25T09:30:45Z</time>
</trkpt>
<trkpt lat="46.04667" lon="11.179945">
<time>2020-11-25T09:30:46Z</time>
</trkpt>
<trkpt lat="46.046674" lon="11.179943">
<time>2020-11-25T09:30:47Z</time>
</trkpt>
<trkpt lat="46.046678" lon="11.179936">
<time>2020-11-25T09:30:48Z</time>
</trkpt>
<trkpt lat="46.046683" lon="11.179925">
<time>2020-11-25T09:30:49Z</time>
</trkpt>
<trkpt lat="46.046687" lon="11.179909">
<time>2020-11-25T09:30:50Z</time>
</trkpt>
<trkpt lat="46.046691" lon="11.179884">
<time>2020-11-25T09:30:51Z</time>
</trkpt>
<trkpt lat="46.046694" lon="11.179867">
<time>2020-11-25T09:30:52Z</time>
</trkpt>
<trkpt lat="46.046697" lon="11.17985">
<time>2020-11-25T09:30:53Z</time>
</trkpt>
<trkpt lat="46.046699" lon="11.179839">
<time>2020-11-25T09:30:54Z</time>
</trkpt>
<trkpt lat="46.046703" lon="11.179836">
<time>2020-11-25T09:30:55Z</time>
</trkpt>
<trkpt lat="46.046714" lon="11.179834">
<time>2020-11-25T09:30:56Z</time>
</trkpt>
<trkpt lat="46.046724" lon="11.17983">
<time>2020-11-25T09:30:57Z</time>
</trkpt>
<trkpt lat="46.046727" lon="11.179824">
<time>2020-11-25T09:30:58Z</time>
</trkpt>
<trkpt lat="46.046729" lon="11.179819">
<time>2020-11-25T09:30:59Z</time>
</trkpt>
<trkpt lat="46.046727" lon="11.179821">
<time>2020-11-25T09:31:00Z</time>
</trkpt>
<trkpt lat="46.046728" lon="11.179823">
<time>2020-11-25T09:31:01Z</time>
</trkpt>
<trkpt lat="46.046725" lon="11.179825">
<time>2020-11-25T09:31:02Z</time>
</trkpt>
<trkpt lat="46.046725" lon="11.179828">
<time>2020-11-25T09:31:03Z</time>
</trkpt>
<trkpt lat="46.046725" lon="11.179829">
<time>2020-11-25T09:31:04Z</time>
</trkpt>
<trkpt lat="46.046726" lon="11.179844">
<time>2020-11-25T09:31:05Z</time>
</trkpt>
<trkpt lat="46.046726" lon="11.179854">
<time>2020-11-25T09:31:06Z</time>
</trkpt>
<trkpt lat="46.046726" lon="11.179863">
<time>2020-11-25T09:31:07Z</time>
</trkpt>
<trkpt lat="46.046724" lon="11.179867">
<time>2020-11-25T09:31:08Z</time>
</trkpt>
<trkpt lat="46.046723" lon="11.179869">
<time>2020-11-25T09:31:09Z</time>
</trkpt>
<trkpt lat="46.046724" lon="11.179872">
<time>2020-11-25T09:31:10Z</time>
</trkpt>
<trkpt lat="46.046725" lon="11.179876">
<time>2020-11-25T09:31:11Z</time>
</trkpt>
<trkpt lat="46.046725" lon="11.179879">
<time>2020-11-25T09:31:12Z</time>
</trkpt>
<trkpt lat="46.046721" lon="11.179893">
<time>2020-11-25T09:31:13Z</time>
</trkpt>
<trkpt lat="46.046722" lon="11.179902">
<time>2020-11-25T09:31:14Z</time>
</trkpt>
<trkpt lat="46.046722" lon="11.179906">
<time>2020-11-25T09:31:15Z</time>
</trkpt>
<trkpt lat="46.046724" lon="11.179908">
<time>2020-11-25T09:31:16Z</time>
</trkpt>
<trkpt lat="46.046726" lon="11.17991">
<time>2020-11-25T09:31:17Z</time>
</trkpt>
<trkpt lat="46.046728" lon="11.179909">
<time>2020-11-25T09:31:18Z</time>
</trkpt>
<trkpt lat="46.04673" lon="11.179906">
<time>2020-11-25T09:31:19Z</time>
</trkpt>
<trkpt lat="46.046733" lon="11.179904">
<time>2020-11-25T09:31:20Z</time>
</trkpt>
<trkpt lat="46.046735" lon="11.179903">
<time>2020-11-25T09:31:21Z</time>
</trkpt>
<trkpt lat="46.046735" lon="11.179898">
<time>2020-11-25T09:31:22Z</time>
</trkpt>
<trkpt lat="46.046728" lon="11.179888">
<time>2020-11-25T09:31:23Z</time>
</trkpt>
<trkpt lat="46.046725" lon="11.179881">
<time>2020-11-25T09:31:24Z</time>
</trkpt>
<trkpt lat="46.046721" lon="11.179874">
<time>2020-11-25T09:31:25Z</time>
</trkpt>
<trkpt lat="46.046721" lon="11.17987">
<time>2020-11-25T09:31:26Z</time>
</trkpt>
<trkpt lat="46.046727" lon="11.179868">
<time>2020-11-25T09:31:27Z</time>
</trkpt>
<trkpt lat="46.046736" lon="11.179868">
<time>2020-11-25T09:31:28Z</time>
</trkpt>
<trkpt lat="46.046755" lon="11.179871">
<time>2020-11-25T09:31:29Z</time>
</trkpt>
<trkpt lat="46.046774" lon="11.179874">
<time>2020-11-25T09:31:30Z</time>
</trkpt>
<trkpt lat="46.046803" lon="11.179875">
<time>2020-11-25T09:31:31Z</time>
</trkpt>
<trkpt lat="46.046825" lon="11.179874">
<time>2020-11-25T09:31:32Z</time>
</trkpt>
<trkpt lat="46.046837" lon="11.179871">
<time>2020-11-25T09:31:33Z</time>
</trkpt>
<trkpt lat="46.046845" lon="11.179871">
<time>2020-11-25T09:31:34Z</time>
</trkpt>
<trkpt lat="46.046855" lon="11.179868">
<time>2020-11-25T09:31:35Z</time>
</trkpt>
<trkpt lat="46.046861" lon="11.179869">
<time>2020-11-25T09:31:36Z</time>
</trkpt>
<trkpt lat="46.046869" lon="11.17987">
<time>2020-11-25T09:31:37Z</time>
</trkpt>
<trkpt lat="46.046877" lon="11.179869">
<time>2020-11-25T09:31:38Z</time>
</trkpt>
<trkpt lat="46.046885" lon="11.179869">
<time>2020-11-25T09:31:39Z</time>
</trkpt>
<trkpt lat="46.046893" lon="11.17987">
<time>2020-11-25T09:31:40Z</time>
</trkpt>
<trkpt lat="46.046895" lon="11.179869">
<time>2020-11-25T09:31:41Z</time>
</trkpt>
<trkpt lat="46.046896" lon="11.179868">
<time>2020-11-25T09:31:42Z</time>
</trkpt>
<trkpt lat="46.046908" lon="11.179865">
<time>2020-11-25T09:31:43Z</time>
</trkpt>
<trkpt lat="46.046917" lon="11.179858">
<time>2020-11-25T09:31:44Z</time>
</trkpt>
<trkpt lat="46.046924" lon="11.179856">
<time>2020-11-25T09:31:45Z</time>
</trkpt>
<trkpt lat="46.046934" lon="11.179854">
<time>2020-11-25T09:31:46Z</time>
</trkpt>
<trkpt lat="46.046943" lon="11.179851">
<time>2020-11-25T09:31:47Z</time>
</trkpt>
<trkpt lat="46.046961" lon="11.179847">
<time>2020-11-25T09:31:48Z</time>
</trkpt>
<trkpt lat="46.046971" lon="11.179841">
<time>2020-11-25T09:31:49Z</time>
</trkpt>
<trkpt lat="46.046979" lon="11.179838">
<time>2020-11-25T09:31:50Z</time>
</trkpt>
<trkpt lat="46.046986" lon="11.179834">
<time>2020-11-25T09:31:51Z</time>
</trkpt>
<trkpt lat="46.046986" lon="11.179828">
<time>2020-11-25T09:31:52Z</time>
</trkpt>
<trkpt lat="46.046981" lon="11.179823">
<time>2020-11-25T09:31:53Z</time>
</trkpt>
<trkpt lat="46.046971" lon="11.179819">
<time>2020-11-25T09:31:54Z</time>
</trkpt>
<trkpt lat="46.046969" lon="11.179814">
<time>2020-11-25T09:31:55Z</time>
</trkpt>
<trkpt lat="46.046968" lon="11.179811">
<time>2020-11-25T09:31:56Z</time>
</trkpt>
<trkpt lat="46.04697" lon="11.179812">
<time>2020-11-25T09:31:57Z</time>
</trkpt>
<trkpt lat="46.04697" lon="11.179814">
<time>2020-11-25T09:31:58Z</time>
</trkpt>
<trkpt lat="46.046972" lon="11.179816">
<time>2020-11-25T09:31:59Z</time>
</trkpt>
<trkpt lat="46.046975" lon="11.179811">
<time>2020-11-25T09:32:00Z</time>
</trkpt>
<trkpt lat="46.046976" lon="11.179802">
<time>2020-11-25T09:32:01Z</time>
</trkpt>
<trkpt lat="46.046977" lon="11.179792">
<time>2020-11-25T09:32:02Z</time>
</trkpt>
<trkpt lat="46.046981" lon="11.179784">
<time>2020-11-25T09:32:03Z</time>
</trkpt>
<trkpt lat="46.046987" lon="11.179781">
<time>2020-11-25T09:32:04Z</time>
</trkpt>
<trkpt lat="46.046989" lon="11.17978">
<time>2020-11-25T09:32:05Z</time>
</trkpt>
<trkpt lat="46.046991" lon="11.179777">
<time>2020-11-25T09:32:06Z</time>
</trkpt>
<trkpt lat="46.046994" lon="11.179768">
<time>2020-11-25T09:32:07Z</time>
</trkpt>
<trkpt lat="46.046997" lon="11.179761">
<time>2020-11-25T09:32:08Z</time>
</trkpt>
<trkpt lat="46.047004" lon="11.179757">
<time>2020-11-25T09:32:09Z</time>
</trkpt>
<trkpt lat="46.047018" lon="11.179754">
<time>2020-11-25T09:32:10Z</time>
</trkpt>
<trkpt lat="46.047031" lon="11.17975">
<time>2020-11-25T09:32:11Z</time>
</trkpt>
<trkpt lat="46.047045" lon="11.17974">
<time>2020-11-25T09:32:12Z</time>
</trkpt>
<trkpt lat="46.047055" lon="11.179728">
<time>2020-11-25T09:32:13Z</time>
</trkpt>
<trkpt lat="46.047064" lon="11.179716">
<time>2020-11-25T09:32:14Z</time>
</trkpt>
<trkpt lat="46.047066" lon="11.179706">
<time>2020-11-25T09:32:15Z</time>
</trkpt>
<trkpt lat="46.047075" lon="11.179699">
<time>2020-11-25T09:32:16Z</time>
</trkpt>
<trkpt lat="46.047079" lon="11.179693">
<time>2020-11-25T09:32:17Z</time>
</trkpt>
<trkpt lat="46.047079" lon="11.179689">
<time>2020-11-25T09:32:18Z</time>
</trkpt>
<trkpt lat="46.047081" lon="11.179682">
<time>2020-11-25T09:32:19Z</time>
</trkpt>
<trkpt lat="46.04708" lon="11.179674">
<time>2020-11-25T09:32:20Z</time>
</trkpt>
<trkpt lat="46.047081" lon="11.179672">
<time>2020-11-25T09:32:21Z</time>
</trkpt>
<trkpt lat="46.047083" lon="11.179671">
<time>2020-11-25T09:32:22Z</time>
</trkpt>
<trkpt lat="46.047084" lon="11.17967">
<time>2020-11-25T09:32:23Z</time>
</trkpt>
<trkpt lat="46.047084" lon="11.179666">
<time>2020-11-25T09:32:24Z</time>
</trkpt>
<trkpt lat="46.047082" lon="11.17966">
<time>2020-11-25T09:32:25Z</time>
</trkpt>
<trkpt lat="46.04708" lon="11.179652">
<time>2020-11-25T09:32:26Z</time>
</trkpt>
<trkpt lat="46.047076" lon="11.179637">
<time>2020-11-25T09:32:27Z</time>
</trkpt>
<trkpt lat="46.04707" lon="11.179622">
<time>2020-11-25T09:32:28Z</time>
</trkpt>
<trkpt lat="46.047066" lon="11.179609">
<time>2020-11-25T09:32:29Z</time>
</trkpt>
<trkpt lat="46.047066" lon="11.179601">
<time>2020-11-25T09:32:30Z</time>
</trkpt>
<trkpt lat="46.047066" lon="11.179588">
<time>2020-11-25T09:32:31Z</time>
</trkpt>
<trkpt lat="46.047065" lon="11.179565">
<time>2020-11-25T09:32:32Z</time>
</trkpt>
<trkpt lat="46.047067" lon="11.179534">
<time>2020-11-25T09:32:33Z</time>
</trkpt>
<trkpt lat="46.047074" lon="11.179504">
<time>2020-11-25T09:32:34Z</time>
</trkpt>
<trkpt lat="46.047081" lon="11.179483">
<time>2020-11-25T09:32:35Z</time>
</trkpt>
<trkpt lat="46.047084" lon="11.179467">
<time>2020-11-25T09:32:36Z</time>
</trkpt>
<trkpt lat="46.047086" lon="11.179453">
<time>2020-11-25T09:32:37Z</time>
</trkpt>
<trkpt lat="46.04709" lon="11.179437">
<time>2020-11-25T09:32:38Z</time>
</trkpt>
<trkpt lat="46.047093" lon="11.179422">
<time>2020-11-25T09:32:39Z</time>
</trkpt>
<trkpt lat="46.047096" lon="11.179411">
<time>2020-11-25T09:32:40Z</time>
</trkpt>
<trkpt lat="46.0471" lon="11.179397">
<time>2020-11-25T09:32:41Z</time>
</trkpt>
<trkpt lat="46.047102" lon="11.179387">
<time>2020-11-25T09:32:42Z</time>
</trkpt>
<trkpt lat="46.047104" lon="11.179383">
<time>2020-11-25T09:32:43Z</time>
</trkpt>
<trkpt lat="46.047106" lon="11.179382">
<time>2020-11-25T09:32:44Z</time>
</trkpt>
<trkpt lat="46.047106" lon="11.179383">
<time>2020-11-25T09:32:45Z</time>
</trkpt>
<trkpt lat="46.047109" lon="11.179386">
<time>2020-11-25T09:32:46Z</time>
</trkpt>
<trkpt lat="46.047114" lon="11.179381">
<time>2020-11-25T09:32:47Z</time>
</trkpt>
<trkpt lat="46.047117" lon="11.179386">
<time>2020-11-25T09:32:48Z</time>
</trkpt>
<trkpt lat="46.047119" lon="11.179388">
<time>2020-11-25T09:32:49Z</time>
</trkpt>
<trkpt lat="46.047123" lon="11.179386">
<time>2020-11-25T09:32:50Z</time>
</trkpt>
<trkpt lat="46.047128" lon="11.179387">
<time>2020-11-25T09:32:51Z</time>
</trkpt>
<trkpt lat="46.047132" lon="11.179381">
<time>2020-11-25T09:32:52Z</time>
</trkpt>
<trkpt lat="46.047132" lon="11.179372">
<time>2020-11-25T09:32:53Z</time>
</trkpt>
<trkpt lat="46.047131" lon="11.179363">
<time>2020-11-25T09:32:54Z</time>
</trkpt>
<trkpt lat="46.047131" lon="11.179351">
<time>2020-11-25T09:32:55Z</time>
</trkpt>
<trkpt lat="46.04713" lon="11.179341">
<time>2020-11-25T09:32:56Z</time>
</trkpt>
<trkpt lat="46.047128" lon="11.179328">
<time>2020-11-25T09:32:57Z</time>
</trkpt>
<trkpt lat="46.047127" lon="11.179316">
<time>2020-11-25T09:32:58Z</time>
</trkpt>
<trkpt lat="46.047126" lon="11.179304">
<time>2020-11-25T09:32:59Z</time>
</trkpt>
<trkpt lat="46.047116" lon="11.179293">
<time>2020-11-25T09:33:00Z</time>
</trkpt>
<trkpt lat="46.047102" lon="11.179283">
<time>2020-11-25T09:33:01Z</time>
</trkpt>
<trkpt lat="46.047102" lon="11.179271">
<time>2020-11-25T09:33:02Z</time>
</trkpt>
<trkpt lat="46.047094" lon="11.179263">
<time>2020-11-25T09:33:03Z</time>
</trkpt>
<trkpt lat="46.047089" lon="11.179258">
<time>2020-11-25T09:33:04Z</time>
</trkpt>
<trkpt lat="46.047088" lon="11.179249">
<time>2020-11-25T09:33:05Z</time>
</trkpt>
<trkpt lat="46.047091" lon="11.179242">
<time>2020-11-25T09:33:06Z</time>
</trkpt>
<trkpt lat="46.047105" lon="11.179236">
<time>2020-11-25T09:33:07Z</time>
</trkpt>
<trkpt lat="46.047117" lon="11.17923">
<time>2020-11-25T09:33:08Z</time>
</trkpt>
<trkpt lat="46.047127" lon="11.179225">
<time>2020-11-25T09:33:09Z</time>
</trkpt>
<trkpt lat="46.047137" lon="11.179217">
<time>2020-11-25T09:33:10Z</time>
</trkpt>
<trkpt lat="46.047148" lon="11.179209">
<time>2020-11-25T09:33:11Z</time>
</trkpt>
<trkpt lat="46.047155" lon="11.179199">
<time>2020-11-25T09:33:12Z</time>
</trkpt>
<trkpt lat="46.047161" lon="11.179187">
<time>2020-11-25T09:33:13Z</time>
</trkpt>
<trkpt lat="46.047169" lon="11.179178">
<time>2020-11-25T09:33:14Z</time>
</trkpt>
<trkpt lat="46.04718" lon="11.179168">
<time>2020-11-25T09:33:15Z</time>
</trkpt>
<trkpt lat="46.047173" lon="11.179146">
<time>2020-11-25T09:33:16Z</time>
</trkpt>
<trkpt lat="46.047171" lon="11.17913">
<time>2020-11-25T09:33:17Z</time>
</trkpt>
<trkpt lat="46.047165" lon="11.179108">
<time>2020-11-25T09:33:18Z</time>
</trkpt>
<trkpt lat="46.04717" lon="11.179081">
<time>2020-11-25T09:33:19Z</time>
</trkpt>
<trkpt lat="46.047168" lon="11.17906">
<time>2020-11-25T09:33:20Z</time>
</trkpt>
<trkpt lat="46.047166" lon="11.179043">
<time>2020-11-25T09:33:21Z</time>
</trkpt>
<trkpt lat="46.04716" lon="11.179028">
<time>2020-11-25T09:33:22Z</time>
</trkpt>
<trkpt lat="46.047154" lon="11.179014">
<time>2020-11-25T09:33:23Z</time>
</trkpt>
<trkpt lat="46.04715" lon="11.178999">
<time>2020-11-25T09:33:24Z</time>
</trkpt>
<trkpt lat="46.047146" lon="11.178982">
<time>2020-11-25T09:33:25Z</time>
</trkpt>
<trkpt lat="46.047136" lon="11.178965">
<time>2020-11-25T09:33:26Z</time>
</trkpt>
<trkpt lat="46.047122" lon="11.178948">
<time>2020-11-25T09:33:27Z</time>
</trkpt>
<trkpt lat="46.047106" lon="11.178925">
<time>2020-11-25T09:33:28Z</time>
</trkpt>
<trkpt lat="46.047091" lon="11.1789">
<time>2020-11-25T09:33:29Z</time>
</trkpt>
<trkpt lat="46.04708" lon="11.178873">
<time>2020-11-25T09:33:30Z</time>
</trkpt>
<trkpt lat="46.047076" lon="11.17885">
<time>2020-11-25T09:33:31Z</time>
</trkpt>
<trkpt lat="46.047075" lon="11.178837">
<time>2020-11-25T09:33:32Z</time>
</trkpt>
<trkpt lat="46.047073" lon="11.178828">
<time>2020-11-25T09:33:33Z</time>
</trkpt>
<trkpt lat="46.047071" lon="11.178823">
<time>2020-11-25T09:33:34Z</time>
</trkpt>
<trkpt lat="46.047072" lon="11.17881">
<time>2020-11-25T09:33:35Z</time>
</trkpt>
<trkpt lat="46.047069" lon="11.178806">
<time>2020-11-25T09:33:36Z</time>
</trkpt>
<trkpt lat="46.047068" lon="11.178803">
<time>2020-11-25T09:33:37Z</time>
</trkpt>
<trkpt lat="46.047067" lon="11.178799">
<time>2020-11-25T09:33:38Z</time>
</trkpt>
<trkpt lat="46.047062" lon="11.17879">
<time>2020-11-25T09:33:39Z</time>
</trkpt>
<trkpt lat="46.04706" lon="11.178776">
<time>2020-11-25T09:33:40Z</time>
</trkpt>
<trkpt lat="46.047061" lon="11.178757">
<time>2020-11-25T09:33:41Z</time>
</trkpt>
<trkpt lat="46.047061" lon="11.178744">
<time>2020-11-25T09:33:42Z</time>
</trkpt>
<trkpt lat="46.047058" lon="11.178735">
<time>2020-11-25T09:33:43Z</time>
</trkpt>
<trkpt lat="46.04706" lon="11.178734">
<time>2020-11-25T09:33:44Z</time>
</trkpt>
<trkpt lat="46.04706" lon="11.178729">
<time>2020-11-25T09:33:45Z</time>
</trkpt>
<trkpt lat="46.047053" lon="11.178727">
<time>2020-11-25T09:33:46Z</time>
</trkpt>
<trkpt lat="46.04705" lon="11.178728">
<time>2020-11-25T09:33:47Z</time>
</trkpt>
<trkpt lat="46.047044" lon="11.178721">
<time>2020-11-25T09:33:48Z</time>
</trkpt>
<trkpt lat="46.047041" lon="11.178718">
<time>2020-11-25T09:33:49Z</time>
</trkpt>
<trkpt lat="46.047034" lon="11.178717">
<time>2020-11-25T09:33:50Z</time>
</trkpt>
<trkpt lat="46.047029" lon="11.178719">
<time>2020-11-25T09:33:51Z</time>
</trkpt>
<trkpt lat="46.047026" lon="11.178719">
<time>2020-11-25T09:33:52Z</time>
</trkpt>
<trkpt lat="46.047022" lon="11.178721">
<time>2020-11-25T09:33:53Z</time>
</trkpt>
<trkpt lat="46.047015" lon="11.178723">
<time>2020-11-25T09:33:54Z</time>
</trkpt>
<trkpt lat="46.047009" lon="11.178724">
<time>2020-11-25T09:33:55Z</time>
</trkpt>
<trkpt lat="46.047008" lon="11.17872">
<time>2020-11-25T09:33:56Z</time>
</trkpt>
<trkpt lat="46.04701" lon="11.178716">
<time>2020-11-25T09:33:57Z</time>
</trkpt>
<trkpt lat="46.04701" lon="11.178712">
<time>2020-11-25T09:33:58Z</time>
</trkpt>
<trkpt lat="46.047011" lon="11.178711">
<time>2020-11-25T09:33:59Z</time>
</trkpt>
<trkpt lat="46.047006" lon="11.17871">
<time>2020-11-25T09:34:00Z</time>
</trkpt>
<trkpt lat="46.047" lon="11.178702">
<time>2020-11-25T09:34:01Z</time>
</trkpt>
<trkpt lat="46.046992" lon="11.178683">
<time>2020-11-25T09:34:02Z</time>
</trkpt>
<trkpt lat="46.046978" lon="11.178673">
<time>2020-11-25T09:34:03Z</time>
</trkpt>
<trkpt lat="46.046965" lon="11.178666">
<time>2020-11-25T09:34:04Z</time>
</trkpt>
<trkpt lat="46.046951" lon="11.178663">
<time>2020-11-25T09:34:05Z</time>
</trkpt>
<trkpt lat="46.046929" lon="11.178662">
<time>2020-11-25T09:34:06Z</time>
</trkpt>
<trkpt lat="46.046914" lon="11.178661">
<time>2020-11-25T09:34:07Z</time>
</trkpt>
<trkpt lat="46.046906" lon="11.178658">
<time>2020-11-25T09:34:08Z</time>
</trkpt>
<trkpt lat="46.046901" lon="11.178655">
<time>2020-11-25T09:34:09Z</time>
</trkpt>
<trkpt lat="46.046902" lon="11.178647">
<time>2020-11-25T09:34:10Z</time>
</trkpt>
<trkpt lat="46.046904" lon="11.178642">
<time>2020-11-25T09:34:11Z</time>
</trkpt>
<trkpt lat="46.046907" lon="11.178635">
<time>2020-11-25T09:34:12Z</time>
</trkpt>
<trkpt lat="46.046905" lon="11.178627">
<time>2020-11-25T09:34:13Z</time>
</trkpt>
<trkpt lat="46.046907" lon="11.178623">
<time>2020-11-25T09:34:14Z</time>
</trkpt>
<trkpt lat="46.046906" lon="11.178617">
<time>2020-11-25T09:34:15Z</time>
</trkpt>
<trkpt lat="46.046885" lon="11.178612">
<time>2020-11-25T09:34:16Z</time>
</trkpt>
<trkpt lat="46.046857" lon="11.178604">
<time>2020-11-25T09:34:17Z</time>
</trkpt>
<trkpt lat="46.046834" lon="11.178592">
<time>2020-11-25T09:34:18Z</time>
</trkpt>
<trkpt lat="46.046819" lon="11.178574">
<time>2020-11-25T09:34:19Z</time>
</trkpt>
<trkpt lat="46.046806" lon="11.178554">
<time>2020-11-25T09:34:20Z</time>
</trkpt>
<trkpt lat="46.046789" lon="11.178538">
<time>2020-11-25T09:34:21Z</time>
</trkpt>
<trkpt lat="46.046772" lon="11.178526">
<time>2020-11-25T09:34:22Z</time>
</trkpt>
<trkpt lat="46.046756" lon="11.178515">
<time>2020-11-25T09:34:23Z</time>
</trkpt>
<trkpt lat="46.046743" lon="11.178509">
<time>2020-11-25T09:34:24Z</time>
</trkpt>
<trkpt lat="46.046729" lon="11.178501">
<time>2020-11-25T09:34:25Z</time>
</trkpt>
<trkpt lat="46.046713" lon="11.178493">
<time>2020-11-25T09:34:26Z</time>
</trkpt>
<trkpt lat="46.046696" lon="11.178482">
<time>2020-11-25T09:34:27Z</time>
</trkpt>
<trkpt lat="46.046669" lon="11.178475">
<time>2020-11-25T09:34:28Z</time>
</trkpt>
<trkpt lat="46.04665" lon="11.178468">
<time>2020-11-25T09:34:29Z</time>
</trkpt>
<trkpt lat="46.04662" lon="11.178469">
<time>2020-11-25T09:34:30Z</time>
</trkpt>
<trkpt lat="46.046608" lon="11.178463">
<time>2020-11-25T09:34:31Z</time>
</trkpt>
<trkpt lat="46.046599" lon="11.178461">
<time>2020-11-25T09:34:32Z</time>
</trkpt>
<trkpt lat="46.046586" lon="11.178464">
<time>2020-11-25T09:34:33Z</time>
</trkpt>
<trkpt lat="46.046579" lon="11.178462">
<time>2020-11-25T09:34:34Z</time>
</trkpt>
<trkpt lat="46.046568" lon="11.178458">
<time>2020-11-25T09:34:35Z</time>
</trkpt>
<trkpt lat="46.04656" lon="11.178452">
<time>2020-11-25T09:34:36Z</time>
</trkpt>
<trkpt lat="46.046545" lon="11.178448">
<time>2020-11-25T09:34:37Z</time>
</trkpt>
<trkpt lat="46.046535" lon="11.178442">
<time>2020-11-25T09:34:38Z</time>
</trkpt>
<trkpt lat="46.046526" lon="11.178435">
<time>2020-11-25T09:34:39Z</time>
</trkpt>
<trkpt lat="46.04651" lon="11.178427">
<time>2020-11-25T09:34:40Z</time>
</trkpt>
<trkpt lat="46.046491" lon="11.178414">
<time>2020-11-25T09:34:41Z</time>
</trkpt>
<trkpt lat="46.046483" lon="11.178393">
<time>2020-11-25T09:34:42Z</time>
</trkpt>
<trkpt lat="46.046475" lon="11.178378">
<time>2020-11-25T09:34:43Z</time>
</trkpt>
<trkpt lat="46.046467" lon="11.17837">
<time>2020-11-25T09:34:44Z</time>
</trkpt>
<trkpt lat="46.046461" lon="11.178363">
<time>2020-11-25T09:34:45Z</time>
</trkpt>
<trkpt lat="46.046453" lon="11.178357">
<time>2020-11-25T09:34:46Z</time>
</trkpt>
<trkpt lat="46.046452" lon="11.178348">
<time>2020-11-25T09:34:47Z</time>
</trkpt>
<trkpt lat="46.046449" lon="11.178343">
<time>2020-11-25T09:34:48Z</time>
</trkpt>
<trkpt lat="46.046447" lon="11.178337">
<time>2020-11-25T09:34:49Z</time>
</trkpt>
<trkpt lat="46.046443" lon="11.178334">
<time>2020-11-25T09:34:50Z</time>
</trkpt>
<trkpt lat="46.046436" lon="11.178334">
<time>2020-11-25T09:34:51Z</time>
</trkpt>
<trkpt lat="46.046431" lon="11.178333">
<time>2020-11-25T09:34:52Z</time>
</trkpt>
<trkpt lat="46.046431" lon="11.17833">
<time>2020-11-25T09:34:53Z</time>
</trkpt>
<trkpt lat="46.046423" lon="11.178326">
<time>2020-11-25T09:34:54Z</time>
</trkpt>
<trkpt lat="46.046415" lon="11.178326">
<time>2020-11-25T09:34:55Z</time>
</trkpt>
<trkpt lat="46.046408" lon="11.178327">
<time>2020-11-25T09:34:56Z</time>
</trkpt>
<trkpt lat="46.046398" lon="11.178329">
<time>2020-11-25T09:34:57Z</time>
</trkpt>
<trkpt lat="46.046395" lon="11.178331">
<time>2020-11-25T09:34:58Z</time>
</trkpt>
<trkpt lat="46.046392" lon="11.178329">
<time>2020-11-25T09:34:59Z</time>
</trkpt>
<trkpt lat="46.04639" lon="11.178329">
<time>2020-11-25T09:35:00Z</time>
</trkpt>
<trkpt lat="46.046385" lon="11.178331">
<time>2020-11-25T09:35:01Z</time>
</trkpt>
<trkpt lat="46.046376" lon="11.178329">
<time>2020-11-25T09:35:02Z</time>
</trkpt>
<trkpt lat="46.04637" lon="11.178326">
<time>2020-11-25T09:35:03Z</time>
</trkpt>
<trkpt lat="46.046361" lon="11.178325">
<time>2020-11-25T09:35:04Z</time>
</trkpt>
<trkpt lat="46.046352" lon="11.178322">
<time>2020-11-25T09:35:05Z</time>
</trkpt>
<trkpt lat="46.046346" lon="11.178317">
<time>2020-11-25T09:35:06Z</time>
</trkpt>
<trkpt lat="46.046347" lon="11.178312">
<time>2020-11-25T09:35:07Z</time>
</trkpt>
<trkpt lat="46.046347" lon="11.17831">
<time>2020-11-25T09:35:08Z</time>
</trkpt>
<trkpt lat="46.046341" lon="11.178313">
<time>2020-11-25T09:35:09Z</time>
</trkpt>
<trkpt lat="46.04634" lon="11.178317">
<time>2020-11-25T09:35:10Z</time>
</trkpt>
<trkpt lat="46.046344" lon="11.178315">
<time>2020-11-25T09:35:11Z</time>
</trkpt>
<trkpt lat="46.046341" lon="11.178313">
<time>2020-11-25T09:35:12Z</time>
</trkpt>
<trkpt lat="46.046338" lon="11.178311">
<time>2020-11-25T09:35:13Z</time>
</trkpt>
<trkpt lat="46.046334" lon="11.178307">
<time>2020-11-25T09:35:14Z</time>
</trkpt>
<trkpt lat="46.046332" lon="11.178302">
<time>2020-11-25T09:35:15Z</time>
</trkpt>
<trkpt lat="46.046328" lon="11.178298">
<time>2020-11-25T09:35:16Z</time>
</trkpt>
<trkpt lat="46.046313" lon="11.178298">
<time>2020-11-25T09:35:17Z</time>
</trkpt>
<trkpt lat="46.046305" lon="11.178297">
<time>2020-11-25T09:35:18Z</time>
</trkpt>
<trkpt lat="46.046302" lon="11.178293">
<time>2020-11-25T09:35:19Z</time>
</trkpt>
<trkpt lat="46.046299" lon="11.178288">
<time>2020-11-25T09:35:20Z</time>
</trkpt>
<trkpt lat="46.046298" lon="11.178277">
<time>2020-11-25T09:35:21Z</time>
</trkpt>
<trkpt lat="46.046295" lon="11.178259">
<time>2020-11-25T09:35:22Z</time>
</trkpt>
<trkpt lat="46.046286" lon="11.178252">
<time>2020-11-25T09:35:23Z</time>
</trkpt>
<trkpt lat="46.046265" lon="11.178238">
<time>2020-11-25T09:35:24Z</time>
</trkpt>
<trkpt lat="46.046238" lon="11.178222">
<time>2020-11-25T09:35:25Z</time>
</trkpt>
<trkpt lat="46.046224" lon="11.178208">
<time>2020-11-25T09:35:26Z</time>
</trkpt>
<trkpt lat="46.046209" lon="11.178198">
<time>2020-11-25T09:35:27Z</time>
</trkpt>
<trkpt lat="46.046199" lon="11.178191">
<time>2020-11-25T09:35:28Z</time>
</trkpt>
<trkpt lat="46.046188" lon="11.178181">
<time>2020-11-25T09:35:29Z</time>
</trkpt>
<trkpt lat="46.04617" lon="11.178172">
<time>2020-11-25T09:35:30Z</time>
</trkpt>
<trkpt lat="46.046163" lon="11.178165">
<time>2020-11-25T09:35:31Z</time>
</trkpt>
<trkpt lat="46.046154" lon="11.178157">
<time>2020-11-25T09:35:32Z</time>
</trkpt>
<trkpt lat="46.046144" lon="11.178155">
<time>2020-11-25T09:35:33Z</time>
</trkpt>
<trkpt lat="46.046133" lon="11.178154">
<time>2020-11-25T09:35:34Z</time>
</trkpt>
<trkpt lat="46.046127" lon="11.178145">
<time>2020-11-25T09:35:35Z</time>
</trkpt>
<trkpt lat="46.046117" lon="11.178141">
<time>2020-11-25T09:35:36Z</time>
</trkpt>
<trkpt lat="46.046105" lon="11.178142">
<time>2020-11-25T09:35:37Z</time>
</trkpt>
<trkpt lat="46.0461" lon="11.178141">
<time>2020-11-25T09:35:38Z</time>
</trkpt>
<trkpt lat="46.046099" lon="11.178137">
<time>2020-11-25T09:35:39Z</time>
</trkpt>
<trkpt lat="46.046096" lon="11.178135">
<time>2020-11-25T09:35:40Z</time>
</trkpt>
<trkpt lat="46.046088" lon="11.178137">
<time>2020-11-25T09:35:41Z</time>
</trkpt>
<trkpt lat="46.046085" lon="11.178134">
<time>2020-11-25T09:35:42Z</time>
</trkpt>
<trkpt lat="46.046082" lon="11.178127">
<time>2020-11-25T09:35:43Z</time>
</trkpt>
<trkpt lat="46.046071" lon="11.178119">
<time>2020-11-25T09:35:44Z</time>
</trkpt>
<trkpt lat="46.046045" lon="11.178125">
<time>2020-11-25T09:35:45Z</time>
</trkpt>
<trkpt lat="46.046019" lon="11.178124">
<time>2020-11-25T09:35:46Z</time>
</trkpt>
<trkpt lat="46.045999" lon="11.178124">
<time>2020-11-25T09:35:47Z</time>
</trkpt>
<trkpt lat="46.045981" lon="11.178126">
<time>2020-11-25T09:35:48Z</time>
</trkpt>
<trkpt lat="46.045962" lon="11.178128">
<time>2020-11-25T09:35:49Z</time>
</trkpt>
<trkpt lat="46.045945" lon="11.178132">
<time>2020-11-25T09:35:50Z</time>
</trkpt>
<trkpt lat="46.045925" lon="11.17813">
<time>2020-11-25T09:35:51Z</time>
</trkpt>
<trkpt lat="46.045911" lon="11.178132">
<time>2020-11-25T09:35:52Z</time>
</trkpt>
<trkpt lat="46.045905" lon="11.178129">
<time>2020-11-25T09:35:53Z</time>
</trkpt>
<trkpt lat="46.045896" lon="11.178132">
<time>2020-11-25T09:35:54Z</time>
</trkpt>
<trkpt lat="46.045887" lon="11.178138">
<time>2020-11-25T09:35:55Z</time>
</trkpt>
<trkpt lat="46.045879" lon="11.178141">
<time>2020-11-25T09:35:56Z</time>
</trkpt>
<trkpt lat="46.04587" lon="11.178139">
<time>2020-11-25T09:35:57Z</time>
</trkpt>
<trkpt lat="46.045862" lon="11.178133">
<time>2020-11-25T09:35:58Z</time>
</trkpt>
<trkpt lat="46.045858" lon="11.178122">
<time>2020-11-25T09:35:59Z</time>
</trkpt>
<trkpt lat="46.045854" lon="11.178117">
<time>2020-11-25T09:36:00Z</time>
</trkpt>
<trkpt lat="46.045845" lon="11.178109">
<time>2020-11-25T09:36:01Z</time>
</trkpt>
<trkpt lat="46.045837" lon="11.178101">
<time>2020-11-25T09:36:02Z</time>
</trkpt>
<trkpt lat="46.045829" lon="11.178095">
<time>2020-11-25T09:36:03Z</time>
</trkpt>
<trkpt lat="46.045825" lon="11.178089">
<time>2020-11-25T09:36:04Z</time>
</trkpt>
<trkpt lat="46.045823" lon="11.178072">
<time>2020-11-25T09:36:05Z</time>
</trkpt>
<trkpt lat="46.045812" lon="11.178052">
<time>2020-11-25T09:36:06Z</time>
</trkpt>
<trkpt lat="46.045806" lon="11.178034">
<time>2020-11-25T09:36:07Z</time>
</trkpt>
<trkpt lat="46.045796" lon="11.178023">
<time>2020-11-25T09:36:08Z</time>
</trkpt>
<trkpt lat="46.045791" lon="11.178015">
<time>2020-11-25T09:36:09Z</time>
</trkpt>
<trkpt lat="46.045789" lon="11.178009">
<time>2020-11-25T09:36:10Z</time>
</trkpt>
<trkpt lat="46.045784" lon="11.178007">
<time>2020-11-25T09:36:11Z</time>
</trkpt>
<trkpt lat="46.045786" lon="11.177999">
<time>2020-11-25T09:36:12Z</time>
</trkpt>
<trkpt lat="46.045784" lon="11.177994">
<time>2020-11-25T09:36:13Z</time>
</trkpt>
<trkpt lat="46.045776" lon="11.177986">
<time>2020-11-25T09:36:14Z</time>
</trkpt>
<trkpt lat="46.045764" lon="11.177977">
<time>2020-11-25T09:36:15Z</time>
</trkpt>
<trkpt lat="46.045737" lon="11.177962">
<time>2020-11-25T09:36:16Z</time>
</trkpt>
<trkpt lat="46.045715" lon="11.177952">
<time>2020-11-25T09:36:17Z</time>
</trkpt>
<trkpt lat="46.045698" lon="11.177946">
<time>2020-11-25T09:36:18Z</time>
</trkpt>
<trkpt lat="46.04568" lon="11.177943">
<time>2020-11-25T09:36:19Z</time>
</trkpt>
<trkpt lat="46.045654" lon="11.17794">
<time>2020-11-25T09:36:20Z</time>
</trkpt>
<trkpt lat="46.045633" lon="11.177935">
<time>2020-11-25T09:36:21Z</time>
</trkpt>
<trkpt lat="46.045615" lon="11.177928">
<time>2020-11-25T09:36:22Z</time>
</trkpt>
<trkpt lat="46.045603" lon="11.177921">
<time>2020-11-25T09:36:23Z</time>
</trkpt>
<trkpt lat="46.045595" lon="11.177911">
<time>2020-11-25T09:36:24Z</time>
</trkpt>
<trkpt lat="46.045582" lon="11.1779">
<time>2020-11-25T09:36:25Z</time>
</trkpt>
<trkpt lat="46.045574" lon="11.177887">
<time>2020-11-25T09:36:26Z</time>
</trkpt>
<trkpt lat="46.045566" lon="11.177878">
<time>2020-11-25T09:36:27Z</time>
</trkpt>
<trkpt lat="46.045566" lon="11.177868">
<time>2020-11-25T09:36:28Z</time>
</trkpt>
<trkpt lat="46.045572" lon="11.177853">
<time>2020-11-25T09:36:29Z</time>
</trkpt>
<trkpt lat="46.045574" lon="11.177838">
<time>2020-11-25T09:36:30Z</time>
</trkpt>
<trkpt lat="46.045576" lon="11.177815">
<time>2020-11-25T09:36:31Z</time>
</trkpt>
<trkpt lat="46.045577" lon="11.177791">
<time>2020-11-25T09:36:32Z</time>
</trkpt>
<trkpt lat="46.045576" lon="11.177764">
<time>2020-11-25T09:36:33Z</time>
</trkpt>
<trkpt lat="46.045576" lon="11.177741">
<time>2020-11-25T09:36:34Z</time>
</trkpt>
<trkpt lat="46.045578" lon="11.177721">
<time>2020-11-25T09:36:35Z</time>
</trkpt>
<trkpt lat="46.045576" lon="11.177696">
<time>2020-11-25T09:36:36Z</time>
</trkpt>
<trkpt lat="46.04558" lon="11.17767">
<time>2020-11-25T09:36:37Z</time>
</trkpt>
<trkpt lat="46.045585" lon="11.177647">
<time>2020-11-25T09:36:38Z</time>
</trkpt>
<trkpt lat="46.045589" lon="11.177632">
<time>2020-11-25T09:36:39Z</time>
</trkpt>
<trkpt lat="46.045595" lon="11.177619">
<time>2020-11-25T09:36:40Z</time>
</trkpt>
<trkpt lat="46.045604" lon="11.177605">
<time>2020-11-25T09:36:41Z</time>
</trkpt>
<trkpt lat="46.045623" lon="11.177592">
<time>2020-11-25T09:36:42Z</time>
</trkpt>
<trkpt lat="46.045639" lon="11.177579">
<time>2020-11-25T09:36:43Z</time>
</trkpt>
<trkpt lat="46.045659" lon="11.177565">
<time>2020-11-25T09:36:44Z</time>
</trkpt>
<trkpt lat="46.04567" lon="11.177555">
<time>2020-11-25T09:36:45Z</time>
</trkpt>
<trkpt lat="46.045678" lon="11.177552">
<time>2020-11-25T09:36:46Z</time>
</trkpt>
<trkpt lat="46.045685" lon="11.177549">
<time>2020-11-25T09:36:47Z</time>
</trkpt>
<trkpt lat="46.045696" lon="11.177546">
<time>2020-11-25T09:36:48Z</time>
</trkpt>
<trkpt lat="46.045701" lon="11.17754">
<time>2020-11-25T09:36:49Z</time>
</trkpt>
<trkpt lat="46.045704" lon="11.177531">
<time>2020-11-25T09:36:50Z</time>
</trkpt>
<trkpt lat="46.045708" lon="11.177516">
<time>2020-11-25T09:36:51Z</time>
</trkpt>
<trkpt lat="46.04571" lon="11.177505">
<time>2020-11-25T09:36:52Z</time>
</trkpt>
<trkpt lat="46.045711" lon="11.177494">
<time>2020-11-25T09:36:53Z</time>
</trkpt>
<trkpt lat="46.045711" lon="11.177482">
<time>2020-11-25T09:36:54Z</time>
</trkpt>
<trkpt lat="46.045709" lon="11.177474">
<time>2020-11-25T09:36:55Z</time>
</trkpt>
<trkpt lat="46.045709" lon="11.177465">
<time>2020-11-25T09:36:56Z</time>
</trkpt>
<trkpt lat="46.045711" lon="11.177458">
<time>2020-11-25T09:36:57Z</time>
</trkpt>
<trkpt lat="46.045714" lon="11.17745">
<time>2020-11-25T09:36:58Z</time>
</trkpt>
<trkpt lat="46.045718" lon="11.177444">
<time>2020-11-25T09:36:59Z</time>
</trkpt>
<trkpt lat="46.045721" lon="11.177439">
<time>2020-11-25T09:37:00Z</time>
</trkpt>
<trkpt lat="46.045725" lon="11.177434">
<time>2020-11-25T09:37:01Z</time>
</trkpt>
<trkpt lat="46.045727" lon="11.177433">
<time>2020-11-25T09:37:02Z</time>
</trkpt>
<trkpt lat="46.045736" lon="11.177428">
<time>2020-11-25T09:37:03Z</time>
</trkpt>
<trkpt lat="46.045737" lon="11.177426">
<time>2020-11-25T09:37:04Z</time>
</trkpt>
<trkpt lat="46.045736" lon="11.17742">
<time>2020-11-25T09:37:05Z</time>
</trkpt>
<trkpt lat="46.045745" lon="11.177413">
<time>2020-11-25T09:37:06Z</time>
</trkpt>
<trkpt lat="46.045752" lon="11.17741">
<time>2020-11-25T09:37:07Z</time>
</trkpt>
<trkpt lat="46.045752" lon="11.177408">
<time>2020-11-25T09:37:08Z</time>
</trkpt>
<trkpt lat="46.045753" lon="11.177407">
<time>2020-11-25T09:37:09Z</time>
</trkpt>
<trkpt lat="46.045746" lon="11.177403">
<time>2020-11-25T09:37:10Z</time>
</trkpt>
<trkpt lat="46.045749" lon="11.177398">
<time>2020-11-25T09:37:11Z</time>
</trkpt>
<trkpt lat="46.045758" lon="11.177388">
<time>2020-11-25T09:37:12Z</time>
</trkpt>
<trkpt lat="46.045766" lon="11.177377">
<time>2020-11-25T09:37:13Z</time>
</trkpt>
<trkpt lat="46.045767" lon="11.177361">
<time>2020-11-25T09:37:14Z</time>
</trkpt>
<trkpt lat="46.045773" lon="11.177344">
<time>2020-11-25T09:37:15Z</time>
</trkpt>
<trkpt lat="46.04578" lon="11.177325">
<time>2020-11-25T09:37:16Z</time>
</trkpt>
<trkpt lat="46.045793" lon="11.177304">
<time>2020-11-25T09:37:17Z</time>
</trkpt>
<trkpt lat="46.045804" lon="11.177281">
<time>2020-11-25T09:37:18Z</time>
</trkpt>
<trkpt lat="46.045814" lon="11.177266">
<time>2020-11-25T09:37:19Z</time>
</trkpt>
<trkpt lat="46.045826" lon="11.177254">
<time>2020-11-25T09:37:20Z</time>
</trkpt>
<trkpt lat="46.045835" lon="11.177237">
<time>2020-11-25T09:37:21Z</time>
</trkpt>
<trkpt lat="46.045838" lon="11.177221">
<time>2020-11-25T09:37:22Z</time>
</trkpt>
<trkpt lat="46.045838" lon="11.177209">
<time>2020-11-25T09:37:23Z</time>
</trkpt>
<trkpt lat="46.04584" lon="11.177197">
<time>2020-11-25T09:37:24Z</time>
</trkpt>
<trkpt lat="46.045841" lon="11.177193">
<time>2020-11-25T09:37:25Z</time>
</trkpt>
<trkpt lat="46.045841" lon="11.177186">
<time>2020-11-25T09:37:26Z</time>
</trkpt>
<trkpt lat="46.045842" lon="11.177177">
<time>2020-11-25T09:37:27Z</time>
</trkpt>
<trkpt lat="46.045842" lon="11.17717">
<time>2020-11-25T09:37:28Z</time>
</trkpt>
<trkpt lat="46.045841" lon="11.177165">
<time>2020-11-25T09:37:29Z</time>
</trkpt>
<trkpt lat="46.045849" lon="11.177157">
<time>2020-11-25T09:37:30Z</time>
</trkpt>
<trkpt lat="46.045853" lon="11.177135">
<time>2020-11-25T09:37:31Z</time>
</trkpt>
<trkpt lat="46.045865" lon="11.177114">
<time>2020-11-25T09:37:32Z</time>
</trkpt>
<trkpt lat="46.045881" lon="11.177094">
<time>2020-11-25T09:37:33Z</time>
</trkpt>
<trkpt lat="46.045897" lon="11.177075">
<time>2020-11-25T09:37:34Z</time>
</trkpt>
<trkpt lat="46.04591" lon="11.177061">
<time>2020-11-25T09:37:35Z</time>
</trkpt>
<trkpt lat="46.045922" lon="11.177049">
<time>2020-11-25T09:37:36Z</time>
</trkpt>
<trkpt lat="46.045938" lon="11.177046">
<time>2020-11-25T09:37:37Z</time>
</trkpt>
<trkpt lat="46.045949" lon="11.177041">
<time>2020-11-25T09:37:38Z</time>
</trkpt>
<trkpt lat="46.045959" lon="11.177038">
<time>2020-11-25T09:37:39Z</time>
</trkpt>
<trkpt lat="46.045965" lon="11.177031">
<time>2020-11-25T09:37:40Z</time>
</trkpt>
<trkpt lat="46.045972" lon="11.177026">
<time>2020-11-25T09:37:41Z</time>
</trkpt>
<trkpt lat="46.045984" lon="11.177023">
<time>2020-11-25T09:37:42Z</time>
</trkpt>
<trkpt lat="46.045993" lon="11.177021">
<time>2020-11-25T09:37:43Z</time>
</trkpt>
<trkpt lat="46.046004" lon="11.177011">
<time>2020-11-25T09:37:44Z</time>
</trkpt>
<trkpt lat="46.046022" lon="11.177003">
<time>2020-11-25T09:37:45Z</time>
</trkpt>
<trkpt lat="46.046036" lon="11.176994">
<time>2020-11-25T09:37:46Z</time>
</trkpt>
<trkpt lat="46.046051" lon="11.176988">
<time>2020-11-25T09:37:47Z</time>
</trkpt>
<trkpt lat="46.046067" lon="11.176983">
<time>2020-11-25T09:37:48Z</time>
</trkpt>
<trkpt lat="46.046081" lon="11.176979">
<time>2020-11-25T09:37:49Z</time>
</trkpt>
<trkpt lat="46.046092" lon="11.176979">
<time>2020-11-25T09:37:50Z</time>
</trkpt>
<trkpt lat="46.046102" lon="11.176977">
<time>2020-11-25T09:37:51Z</time>
</trkpt>
<trkpt lat="46.046133" lon="11.176973">
<time>2020-11-25T09:37:52Z</time>
</trkpt>
<trkpt lat="46.04616" lon="11.176968">
<time>2020-11-25T09:37:53Z</time>
</trkpt>
<trkpt lat="46.046184" lon="11.176967">
<time>2020-11-25T09:37:54Z</time>
</trkpt>
<trkpt lat="46.046209" lon="11.176966">
<time>2020-11-25T09:37:55Z</time>
</trkpt>
<trkpt lat="46.046229" lon="11.176963">
<time>2020-11-25T09:37:56Z</time>
</trkpt>
<trkpt lat="46.046244" lon="11.176958">
<time>2020-11-25T09:37:57Z</time>
</trkpt>
<trkpt lat="46.046257" lon="11.176957">
<time>2020-11-25T09:37:58Z</time>
</trkpt>
<trkpt lat="46.04627" lon="11.176954">
<time>2020-11-25T09:37:59Z</time>
</trkpt>
<trkpt lat="46.046282" lon="11.176952">
<time>2020-11-25T09:38:00Z</time>
</trkpt>
<trkpt lat="46.046293" lon="11.176951">
<time>2020-11-25T09:38:01Z</time>
</trkpt>
<trkpt lat="46.046304" lon="11.176954">
<time>2020-11-25T09:38:02Z</time>
</trkpt>
<trkpt lat="46.046299" lon="11.176967">
<time>2020-11-25T09:38:03Z</time>
</trkpt>
<trkpt lat="46.046295" lon="11.176977">
<time>2020-11-25T09:38:04Z</time>
</trkpt>
<trkpt lat="46.046305" lon="11.176979">
<time>2020-11-25T09:38:05Z</time>
</trkpt>
<trkpt lat="46.046306" lon="11.17698">
<time>2020-11-25T09:38:06Z</time>
</trkpt>
<trkpt lat="46.046316" lon="11.176981">
<time>2020-11-25T09:38:07Z</time>
</trkpt>
<trkpt lat="46.046321" lon="11.176983">
<time>2020-11-25T09:38:08Z</time>
</trkpt>
<trkpt lat="46.046332" lon="11.17698">
<time>2020-11-25T09:38:09Z</time>
</trkpt>
<trkpt lat="46.046341" lon="11.176978">
<time>2020-11-25T09:38:10Z</time>
</trkpt>
<trkpt lat="46.046348" lon="11.176979">
<time>2020-11-25T09:38:11Z</time>
</trkpt>
<trkpt lat="46.046357" lon="11.176978">
<time>2020-11-25T09:38:12Z</time>
</trkpt>
<trkpt lat="46.046368" lon="11.176977">
<time>2020-11-25T09:38:13Z</time>
</trkpt>
<trkpt lat="46.046383" lon="11.176974">
<time>2020-11-25T09:38:14Z</time>
</trkpt>
<trkpt lat="46.046385" lon="11.176969">
<time>2020-11-25T09:38:15Z</time>
</trkpt>
<trkpt lat="46.046385" lon="11.176961">
<time>2020-11-25T09:38:16Z</time>
</trkpt>
<trkpt lat="46.046386" lon="11.176953">
<time>2020-11-25T09:38:17Z</time>
</trkpt>
<trkpt lat="46.04639" lon="11.176948">
<time>2020-11-25T09:38:18Z</time>
</trkpt>
<trkpt lat="46.046391" lon="11.176951">
<time>2020-11-25T09:38:19Z</time>
</trkpt>
<trkpt lat="46.046393" lon="11.176957">
<time>2020-11-25T09:38:20Z</time>
</trkpt>
<trkpt lat="46.046396" lon="11.176961">
<time>2020-11-25T09:38:21Z</time>
</trkpt>
<trkpt lat="46.046404" lon="11.176962">
<time>2020-11-25T09:38:22Z</time>
</trkpt>
<trkpt lat="46.046427" lon="11.176964">
<time>2020-11-25T09:38:23Z</time>
</trkpt>
<trkpt lat="46.046456" lon="11.176973">
<time>2020-11-25T09:38:24Z</time>
</trkpt>
<trkpt lat="46.046484" lon="11.176981">
<time>2020-11-25T09:38:25Z</time>
</trkpt>
<trkpt lat="46.046506" lon="11.176988">
<time>2020-11-25T09:38:26Z</time>
</trkpt>
<trkpt lat="46.046531" lon="11.176993">
<time>2020-11-25T09:38:27Z</time>
</trkpt>
<trkpt lat="46.046555" lon="11.176998">
<time>2020-11-25T09:38:28Z</time>
</trkpt>
<trkpt lat="46.04658" lon="11.177003">
<time>2020-11-25T09:38:29Z</time>
</trkpt>
<trkpt lat="46.046607" lon="11.177001">
<time>2020-11-25T09:38:30Z</time>
</trkpt>
<trkpt lat="46.046639" lon="11.177009">
<time>2020-11-25T09:38:31Z</time>
</trkpt>
<trkpt lat="46.046667" lon="11.177013">
<time>2020-11-25T09:38:32Z</time>
</trkpt>
<trkpt lat="46.046692" lon="11.177025">
<time>2020-11-25T09:38:33Z</time>
</trkpt>
<trkpt lat="46.046722" lon="11.177047">
<time>2020-11-25T09:38:34Z</time>
</trkpt>
<trkpt lat="46.046738" lon="11.177058">
<time>2020-11-25T09:38:35Z</time>
</trkpt>
<trkpt lat="46.046752" lon="11.177061">
<time>2020-11-25T09:38:36Z</time>
</trkpt>
<trkpt lat="46.046765" lon="11.177064">
<time>2020-11-25T09:38:37Z</time>
</trkpt>
<trkpt lat="46.046777" lon="11.177066">
<time>2020-11-25T09:38:38Z</time>
</trkpt>
<trkpt lat="46.046785" lon="11.177068">
<time>2020-11-25T09:38:39Z</time>
</trkpt>
<trkpt lat="46.04678" lon="11.177076">
<time>2020-11-25T09:38:40Z</time>
</trkpt>
<trkpt lat="46.04678" lon="11.17707">
<time>2020-11-25T09:38:41Z</time>
</trkpt>
<trkpt lat="46.046786" lon="11.177065">
<time>2020-11-25T09:38:42Z</time>
</trkpt>
<trkpt lat="46.046795" lon="11.177057">
<time>2020-11-25T09:38:43Z</time>
</trkpt>
<trkpt lat="46.046801" lon="11.177056">
<time>2020-11-25T09:38:44Z</time>
</trkpt>
<trkpt lat="46.046803" lon="11.17706">
<time>2020-11-25T09:38:45Z</time>
</trkpt>
<trkpt lat="46.046807" lon="11.177065">
<time>2020-11-25T09:38:46Z</time>
</trkpt>
<trkpt lat="46.046812" lon="11.17707">
<time>2020-11-25T09:38:47Z</time>
</trkpt>
<trkpt lat="46.046818" lon="11.177075">
<time>2020-11-25T09:38:48Z</time>
</trkpt>
<trkpt lat="46.046825" lon="11.177084">
<time>2020-11-25T09:38:49Z</time>
</trkpt>
<trkpt lat="46.046827" lon="11.177092">
<time>2020-11-25T09:38:50Z</time>
</trkpt>
<trkpt lat="46.046835" lon="11.177088">
<time>2020-11-25T09:38:51Z</time>
</trkpt>
<trkpt lat="46.04684" lon="11.177085">
<time>2020-11-25T09:38:52Z</time>
</trkpt>
<trkpt lat="46.046844" lon="11.177067">
<time>2020-11-25T09:38:53Z</time>
</trkpt>
<trkpt lat="46.046847" lon="11.177058">
<time>2020-11-25T09:38:54Z</time>
</trkpt>
<trkpt lat="46.046849" lon="11.177056">
<time>2020-11-25T09:38:55Z</time>
</trkpt>
<trkpt lat="46.046849" lon="11.177045">
<time>2020-11-25T09:38:56Z</time>
</trkpt>
<trkpt lat="46.04684" lon="11.177046">
<time>2020-11-25T09:38:57Z</time>
</trkpt>
<trkpt lat="46.046848" lon="11.177052">
<time>2020-11-25T09:38:58Z</time>
</trkpt>
<trkpt lat="46.046849" lon="11.177056">
<time>2020-11-25T09:38:59Z</time>
</trkpt>
<trkpt lat="46.046846" lon="11.177067">
<time>2020-11-25T09:39:00Z</time>
</trkpt>
<trkpt lat="46.046836" lon="11.177076">
<time>2020-11-25T09:39:01Z</time>
</trkpt>
<trkpt lat="46.046825" lon="11.17708">
<time>2020-11-25T09:39:02Z</time>
</trkpt>
<trkpt lat="46.046814" lon="11.177083">
<time>2020-11-25T09:39:03Z</time>
</trkpt>
<trkpt lat="46.046802" lon="11.177081">
<time>2020-11-25T09:39:04Z</time>
</trkpt>
<trkpt lat="46.046792" lon="11.17708">
<time>2020-11-25T09:39:05Z</time>
</trkpt>
<trkpt lat="46.046784" lon="11.177083">
<time>2020-11-25T09:39:06Z</time>
</trkpt>
<trkpt lat="46.046776" lon="11.177088">
<time>2020-11-25T09:39:07Z</time>
</trkpt>
<trkpt lat="46.046771" lon="11.17709">
<time>2020-11-25T09:39:08Z</time>
</trkpt>
<trkpt lat="46.046764" lon="11.177093">
<time>2020-11-25T09:39:09Z</time>
</trkpt>
<trkpt lat="46.046762" lon="11.177097">
<time>2020-11-25T09:39:10Z</time>
</trkpt>
<trkpt lat="46.046757" lon="11.1771">
<time>2020-11-25T09:39:11Z</time>
</trkpt>
<trkpt lat="46.046751" lon="11.177103">
<time>2020-11-25T09:39:12Z</time>
</trkpt>
<trkpt lat="46.046735" lon="11.177099">
<time>2020-11-25T09:39:13Z</time>
</trkpt>
<trkpt lat="46.046733" lon="11.177086">
<time>2020-11-25T09:39:14Z</time>
</trkpt>
<trkpt lat="46.046733" lon="11.17708">
<time>2020-11-25T09:39:15Z</time>
</trkpt>
<trkpt lat="46.046731" lon="11.177078">
<time>2020-11-25T09:39:16Z</time>
</trkpt>
<trkpt lat="46.046733" lon="11.17708">
<time>2020-11-25T09:39:17Z</time>
</trkpt>
<trkpt lat="46.046733" lon="11.17708">
<time>2020-11-25T09:39:18Z</time>
</trkpt>
<trkpt lat="46.046736" lon="11.177084">
<time>2020-11-25T09:39:19Z</time>
</trkpt>
<trkpt lat="46.046742" lon="11.177089">
<time>2020-11-25T09:39:20Z</time>
</trkpt>
<trkpt lat="46.046742" lon="11.177094">
<time>2020-11-25T09:39:21Z</time>
</trkpt>
<trkpt lat="46.046739" lon="11.177098">
<time>2020-11-25T09:39:22Z</time>
</trkpt>
<trkpt lat="46.046751" lon="11.177095">
<time>2020-11-25T09:39:23Z</time>
</trkpt>
<trkpt lat="46.046757" lon="11.177092">
<time>2020-11-25T09:39:24Z</time>
</trkpt>
<trkpt lat="46.046765" lon="11.177089">
<time>2020-11-25T09:39:25Z</time>
</trkpt>
<trkpt lat="46.046783" lon="11.177087">
<time>2020-11-25T09:39:26Z</time>
</trkpt>
<trkpt lat="46.046799" lon="11.177087">
<time>2020-11-25T09:39:27Z</time>
</trkpt>
<trkpt lat="46.046824" lon="11.177083">
<time>2020-11-25T09:39:28Z</time>
</trkpt>
<trkpt lat="46.046846" lon="11.177078">
<time>2020-11-25T09:39:29Z</time>
</trkpt>
<trkpt lat="46.046879" lon="11.177068">
<time>2020-11-25T09:39:30Z</time>
</trkpt>
<trkpt lat="46.046916" lon="11.177055">
<time>2020-11-25T09:39:31Z</time>
</trkpt>
<trkpt lat="46.046947" lon="11.177045">
<time>2020-11-25T09:39:32Z</time>
</trkpt>
<trkpt lat="46.046978" lon="11.177039">
<time>2020-11-25T09:39:33Z</time>
</trkpt>
<trkpt lat="46.047002" lon="11.177035">
<time>2020-11-25T09:39:34Z</time>
</trkpt>
<trkpt lat="46.047017" lon="11.177031">
<time>2020-11-25T09:39:35Z</time>
</trkpt>
<trkpt lat="46.047027" lon="11.177031">
<time>2020-11-25T09:39:36Z</time>
</trkpt>
<trkpt lat="46.047037" lon="11.177031">
<time>2020-11-25T09:39:37Z</time>
</trkpt>
<trkpt lat="46.047048" lon="11.177034">
<time>2020-11-25T09:39:38Z</time>
</trkpt>
<trkpt lat="46.047061" lon="11.177036">
<time>2020-11-25T09:39:39Z</time>
</trkpt>
<trkpt lat="46.047073" lon="11.177039">
<time>2020-11-25T09:39:40Z</time>
</trkpt>
<trkpt lat="46.047077" lon="11.177041">
<time>2020-11-25T09:39:41Z</time>
</trkpt>
<trkpt lat="46.047081" lon="11.177052">
<time>2020-11-25T09:39:42Z</time>
</trkpt>
<trkpt lat="46.047079" lon="11.177049">
<time>2020-11-25T09:39:43Z</time>
</trkpt>
<trkpt lat="46.047078" lon="11.177049">
<time>2020-11-25T09:39:44Z</time>
</trkpt>
<trkpt lat="46.047075" lon="11.177049">
<time>2020-11-25T09:39:45Z</time>
</trkpt>
<trkpt lat="46.047066" lon="11.177046">
<time>2020-11-25T09:39:46Z</time>
</trkpt>
<trkpt lat="46.047065" lon="11.177039">
<time>2020-11-25T09:39:47Z</time>
</trkpt>
<trkpt lat="46.047069" lon="11.177039">
<time>2020-11-25T09:39:48Z</time>
</trkpt>
<trkpt lat="46.047071" lon="11.17704">
<time>2020-11-25T09:39:49Z</time>
</trkpt>
<trkpt lat="46.047081" lon="11.177039">
<time>2020-11-25T09:39:50Z</time>
</trkpt>
<trkpt lat="46.047089" lon="11.177036">
<time>2020-11-25T09:39:51Z</time>
</trkpt>
<trkpt lat="46.047094" lon="11.177037">
<time>2020-11-25T09:39:52Z</time>
</trkpt>
<trkpt lat="46.0471" lon="11.177034">
<time>2020-11-25T09:39:53Z</time>
</trkpt>
<trkpt lat="46.047101" lon="11.177034">
<time>2020-11-25T09:39:54Z</time>
</trkpt>
<trkpt lat="46.047106" lon="11.177025">
<time>2020-11-25T09:39:55Z</time>
</trkpt>
<trkpt lat="46.047112" lon="11.177014">
<time>2020-11-25T09:39:56Z</time>
</trkpt>
<trkpt lat="46.047119" lon="11.177001">
<time>2020-11-25T09:39:57Z</time>
</trkpt>
<trkpt lat="46.047129" lon="11.176987">
<time>2020-11-25T09:39:58Z</time>
</trkpt>
<trkpt lat="46.047134" lon="11.176977">
<time>2020-11-25T09:39:59Z</time>
</trkpt>
<trkpt lat="46.047136" lon="11.17697">
<time>2020-11-25T09:40:00Z</time>
</trkpt>
<trkpt lat="46.047136" lon="11.176966">
<time>2020-11-25T09:40:01Z</time>
</trkpt>
<trkpt lat="46.04714" lon="11.176963">
<time>2020-11-25T09:40:02Z</time>
</trkpt>
<trkpt lat="46.04714" lon="11.176953">
<time>2020-11-25T09:40:03Z</time>
</trkpt>
<trkpt lat="46.047141" lon="11.176942">
<time>2020-11-25T09:40:04Z</time>
</trkpt>
<trkpt lat="46.047143" lon="11.176935">
<time>2020-11-25T09:40:05Z</time>
</trkpt>
<trkpt lat="46.047143" lon="11.176927">
<time>2020-11-25T09:40:06Z</time>
</trkpt>
<trkpt lat="46.047144" lon="11.176925">
<time>2020-11-25T09:40:07Z</time>
</trkpt>
<trkpt lat="46.047145" lon="11.176926">
<time>2020-11-25T09:40:08Z</time>
</trkpt>
<trkpt lat="46.047153" lon="11.176919">
<time>2020-11-25T09:40:09Z</time>
</trkpt>
<trkpt lat="46.047163" lon="11.17692">
<time>2020-11-25T09:40:10Z</time>
</trkpt>
<trkpt lat="46.047165" lon="11.176923">
<time>2020-11-25T09:40:11Z</time>
</trkpt>
<trkpt lat="46.047166" lon="11.176926">
<time>2020-11-25T09:40:12Z</time>
</trkpt>
<trkpt lat="46.047166" lon="11.176933">
<time>2020-11-25T09:40:13Z</time>
</trkpt>
<trkpt lat="46.047171" lon="11.176933">
<time>2020-11-25T09:40:14Z</time>
</trkpt>
<trkpt lat="46.047184" lon="11.17693">
<time>2020-11-25T09:40:15Z</time>
</trkpt>
<trkpt lat="46.0472" lon="11.176934">
<time>2020-11-25T09:40:16Z</time>
</trkpt>
<trkpt lat="46.047209" lon="11.176933">
<time>2020-11-25T09:40:17Z</time>
</trkpt>
<trkpt lat="46.047224" lon="11.17693">
<time>2020-11-25T09:40:18Z</time>
</trkpt>
<trkpt lat="46.047236" lon="11.176925">
<time>2020-11-25T09:40:19Z</time>
</trkpt>
<trkpt lat="46.047249" lon="11.176906">
<time>2020-11-25T09:40:20Z</time>
</trkpt>
<trkpt lat="46.047255" lon="11.17689">
<time>2020-11-25T09:40:21Z</time>
</trkpt>
<trkpt lat="46.04726" lon="11.176876">
<time>2020-11-25T09:40:22Z</time>
</trkpt>
<trkpt lat="46.047278" lon="11.176846">
<time>2020-11-25T09:40:23Z</time>
</trkpt>
<trkpt lat="46.047288" lon="11.176822">
<time>2020-11-25T09:40:24Z</time>
</trkpt>
<trkpt lat="46.047304" lon="11.176795">
<time>2020-11-25T09:40:25Z</time>
</trkpt>
<trkpt lat="46.047322" lon="11.176763">
<time>2020-11-25T09:40:26Z</time>
</trkpt>
<trkpt lat="46.04733" lon="11.176738">
<time>2020-11-25T09:40:27Z</time>
</trkpt>
<trkpt lat="46.047339" lon="11.176711">
<time>2020-11-25T09:40:28Z</time>
</trkpt>
<trkpt lat="46.047336" lon="11.176687">
<time>2020-11-25T09:40:29Z</time>
</trkpt>
<trkpt lat="46.04733" lon="11.176669">
<time>2020-11-25T09:40:30Z</time>
</trkpt>
<trkpt lat="46.047341" lon="11.176645">
<time>2020-11-25T09:40:31Z</time>
</trkpt>
<trkpt lat="46.047357" lon="11.176613">
<time>2020-11-25T09:40:32Z</time>
</trkpt>
<trkpt lat="46.047374" lon="11.176576">
<time>2020-11-25T09:40:33Z</time>
</trkpt>
<trkpt lat="46.04739" lon="11.176545">
<time>2020-11-25T09:40:34Z</time>
</trkpt>
<trkpt lat="46.047412" lon="11.176515">
<time>2020-11-25T09:40:35Z</time>
</trkpt>
<trkpt lat="46.047435" lon="11.176488">
<time>2020-11-25T09:40:36Z</time>
</trkpt>
<trkpt lat="46.047455" lon="11.176469">
<time>2020-11-25T09:40:37Z</time>
</trkpt>
<trkpt lat="46.047477" lon="11.176452">
<time>2020-11-25T09:40:38Z</time>
</trkpt>
<trkpt lat="46.047493" lon="11.176443">
<time>2020-11-25T09:40:39Z</time>
</trkpt>
<trkpt lat="46.047515" lon="11.17643">
<time>2020-11-25T09:40:40Z</time>
</trkpt>
<trkpt lat="46.047538" lon="11.176416">
<time>2020-11-25T09:40:41Z</time>
</trkpt>
<trkpt lat="46.047561" lon="11.176402">
<time>2020-11-25T09:40:42Z</time>
</trkpt>
<trkpt lat="46.047592" lon="11.176394">
<time>2020-11-25T09:40:43Z</time>
</trkpt>
<trkpt lat="46.047621" lon="11.176387">
<time>2020-11-25T09:40:44Z</time>
</trkpt>
<trkpt lat="46.047645" lon="11.176375">
<time>2020-11-25T09:40:45Z</time>
</trkpt>
<trkpt lat="46.047672" lon="11.176365">
<time>2020-11-25T09:40:46Z</time>
</trkpt>
<trkpt lat="46.047684" lon="11.176358">
<time>2020-11-25T09:40:47Z</time>
</trkpt>
<trkpt lat="46.047704" lon="11.176347">
<time>2020-11-25T09:40:48Z</time>
</trkpt>
<trkpt lat="46.04773" lon="11.176327">
<time>2020-11-25T09:40:49Z</time>
</trkpt>
<trkpt lat="46.047759" lon="11.176304">
<time>2020-11-25T09:40:50Z</time>
</trkpt>
<trkpt lat="46.047775" lon="11.176287">
<time>2020-11-25T09:40:51Z</time>
</trkpt>
<trkpt lat="46.047792" lon="11.176276">
<time>2020-11-25T09:40:52Z</time>
</trkpt>
<trkpt lat="46.047812" lon="11.176266">
<time>2020-11-25T09:40:53Z</time>
</trkpt>
<trkpt lat="46.04783" lon="11.176259">
<time>2020-11-25T09:40:54Z</time>
</trkpt>
<trkpt lat="46.047848" lon="11.17625">
<time>2020-11-25T09:40:55Z</time>
</trkpt>
<trkpt lat="46.047861" lon="11.176239">
<time>2020-11-25T09:40:56Z</time>
</trkpt>
<trkpt lat="46.047878" lon="11.176222">
<time>2020-11-25T09:40:57Z</time>
</trkpt>
<trkpt lat="46.047898" lon="11.176214">
<time>2020-11-25T09:40:58Z</time>
</trkpt>
<trkpt lat="46.047912" lon="11.17621">
<time>2020-11-25T09:40:59Z</time>
</trkpt>
<trkpt lat="46.047927" lon="11.176205">
<time>2020-11-25T09:41:00Z</time>
</trkpt>
<trkpt lat="46.047944" lon="11.176199">
<time>2020-11-25T09:41:01Z</time>
</trkpt>
<trkpt lat="46.047957" lon="11.176192">
<time>2020-11-25T09:41:02Z</time>
</trkpt>
<trkpt lat="46.047974" lon="11.176186">
<time>2020-11-25T09:41:03Z</time>
</trkpt>
<trkpt lat="46.047996" lon="11.176178">
<time>2020-11-25T09:41:04Z</time>
</trkpt>
<trkpt lat="46.048022" lon="11.176169">
<time>2020-11-25T09:41:05Z</time>
</trkpt>
<trkpt lat="46.048046" lon="11.176154">
<time>2020-11-25T09:41:06Z</time>
</trkpt>
<trkpt lat="46.048068" lon="11.176142">
<time>2020-11-25T09:41:07Z</time>
</trkpt>
<trkpt lat="46.048082" lon="11.176128">
<time>2020-11-25T09:41:08Z</time>
</trkpt>
<trkpt lat="46.048093" lon="11.176113">
<time>2020-11-25T09:41:09Z</time>
</trkpt>
<trkpt lat="46.04811" lon="11.176097">
<time>2020-11-25T09:41:10Z</time>
</trkpt>
<trkpt lat="46.048132" lon="11.176079">
<time>2020-11-25T09:41:11Z</time>
</trkpt>
<trkpt lat="46.048151" lon="11.17606">
<time>2020-11-25T09:41:12Z</time>
</trkpt>
<trkpt lat="46.048167" lon="11.176042">
<time>2020-11-25T09:41:13Z</time>
</trkpt>
<trkpt lat="46.048179" lon="11.176021">
<time>2020-11-25T09:41:14Z</time>
</trkpt>
<trkpt lat="46.048209" lon="11.175994">
<time>2020-11-25T09:41:15Z</time>
</trkpt>
<trkpt lat="46.048226" lon="11.175965">
<time>2020-11-25T09:41:16Z</time>
</trkpt>
<trkpt lat="46.048239" lon="11.17594">
<time>2020-11-25T09:41:17Z</time>
</trkpt>
<trkpt lat="46.048254" lon="11.17591">
<time>2020-11-25T09:41:18Z</time>
</trkpt>
<trkpt lat="46.048264" lon="11.175883">
<time>2020-11-25T09:41:19Z</time>
</trkpt>
<trkpt lat="46.048273" lon="11.175858">
<time>2020-11-25T09:41:20Z</time>
</trkpt>
<trkpt lat="46.048288" lon="11.175832">
<time>2020-11-25T09:41:21Z</time>
</trkpt>
<trkpt lat="46.048299" lon="11.175811">
<time>2020-11-25T09:41:22Z</time>
</trkpt>
<trkpt lat="46.048298" lon="11.175793">
<time>2020-11-25T09:41:23Z</time>
</trkpt>
<trkpt lat="46.048298" lon="11.175769">
<time>2020-11-25T09:41:24Z</time>
</trkpt>
<trkpt lat="46.048292" lon="11.175765">
<time>2020-11-25T09:41:25Z</time>
</trkpt>
<trkpt lat="46.048292" lon="11.17576">
<time>2020-11-25T09:41:26Z</time>
</trkpt>
<trkpt lat="46.04829" lon="11.175751">
<time>2020-11-25T09:41:27Z</time>
</trkpt>
<trkpt lat="46.048289" lon="11.17574">
<time>2020-11-25T09:41:28Z</time>
</trkpt>
<trkpt lat="46.048294" lon="11.17572">
<time>2020-11-25T09:41:29Z</time>
</trkpt>
<trkpt lat="46.048282" lon="11.1757">
<time>2020-11-25T09:41:30Z</time>
</trkpt>
<trkpt lat="46.04828" lon="11.175681">
<time>2020-11-25T09:41:31Z</time>
</trkpt>
<trkpt lat="46.048275" lon="11.175659">
<time>2020-11-25T09:41:32Z</time>
</trkpt>
<trkpt lat="46.048276" lon="11.175631">
<time>2020-11-25T09:41:33Z</time>
</trkpt>
<trkpt lat="46.048275" lon="11.175606">
<time>2020-11-25T09:41:34Z</time>
</trkpt>
<trkpt lat="46.048273" lon="11.175584">
<time>2020-11-25T09:41:35Z</time>
</trkpt>
<trkpt lat="46.048273" lon="11.175564">
<time>2020-11-25T09:41:36Z</time>
</trkpt>
<trkpt lat="46.04827" lon="11.175543">
<time>2020-11-25T09:41:37Z</time>
</trkpt>
<trkpt lat="46.048268" lon="11.175527">
<time>2020-11-25T09:41:38Z</time>
</trkpt>
<trkpt lat="46.048265" lon="11.175513">
<time>2020-11-25T09:41:39Z</time>
</trkpt>
<trkpt lat="46.04826" lon="11.175501">
<time>2020-11-25T09:41:40Z</time>
</trkpt>
<trkpt lat="46.048264" lon="11.175488">
<time>2020-11-25T09:41:41Z</time>
</trkpt>
<trkpt lat="46.048266" lon="11.175473">
<time>2020-11-25T09:41:42Z</time>
</trkpt>
<trkpt lat="46.048267" lon="11.175454">
<time>2020-11-25T09:41:43Z</time>
</trkpt>
<trkpt lat="46.048273" lon="11.175431">
<time>2020-11-25T09:41:44Z</time>
</trkpt>
<trkpt lat="46.048288" lon="11.175405">
<time>2020-11-25T09:41:45Z</time>
</trkpt>
<trkpt lat="46.048304" lon="11.175372">
<time>2020-11-25T09:41:46Z</time>
</trkpt>
<trkpt lat="46.048304" lon="11.175339">
<time>2020-11-25T09:41:47Z</time>
</trkpt>
<trkpt lat="46.048302" lon="11.175309">
<time>2020-11-25T09:41:48Z</time>
</trkpt>
<trkpt lat="46.048314" lon="11.175263">
<time>2020-11-25T09:41:49Z</time>
</trkpt>
<trkpt lat="46.048328" lon="11.175227">
<time>2020-11-25T09:41:50Z</time>
</trkpt>
<trkpt lat="46.048336" lon="11.175201">
<time>2020-11-25T09:41:51Z</time>
</trkpt>
<trkpt lat="46.048339" lon="11.175184">
<time>2020-11-25T09:41:52Z</time>
</trkpt>
<trkpt lat="46.048347" lon="11.17517">
<time>2020-11-25T09:41:53Z</time>
</trkpt>
<trkpt lat="46.048358" lon="11.175155">
<time>2020-11-25T09:41:54Z</time>
</trkpt>
<trkpt lat="46.048374" lon="11.175135">
<time>2020-11-25T09:41:55Z</time>
</trkpt>
<trkpt lat="46.048387" lon="11.175104">
<time>2020-11-25T09:41:56Z</time>
</trkpt>
<trkpt lat="46.048404" lon="11.17507">
<time>2020-11-25T09:41:57Z</time>
</trkpt>
<trkpt lat="46.04842" lon="11.175039">
<time>2020-11-25T09:41:58Z</time>
</trkpt>
<trkpt lat="46.048432" lon="11.175014">
<time>2020-11-25T09:41:59Z</time>
</trkpt>
<trkpt lat="46.04844" lon="11.174997">
<time>2020-11-25T09:42:00Z</time>
</trkpt>
<trkpt lat="46.048449" lon="11.174981">
<time>2020-11-25T09:42:01Z</time>
</trkpt>
<trkpt lat="46.048463" lon="11.174965">
<time>2020-11-25T09:42:02Z</time>
</trkpt>
<trkpt lat="46.048475" lon="11.17495">
<time>2020-11-25T09:42:03Z</time>
</trkpt>
<trkpt lat="46.048486" lon="11.174933">
<time>2020-11-25T09:42:04Z</time>
</trkpt>
<trkpt lat="46.048495" lon="11.174916">
<time>2020-11-25T09:42:05Z</time>
</trkpt>
<trkpt lat="46.048501" lon="11.174885">
<time>2020-11-25T09:42:06Z</time>
</trkpt>
<trkpt lat="46.048513" lon="11.174858">
<time>2020-11-25T09:42:07Z</time>
</trkpt>
<trkpt lat="46.048536" lon="11.174829">
<time>2020-11-25T09:42:08Z</time>
</trkpt>
<trkpt lat="46.048557" lon="11.174797">
<time>2020-11-25T09:42:09Z</time>
</trkpt>
<trkpt lat="46.048577" lon="11.174766">
<time>2020-11-25T09:42:10Z</time>
</trkpt>
<trkpt lat="46.048598" lon="11.17474">
<time>2020-11-25T09:42:11Z</time>
</trkpt>
<trkpt lat="46.048623" lon="11.174711">
<time>2020-11-25T09:42:12Z</time>
</trkpt>
<trkpt lat="46.048647" lon="11.174685">
<time>2020-11-25T09:42:13Z</time>
</trkpt>
<trkpt lat="46.048665" lon="11.17467">
<time>2020-11-25T09:42:14Z</time>
</trkpt>
<trkpt lat="46.048687" lon="11.174659">
<time>2020-11-25T09:42:15Z</time>
</trkpt>
<trkpt lat="46.048706" lon="11.174649">
<time>2020-11-25T09:42:16Z</time>
</trkpt>
<trkpt lat="46.048726" lon="11.174642">
<time>2020-11-25T09:42:17Z</time>
</trkpt>
<trkpt lat="46.048747" lon="11.174639">
<time>2020-11-25T09:42:18Z</time>
</trkpt>
<trkpt lat="46.048761" lon="11.174637">
<time>2020-11-25T09:42:19Z</time>
</trkpt>
<trkpt lat="46.048776" lon="11.174631">
<time>2020-11-25T09:42:20Z</time>
</trkpt>
<trkpt lat="46.048792" lon="11.174622">
<time>2020-11-25T09:42:21Z</time>
</trkpt>
<trkpt lat="46.048813" lon="11.17461">
<time>2020-11-25T09:42:22Z</time>
</trkpt>
<trkpt lat="46.04883" lon="11.174605">
<time>2020-11-25T09:42:23Z</time>
</trkpt>
<trkpt lat="46.048848" lon="11.174601">
<time>2020-11-25T09:42:24Z</time>
</trkpt>
<trkpt lat="46.048854" lon="11.174607">
<time>2020-11-25T09:42:25Z</time>
</trkpt>
<trkpt lat="46.048864" lon="11.174607">
<time>2020-11-25T09:42:26Z</time>
</trkpt>
<trkpt lat="46.048873" lon="11.174607">
<time>2020-11-25T09:42:27Z</time>
</trkpt>
<trkpt lat="46.048883" lon="11.174612">
<time>2020-11-25T09:42:28Z</time>
</trkpt>
<trkpt lat="46.048896" lon="11.174616">
<time>2020-11-25T09:42:29Z</time>
</trkpt>
<trkpt lat="46.048924" lon="11.174618">
<time>2020-11-25T09:42:30Z</time>
</trkpt>
<trkpt lat="46.048953" lon="11.174624">
<time>2020-11-25T09:42:31Z</time>
</trkpt>
<trkpt lat="46.048974" lon="11.174627">
<time>2020-11-25T09:42:32Z</time>
</trkpt>
<trkpt lat="46.048998" lon="11.17463">
<time>2020-11-25T09:42:33Z</time>
</trkpt>
<trkpt lat="46.049009" lon="11.174633">
<time>2020-11-25T09:42:34Z</time>
</trkpt>
<trkpt lat="46.049024" lon="11.174638">
<time>2020-11-25T09:42:35Z</time>
</trkpt>
<trkpt lat="46.049032" lon="11.174647">
<time>2020-11-25T09:42:36Z</time>
</trkpt>
<trkpt lat="46.049045" lon="11.17465">
<time>2020-11-25T09:42:37Z</time>
</trkpt>
<trkpt lat="46.049059" lon="11.174658">
<time>2020-11-25T09:42:38Z</time>
</trkpt>
<trkpt lat="46.049072" lon="11.17466">
<time>2020-11-25T09:42:39Z</time>
</trkpt>
<trkpt lat="46.049092" lon="11.174662">
<time>2020-11-25T09:42:40Z</time>
</trkpt>
<trkpt lat="46.04911" lon="11.174662">
<time>2020-11-25T09:42:41Z</time>
</trkpt>
<trkpt lat="46.049129" lon="11.174662">
<time>2020-11-25T09:42:42Z</time>
</trkpt>
<trkpt lat="46.049139" lon="11.174667">
<time>2020-11-25T09:42:43Z</time>
</trkpt>
<trkpt lat="46.049152" lon="11.174674">
<time>2020-11-25T09:42:44Z</time>
</trkpt>
<trkpt lat="46.049168" lon="11.174676">
<time>2020-11-25T09:42:45Z</time>
</trkpt>
<trkpt lat="46.049189" lon="11.174678">
<time>2020-11-25T09:42:46Z</time>
</trkpt>
<trkpt lat="46.049202" lon="11.174681">
<time>2020-11-25T09:42:47Z</time>
</trkpt>
<trkpt lat="46.049225" lon="11.17468">
<time>2020-11-25T09:42:48Z</time>
</trkpt>
<trkpt lat="46.049241" lon="11.174678">
<time>2020-11-25T09:42:49Z</time>
</trkpt>
<trkpt lat="46.049253" lon="11.174675">
<time>2020-11-25T09:42:50Z</time>
</trkpt>
<trkpt lat="46.049262" lon="11.174669">
<time>2020-11-25T09:42:51Z</time>
</trkpt>
<trkpt lat="46.049265" lon="11.174665">
<time>2020-11-25T09:42:52Z</time>
</trkpt>
<trkpt lat="46.049272" lon="11.174659">
<time>2020-11-25T09:42:53Z</time>
</trkpt>
<trkpt lat="46.049273" lon="11.174656">
<time>2020-11-25T09:42:54Z</time>
</trkpt>
<trkpt lat="46.049273" lon="11.174657">
<time>2020-11-25T09:42:55Z</time>
</trkpt>
<trkpt lat="46.049281" lon="11.174659">
<time>2020-11-25T09:42:56Z</time>
</trkpt>
<trkpt lat="46.049276" lon="11.174664">
<time>2020-11-25T09:42:57Z</time>
</trkpt>
<trkpt lat="46.049278" lon="11.174666">
<time>2020-11-25T09:42:58Z</time>
</trkpt>
<trkpt lat="46.049281" lon="11.174667">
<time>2020-11-25T09:42:59Z</time>
</trkpt>
<trkpt lat="46.049286" lon="11.17467">
<time>2020-11-25T09:43:00Z</time>
</trkpt>
<trkpt lat="46.049296" lon="11.17467">
<time>2020-11-25T09:43:01Z</time>
</trkpt>
<trkpt lat="46.049303" lon="11.174673">
<time>2020-11-25T09:43:02Z</time>
</trkpt>
<trkpt lat="46.049328" lon="11.174682">
<time>2020-11-25T09:43:03Z</time>
</trkpt>
<trkpt lat="46.04935" lon="11.17469">
<time>2020-11-25T09:43:04Z</time>
</trkpt>
<trkpt lat="46.049366" lon="11.174691">
<time>2020-11-25T09:43:05Z</time>
</trkpt>
<trkpt lat="46.049379" lon="11.17469">
<time>2020-11-25T09:43:06Z</time>
</trkpt>
<trkpt lat="46.049388" lon="11.17469">
<time>2020-11-25T09:43:07Z</time>
</trkpt>
<trkpt lat="46.049401" lon="11.174686">
<time>2020-11-25T09:43:08Z</time>
</trkpt>
<trkpt lat="46.049417" lon="11.174683">
<time>2020-11-25T09:43:09Z</time>
</trkpt>
<trkpt lat="46.049426" lon="11.17468">
<time>2020-11-25T09:43:10Z</time>
</trkpt>
<trkpt lat="46.049435" lon="11.174676">
<time>2020-11-25T09:43:11Z</time>
</trkpt>
<trkpt lat="46.049445" lon="11.174679">
<time>2020-11-25T09:43:12Z</time>
</trkpt>
<trkpt lat="46.049455" lon="11.174683">
<time>2020-11-25T09:43:13Z</time>
</trkpt>
<trkpt lat="46.049461" lon="11.174683">
<time>2020-11-25T09:43:14Z</time>
</trkpt>
<trkpt lat="46.049469" lon="11.174688">
<time>2020-11-25T09:43:15Z</time>
</trkpt>
<trkpt lat="46.049467" lon="11.174693">
<time>2020-11-25T09:43:16Z</time>
</trkpt>
<trkpt lat="46.049469" lon="11.174697">
<time>2020-11-25T09:43:17Z</time>
</trkpt>
<trkpt lat="46.049477" lon="11.174699">
<time>2020-11-25T09:43:18Z</time>
</trkpt>
<trkpt lat="46.049485" lon="11.174699">
<time>2020-11-25T09:43:19Z</time>
</trkpt>
<trkpt lat="46.049487" lon="11.174698">
<time>2020-11-25T09:43:20Z</time>
</trkpt>
<trkpt lat="46.049492" lon="11.174695">
<time>2020-11-25T09:43:21Z</time>
</trkpt>
<trkpt lat="46.049496" lon="11.174693">
<time>2020-11-25T09:43:22Z</time>
</trkpt>
<trkpt lat="46.049511" lon="11.174688">
<time>2020-11-25T09:43:23Z</time>
</trkpt>
<trkpt lat="46.04952" lon="11.174684">
<time>2020-11-25T09:43:24Z</time>
</trkpt>
<trkpt lat="46.049524" lon="11.174684">
<time>2020-11-25T09:43:25Z</time>
</trkpt>
<trkpt lat="46.049534" lon="11.174683">
<time>2020-11-25T09:43:26Z</time>
</trkpt>
<trkpt lat="46.049533" lon="11.174685">
<time>2020-11-25T09:43:27Z</time>
</trkpt>
<trkpt lat="46.049535" lon="11.174684">
<time>2020-11-25T09:43:28Z</time>
</trkpt>
<trkpt lat="46.049533" lon="11.174689">
<time>2020-11-25T09:43:29Z</time>
</trkpt>
<trkpt lat="46.049542" lon="11.17469">
<time>2020-11-25T09:43:30Z</time>
</trkpt>
<trkpt lat="46.049562" lon="11.174686">
<time>2020-11-25T09:43:31Z</time>
</trkpt>
<trkpt lat="46.049575" lon="11.17468">
<time>2020-11-25T09:43:32Z</time>
</trkpt>
<trkpt lat="46.049588" lon="11.174669">
<time>2020-11-25T09:43:33Z</time>
</trkpt>
<trkpt lat="46.049597" lon="11.174659">
<time>2020-11-25T09:43:34Z</time>
</trkpt>
<trkpt lat="46.04959" lon="11.174654">
<time>2020-11-25T09:43:35Z</time>
</trkpt>
<trkpt lat="46.049593" lon="11.174646">
<time>2020-11-25T09:43:36Z</time>
</trkpt>
<trkpt lat="46.049598" lon="11.174639">
<time>2020-11-25T09:43:37Z</time>
</trkpt>
<trkpt lat="46.049606" lon="11.174631">
<time>2020-11-25T09:43:38Z</time>
</trkpt>
<trkpt lat="46.049614" lon="11.174626">
<time>2020-11-25T09:43:39Z</time>
</trkpt>
<trkpt lat="46.04962" lon="11.174622">
<time>2020-11-25T09:43:40Z</time>
</trkpt>
<trkpt lat="46.049624" lon="11.174618">
<time>2020-11-25T09:43:41Z</time>
</trkpt>
<trkpt lat="46.049633" lon="11.174613">
<time>2020-11-25T09:43:42Z</time>
</trkpt>
<trkpt lat="46.049643" lon="11.174612">
<time>2020-11-25T09:43:43Z</time>
</trkpt>
<trkpt lat="46.049654" lon="11.174615">
<time>2020-11-25T09:43:44Z</time>
</trkpt>
<trkpt lat="46.049661" lon="11.17462">
<time>2020-11-25T09:43:45Z</time>
</trkpt>
<trkpt lat="46.04966" lon="11.174624">
<time>2020-11-25T09:43:46Z</time>
</trkpt>
<trkpt lat="46.049664" lon="11.174626">
<time>2020-11-25T09:43:47Z</time>
</trkpt>
<trkpt lat="46.04967" lon="11.174624">
<time>2020-11-25T09:43:48Z</time>
</trkpt>
<trkpt lat="46.049677" lon="11.174621">
<time>2020-11-25T09:43:49Z</time>
</trkpt>
<trkpt lat="46.049687" lon="11.174624">
<time>2020-11-25T09:43:50Z</time>
</trkpt>
<trkpt lat="46.049705" lon="11.174624">
<time>2020-11-25T09:43:51Z</time>
</trkpt>
<trkpt lat="46.049721" lon="11.174624">
<time>2020-11-25T09:43:52Z</time>
</trkpt>
<trkpt lat="46.049733" lon="11.174621">
<time>2020-11-25T09:43:53Z</time>
</trkpt>
<trkpt lat="46.049738" lon="11.174616">
<time>2020-11-25T09:43:54Z</time>
</trkpt>
<trkpt lat="46.049742" lon="11.174609">
<time>2020-11-25T09:43:55Z</time>
</trkpt>
<trkpt lat="46.049758" lon="11.174595">
<time>2020-11-25T09:43:56Z</time>
</trkpt>
<trkpt lat="46.049768" lon="11.174578">
<time>2020-11-25T09:43:57Z</time>
</trkpt>
<trkpt lat="46.049777" lon="11.174564">
<time>2020-11-25T09:43:58Z</time>
</trkpt>
<trkpt lat="46.049779" lon="11.174553">
<time>2020-11-25T09:43:59Z</time>
</trkpt>
<trkpt lat="46.049785" lon="11.174545">
<time>2020-11-25T09:44:00Z</time>
</trkpt>
<trkpt lat="46.049788" lon="11.17453">
<time>2020-11-25T09:44:01Z</time>
</trkpt>
<trkpt lat="46.049795" lon="11.174518">
<time>2020-11-25T09:44:02Z</time>
</trkpt>
<trkpt lat="46.049805" lon="11.174504">
<time>2020-11-25T09:44:03Z</time>
</trkpt>
<trkpt lat="46.049815" lon="11.174494">
<time>2020-11-25T09:44:04Z</time>
</trkpt>
<trkpt lat="46.04983" lon="11.174485">
<time>2020-11-25T09:44:05Z</time>
</trkpt>
<trkpt lat="46.04984" lon="11.174479">
<time>2020-11-25T09:44:06Z</time>
</trkpt>
<trkpt lat="46.049852" lon="11.174481">
<time>2020-11-25T09:44:07Z</time>
</trkpt>
<trkpt lat="46.049867" lon="11.174476">
<time>2020-11-25T09:44:08Z</time>
</trkpt>
<trkpt lat="46.049873" lon="11.17447">
<time>2020-11-25T09:44:09Z</time>
</trkpt>
<trkpt lat="46.049885" lon="11.174462">
<time>2020-11-25T09:44:10Z</time>
</trkpt>
<trkpt lat="46.049897" lon="11.174453">
<time>2020-11-25T09:44:11Z</time>
</trkpt>
<trkpt lat="46.049915" lon="11.174443">
<time>2020-11-25T09:44:12Z</time>
</trkpt>
<trkpt lat="46.049926" lon="11.174436">
<time>2020-11-25T09:44:13Z</time>
</trkpt>
<trkpt lat="46.049936" lon="11.174431">
<time>2020-11-25T09:44:14Z</time>
</trkpt>
<trkpt lat="46.049946" lon="11.174422">
<time>2020-11-25T09:44:15Z</time>
</trkpt>
<trkpt lat="46.049957" lon="11.174413">
<time>2020-11-25T09:44:16Z</time>
</trkpt>
<trkpt lat="46.049962" lon="11.174406">
<time>2020-11-25T09:44:17Z</time>
</trkpt>
<trkpt lat="46.049964" lon="11.1744">
<time>2020-11-25T09:44:18Z</time>
</trkpt>
<trkpt lat="46.049965" lon="11.174395">
<time>2020-11-25T09:44:19Z</time>
</trkpt>
<trkpt lat="46.049965" lon="11.174389">
<time>2020-11-25T09:44:20Z</time>
</trkpt>
<trkpt lat="46.04997" lon="11.174383">
<time>2020-11-25T09:44:21Z</time>
</trkpt>
<trkpt lat="46.049974" lon="11.174381">
<time>2020-11-25T09:44:22Z</time>
</trkpt>
<trkpt lat="46.049981" lon="11.174374">
<time>2020-11-25T09:44:23Z</time>
</trkpt>
<trkpt lat="46.049993" lon="11.174364">
<time>2020-11-25T09:44:24Z</time>
</trkpt>
<trkpt lat="46.050006" lon="11.174356">
<time>2020-11-25T09:44:25Z</time>
</trkpt>
<trkpt lat="46.050016" lon="11.174346">
<time>2020-11-25T09:44:26Z</time>
</trkpt>
<trkpt lat="46.050029" lon="11.174333">
<time>2020-11-25T09:44:27Z</time>
</trkpt>
<trkpt lat="46.050041" lon="11.174323">
<time>2020-11-25T09:44:28Z</time>
</trkpt>
<trkpt lat="46.050056" lon="11.174313">
<time>2020-11-25T09:44:29Z</time>
</trkpt>
<trkpt lat="46.05007" lon="11.174305">
<time>2020-11-25T09:44:30Z</time>
</trkpt>
<trkpt lat="46.050083" lon="11.174295">
<time>2020-11-25T09:44:31Z</time>
</trkpt>
<trkpt lat="46.050089" lon="11.174285">
<time>2020-11-25T09:44:32Z</time>
</trkpt>
<trkpt lat="46.050096" lon="11.174278">
<time>2020-11-25T09:44:33Z</time>
</trkpt>
<trkpt lat="46.050104" lon="11.174268">
<time>2020-11-25T09:44:34Z</time>
</trkpt>
<trkpt lat="46.050113" lon="11.174254">
<time>2020-11-25T09:44:35Z</time>
</trkpt>
<trkpt lat="46.050136" lon="11.174237">
<time>2020-11-25T09:44:36Z</time>
</trkpt>
<trkpt lat="46.050145" lon="11.174233">
<time>2020-11-25T09:44:37Z</time>
</trkpt>
<trkpt lat="46.050159" lon="11.174232">
<time>2020-11-25T09:44:38Z</time>
</trkpt>
<trkpt lat="46.050173" lon="11.174229">
<time>2020-11-25T09:44:39Z</time>
</trkpt>
<trkpt lat="46.050186" lon="11.174221">
<time>2020-11-25T09:44:40Z</time>
</trkpt>
<trkpt lat="46.050202" lon="11.17421">
<time>2020-11-25T09:44:41Z</time>
</trkpt>
<trkpt lat="46.050214" lon="11.174201">
<time>2020-11-25T09:44:42Z</time>
</trkpt>
<trkpt lat="46.050228" lon="11.174194">
<time>2020-11-25T09:44:43Z</time>
</trkpt>
<trkpt lat="46.050241" lon="11.174185">
<time>2020-11-25T09:44:44Z</time>
</trkpt>
<trkpt lat="46.050249" lon="11.174176">
<time>2020-11-25T09:44:45Z</time>
</trkpt>
<trkpt lat="46.050255" lon="11.174161">
<time>2020-11-25T09:44:46Z</time>
</trkpt>
<trkpt lat="46.050264" lon="11.17414">
<time>2020-11-25T09:44:47Z</time>
</trkpt>
<trkpt lat="46.050275" lon="11.174119">
<time>2020-11-25T09:44:48Z</time>
</trkpt>
<trkpt lat="46.050287" lon="11.174092">
<time>2020-11-25T09:44:49Z</time>
</trkpt>
<trkpt lat="46.050292" lon="11.174074">
<time>2020-11-25T09:44:50Z</time>
</trkpt>
<trkpt lat="46.050295" lon="11.174061">
<time>2020-11-25T09:44:51Z</time>
</trkpt>
<trkpt lat="46.050295" lon="11.174049">
<time>2020-11-25T09:44:52Z</time>
</trkpt>
<trkpt lat="46.050287" lon="11.174036">
<time>2020-11-25T09:44:53Z</time>
</trkpt>
<trkpt lat="46.050286" lon="11.174009">
<time>2020-11-25T09:44:54Z</time>
</trkpt>
<trkpt lat="46.050286" lon="11.173985">
<time>2020-11-25T09:44:55Z</time>
</trkpt>
<trkpt lat="46.050288" lon="11.173971">
<time>2020-11-25T09:44:56Z</time>
</trkpt>
<trkpt lat="46.05029" lon="11.17396">
<time>2020-11-25T09:44:57Z</time>
</trkpt>
<trkpt lat="46.05029" lon="11.173953">
<time>2020-11-25T09:44:58Z</time>
</trkpt>
<trkpt lat="46.050283" lon="11.173949">
<time>2020-11-25T09:44:59Z</time>
</trkpt>
<trkpt lat="46.050289" lon="11.17394">
<time>2020-11-25T09:45:00Z</time>
</trkpt>
<trkpt lat="46.050291" lon="11.173934">
<time>2020-11-25T09:45:01Z</time>
</trkpt>
<trkpt lat="46.050286" lon="11.173928">
<time>2020-11-25T09:45:02Z</time>
</trkpt>
<trkpt lat="46.050295" lon="11.173913">
<time>2020-11-25T09:45:03Z</time>
</trkpt>
<trkpt lat="46.050308" lon="11.173898">
<time>2020-11-25T09:45:04Z</time>
</trkpt>
<trkpt lat="46.05032" lon="11.173889">
<time>2020-11-25T09:45:05Z</time>
</trkpt>
<trkpt lat="46.050328" lon="11.173881">
<time>2020-11-25T09:45:06Z</time>
</trkpt>
<trkpt lat="46.050334" lon="11.173877">
<time>2020-11-25T09:45:07Z</time>
</trkpt>
<trkpt lat="46.050346" lon="11.173867">
<time>2020-11-25T09:45:08Z</time>
</trkpt>
<trkpt lat="46.05035" lon="11.173857">
<time>2020-11-25T09:45:09Z</time>
</trkpt>
<trkpt lat="46.050348" lon="11.173845">
<time>2020-11-25T09:45:10Z</time>
</trkpt>
<trkpt lat="46.050348" lon="11.173833">
<time>2020-11-25T09:45:11Z</time>
</trkpt>
<trkpt lat="46.05035" lon="11.173824">
<time>2020-11-25T09:45:12Z</time>
</trkpt>
<trkpt lat="46.05036" lon="11.173812">
<time>2020-11-25T09:45:13Z</time>
</trkpt>
<trkpt lat="46.050378" lon="11.173796">
<time>2020-11-25T09:45:14Z</time>
</trkpt>
<trkpt lat="46.050388" lon="11.173785">
<time>2020-11-25T09:45:15Z</time>
</trkpt>
<trkpt lat="46.050394" lon="11.173775">
<time>2020-11-25T09:45:16Z</time>
</trkpt>
<trkpt lat="46.05041" lon="11.173763">
<time>2020-11-25T09:45:17Z</time>
</trkpt>
<trkpt lat="46.050424" lon="11.173755">
<time>2020-11-25T09:45:18Z</time>
</trkpt>
<trkpt lat="46.050433" lon="11.173747">
<time>2020-11-25T09:45:19Z</time>
</trkpt>
<trkpt lat="46.050444" lon="11.173737">
<time>2020-11-25T09:45:20Z</time>
</trkpt>
<trkpt lat="46.050462" lon="11.173726">
<time>2020-11-25T09:45:21Z</time>
</trkpt>
<trkpt lat="46.050476" lon="11.173716">
<time>2020-11-25T09:45:22Z</time>
</trkpt>
<trkpt lat="46.050484" lon="11.173708">
<time>2020-11-25T09:45:23Z</time>
</trkpt>
<trkpt lat="46.05049" lon="11.173698">
<time>2020-11-25T09:45:24Z</time>
</trkpt>
<trkpt lat="46.050492" lon="11.173687">
<time>2020-11-25T09:45:25Z</time>
</trkpt>
<trkpt lat="46.050493" lon="11.173675">
<time>2020-11-25T09:45:26Z</time>
</trkpt>
<trkpt lat="46.050491" lon="11.17366">
<time>2020-11-25T09:45:27Z</time>
</trkpt>
<trkpt lat="46.050493" lon="11.173645">
<time>2020-11-25T09:45:28Z</time>
</trkpt>
<trkpt lat="46.050501" lon="11.173629">
<time>2020-11-25T09:45:29Z</time>
</trkpt>
<trkpt lat="46.050492" lon="11.173619">
<time>2020-11-25T09:45:30Z</time>
</trkpt>
<trkpt lat="46.050492" lon="11.173598">
<time>2020-11-25T09:45:31Z</time>
</trkpt>
<trkpt lat="46.05049" lon="11.173588">
<time>2020-11-25T09:45:32Z</time>
</trkpt>
<trkpt lat="46.050488" lon="11.173577">
<time>2020-11-25T09:45:33Z</time>
</trkpt>
<trkpt lat="46.050484" lon="11.173564">
<time>2020-11-25T09:45:34Z</time>
</trkpt>
<trkpt lat="46.050475" lon="11.173547">
<time>2020-11-25T09:45:35Z</time>
</trkpt>
<trkpt lat="46.050455" lon="11.173532">
<time>2020-11-25T09:45:36Z</time>
</trkpt>
<trkpt lat="46.05044" lon="11.173517">
<time>2020-11-25T09:45:37Z</time>
</trkpt>
<trkpt lat="46.050424" lon="11.173503">
<time>2020-11-25T09:45:38Z</time>
</trkpt>
<trkpt lat="46.050392" lon="11.173499">
<time>2020-11-25T09:45:39Z</time>
</trkpt>
<trkpt lat="46.050383" lon="11.173491">
<time>2020-11-25T09:45:40Z</time>
</trkpt>
<trkpt lat="46.050367" lon="11.173482">
<time>2020-11-25T09:45:41Z</time>
</trkpt>
<trkpt lat="46.050359" lon="11.173469">
<time>2020-11-25T09:45:42Z</time>
</trkpt>
<trkpt lat="46.050348" lon="11.173449">
<time>2020-11-25T09:45:43Z</time>
</trkpt>
<trkpt lat="46.050333" lon="11.173426">
<time>2020-11-25T09:45:44Z</time>
</trkpt>
<trkpt lat="46.050316" lon="11.173406">
<time>2020-11-25T09:45:45Z</time>
</trkpt>
<trkpt lat="46.050298" lon="11.173393">
<time>2020-11-25T09:45:46Z</time>
</trkpt>
<trkpt lat="46.050284" lon="11.17338">
<time>2020-11-25T09:45:47Z</time>
</trkpt>
<trkpt lat="46.050276" lon="11.173369">
<time>2020-11-25T09:45:48Z</time>
</trkpt>
<trkpt lat="46.050276" lon="11.173355">
<time>2020-11-25T09:45:49Z</time>
</trkpt>
<trkpt lat="46.050271" lon="11.173345">
<time>2020-11-25T09:45:50Z</time>
</trkpt>
<trkpt lat="46.050271" lon="11.173341">
<time>2020-11-25T09:45:51Z</time>
</trkpt>
<trkpt lat="46.050272" lon="11.173339">
<time>2020-11-25T09:45:52Z</time>
</trkpt>
<trkpt lat="46.050276" lon="11.173337">
<time>2020-11-25T09:45:53Z</time>
</trkpt>
<trkpt lat="46.050281" lon="11.173335">
<time>2020-11-25T09:45:54Z</time>
</trkpt>
<trkpt lat="46.050287" lon="11.17333">
<time>2020-11-25T09:45:55Z</time>
</trkpt>
<trkpt lat="46.050283" lon="11.173328">
<time>2020-11-25T09:45:56Z</time>
</trkpt>
<trkpt lat="46.050282" lon="11.173322">
<time>2020-11-25T09:45:57Z</time>
</trkpt>
<trkpt lat="46.050277" lon="11.173313">
<time>2020-11-25T09:45:58Z</time>
</trkpt>
<trkpt lat="46.050261" lon="11.173309">
<time>2020-11-25T09:45:59Z</time>
</trkpt>
<trkpt lat="46.050251" lon="11.173297">
<time>2020-11-25T09:46:00Z</time>
</trkpt>
<trkpt lat="46.050249" lon="11.173277">
<time>2020-11-25T09:46:01Z</time>
</trkpt>
<trkpt lat="46.050241" lon="11.173251">
<time>2020-11-25T09:46:02Z</time>
</trkpt>
<trkpt lat="46.050235" lon="11.173226">
<time>2020-11-25T09:46:03Z</time>
</trkpt>
<trkpt lat="46.050231" lon="11.173204">
<time>2020-11-25T09:46:04Z</time>
</trkpt>
<trkpt lat="46.050232" lon="11.173185">
<time>2020-11-25T09:46:05Z</time>
</trkpt>
<trkpt lat="46.050236" lon="11.173172">
<time>2020-11-25T09:46:06Z</time>
</trkpt>
<trkpt lat="46.050238" lon="11.173167">
<time>2020-11-25T09:46:07Z</time>
</trkpt>
<trkpt lat="46.050233" lon="11.173168">
<time>2020-11-25T09:46:08Z</time>
</trkpt>
<trkpt lat="46.050229" lon="11.173169">
<time>2020-11-25T09:46:09Z</time>
</trkpt>
<trkpt lat="46.050226" lon="11.17317">
<time>2020-11-25T09:46:10Z</time>
</trkpt>
<trkpt lat="46.050226" lon="11.173169">
<time>2020-11-25T09:46:11Z</time>
</trkpt>
<trkpt lat="46.050224" lon="11.173177">
<time>2020-11-25T09:46:12Z</time>
</trkpt>
<trkpt lat="46.050227" lon="11.173177">
<time>2020-11-25T09:46:13Z</time>
</trkpt>
<trkpt lat="46.050226" lon="11.17318">
<time>2020-11-25T09:46:14Z</time>
</trkpt>
<trkpt lat="46.050226" lon="11.173185">
<time>2020-11-25T09:46:15Z</time>
</trkpt>
<trkpt lat="46.050218" lon="11.173187">
<time>2020-11-25T09:46:16Z</time>
</trkpt>
<trkpt lat="46.05021" lon="11.173194">
<time>2020-11-25T09:46:17Z</time>
</trkpt>
<trkpt lat="46.05021" lon="11.173197">
<time>2020-11-25T09:46:18Z</time>
</trkpt>
<trkpt lat="46.050203" lon="11.173197">
<time>2020-11-25T09:46:19Z</time>
</trkpt>
<trkpt lat="46.050202" lon="11.173197">
<time>2020-11-25T09:46:20Z</time>
</trkpt>
<trkpt lat="46.050202" lon="11.173198">
<time>2020-11-25T09:46:21Z</time>
</trkpt>
<trkpt lat="46.0502" lon="11.173198">
<time>2020-11-25T09:46:22Z</time>
</trkpt>
<trkpt lat="46.050195" lon="11.173197">
<time>2020-11-25T09:46:23Z</time>
</trkpt>
<trkpt lat="46.050192" lon="11.173196">
<time>2020-11-25T09:46:24Z</time>
</trkpt>
<trkpt lat="46.050189" lon="11.173194">
<time>2020-11-25T09:46:25Z</time>
</trkpt>
<trkpt lat="46.050185" lon="11.173196">
<time>2020-11-25T09:46:26Z</time>
</trkpt>
<trkpt lat="46.050184" lon="11.173198">
<time>2020-11-25T09:46:27Z</time>
</trkpt>
<trkpt lat="46.050183" lon="11.173205">
<time>2020-11-25T09:46:28Z</time>
</trkpt>
<trkpt lat="46.050178" lon="11.173212">
<time>2020-11-25T09:46:29Z</time>
</trkpt>
<trkpt lat="46.050169" lon="11.173223">
<time>2020-11-25T09:46:30Z</time>
</trkpt>
<trkpt lat="46.05016" lon="11.173233">
<time>2020-11-25T09:46:31Z</time>
</trkpt>
<trkpt lat="46.050143" lon="11.173246">
<time>2020-11-25T09:46:32Z</time>
</trkpt>
<trkpt lat="46.050137" lon="11.173259">
<time>2020-11-25T09:46:33Z</time>
</trkpt>
<trkpt lat="46.050129" lon="11.173268">
<time>2020-11-25T09:46:34Z</time>
</trkpt>
<trkpt lat="46.050123" lon="11.173275">
<time>2020-11-25T09:46:35Z</time>
</trkpt>
<trkpt lat="46.050119" lon="11.173283">
<time>2020-11-25T09:46:36Z</time>
</trkpt>
<trkpt lat="46.050107" lon="11.173295">
<time>2020-11-25T09:46:37Z</time>
</trkpt>
<trkpt lat="46.0501" lon="11.173311">
<time>2020-11-25T09:46:38Z</time>
</trkpt>
<trkpt lat="46.050096" lon="11.173328">
<time>2020-11-25T09:46:39Z</time>
</trkpt>
<trkpt lat="46.050094" lon="11.173342">
<time>2020-11-25T09:46:40Z</time>
</trkpt>
<trkpt lat="46.050082" lon="11.173354">
<time>2020-11-25T09:46:41Z</time>
</trkpt>
<trkpt lat="46.050077" lon="11.173363">
<time>2020-11-25T09:46:42Z</time>
</trkpt>
<trkpt lat="46.050077" lon="11.173369">
<time>2020-11-25T09:46:43Z</time>
</trkpt>
<trkpt lat="46.050079" lon="11.17337">
<time>2020-11-25T09:46:44Z</time>
</trkpt>
<trkpt lat="46.050079" lon="11.173375">
<time>2020-11-25T09:46:45Z</time>
</trkpt>
<trkpt lat="46.050066" lon="11.17338">
<time>2020-11-25T09:46:46Z</time>
</trkpt>
<trkpt lat="46.050051" lon="11.173384">
<time>2020-11-25T09:46:47Z</time>
</trkpt>
<trkpt lat="46.050041" lon="11.173387">
<time>2020-11-25T09:46:48Z</time>
</trkpt>
<trkpt lat="46.050033" lon="11.173392">
<time>2020-11-25T09:46:49Z</time>
</trkpt>
<trkpt lat="46.050024" lon="11.173396">
<time>2020-11-25T09:46:50Z</time>
</trkpt>
<trkpt lat="46.050014" lon="11.1734">
<time>2020-11-25T09:46:51Z</time>
</trkpt>
<trkpt lat="46.050002" lon="11.173406">
<time>2020-11-25T09:46:52Z</time>
</trkpt>
<trkpt lat="46.049989" lon="11.173411">
<time>2020-11-25T09:46:53Z</time>
</trkpt>
<trkpt lat="46.049981" lon="11.173412">
<time>2020-11-25T09:46:54Z</time>
</trkpt>
<trkpt lat="46.049969" lon="11.173412">
<time>2020-11-25T09:46:55Z</time>
</trkpt>
<trkpt lat="46.049963" lon="11.173415">
<time>2020-11-25T09:46:56Z</time>
</trkpt>
<trkpt lat="46.049956" lon="11.173415">
<time>2020-11-25T09:46:57Z</time>
</trkpt>
<trkpt lat="46.049953" lon="11.173416">
<time>2020-11-25T09:46:58Z</time>
</trkpt>
<trkpt lat="46.049944" lon="11.173419">
<time>2020-11-25T09:46:59Z</time>
</trkpt>
<trkpt lat="46.049925" lon="11.173423">
<time>2020-11-25T09:47:00Z</time>
</trkpt>
<trkpt lat="46.049912" lon="11.173422">
<time>2020-11-25T09:47:01Z</time>
</trkpt>
<trkpt lat="46.049908" lon="11.173422">
<time>2020-11-25T09:47:02Z</time>
</trkpt>
<trkpt lat="46.049902" lon="11.173428">
<time>2020-11-25T09:47:03Z</time>
</trkpt>
<trkpt lat="46.049898" lon="11.173441">
<time>2020-11-25T09:47:04Z</time>
</trkpt>
<trkpt lat="46.0499" lon="11.173453">
<time>2020-11-25T09:47:05Z</time>
</trkpt>
<trkpt lat="46.049887" lon="11.173463">
<time>2020-11-25T09:47:06Z</time>
</trkpt>
<trkpt lat="46.049876" lon="11.17348">
<time>2020-11-25T09:47:07Z</time>
</trkpt>
<trkpt lat="46.04985" lon="11.173498">
<time>2020-11-25T09:47:08Z</time>
</trkpt>
<trkpt lat="46.049828" lon="11.173515">
<time>2020-11-25T09:47:09Z</time>
</trkpt>
<trkpt lat="46.049807" lon="11.173527">
<time>2020-11-25T09:47:10Z</time>
</trkpt>
<trkpt lat="46.049791" lon="11.173537">
<time>2020-11-25T09:47:11Z</time>
</trkpt>
<trkpt lat="46.049774" lon="11.173546">
<time>2020-11-25T09:47:12Z</time>
</trkpt>
<trkpt lat="46.04976" lon="11.173555">
<time>2020-11-25T09:47:13Z</time>
</trkpt>
<trkpt lat="46.049742" lon="11.173562">
<time>2020-11-25T09:47:14Z</time>
</trkpt>
<trkpt lat="46.049725" lon="11.173567">
<time>2020-11-25T09:47:15Z</time>
</trkpt>
<trkpt lat="46.049717" lon="11.17357">
<time>2020-11-25T09:47:16Z</time>
</trkpt>
<trkpt lat="46.049711" lon="11.173575">
<time>2020-11-25T09:47:17Z</time>
</trkpt>
<trkpt lat="46.049705" lon="11.17358">
<time>2020-11-25T09:47:18Z</time>
</trkpt>
<trkpt lat="46.049697" lon="11.173593">
<time>2020-11-25T09:47:19Z</time>
</trkpt>
<trkpt lat="46.04969" lon="11.173599">
<time>2020-11-25T09:47:20Z</time>
</trkpt>
<trkpt lat="46.049674" lon="11.173609">
<time>2020-11-25T09:47:21Z</time>
</trkpt>
<trkpt lat="46.049665" lon="11.173612">
<time>2020-11-25T09:47:22Z</time>
</trkpt>
<trkpt lat="46.049659" lon="11.173621">
<time>2020-11-25T09:47:23Z</time>
</trkpt>
<trkpt lat="46.049643" lon="11.173631">
<time>2020-11-25T09:47:24Z</time>
</trkpt>
<trkpt lat="46.049643" lon="11.173637">
<time>2020-11-25T09:47:25Z</time>
</trkpt>
<trkpt lat="46.049637" lon="11.173644">
<time>2020-11-25T09:47:26Z</time>
</trkpt>
<trkpt lat="46.04963" lon="11.173654">
<time>2020-11-25T09:47:27Z</time>
</trkpt>
<trkpt lat="46.049627" lon="11.173666">
<time>2020-11-25T09:47:28Z</time>
</trkpt>
<trkpt lat="46.04962" lon="11.173671">
<time>2020-11-25T09:47:29Z</time>
</trkpt>
<trkpt lat="46.049612" lon="11.173682">
<time>2020-11-25T09:47:30Z</time>
</trkpt>
<trkpt lat="46.049609" lon="11.173691">
<time>2020-11-25T09:47:31Z</time>
</trkpt>
<trkpt lat="46.049604" lon="11.173701">
<time>2020-11-25T09:47:32Z</time>
</trkpt>
<trkpt lat="46.049602" lon="11.173714">
<time>2020-11-25T09:47:33Z</time>
</trkpt>
<trkpt lat="46.0496" lon="11.173725">
<time>2020-11-25T09:47:34Z</time>
</trkpt>
<trkpt lat="46.049593" lon="11.173738">
<time>2020-11-25T09:47:35Z</time>
</trkpt>
<trkpt lat="46.049573" lon="11.17375">
<time>2020-11-25T09:47:36Z</time>
</trkpt>
<trkpt lat="46.049557" lon="11.173763">
<time>2020-11-25T09:47:37Z</time>
</trkpt>
<trkpt lat="46.049546" lon="11.173772">
<time>2020-11-25T09:47:38Z</time>
</trkpt>
<trkpt lat="46.049543" lon="11.173778">
<time>2020-11-25T09:47:39Z</time>
</trkpt>
<trkpt lat="46.049534" lon="11.173782">
<time>2020-11-25T09:47:40Z</time>
</trkpt>
<trkpt lat="46.049527" lon="11.173783">
<time>2020-11-25T09:47:41Z</time>
</trkpt>
<trkpt lat="46.049517" lon="11.173786">
<time>2020-11-25T09:47:42Z</time>
</trkpt>
<trkpt lat="46.049504" lon="11.17379">
<time>2020-11-25T09:47:43Z</time>
</trkpt>
<trkpt lat="46.049487" lon="11.173796">
<time>2020-11-25T09:47:44Z</time>
</trkpt>
<trkpt lat="46.049469" lon="11.173801">
<time>2020-11-25T09:47:45Z</time>
</trkpt>
<trkpt lat="46.049455" lon="11.173804">
<time>2020-11-25T09:47:46Z</time>
</trkpt>
<trkpt lat="46.049439" lon="11.173811">
<time>2020-11-25T09:47:47Z</time>
</trkpt>
<trkpt lat="46.049417" lon="11.173822">
<time>2020-11-25T09:47:48Z</time>
</trkpt>
<trkpt lat="46.049394" lon="11.173832">
<time>2020-11-25T09:47:49Z</time>
</trkpt>
<trkpt lat="46.049376" lon="11.173837">
<time>2020-11-25T09:47:50Z</time>
</trkpt>
<trkpt lat="46.049364" lon="11.173843">
<time>2020-11-25T09:47:51Z</time>
</trkpt>
<trkpt lat="46.049357" lon="11.17385">
<time>2020-11-25T09:47:52Z</time>
</trkpt>
<trkpt lat="46.049352" lon="11.173854">
<time>2020-11-25T09:47:53Z</time>
</trkpt>
<trkpt lat="46.049342" lon="11.173858">
<time>2020-11-25T09:47:54Z</time>
</trkpt>
<trkpt lat="46.049339" lon="11.173864">
<time>2020-11-25T09:47:55Z</time>
</trkpt>
<trkpt lat="46.049334" lon="11.173866">
<time>2020-11-25T09:47:56Z</time>
</trkpt>
<trkpt lat="46.04933" lon="11.173868">
<time>2020-11-25T09:47:57Z</time>
</trkpt>
<trkpt lat="46.049322" lon="11.173866">
<time>2020-11-25T09:47:58Z</time>
</trkpt>
<trkpt lat="46.049312" lon="11.173864">
<time>2020-11-25T09:47:59Z</time>
</trkpt>
<trkpt lat="46.049305" lon="11.173866">
<time>2020-11-25T09:48:00Z</time>
</trkpt>
<trkpt lat="46.049295" lon="11.173865">
<time>2020-11-25T09:48:01Z</time>
</trkpt>
<trkpt lat="46.049295" lon="11.173857">
<time>2020-11-25T09:48:02Z</time>
</trkpt>
<trkpt lat="46.049294" lon="11.173855">
<time>2020-11-25T09:48:03Z</time>
</trkpt>
<trkpt lat="46.049291" lon="11.173854">
<time>2020-11-25T09:48:04Z</time>
</trkpt>
<trkpt lat="46.049283" lon="11.173854">
<time>2020-11-25T09:48:05Z</time>
</trkpt>
<trkpt lat="46.049273" lon="11.173852">
<time>2020-11-25T09:48:06Z</time>
</trkpt>
<trkpt lat="46.049257" lon="11.173848">
<time>2020-11-25T09:48:07Z</time>
</trkpt>
<trkpt lat="46.049252" lon="11.173849">
<time>2020-11-25T09:48:08Z</time>
</trkpt>
<trkpt lat="46.049245" lon="11.173847">
<time>2020-11-25T09:48:09Z</time>
</trkpt>
<trkpt lat="46.04923" lon="11.173843">
<time>2020-11-25T09:48:10Z</time>
</trkpt>
<trkpt lat="46.049222" lon="11.17384">
<time>2020-11-25T09:48:11Z</time>
</trkpt>
<trkpt lat="46.04921" lon="11.173842">
<time>2020-11-25T09:48:12Z</time>
</trkpt>
<trkpt lat="46.049196" lon="11.173845">
<time>2020-11-25T09:48:13Z</time>
</trkpt>
<trkpt lat="46.049184" lon="11.173846">
<time>2020-11-25T09:48:14Z</time>
</trkpt>
<trkpt lat="46.049178" lon="11.173847">
<time>2020-11-25T09:48:15Z</time>
</trkpt>
<trkpt lat="46.04917" lon="11.173849">
<time>2020-11-25T09:48:16Z</time>
</trkpt>
<trkpt lat="46.049164" lon="11.173851">
<time>2020-11-25T09:48:17Z</time>
</trkpt>
<trkpt lat="46.049159" lon="11.173857">
<time>2020-11-25T09:48:18Z</time>
</trkpt>
<trkpt lat="46.049149" lon="11.173864">
<time>2020-11-25T09:48:19Z</time>
</trkpt>
<trkpt lat="46.049139" lon="11.173873">
<time>2020-11-25T09:48:20Z</time>
</trkpt>
<trkpt lat="46.049136" lon="11.173875">
<time>2020-11-25T09:48:21Z</time>
</trkpt>
<trkpt lat="46.049137" lon="11.173872">
<time>2020-11-25T09:48:22Z</time>
</trkpt>
<trkpt lat="46.049132" lon="11.173873">
<time>2020-11-25T09:48:23Z</time>
</trkpt>
<trkpt lat="46.049124" lon="11.173876">
<time>2020-11-25T09:48:24Z</time>
</trkpt>
<trkpt lat="46.049118" lon="11.173877">
<time>2020-11-25T09:48:25Z</time>
</trkpt>
<trkpt lat="46.049113" lon="11.173884">
<time>2020-11-25T09:48:26Z</time>
</trkpt>
<trkpt lat="46.049087" lon="11.173899">
<time>2020-11-25T09:48:27Z</time>
</trkpt>
<trkpt lat="46.049067" lon="11.173912">
<time>2020-11-25T09:48:28Z</time>
</trkpt>
<trkpt lat="46.049055" lon="11.17392">
<time>2020-11-25T09:48:29Z</time>
</trkpt>
<trkpt lat="46.04904" lon="11.173928">
<time>2020-11-25T09:48:30Z</time>
</trkpt>
<trkpt lat="46.049035" lon="11.173933">
<time>2020-11-25T09:48:31Z</time>
</trkpt>
<trkpt lat="46.049034" lon="11.173933">
<time>2020-11-25T09:48:32Z</time>
</trkpt>
<trkpt lat="46.049031" lon="11.173932">
<time>2020-11-25T09:48:33Z</time>
</trkpt>
<trkpt lat="46.049025" lon="11.173933">
<time>2020-11-25T09:48:34Z</time>
</trkpt>
<trkpt lat="46.049018" lon="11.173935">
<time>2020-11-25T09:48:35Z</time>
</trkpt>
<trkpt lat="46.04901" lon="11.173935">
<time>2020-11-25T09:48:36Z</time>
</trkpt>
<trkpt lat="46.049007" lon="11.173932">
<time>2020-11-25T09:48:37Z</time>
</trkpt>
<trkpt lat="46.049006" lon="11.173928">
<time>2020-11-25T09:48:38Z</time>
</trkpt>
<trkpt lat="46.049005" lon="11.173928">
<time>2020-11-25T09:48:39Z</time>
</trkpt>
<trkpt lat="46.049006" lon="11.173928">
<time>2020-11-25T09:48:40Z</time>
</trkpt>
<trkpt lat="46.049015" lon="11.173924">
<time>2020-11-25T09:48:41Z</time>
</trkpt>
<trkpt lat="46.049016" lon="11.17392">
<time>2020-11-25T09:48:42Z</time>
</trkpt>
<trkpt lat="46.049019" lon="11.173916">
<time>2020-11-25T09:48:43Z</time>
</trkpt>
<trkpt lat="46.049023" lon="11.173914">
<time>2020-11-25T09:48:44Z</time>
</trkpt>
<trkpt lat="46.049026" lon="11.173915">
<time>2020-11-25T09:48:45Z</time>
</trkpt>
<trkpt lat="46.049025" lon="11.173919">
<time>2020-11-25T09:48:46Z</time>
</trkpt>
<trkpt lat="46.049032" lon="11.173916">
<time>2020-11-25T09:48:47Z</time>
</trkpt>
<trkpt lat="46.049036" lon="11.173913">
<time>2020-11-25T09:48:48Z</time>
</trkpt>
<trkpt lat="46.049031" lon="11.173909">
<time>2020-11-25T09:48:49Z</time>
</trkpt>
<trkpt lat="46.049023" lon="11.173904">
<time>2020-11-25T09:48:50Z</time>
</trkpt>
<trkpt lat="46.049013" lon="11.173903">
<time>2020-11-25T09:48:51Z</time>
</trkpt>
<trkpt lat="46.04901" lon="11.173903">
<time>2020-11-25T09:48:52Z</time>
</trkpt>
<trkpt lat="46.049002" lon="11.173909">
<time>2020-11-25T09:48:53Z</time>
</trkpt>
<trkpt lat="46.048987" lon="11.173912">
<time>2020-11-25T09:48:54Z</time>
</trkpt>
<trkpt lat="46.048985" lon="11.17391">
<time>2020-11-25T09:48:55Z</time>
</trkpt>
<trkpt lat="46.048985" lon="11.17391">
<time>2020-11-25T09:48:56Z</time>
</trkpt>
<trkpt lat="46.048984" lon="11.173912">
<time>2020-11-25T09:48:57Z</time>
</trkpt>
<trkpt lat="46.048978" lon="11.173918">
<time>2020-11-25T09:48:58Z</time>
</trkpt>
<trkpt lat="46.048967" lon="11.173921">
<time>2020-11-25T09:48:59Z</time>
</trkpt>
<trkpt lat="46.048958" lon="11.173923">
<time>2020-11-25T09:49:00Z</time>
</trkpt>
<trkpt lat="46.048943" lon="11.173923">
<time>2020-11-25T09:49:01Z</time>
</trkpt>
<trkpt lat="46.048934" lon="11.173922">
<time>2020-11-25T09:49:02Z</time>
</trkpt>
<trkpt lat="46.048921" lon="11.173919">
<time>2020-11-25T09:49:03Z</time>
</trkpt>
<trkpt lat="46.048902" lon="11.173925">
<time>2020-11-25T09:49:04Z</time>
</trkpt>
<trkpt lat="46.048881" lon="11.173932">
<time>2020-11-25T09:49:05Z</time>
</trkpt>
<trkpt lat="46.048859" lon="11.17394">
<time>2020-11-25T09:49:06Z</time>
</trkpt>
<trkpt lat="46.048814" lon="11.173961">
<time>2020-11-25T09:49:07Z</time>
</trkpt>
<trkpt lat="46.048789" lon="11.173967">
<time>2020-11-25T09:49:08Z</time>
</trkpt>
<trkpt lat="46.048764" lon="11.173971">
<time>2020-11-25T09:49:09Z</time>
</trkpt>
<trkpt lat="46.048738" lon="11.173972">
<time>2020-11-25T09:49:10Z</time>
</trkpt>
<trkpt lat="46.048723" lon="11.173972">
<time>2020-11-25T09:49:11Z</time>
</trkpt>
<trkpt lat="46.048713" lon="11.17397">
<time>2020-11-25T09:49:12Z</time>
</trkpt>
<trkpt lat="46.048703" lon="11.173968">
<time>2020-11-25T09:49:13Z</time>
</trkpt>
<trkpt lat="46.048689" lon="11.173968">
<time>2020-11-25T09:49:14Z</time>
</trkpt>
<trkpt lat="46.048686" lon="11.173966">
<time>2020-11-25T09:49:15Z</time>
</trkpt>
<trkpt lat="46.048684" lon="11.173967">
<time>2020-11-25T09:49:16Z</time>
</trkpt>
<trkpt lat="46.048676" lon="11.173969">
<time>2020-11-25T09:49:17Z</time>
</trkpt>
<trkpt lat="46.048672" lon="11.173972">
<time>2020-11-25T09:49:18Z</time>
</trkpt>
<trkpt lat="46.048666" lon="11.173971">
<time>2020-11-25T09:49:19Z</time>
</trkpt>
<trkpt lat="46.048663" lon="11.173971">
<time>2020-11-25T09:49:20Z</time>
</trkpt>
<trkpt lat="46.048669" lon="11.173973">
<time>2020-11-25T09:49:21Z</time>
</trkpt>
<trkpt lat="46.048668" lon="11.173973">
<time>2020-11-25T09:49:22Z</time>
</trkpt>
<trkpt lat="46.048667" lon="11.173968">
<time>2020-11-25T09:49:23Z</time>
</trkpt>
<trkpt lat="46.048671" lon="11.173964">
<time>2020-11-25T09:49:24Z</time>
</trkpt>
<trkpt lat="46.048675" lon="11.17396">
<time>2020-11-25T09:49:25Z</time>
</trkpt>
<trkpt lat="46.048665" lon="11.173963">
<time>2020-11-25T09:49:26Z</time>
</trkpt>
<trkpt lat="46.048663" lon="11.173964">
<time>2020-11-25T09:49:27Z</time>
</trkpt>
<trkpt lat="46.048658" lon="11.173966">
<time>2020-11-25T09:49:28Z</time>
</trkpt>
<trkpt lat="46.048648" lon="11.173972">
<time>2020-11-25T09:49:29Z</time>
</trkpt>
<trkpt lat="46.048648" lon="11.173974">
<time>2020-11-25T09:49:30Z</time>
</trkpt>
<trkpt lat="46.04865" lon="11.17397">
<time>2020-11-25T09:49:31Z</time>
</trkpt>
<trkpt lat="46.048652" lon="11.173965">
<time>2020-11-25T09:49:32Z</time>
</trkpt>
<trkpt lat="46.048658" lon="11.173959">
<time>2020-11-25T09:49:33Z</time>
</trkpt>
<trkpt lat="46.048654" lon="11.173964">
<time>2020-11-25T09:49:34Z</time>
</trkpt>
<trkpt lat="46.048662" lon="11.173965">
<time>2020-11-25T09:49:35Z</time>
</trkpt>
<trkpt lat="46.048665" lon="11.173965">
<time>2020-11-25T09:49:36Z</time>
</trkpt>
<trkpt lat="46.048659" lon="11.173961">
<time>2020-11-25T09:49:37Z</time>
</trkpt>
<trkpt lat="46.048646" lon="11.173959">
<time>2020-11-25T09:49:38Z</time>
</trkpt>
<trkpt lat="46.048638" lon="11.173963">
<time>2020-11-25T09:49:39Z</time>
</trkpt>
<trkpt lat="46.048628" lon="11.173965">
<time>2020-11-25T09:49:40Z</time>
</trkpt>
<trkpt lat="46.048619" lon="11.173968">
<time>2020-11-25T09:49:41Z</time>
</trkpt>
<trkpt lat="46.04862" lon="11.173965">
<time>2020-11-25T09:49:42Z</time>
</trkpt>
<trkpt lat="46.04862" lon="11.173963">
<time>2020-11-25T09:49:43Z</time>
</trkpt>
<trkpt lat="46.048622" lon="11.173961">
<time>2020-11-25T09:49:44Z</time>
</trkpt>
<trkpt lat="46.048625" lon="11.17396">
<time>2020-11-25T09:49:45Z</time>
</trkpt>
<trkpt lat="46.048629" lon="11.17396">
<time>2020-11-25T09:49:46Z</time>
</trkpt>
<trkpt lat="46.048635" lon="11.173958">
<time>2020-11-25T09:49:47Z</time>
</trkpt>
<trkpt lat="46.048648" lon="11.173957">
<time>2020-11-25T09:49:48Z</time>
</trkpt>
<trkpt lat="46.048652" lon="11.173954">
<time>2020-11-25T09:49:49Z</time>
</trkpt>
<trkpt lat="46.048662" lon="11.173953">
<time>2020-11-25T09:49:50Z</time>
</trkpt>
<trkpt lat="46.048663" lon="11.173951">
<time>2020-11-25T09:49:51Z</time>
</trkpt>
<trkpt lat="46.048662" lon="11.173949">
<time>2020-11-25T09:49:52Z</time>
</trkpt>
<trkpt lat="46.048654" lon="11.173946">
<time>2020-11-25T09:49:53Z</time>
</trkpt>
<trkpt lat="46.048647" lon="11.173942">
<time>2020-11-25T09:49:54Z</time>
</trkpt>
<trkpt lat="46.048636" lon="11.173938">
<time>2020-11-25T09:49:55Z</time>
</trkpt>
<trkpt lat="46.048626" lon="11.173932">
<time>2020-11-25T09:49:56Z</time>
</trkpt>
<trkpt lat="46.048621" lon="11.173929">
<time>2020-11-25T09:49:57Z</time>
</trkpt>
<trkpt lat="46.048612" lon="11.17393">
<time>2020-11-25T09:49:58Z</time>
</trkpt>
<trkpt lat="46.048604" lon="11.173934">
<time>2020-11-25T09:49:59Z</time>
</trkpt>
<trkpt lat="46.048594" lon="11.17394">
<time>2020-11-25T09:50:00Z</time>
</trkpt>
<trkpt lat="46.048583" lon="11.173948">
<time>2020-11-25T09:50:01Z</time>
</trkpt>
<trkpt lat="46.048572" lon="11.173955">
<time>2020-11-25T09:50:02Z</time>
</trkpt>
<trkpt lat="46.048565" lon="11.173959">
<time>2020-11-25T09:50:03Z</time>
</trkpt>
<trkpt lat="46.048564" lon="11.173963">
<time>2020-11-25T09:50:04Z</time>
</trkpt>
<trkpt lat="46.048568" lon="11.173963">
<time>2020-11-25T09:50:05Z</time>
</trkpt>
<trkpt lat="46.04857" lon="11.173963">
<time>2020-11-25T09:50:06Z</time>
</trkpt>
<trkpt lat="46.048564" lon="11.173968">
<time>2020-11-25T09:50:07Z</time>
</trkpt>
<trkpt lat="46.048558" lon="11.173972">
<time>2020-11-25T09:50:08Z</time>
</trkpt>
<trkpt lat="46.048552" lon="11.173976">
<time>2020-11-25T09:50:09Z</time>
</trkpt>
<trkpt lat="46.048553" lon="11.173973">
<time>2020-11-25T09:50:10Z</time>
</trkpt>
<trkpt lat="46.048543" lon="11.173972">
<time>2020-11-25T09:50:11Z</time>
</trkpt>
<trkpt lat="46.048536" lon="11.173973">
<time>2020-11-25T09:50:12Z</time>
</trkpt>
<trkpt lat="46.048539" lon="11.173977">
<time>2020-11-25T09:50:13Z</time>
</trkpt>
<trkpt lat="46.048546" lon="11.173979">
<time>2020-11-25T09:50:14Z</time>
</trkpt>
<trkpt lat="46.048549" lon="11.173978">
<time>2020-11-25T09:50:15Z</time>
</trkpt>
<trkpt lat="46.04856" lon="11.173974">
<time>2020-11-25T09:50:16Z</time>
</trkpt>
<trkpt lat="46.048572" lon="11.173969">
<time>2020-11-25T09:50:17Z</time>
</trkpt>
<trkpt lat="46.048574" lon="11.173968">
<time>2020-11-25T09:50:18Z</time>
</trkpt>
<trkpt lat="46.048567" lon="11.173967">
<time>2020-11-25T09:50:19Z</time>
</trkpt>
<trkpt lat="46.048566" lon="11.173966">
<time>2020-11-25T09:50:20Z</time>
</trkpt>
<trkpt lat="46.048562" lon="11.173964">
<time>2020-11-25T09:50:21Z</time>
</trkpt>
<trkpt lat="46.048559" lon="11.173961">
<time>2020-11-25T09:50:22Z</time>
</trkpt>
<trkpt lat="46.048537" lon="11.173952">
<time>2020-11-25T09:50:23Z</time>
</trkpt>
<trkpt lat="46.048527" lon="11.173933">
<time>2020-11-25T09:50:24Z</time>
</trkpt>
<trkpt lat="46.048522" lon="11.173927">
<time>2020-11-25T09:50:25Z</time>
</trkpt>
<trkpt lat="46.048516" lon="11.173925">
<time>2020-11-25T09:50:26Z</time>
</trkpt>
<trkpt lat="46.048503" lon="11.173925">
<time>2020-11-25T09:50:27Z</time>
</trkpt>
<trkpt lat="46.048494" lon="11.173926">
<time>2020-11-25T09:50:28Z</time>
</trkpt>
<trkpt lat="46.048484" lon="11.173926">
<time>2020-11-25T09:50:29Z</time>
</trkpt>
<trkpt lat="46.048477" lon="11.173926">
<time>2020-11-25T09:50:30Z</time>
</trkpt>
<trkpt lat="46.048465" lon="11.173928">
<time>2020-11-25T09:50:31Z</time>
</trkpt>
<trkpt lat="46.048455" lon="11.173932">
<time>2020-11-25T09:50:32Z</time>
</trkpt>
<trkpt lat="46.048448" lon="11.173935">
<time>2020-11-25T09:50:33Z</time>
</trkpt>
<trkpt lat="46.048442" lon="11.173938">
<time>2020-11-25T09:50:34Z</time>
</trkpt>
<trkpt lat="46.048433" lon="11.173943">
<time>2020-11-25T09:50:35Z</time>
</trkpt>
<trkpt lat="46.048432" lon="11.173948">
<time>2020-11-25T09:50:36Z</time>
</trkpt>
<trkpt lat="46.048425" lon="11.173955">
<time>2020-11-25T09:50:37Z</time>
</trkpt>
<trkpt lat="46.048424" lon="11.173957">
<time>2020-11-25T09:50:38Z</time>
</trkpt>
<trkpt lat="46.048423" lon="11.173962">
<time>2020-11-25T09:50:39Z</time>
</trkpt>
<trkpt lat="46.048421" lon="11.173965">
<time>2020-11-25T09:50:40Z</time>
</trkpt>
<trkpt lat="46.04842" lon="11.173973">
<time>2020-11-25T09:50:41Z</time>
</trkpt>
<trkpt lat="46.048422" lon="11.173984">
<time>2020-11-25T09:50:42Z</time>
</trkpt>
<trkpt lat="46.048413" lon="11.173995">
<time>2020-11-25T09:50:43Z</time>
</trkpt>
<trkpt lat="46.04841" lon="11.174004">
<time>2020-11-25T09:50:44Z</time>
</trkpt>
<trkpt lat="46.048399" lon="11.174008">
<time>2020-11-25T09:50:45Z</time>
</trkpt>
<trkpt lat="46.048392" lon="11.174016">
<time>2020-11-25T09:50:46Z</time>
</trkpt>
<trkpt lat="46.048392" lon="11.174024">
<time>2020-11-25T09:50:47Z</time>
</trkpt>
<trkpt lat="46.048402" lon="11.174034">
<time>2020-11-25T09:50:48Z</time>
</trkpt>
<trkpt lat="46.048403" lon="11.174038">
<time>2020-11-25T09:50:49Z</time>
</trkpt>
<trkpt lat="46.048412" lon="11.17404">
<time>2020-11-25T09:50:50Z</time>
</trkpt>
<trkpt lat="46.048422" lon="11.174041">
<time>2020-11-25T09:50:51Z</time>
</trkpt>
<trkpt lat="46.048425" lon="11.174042">
<time>2020-11-25T09:50:52Z</time>
</trkpt>
<trkpt lat="46.048441" lon="11.174035">
<time>2020-11-25T09:50:53Z</time>
</trkpt>
<trkpt lat="46.048448" lon="11.174035">
<time>2020-11-25T09:50:54Z</time>
</trkpt>
<trkpt lat="46.048447" lon="11.174045">
<time>2020-11-25T09:50:55Z</time>
</trkpt>
<trkpt lat="46.048437" lon="11.174054">
<time>2020-11-25T09:50:56Z</time>
</trkpt>
<trkpt lat="46.048431" lon="11.174063">
<time>2020-11-25T09:50:57Z</time>
</trkpt>
<trkpt lat="46.048427" lon="11.17407">
<time>2020-11-25T09:50:58Z</time>
</trkpt>
<trkpt lat="46.048429" lon="11.17407">
<time>2020-11-25T09:50:59Z</time>
</trkpt>
<trkpt lat="46.048419" lon="11.174077">
<time>2020-11-25T09:51:00Z</time>
</trkpt>
<trkpt lat="46.04841" lon="11.174084">
<time>2020-11-25T09:51:01Z</time>
</trkpt>
<trkpt lat="46.048397" lon="11.174094">
<time>2020-11-25T09:51:02Z</time>
</trkpt>
<trkpt lat="46.048389" lon="11.174104">
<time>2020-11-25T09:51:03Z</time>
</trkpt>
<trkpt lat="46.048378" lon="11.174113">
<time>2020-11-25T09:51:04Z</time>
</trkpt>
<trkpt lat="46.048367" lon="11.174121">
<time>2020-11-25T09:51:05Z</time>
</trkpt>
<trkpt lat="46.04836" lon="11.174126">
<time>2020-11-25T09:51:06Z</time>
</trkpt>
<trkpt lat="46.048357" lon="11.174132">
<time>2020-11-25T09:51:07Z</time>
</trkpt>
<trkpt lat="46.048352" lon="11.174134">
<time>2020-11-25T09:51:08Z</time>
</trkpt>
<trkpt lat="46.048355" lon="11.174135">
<time>2020-11-25T09:51:09Z</time>
</trkpt>
<trkpt lat="46.048348" lon="11.174143">
<time>2020-11-25T09:51:10Z</time>
</trkpt>
<trkpt lat="46.048337" lon="11.174148">
<time>2020-11-25T09:51:11Z</time>
</trkpt>
<trkpt lat="46.04833" lon="11.174154">
<time>2020-11-25T09:51:12Z</time>
</trkpt>
<trkpt lat="46.048318" lon="11.174165">
<time>2020-11-25T09:51:13Z</time>
</trkpt>
<trkpt lat="46.048311" lon="11.174174">
<time>2020-11-25T09:51:14Z</time>
</trkpt>
<trkpt lat="46.048306" lon="11.174179">
<time>2020-11-25T09:51:15Z</time>
</trkpt>
<trkpt lat="46.048302" lon="11.174183">
<time>2020-11-25T09:51:16Z</time>
</trkpt>
<trkpt lat="46.048292" lon="11.174187">
<time>2020-11-25T09:51:17Z</time>
</trkpt>
<trkpt lat="46.048287" lon="11.174187">
<time>2020-11-25T09:51:18Z</time>
</trkpt>
<trkpt lat="46.048287" lon="11.174188">
<time>2020-11-25T09:51:19Z</time>
</trkpt>
<trkpt lat="46.048284" lon="11.174186">
<time>2020-11-25T09:51:20Z</time>
</trkpt>
<trkpt lat="46.048282" lon="11.174183">
<time>2020-11-25T09:51:21Z</time>
</trkpt>
<trkpt lat="46.048293" lon="11.174185">
<time>2020-11-25T09:51:22Z</time>
</trkpt>
<trkpt lat="46.048294" lon="11.174187">
<time>2020-11-25T09:51:23Z</time>
</trkpt>
<trkpt lat="46.048299" lon="11.174189">
<time>2020-11-25T09:51:24Z</time>
</trkpt>
<trkpt lat="46.048305" lon="11.174194">
<time>2020-11-25T09:51:25Z</time>
</trkpt>
<trkpt lat="46.048308" lon="11.174199">
<time>2020-11-25T09:51:26Z</time>
</trkpt>
<trkpt lat="46.048291" lon="11.174202">
<time>2020-11-25T09:51:27Z</time>
</trkpt>
<trkpt lat="46.048283" lon="11.174202">
<time>2020-11-25T09:51:28Z</time>
</trkpt>
<trkpt lat="46.048294" lon="11.174194">
<time>2020-11-25T09:51:29Z</time>
</trkpt>
<trkpt lat="46.048291" lon="11.174192">
<time>2020-11-25T09:51:30Z</time>
</trkpt>
<trkpt lat="46.048285" lon="11.174186">
<time>2020-11-25T09:51:31Z</time>
</trkpt>
<trkpt lat="46.048275" lon="11.174173">
<time>2020-11-25T09:51:32Z</time>
</trkpt>
<trkpt lat="46.04827" lon="11.174163">
<time>2020-11-25T09:51:33Z</time>
</trkpt>
<trkpt lat="46.048268" lon="11.17415">
<time>2020-11-25T09:51:34Z</time>
</trkpt>
<trkpt lat="46.048256" lon="11.174146">
<time>2020-11-25T09:51:35Z</time>
</trkpt>
<trkpt lat="46.048263" lon="11.174142">
<time>2020-11-25T09:51:36Z</time>
</trkpt>
<trkpt lat="46.048266" lon="11.174138">
<time>2020-11-25T09:51:37Z</time>
</trkpt>
<trkpt lat="46.048264" lon="11.174128">
<time>2020-11-25T09:51:38Z</time>
</trkpt>
<trkpt lat="46.048261" lon="11.174126">
<time>2020-11-25T09:51:39Z</time>
</trkpt>
<trkpt lat="46.048254" lon="11.174122">
<time>2020-11-25T09:51:40Z</time>
</trkpt>
<trkpt lat="46.048243" lon="11.174121">
<time>2020-11-25T09:51:41Z</time>
</trkpt>
<trkpt lat="46.048241" lon="11.174122">
<time>2020-11-25T09:51:42Z</time>
</trkpt>
<trkpt lat="46.048224" lon="11.174122">
<time>2020-11-25T09:51:43Z</time>
</trkpt>
<trkpt lat="46.048218" lon="11.174122">
<time>2020-11-25T09:51:44Z</time>
</trkpt>
<trkpt lat="46.04821" lon="11.174117">
<time>2020-11-25T09:51:45Z</time>
</trkpt>
<trkpt lat="46.048203" lon="11.174115">
<time>2020-11-25T09:51:46Z</time>
</trkpt>
<trkpt lat="46.048197" lon="11.17412">
<time>2020-11-25T09:51:47Z</time>
</trkpt>
<trkpt lat="46.04819" lon="11.17412">
<time>2020-11-25T09:51:48Z</time>
</trkpt>
<trkpt lat="46.048182" lon="11.174119">
<time>2020-11-25T09:51:49Z</time>
</trkpt>
<trkpt lat="46.048177" lon="11.174119">
<time>2020-11-25T09:51:50Z</time>
</trkpt>
<trkpt lat="46.048163" lon="11.17412">
<time>2020-11-25T09:51:51Z</time>
</trkpt>
<trkpt lat="46.048155" lon="11.174121">
<time>2020-11-25T09:51:52Z</time>
</trkpt>
<trkpt lat="46.048147" lon="11.174124">
<time>2020-11-25T09:51:53Z</time>
</trkpt>
<trkpt lat="46.048139" lon="11.174129">
<time>2020-11-25T09:51:54Z</time>
</trkpt>
<trkpt lat="46.048127" lon="11.174132">
<time>2020-11-25T09:51:55Z</time>
</trkpt>
<trkpt lat="46.048109" lon="11.17413">
<time>2020-11-25T09:51:56Z</time>
</trkpt>
<trkpt lat="46.048095" lon="11.174124">
<time>2020-11-25T09:51:57Z</time>
</trkpt>
<trkpt lat="46.048073" lon="11.174119">
<time>2020-11-25T09:51:58Z</time>
</trkpt>
<trkpt lat="46.048046" lon="11.174112">
<time>2020-11-25T09:51:59Z</time>
</trkpt>
<trkpt lat="46.048027" lon="11.174098">
<time>2020-11-25T09:52:00Z</time>
</trkpt>
<trkpt lat="46.048005" lon="11.17408">
<time>2020-11-25T09:52:01Z</time>
</trkpt>
<trkpt lat="46.047994" lon="11.174062">
<time>2020-11-25T09:52:02Z</time>
</trkpt>
<trkpt lat="46.047988" lon="11.174049">
<time>2020-11-25T09:52:03Z</time>
</trkpt>
<trkpt lat="46.04798" lon="11.174046">
<time>2020-11-25T09:52:04Z</time>
</trkpt>
<trkpt lat="46.047967" lon="11.174032">
<time>2020-11-25T09:52:05Z</time>
</trkpt>
<trkpt lat="46.04796" lon="11.17402">
<time>2020-11-25T09:52:06Z</time>
</trkpt>
<trkpt lat="46.047956" lon="11.174008">
<time>2020-11-25T09:52:07Z</time>
</trkpt>
<trkpt lat="46.047942" lon="11.174">
<time>2020-11-25T09:52:08Z</time>
</trkpt>
<trkpt lat="46.047947" lon="11.173981">
<time>2020-11-25T09:52:09Z</time>
</trkpt>
<trkpt lat="46.047948" lon="11.173963">
<time>2020-11-25T09:52:10Z</time>
</trkpt>
<trkpt lat="46.047944" lon="11.173948">
<time>2020-11-25T09:52:11Z</time>
</trkpt>
<trkpt lat="46.047943" lon="11.173921">
<time>2020-11-25T09:52:12Z</time>
</trkpt>
<trkpt lat="46.047943" lon="11.173894">
<time>2020-11-25T09:52:13Z</time>
</trkpt>
<trkpt lat="46.047951" lon="11.173871">
<time>2020-11-25T09:52:14Z</time>
</trkpt>
<trkpt lat="46.047956" lon="11.173854">
<time>2020-11-25T09:52:15Z</time>
</trkpt>
<trkpt lat="46.047959" lon="11.173837">
<time>2020-11-25T09:52:16Z</time>
</trkpt>
<trkpt lat="46.047967" lon="11.17382">
<time>2020-11-25T09:52:17Z</time>
</trkpt>
<trkpt lat="46.047972" lon="11.173804">
<time>2020-11-25T09:52:18Z</time>
</trkpt>
<trkpt lat="46.047978" lon="11.173786">
<time>2020-11-25T09:52:19Z</time>
</trkpt>
<trkpt lat="46.047974" lon="11.173777">
<time>2020-11-25T09:52:20Z</time>
</trkpt>
<trkpt lat="46.047986" lon="11.173765">
<time>2020-11-25T09:52:21Z</time>
</trkpt>
<trkpt lat="46.047992" lon="11.173753">
<time>2020-11-25T09:52:22Z</time>
</trkpt>
<trkpt lat="46.047995" lon="11.173741">
<time>2020-11-25T09:52:23Z</time>
</trkpt>
<trkpt lat="46.048002" lon="11.173729">
<time>2020-11-25T09:52:24Z</time>
</trkpt>
<trkpt lat="46.047994" lon="11.17372">
<time>2020-11-25T09:52:25Z</time>
</trkpt>
<trkpt lat="46.047988" lon="11.173708">
<time>2020-11-25T09:52:26Z</time>
</trkpt>
<trkpt lat="46.047989" lon="11.173698">
<time>2020-11-25T09:52:27Z</time>
</trkpt>
<trkpt lat="46.048005" lon="11.17368">
<time>2020-11-25T09:52:28Z</time>
</trkpt>
<trkpt lat="46.048019" lon="11.173657">
<time>2020-11-25T09:52:29Z</time>
</trkpt>
<trkpt lat="46.048032" lon="11.173633">
<time>2020-11-25T09:52:30Z</time>
</trkpt>
<trkpt lat="46.048048" lon="11.173613">
<time>2020-11-25T09:52:31Z</time>
</trkpt>
<trkpt lat="46.048063" lon="11.173592">
<time>2020-11-25T09:52:32Z</time>
</trkpt>
<trkpt lat="46.048083" lon="11.173568">
<time>2020-11-25T09:52:33Z</time>
</trkpt>
<trkpt lat="46.048106" lon="11.173549">
<time>2020-11-25T09:52:34Z</time>
</trkpt>
<trkpt lat="46.048117" lon="11.173533">
<time>2020-11-25T09:52:35Z</time>
</trkpt>
<trkpt lat="46.048136" lon="11.173511">
<time>2020-11-25T09:52:36Z</time>
</trkpt>
<trkpt lat="46.048154" lon="11.173484">
<time>2020-11-25T09:52:37Z</time>
</trkpt>
<trkpt lat="46.048173" lon="11.173453">
<time>2020-11-25T09:52:38Z</time>
</trkpt>
<trkpt lat="46.048202" lon="11.173419">
<time>2020-11-25T09:52:39Z</time>
</trkpt>
<trkpt lat="46.04822" lon="11.173389">
<time>2020-11-25T09:52:40Z</time>
</trkpt>
<trkpt lat="46.048243" lon="11.173356">
<time>2020-11-25T09:52:41Z</time>
</trkpt>
<trkpt lat="46.048265" lon="11.173328">
<time>2020-11-25T09:52:42Z</time>
</trkpt>
<trkpt lat="46.04828" lon="11.173306">
<time>2020-11-25T09:52:43Z</time>
</trkpt>
<trkpt lat="46.048308" lon="11.173284">
<time>2020-11-25T09:52:44Z</time>
</trkpt>
<trkpt lat="46.048331" lon="11.173264">
<time>2020-11-25T09:52:45Z</time>
</trkpt>
<trkpt lat="46.048355" lon="11.173241">
<time>2020-11-25T09:52:46Z</time>
</trkpt>
<trkpt lat="46.04838" lon="11.173218">
<time>2020-11-25T09:52:47Z</time>
</trkpt>
<trkpt lat="46.048399" lon="11.173197">
<time>2020-11-25T09:52:48Z</time>
</trkpt>
<trkpt lat="46.048424" lon="11.173171">
<time>2020-11-25T09:52:49Z</time>
</trkpt>
<trkpt lat="46.048446" lon="11.173145">
<time>2020-11-25T09:52:50Z</time>
</trkpt>
<trkpt lat="46.048467" lon="11.17312">
<time>2020-11-25T09:52:51Z</time>
</trkpt>
<trkpt lat="46.048486" lon="11.173097">
<time>2020-11-25T09:52:52Z</time>
</trkpt>
<trkpt lat="46.048505" lon="11.173077">
<time>2020-11-25T09:52:53Z</time>
</trkpt>
<trkpt lat="46.048525" lon="11.173054">
<time>2020-11-25T09:52:54Z</time>
</trkpt>
<trkpt lat="46.048543" lon="11.17304">
<time>2020-11-25T09:52:55Z</time>
</trkpt>
<trkpt lat="46.048557" lon="11.173028">
<time>2020-11-25T09:52:56Z</time>
</trkpt>
<trkpt lat="46.048579" lon="11.173014">
<time>2020-11-25T09:52:57Z</time>
</trkpt>
<trkpt lat="46.04859" lon="11.172996">
<time>2020-11-25T09:52:58Z</time>
</trkpt>
<trkpt lat="46.048611" lon="11.17298">
<time>2020-11-25T09:52:59Z</time>
</trkpt>
<trkpt lat="46.048641" lon="11.172961">
<time>2020-11-25T09:53:00Z</time>
</trkpt>
<trkpt lat="46.048664" lon="11.172937">
<time>2020-11-25T09:53:01Z</time>
</trkpt>
<trkpt lat="46.048694" lon="11.17292">
<time>2020-11-25T09:53:02Z</time>
</trkpt>
<trkpt lat="46.048717" lon="11.172912">
<time>2020-11-25T09:53:03Z</time>
</trkpt>
<trkpt lat="46.048739" lon="11.172903">
<time>2020-11-25T09:53:04Z</time>
</trkpt>
<trkpt lat="46.048756" lon="11.172887">
<time>2020-11-25T09:53:05Z</time>
</trkpt>
<trkpt lat="46.048781" lon="11.172872">
<time>2020-11-25T09:53:06Z</time>
</trkpt>
<trkpt lat="46.048808" lon="11.172863">
<time>2020-11-25T09:53:07Z</time>
</trkpt>
<trkpt lat="46.048837" lon="11.172843">
<time>2020-11-25T09:53:08Z</time>
</trkpt>
<trkpt lat="46.048862" lon="11.17283">
<time>2020-11-25T09:53:09Z</time>
</trkpt>
<trkpt lat="46.048879" lon="11.172819">
<time>2020-11-25T09:53:10Z</time>
</trkpt>
<trkpt lat="46.048896" lon="11.17281">
<time>2020-11-25T09:53:11Z</time>
</trkpt>
<trkpt lat="46.048909" lon="11.172799">
<time>2020-11-25T09:53:12Z</time>
</trkpt>
<trkpt lat="46.048916" lon="11.172789">
<time>2020-11-25T09:53:13Z</time>
</trkpt>
<trkpt lat="46.048923" lon="11.172785">
<time>2020-11-25T09:53:14Z</time>
</trkpt>
<trkpt lat="46.048933" lon="11.172773">
<time>2020-11-25T09:53:15Z</time>
</trkpt>
<trkpt lat="46.048945" lon="11.172771">
<time>2020-11-25T09:53:16Z</time>
</trkpt>
<trkpt lat="46.048954" lon="11.172773">
<time>2020-11-25T09:53:17Z</time>
</trkpt>
<trkpt lat="46.04896" lon="11.172773">
<time>2020-11-25T09:53:18Z</time>
</trkpt>
<trkpt lat="46.048966" lon="11.172776">
<time>2020-11-25T09:53:19Z</time>
</trkpt>
<trkpt lat="46.048978" lon="11.172774">
<time>2020-11-25T09:53:20Z</time>
</trkpt>
<trkpt lat="46.048998" lon="11.172776">
<time>2020-11-25T09:53:21Z</time>
</trkpt>
<trkpt lat="46.049012" lon="11.172777">
<time>2020-11-25T09:53:22Z</time>
</trkpt>
<trkpt lat="46.049019" lon="11.172784">
<time>2020-11-25T09:53:23Z</time>
</trkpt>
<trkpt lat="46.049027" lon="11.172785">
<time>2020-11-25T09:53:24Z</time>
</trkpt>
<trkpt lat="46.049037" lon="11.172779">
<time>2020-11-25T09:53:25Z</time>
</trkpt>
<trkpt lat="46.04905" lon="11.172772">
<time>2020-11-25T09:53:26Z</time>
</trkpt>
<trkpt lat="46.04906" lon="11.172766">
<time>2020-11-25T09:53:27Z</time>
</trkpt>
<trkpt lat="46.049068" lon="11.17276">
<time>2020-11-25T09:53:28Z</time>
</trkpt>
<trkpt lat="46.049084" lon="11.172752">
<time>2020-11-25T09:53:29Z</time>
</trkpt>
<trkpt lat="46.049101" lon="11.172749">
<time>2020-11-25T09:53:30Z</time>
</trkpt>
<trkpt lat="46.049114" lon="11.172748">
<time>2020-11-25T09:53:31Z</time>
</trkpt>
<trkpt lat="46.049129" lon="11.172747">
<time>2020-11-25T09:53:32Z</time>
</trkpt>
<trkpt lat="46.049146" lon="11.172748">
<time>2020-11-25T09:53:33Z</time>
</trkpt>
<trkpt lat="46.049161" lon="11.172749">
<time>2020-11-25T09:53:34Z</time>
</trkpt>
<trkpt lat="46.049175" lon="11.172757">
<time>2020-11-25T09:53:35Z</time>
</trkpt>
<trkpt lat="46.049204" lon="11.172764">
<time>2020-11-25T09:53:36Z</time>
</trkpt>
<trkpt lat="46.049242" lon="11.172771">
<time>2020-11-25T09:53:37Z</time>
</trkpt>
<trkpt lat="46.049266" lon="11.172782">
<time>2020-11-25T09:53:38Z</time>
</trkpt>
<trkpt lat="46.049284" lon="11.172787">
<time>2020-11-25T09:53:39Z</time>
</trkpt>
<trkpt lat="46.049303" lon="11.172789">
<time>2020-11-25T09:53:40Z</time>
</trkpt>
<trkpt lat="46.049314" lon="11.172793">
<time>2020-11-25T09:53:41Z</time>
</trkpt>
<trkpt lat="46.049322" lon="11.172795">
<time>2020-11-25T09:53:42Z</time>
</trkpt>
<trkpt lat="46.049334" lon="11.172794">
<time>2020-11-25T09:53:43Z</time>
</trkpt>
<trkpt lat="46.04933" lon="11.172795">
<time>2020-11-25T09:53:44Z</time>
</trkpt>
<trkpt lat="46.049335" lon="11.172792">
<time>2020-11-25T09:53:45Z</time>
</trkpt>
<trkpt lat="46.04934" lon="11.172786">
<time>2020-11-25T09:53:46Z</time>
</trkpt>
<trkpt lat="46.049346" lon="11.172783">
<time>2020-11-25T09:53:47Z</time>
</trkpt>
<trkpt lat="46.049355" lon="11.172779">
<time>2020-11-25T09:53:48Z</time>
</trkpt>
<trkpt lat="46.04937" lon="11.172772">
<time>2020-11-25T09:53:49Z</time>
</trkpt>
<trkpt lat="46.049384" lon="11.17277">
<time>2020-11-25T09:53:50Z</time>
</trkpt>
<trkpt lat="46.049401" lon="11.172766">
<time>2020-11-25T09:53:51Z</time>
</trkpt>
<trkpt lat="46.049418" lon="11.172762">
<time>2020-11-25T09:53:52Z</time>
</trkpt>
<trkpt lat="46.049438" lon="11.172759">
<time>2020-11-25T09:53:53Z</time>
</trkpt>
<trkpt lat="46.049457" lon="11.172751">
<time>2020-11-25T09:53:54Z</time>
</trkpt>
<trkpt lat="46.04948" lon="11.17274">
<time>2020-11-25T09:53:55Z</time>
</trkpt>
<trkpt lat="46.049488" lon="11.172734">
<time>2020-11-25T09:53:56Z</time>
</trkpt>
<trkpt lat="46.049505" lon="11.172725">
<time>2020-11-25T09:53:57Z</time>
</trkpt>
<trkpt lat="46.04952" lon="11.17272">
<time>2020-11-25T09:53:58Z</time>
</trkpt>
<trkpt lat="46.049528" lon="11.172716">
<time>2020-11-25T09:53:59Z</time>
</trkpt>
<trkpt lat="46.04954" lon="11.172707">
<time>2020-11-25T09:54:00Z</time>
</trkpt>
<trkpt lat="46.049561" lon="11.172696">
<time>2020-11-25T09:54:01Z</time>
</trkpt>
<trkpt lat="46.049574" lon="11.172683">
<time>2020-11-25T09:54:02Z</time>
</trkpt>
<trkpt lat="46.049587" lon="11.172669">
<time>2020-11-25T09:54:03Z</time>
</trkpt>
<trkpt lat="46.049599" lon="11.172659">
<time>2020-11-25T09:54:04Z</time>
</trkpt>
<trkpt lat="46.049613" lon="11.17265">
<time>2020-11-25T09:54:05Z</time>
</trkpt>
<trkpt lat="46.04963" lon="11.172644">
<time>2020-11-25T09:54:06Z</time>
</trkpt>
<trkpt lat="46.049641" lon="11.172639">
<time>2020-11-25T09:54:07Z</time>
</trkpt>
<trkpt lat="46.049647" lon="11.172635">
<time>2020-11-25T09:54:08Z</time>
</trkpt>
<trkpt lat="46.049647" lon="11.172631">
<time>2020-11-25T09:54:09Z</time>
</trkpt>
<trkpt lat="46.049654" lon="11.172621">
<time>2020-11-25T09:54:10Z</time>
</trkpt>
<trkpt lat="46.049649" lon="11.172618">
<time>2020-11-25T09:54:11Z</time>
</trkpt>
<trkpt lat="46.04966" lon="11.172589">
<time>2020-11-25T09:54:12Z</time>
</trkpt>
<trkpt lat="46.049667" lon="11.172567">
<time>2020-11-25T09:54:13Z</time>
</trkpt>
<trkpt lat="46.049675" lon="11.172547">
<time>2020-11-25T09:54:14Z</time>
</trkpt>
<trkpt lat="46.049686" lon="11.172529">
<time>2020-11-25T09:54:15Z</time>
</trkpt>
<trkpt lat="46.049703" lon="11.172506">
<time>2020-11-25T09:54:16Z</time>
</trkpt>
<trkpt lat="46.049717" lon="11.172484">
<time>2020-11-25T09:54:17Z</time>
</trkpt>
<trkpt lat="46.049724" lon="11.172474">
<time>2020-11-25T09:54:18Z</time>
</trkpt>
<trkpt lat="46.04973" lon="11.172466">
<time>2020-11-25T09:54:19Z</time>
</trkpt>
<trkpt lat="46.049739" lon="11.172458">
<time>2020-11-25T09:54:20Z</time>
</trkpt>
<trkpt lat="46.049742" lon="11.172452">
<time>2020-11-25T09:54:21Z</time>
</trkpt>
<trkpt lat="46.049747" lon="11.172441">
<time>2020-11-25T09:54:22Z</time>
</trkpt>
<trkpt lat="46.049756" lon="11.172433">
<time>2020-11-25T09:54:23Z</time>
</trkpt>
<trkpt lat="46.049771" lon="11.172415">
<time>2020-11-25T09:54:24Z</time>
</trkpt>
<trkpt lat="46.049779" lon="11.172402">
<time>2020-11-25T09:54:25Z</time>
</trkpt>
<trkpt lat="46.04979" lon="11.172394">
<time>2020-11-25T09:54:26Z</time>
</trkpt>
<trkpt lat="46.049799" lon="11.172385">
<time>2020-11-25T09:54:27Z</time>
</trkpt>
<trkpt lat="46.04981" lon="11.172379">
<time>2020-11-25T09:54:28Z</time>
</trkpt>
<trkpt lat="46.049823" lon="11.172366">
<time>2020-11-25T09:54:29Z</time>
</trkpt>
<trkpt lat="46.049836" lon="11.172355">
<time>2020-11-25T09:54:30Z</time>
</trkpt>
<trkpt lat="46.04985" lon="11.172352">
<time>2020-11-25T09:54:31Z</time>
</trkpt>
<trkpt lat="46.049863" lon="11.172347">
<time>2020-11-25T09:54:32Z</time>
</trkpt>
<trkpt lat="46.049858" lon="11.172359">
<time>2020-11-25T09:54:33Z</time>
</trkpt>
<trkpt lat="46.049861" lon="11.172361">
<time>2020-11-25T09:54:34Z</time>
</trkpt>
<trkpt lat="46.049863" lon="11.172359">
<time>2020-11-25T09:54:35Z</time>
</trkpt>
<trkpt lat="46.049863" lon="11.172356">
<time>2020-11-25T09:54:36Z</time>
</trkpt>
<trkpt lat="46.049862" lon="11.172355">
<time>2020-11-25T09:54:37Z</time>
</trkpt>
<trkpt lat="46.049866" lon="11.172356">
<time>2020-11-25T09:54:38Z</time>
</trkpt>
<trkpt lat="46.049877" lon="11.172356">
<time>2020-11-25T09:54:39Z</time>
</trkpt>
<trkpt lat="46.049881" lon="11.172357">
<time>2020-11-25T09:54:40Z</time>
</trkpt>
<trkpt lat="46.049893" lon="11.172356">
<time>2020-11-25T09:54:41Z</time>
</trkpt>
<trkpt lat="46.049904" lon="11.172352">
<time>2020-11-25T09:54:42Z</time>
</trkpt>
<trkpt lat="46.049914" lon="11.172346">
<time>2020-11-25T09:54:43Z</time>
</trkpt>
<trkpt lat="46.049919" lon="11.172345">
<time>2020-11-25T09:54:44Z</time>
</trkpt>
<trkpt lat="46.049926" lon="11.172345">
<time>2020-11-25T09:54:45Z</time>
</trkpt>
<trkpt lat="46.04994" lon="11.172341">
<time>2020-11-25T09:54:46Z</time>
</trkpt>
<trkpt lat="46.049947" lon="11.172336">
<time>2020-11-25T09:54:47Z</time>
</trkpt>
<trkpt lat="46.049968" lon="11.172333">
<time>2020-11-25T09:54:48Z</time>
</trkpt>
<trkpt lat="46.049983" lon="11.172326">
<time>2020-11-25T09:54:49Z</time>
</trkpt>
<trkpt lat="46.049993" lon="11.172326">
<time>2020-11-25T09:54:50Z</time>
</trkpt>
<trkpt lat="46.050018" lon="11.17233">
<time>2020-11-25T09:54:51Z</time>
</trkpt>
<trkpt lat="46.050041" lon="11.172326">
<time>2020-11-25T09:54:52Z</time>
</trkpt>
<trkpt lat="46.05006" lon="11.172327">
<time>2020-11-25T09:54:53Z</time>
</trkpt>
<trkpt lat="46.050079" lon="11.172334">
<time>2020-11-25T09:54:54Z</time>
</trkpt>
<trkpt lat="46.050085" lon="11.172336">
<time>2020-11-25T09:54:55Z</time>
</trkpt>
<trkpt lat="46.050093" lon="11.172336">
<time>2020-11-25T09:54:56Z</time>
</trkpt>
<trkpt lat="46.050091" lon="11.17234">
<time>2020-11-25T09:54:57Z</time>
</trkpt>
<trkpt lat="46.050096" lon="11.17234">
<time>2020-11-25T09:54:58Z</time>
</trkpt>
<trkpt lat="46.0501" lon="11.17234">
<time>2020-11-25T09:54:59Z</time>
</trkpt>
<trkpt lat="46.050114" lon="11.172336">
<time>2020-11-25T09:55:00Z</time>
</trkpt>
<trkpt lat="46.050118" lon="11.172336">
<time>2020-11-25T09:55:01Z</time>
</trkpt>
<trkpt lat="46.050127" lon="11.172344">
<time>2020-11-25T09:55:02Z</time>
</trkpt>
<trkpt lat="46.050136" lon="11.172341">
<time>2020-11-25T09:55:03Z</time>
</trkpt>
<trkpt lat="46.05014" lon="11.172338">
<time>2020-11-25T09:55:04Z</time>
</trkpt>
<trkpt lat="46.05014" lon="11.172338">
<time>2020-11-25T09:55:05Z</time>
</trkpt>
<trkpt lat="46.050142" lon="11.172334">
<time>2020-11-25T09:55:06Z</time>
</trkpt>
<trkpt lat="46.050139" lon="11.172332">
<time>2020-11-25T09:55:07Z</time>
</trkpt>
<trkpt lat="46.050138" lon="11.172329">
<time>2020-11-25T09:55:08Z</time>
</trkpt>
<trkpt lat="46.05014" lon="11.172326">
<time>2020-11-25T09:55:09Z</time>
</trkpt>
<trkpt lat="46.050145" lon="11.172323">
<time>2020-11-25T09:55:10Z</time>
</trkpt>
<trkpt lat="46.05015" lon="11.172316">
<time>2020-11-25T09:55:11Z</time>
</trkpt>
<trkpt lat="46.050145" lon="11.172301">
<time>2020-11-25T09:55:12Z</time>
</trkpt>
<trkpt lat="46.050146" lon="11.17229">
<time>2020-11-25T09:55:13Z</time>
</trkpt>
<trkpt lat="46.050157" lon="11.172287">
<time>2020-11-25T09:55:14Z</time>
</trkpt>
<trkpt lat="46.05017" lon="11.172286">
<time>2020-11-25T09:55:15Z</time>
</trkpt>
<trkpt lat="46.050181" lon="11.172284">
<time>2020-11-25T09:55:16Z</time>
</trkpt>
<trkpt lat="46.050198" lon="11.172283">
<time>2020-11-25T09:55:17Z</time>
</trkpt>
<trkpt lat="46.05021" lon="11.172288">
<time>2020-11-25T09:55:18Z</time>
</trkpt>
<trkpt lat="46.050212" lon="11.172296">
<time>2020-11-25T09:55:19Z</time>
</trkpt>
<trkpt lat="46.05021" lon="11.172302">
<time>2020-11-25T09:55:20Z</time>
</trkpt>
<trkpt lat="46.050221" lon="11.172314">
<time>2020-11-25T09:55:21Z</time>
</trkpt>
<trkpt lat="46.050235" lon="11.172331">
<time>2020-11-25T09:55:22Z</time>
</trkpt>
<trkpt lat="46.050244" lon="11.172343">
<time>2020-11-25T09:55:23Z</time>
</trkpt>
<trkpt lat="46.050246" lon="11.172347">
<time>2020-11-25T09:55:24Z</time>
</trkpt>
<trkpt lat="46.050248" lon="11.172357">
<time>2020-11-25T09:55:25Z</time>
</trkpt>
<trkpt lat="46.050249" lon="11.17237">
<time>2020-11-25T09:55:26Z</time>
</trkpt>
<trkpt lat="46.050262" lon="11.172373">
<time>2020-11-25T09:55:27Z</time>
</trkpt>
<trkpt lat="46.050267" lon="11.172379">
<time>2020-11-25T09:55:28Z</time>
</trkpt>
<trkpt lat="46.050271" lon="11.172384">
<time>2020-11-25T09:55:29Z</time>
</trkpt>
<trkpt lat="46.050282" lon="11.172385">
<time>2020-11-25T09:55:30Z</time>
</trkpt>
<trkpt lat="46.05029" lon="11.172382">
<time>2020-11-25T09:55:31Z</time>
</trkpt>
<trkpt lat="46.05029" lon="11.172383">
<time>2020-11-25T09:55:32Z</time>
</trkpt>
<trkpt lat="46.050289" lon="11.172383">
<time>2020-11-25T09:55:33Z</time>
</trkpt>
<trkpt lat="46.050303" lon="11.172375">
<time>2020-11-25T09:55:34Z</time>
</trkpt>
<trkpt lat="46.050304" lon="11.172374">
<time>2020-11-25T09:55:35Z</time>
</trkpt>
<trkpt lat="46.050309" lon="11.17237">
<time>2020-11-25T09:55:36Z</time>
</trkpt>
<trkpt lat="46.05032" lon="11.172369">
<time>2020-11-25T09:55:37Z</time>
</trkpt>
<trkpt lat="46.050335" lon="11.172367">
<time>2020-11-25T09:55:38Z</time>
</trkpt>
<trkpt lat="46.050344" lon="11.172362">
<time>2020-11-25T09:55:39Z</time>
</trkpt>
<trkpt lat="46.050353" lon="11.172354">
<time>2020-11-25T09:55:40Z</time>
</trkpt>
<trkpt lat="46.050365" lon="11.172347">
<time>2020-11-25T09:55:41Z</time>
</trkpt>
<trkpt lat="46.050378" lon="11.17234">
<time>2020-11-25T09:55:42Z</time>
</trkpt>
<trkpt lat="46.050396" lon="11.172338">
<time>2020-11-25T09:55:43Z</time>
</trkpt>
<trkpt lat="46.050413" lon="11.17234">
<time>2020-11-25T09:55:44Z</time>
</trkpt>
<trkpt lat="46.050423" lon="11.172345">
<time>2020-11-25T09:55:45Z</time>
</trkpt>
<trkpt lat="46.050421" lon="11.172357">
<time>2020-11-25T09:55:46Z</time>
</trkpt>
<trkpt lat="46.050429" lon="11.172361">
<time>2020-11-25T09:55:47Z</time>
</trkpt>
<trkpt lat="46.050435" lon="11.172362">
<time>2020-11-25T09:55:48Z</time>
</trkpt>
<trkpt lat="46.050441" lon="11.172363">
<time>2020-11-25T09:55:49Z</time>
</trkpt>
<trkpt lat="46.050448" lon="11.172364">
<time>2020-11-25T09:55:50Z</time>
</trkpt>
<trkpt lat="46.050449" lon="11.172371">
<time>2020-11-25T09:55:51Z</time>
</trkpt>
<trkpt lat="46.050453" lon="11.172374">
<time>2020-11-25T09:55:52Z</time>
</trkpt>
<trkpt lat="46.050465" lon="11.172371">
<time>2020-11-25T09:55:53Z</time>
</trkpt>
<trkpt lat="46.050472" lon="11.172376">
<time>2020-11-25T09:55:54Z</time>
</trkpt>
<trkpt lat="46.050477" lon="11.172385">
<time>2020-11-25T09:55:55Z</time>
</trkpt>
<trkpt lat="46.050484" lon="11.172393">
<time>2020-11-25T09:55:56Z</time>
</trkpt>
<trkpt lat="46.050501" lon="11.172404">
<time>2020-11-25T09:55:57Z</time>
</trkpt>
<trkpt lat="46.050511" lon="11.172415">
<time>2020-11-25T09:55:58Z</time>
</trkpt>
<trkpt lat="46.050514" lon="11.172428">
<time>2020-11-25T09:55:59Z</time>
</trkpt>
<trkpt lat="46.050528" lon="11.172437">
<time>2020-11-25T09:56:00Z</time>
</trkpt>
<trkpt lat="46.050542" lon="11.172443">
<time>2020-11-25T09:56:01Z</time>
</trkpt>
<trkpt lat="46.050552" lon="11.172449">
<time>2020-11-25T09:56:02Z</time>
</trkpt>
<trkpt lat="46.050551" lon="11.172458">
<time>2020-11-25T09:56:03Z</time>
</trkpt>
<trkpt lat="46.050555" lon="11.172461">
<time>2020-11-25T09:56:04Z</time>
</trkpt>
<trkpt lat="46.050558" lon="11.172464">
<time>2020-11-25T09:56:05Z</time>
</trkpt>
<trkpt lat="46.050564" lon="11.172474">
<time>2020-11-25T09:56:06Z</time>
</trkpt>
<trkpt lat="46.050563" lon="11.172492">
<time>2020-11-25T09:56:07Z</time>
</trkpt>
<trkpt lat="46.050564" lon="11.172502">
<time>2020-11-25T09:56:08Z</time>
</trkpt>
<trkpt lat="46.050567" lon="11.17251">
<time>2020-11-25T09:56:09Z</time>
</trkpt>
<trkpt lat="46.05058" lon="11.172516">
<time>2020-11-25T09:56:10Z</time>
</trkpt>
<trkpt lat="46.050592" lon="11.17253">
<time>2020-11-25T09:56:11Z</time>
</trkpt>
<trkpt lat="46.050598" lon="11.172549">
<time>2020-11-25T09:56:12Z</time>
</trkpt>
<trkpt lat="46.050603" lon="11.172561">
<time>2020-11-25T09:56:13Z</time>
</trkpt>
<trkpt lat="46.050603" lon="11.172567">
<time>2020-11-25T09:56:14Z</time>
</trkpt>
<trkpt lat="46.050603" lon="11.172571">
<time>2020-11-25T09:56:15Z</time>
</trkpt>
<trkpt lat="46.050605" lon="11.172576">
<time>2020-11-25T09:56:16Z</time>
</trkpt>
<trkpt lat="46.050608" lon="11.172581">
<time>2020-11-25T09:56:17Z</time>
</trkpt>
<trkpt lat="46.050613" lon="11.172581">
<time>2020-11-25T09:56:18Z</time>
</trkpt>
<trkpt lat="46.050618" lon="11.17258">
<time>2020-11-25T09:56:19Z</time>
</trkpt>
<trkpt lat="46.050624" lon="11.17258">
<time>2020-11-25T09:56:20Z</time>
</trkpt>
<trkpt lat="46.050629" lon="11.172582">
<time>2020-11-25T09:56:21Z</time>
</trkpt>
<trkpt lat="46.050629" lon="11.172585">
<time>2020-11-25T09:56:22Z</time>
</trkpt>
<trkpt lat="46.05063" lon="11.172589">
<time>2020-11-25T09:56:23Z</time>
</trkpt>
<trkpt lat="46.050635" lon="11.172589">
<time>2020-11-25T09:56:24Z</time>
</trkpt>
<trkpt lat="46.050638" lon="11.172589">
<time>2020-11-25T09:56:25Z</time>
</trkpt>
<trkpt lat="46.050641" lon="11.172596">
<time>2020-11-25T09:56:26Z</time>
</trkpt>
<trkpt lat="46.05065" lon="11.172599">
<time>2020-11-25T09:56:27Z</time>
</trkpt>
<trkpt lat="46.050665" lon="11.172603">
<time>2020-11-25T09:56:28Z</time>
</trkpt>
<trkpt lat="46.050672" lon="11.172604">
<time>2020-11-25T09:56:29Z</time>
</trkpt>
<trkpt lat="46.050666" lon="11.172611">
<time>2020-11-25T09:56:30Z</time>
</trkpt>
<trkpt lat="46.050674" lon="11.172611">
<time>2020-11-25T09:56:31Z</time>
</trkpt>
<trkpt lat="46.050677" lon="11.172612">
<time>2020-11-25T09:56:32Z</time>
</trkpt>
<trkpt lat="46.050675" lon="11.172626">
<time>2020-11-25T09:56:33Z</time>
</trkpt>
<trkpt lat="46.050681" lon="11.172632">
<time>2020-11-25T09:56:34Z</time>
</trkpt>
<trkpt lat="46.050688" lon="11.172652">
<time>2020-11-25T09:56:35Z</time>
</trkpt>
<trkpt lat="46.050686" lon="11.172665">
<time>2020-11-25T09:56:36Z</time>
</trkpt>
<trkpt lat="46.050664" lon="11.172691">
<time>2020-11-25T09:56:37Z</time>
</trkpt>
<trkpt lat="46.050656" lon="11.172705">
<time>2020-11-25T09:56:38Z</time>
</trkpt>
<trkpt lat="46.050651" lon="11.172716">
<time>2020-11-25T09:56:39Z</time>
</trkpt>
<trkpt lat="46.050647" lon="11.172724">
<time>2020-11-25T09:56:40Z</time>
</trkpt>
<trkpt lat="46.050647" lon="11.172731">
<time>2020-11-25T09:56:41Z</time>
</trkpt>
<trkpt lat="46.05064" lon="11.172732">
<time>2020-11-25T09:56:42Z</time>
</trkpt>
<trkpt lat="46.050636" lon="11.172733">
<time>2020-11-25T09:56:43Z</time>
</trkpt>
<trkpt lat="46.050633" lon="11.172737">
<time>2020-11-25T09:56:44Z</time>
</trkpt>
<trkpt lat="46.050644" lon="11.172729">
<time>2020-11-25T09:56:45Z</time>
</trkpt>
<trkpt lat="46.050649" lon="11.172715">
<time>2020-11-25T09:56:46Z</time>
</trkpt>
<trkpt lat="46.050656" lon="11.172705">
<time>2020-11-25T09:56:47Z</time>
</trkpt>
<trkpt lat="46.050658" lon="11.172691">
<time>2020-11-25T09:56:48Z</time>
</trkpt>
<trkpt lat="46.050664" lon="11.172678">
<time>2020-11-25T09:56:49Z</time>
</trkpt>
<trkpt lat="46.050666" lon="11.172672">
<time>2020-11-25T09:56:50Z</time>
</trkpt>
<trkpt lat="46.050664" lon="11.172669">
<time>2020-11-25T09:56:51Z</time>
</trkpt>
<trkpt lat="46.050658" lon="11.172672">
<time>2020-11-25T09:56:52Z</time>
</trkpt>
<trkpt lat="46.050659" lon="11.17268">
<time>2020-11-25T09:56:53Z</time>
</trkpt>
<trkpt lat="46.050668" lon="11.172681">
<time>2020-11-25T09:56:54Z</time>
</trkpt>
<trkpt lat="46.050682" lon="11.172687">
<time>2020-11-25T09:56:55Z</time>
</trkpt>
<trkpt lat="46.050693" lon="11.172693">
<time>2020-11-25T09:56:56Z</time>
</trkpt>
<trkpt lat="46.050708" lon="11.172689">
<time>2020-11-25T09:56:57Z</time>
</trkpt>
<trkpt lat="46.050732" lon="11.172684">
<time>2020-11-25T09:56:58Z</time>
</trkpt>
<trkpt lat="46.050758" lon="11.172685">
<time>2020-11-25T09:56:59Z</time>
</trkpt>
<trkpt lat="46.050771" lon="11.172684">
<time>2020-11-25T09:57:00Z</time>
</trkpt>
<trkpt lat="46.050791" lon="11.172675">
<time>2020-11-25T09:57:01Z</time>
</trkpt>
<trkpt lat="46.050806" lon="11.172674">
<time>2020-11-25T09:57:02Z</time>
</trkpt>
<trkpt lat="46.050822" lon="11.172682">
<time>2020-11-25T09:57:03Z</time>
</trkpt>
<trkpt lat="46.050834" lon="11.172686">
<time>2020-11-25T09:57:04Z</time>
</trkpt>
<trkpt lat="46.050846" lon="11.172693">
<time>2020-11-25T09:57:05Z</time>
</trkpt>
<trkpt lat="46.050867" lon="11.172701">
<time>2020-11-25T09:57:06Z</time>
</trkpt>
<trkpt lat="46.050881" lon="11.172706">
<time>2020-11-25T09:57:07Z</time>
</trkpt>
<trkpt lat="46.050899" lon="11.172713">
<time>2020-11-25T09:57:08Z</time>
</trkpt>
<trkpt lat="46.050901" lon="11.172725">
<time>2020-11-25T09:57:09Z</time>
</trkpt>
<trkpt lat="46.050913" lon="11.172724">
<time>2020-11-25T09:57:10Z</time>
</trkpt>
<trkpt lat="46.050921" lon="11.172723">
<time>2020-11-25T09:57:11Z</time>
</trkpt>
<trkpt lat="46.050925" lon="11.172733">
<time>2020-11-25T09:57:12Z</time>
</trkpt>
<trkpt lat="46.050928" lon="11.172743">
<time>2020-11-25T09:57:13Z</time>
</trkpt>
<trkpt lat="46.050926" lon="11.172754">
<time>2020-11-25T09:57:14Z</time>
</trkpt>
<trkpt lat="46.050927" lon="11.172764">
<time>2020-11-25T09:57:15Z</time>
</trkpt>
<trkpt lat="46.050941" lon="11.172763">
<time>2020-11-25T09:57:16Z</time>
</trkpt>
<trkpt lat="46.050968" lon="11.172759">
<time>2020-11-25T09:57:17Z</time>
</trkpt>
<trkpt lat="46.050993" lon="11.172757">
<time>2020-11-25T09:57:18Z</time>
</trkpt>
<trkpt lat="46.050998" lon="11.172767">
<time>2020-11-25T09:57:19Z</time>
</trkpt>
<trkpt lat="46.051015" lon="11.172773">
<time>2020-11-25T09:57:20Z</time>
</trkpt>
<trkpt lat="46.051021" lon="11.17278">
<time>2020-11-25T09:57:21Z</time>
</trkpt>
<trkpt lat="46.051031" lon="11.172786">
<time>2020-11-25T09:57:22Z</time>
</trkpt>
<trkpt lat="46.051043" lon="11.172785">
<time>2020-11-25T09:57:23Z</time>
</trkpt>
<trkpt lat="46.051061" lon="11.172776">
<time>2020-11-25T09:57:24Z</time>
</trkpt>
<trkpt lat="46.051079" lon="11.172773">
<time>2020-11-25T09:57:25Z</time>
</trkpt>
<trkpt lat="46.051078" lon="11.172782">
<time>2020-11-25T09:57:26Z</time>
</trkpt>
<trkpt lat="46.051095" lon="11.17278">
<time>2020-11-25T09:57:27Z</time>
</trkpt>
<trkpt lat="46.051108" lon="11.172779">
<time>2020-11-25T09:57:28Z</time>
</trkpt>
<trkpt lat="46.051118" lon="11.172781">
<time>2020-11-25T09:57:29Z</time>
</trkpt>
<trkpt lat="46.051127" lon="11.172783">
<time>2020-11-25T09:57:30Z</time>
</trkpt>
<trkpt lat="46.051135" lon="11.172789">
<time>2020-11-25T09:57:31Z</time>
</trkpt>
<trkpt lat="46.051152" lon="11.172791">
<time>2020-11-25T09:57:32Z</time>
</trkpt>
<trkpt lat="46.051157" lon="11.172799">
<time>2020-11-25T09:57:33Z</time>
</trkpt>
<trkpt lat="46.051159" lon="11.172808">
<time>2020-11-25T09:57:34Z</time>
</trkpt>
<trkpt lat="46.051171" lon="11.172806">
<time>2020-11-25T09:57:35Z</time>
</trkpt>
<trkpt lat="46.051184" lon="11.172797">
<time>2020-11-25T09:57:36Z</time>
</trkpt>
<trkpt lat="46.051192" lon="11.172796">
<time>2020-11-25T09:57:37Z</time>
</trkpt>
<trkpt lat="46.051213" lon="11.172783">
<time>2020-11-25T09:57:38Z</time>
</trkpt>
<trkpt lat="46.051225" lon="11.172775">
<time>2020-11-25T09:57:39Z</time>
</trkpt>
<trkpt lat="46.051234" lon="11.172768">
<time>2020-11-25T09:57:40Z</time>
</trkpt>
<trkpt lat="46.051247" lon="11.17276">
<time>2020-11-25T09:57:41Z</time>
</trkpt>
<trkpt lat="46.051261" lon="11.172761">
<time>2020-11-25T09:57:42Z</time>
</trkpt>
<trkpt lat="46.051275" lon="11.17276">
<time>2020-11-25T09:57:43Z</time>
</trkpt>
<trkpt lat="46.051293" lon="11.172758">
<time>2020-11-25T09:57:44Z</time>
</trkpt>
<trkpt lat="46.051307" lon="11.172759">
<time>2020-11-25T09:57:45Z</time>
</trkpt>
<trkpt lat="46.051322" lon="11.172763">
<time>2020-11-25T09:57:46Z</time>
</trkpt>
<trkpt lat="46.051334" lon="11.172763">
<time>2020-11-25T09:57:47Z</time>
</trkpt>
<trkpt lat="46.051336" lon="11.17276">
<time>2020-11-25T09:57:48Z</time>
</trkpt>
<trkpt lat="46.051339" lon="11.17276">
<time>2020-11-25T09:57:49Z</time>
</trkpt>
<trkpt lat="46.051353" lon="11.172761">
<time>2020-11-25T09:57:50Z</time>
</trkpt>
<trkpt lat="46.051355" lon="11.172766">
<time>2020-11-25T09:57:51Z</time>
</trkpt>
<trkpt lat="46.051358" lon="11.172767">
<time>2020-11-25T09:57:52Z</time>
</trkpt>
<trkpt lat="46.051361" lon="11.172763">
<time>2020-11-25T09:57:53Z</time>
</trkpt>
<trkpt lat="46.051372" lon="11.172755">
<time>2020-11-25T09:57:54Z</time>
</trkpt>
<trkpt lat="46.051377" lon="11.172747">
<time>2020-11-25T09:57:55Z</time>
</trkpt>
<trkpt lat="46.051398" lon="11.172733">
<time>2020-11-25T09:57:56Z</time>
</trkpt>
<trkpt lat="46.051411" lon="11.172716">
<time>2020-11-25T09:57:57Z</time>
</trkpt>
<trkpt lat="46.051426" lon="11.172702">
<time>2020-11-25T09:57:58Z</time>
</trkpt>
<trkpt lat="46.05144" lon="11.172689">
<time>2020-11-25T09:57:59Z</time>
</trkpt>
<trkpt lat="46.05145" lon="11.172678">
<time>2020-11-25T09:58:00Z</time>
</trkpt>
<trkpt lat="46.051457" lon="11.172671">
<time>2020-11-25T09:58:01Z</time>
</trkpt>
<trkpt lat="46.051466" lon="11.172665">
<time>2020-11-25T09:58:02Z</time>
</trkpt>
<trkpt lat="46.051483" lon="11.172661">
<time>2020-11-25T09:58:03Z</time>
</trkpt>
<trkpt lat="46.051492" lon="11.17266">
<time>2020-11-25T09:58:04Z</time>
</trkpt>
<trkpt lat="46.051492" lon="11.172665">
<time>2020-11-25T09:58:05Z</time>
</trkpt>
<trkpt lat="46.051496" lon="11.172666">
<time>2020-11-25T09:58:06Z</time>
</trkpt>
<trkpt lat="46.051514" lon="11.17266">
<time>2020-11-25T09:58:07Z</time>
</trkpt>
<trkpt lat="46.051531" lon="11.17265">
<time>2020-11-25T09:58:08Z</time>
</trkpt>
<trkpt lat="46.051538" lon="11.172642">
<time>2020-11-25T09:58:09Z</time>
</trkpt>
<trkpt lat="46.051542" lon="11.172638">
<time>2020-11-25T09:58:10Z</time>
</trkpt>
<trkpt lat="46.051548" lon="11.172634">
<time>2020-11-25T09:58:11Z</time>
</trkpt>
<trkpt lat="46.051539" lon="11.172622">
<time>2020-11-25T09:58:12Z</time>
</trkpt>
<trkpt lat="46.051533" lon="11.172621">
<time>2020-11-25T09:58:13Z</time>
</trkpt>
<trkpt lat="46.051533" lon="11.172617">
<time>2020-11-25T09:58:14Z</time>
</trkpt>
<trkpt lat="46.051533" lon="11.172611">
<time>2020-11-25T09:58:15Z</time>
</trkpt>
<trkpt lat="46.05153" lon="11.172607">
<time>2020-11-25T09:58:16Z</time>
</trkpt>
<trkpt lat="46.051533" lon="11.172594">
<time>2020-11-25T09:58:17Z</time>
</trkpt>
<trkpt lat="46.051539" lon="11.172584">
<time>2020-11-25T09:58:18Z</time>
</trkpt>
<trkpt lat="46.051537" lon="11.172574">
<time>2020-11-25T09:58:19Z</time>
</trkpt>
<trkpt lat="46.051543" lon="11.172563">
<time>2020-11-25T09:58:20Z</time>
</trkpt>
<trkpt lat="46.051549" lon="11.172554">
<time>2020-11-25T09:58:21Z</time>
</trkpt>
<trkpt lat="46.051554" lon="11.172547">
<time>2020-11-25T09:58:22Z</time>
</trkpt>
<trkpt lat="46.051552" lon="11.172551">
<time>2020-11-25T09:58:23Z</time>
</trkpt>
<trkpt lat="46.051556" lon="11.172552">
<time>2020-11-25T09:58:24Z</time>
</trkpt>
<trkpt lat="46.051548" lon="11.17255">
<time>2020-11-25T09:58:25Z</time>
</trkpt>
<trkpt lat="46.051522" lon="11.172554">
<time>2020-11-25T09:58:26Z</time>
</trkpt>
<trkpt lat="46.051495" lon="11.172554">
<time>2020-11-25T09:58:27Z</time>
</trkpt>
<trkpt lat="46.051467" lon="11.17256">
<time>2020-11-25T09:58:28Z</time>
</trkpt>
<trkpt lat="46.051448" lon="11.172561">
<time>2020-11-25T09:58:29Z</time>
</trkpt>
<trkpt lat="46.051456" lon="11.172555">
<time>2020-11-25T09:58:30Z</time>
</trkpt>
<trkpt lat="46.051454" lon="11.17255">
<time>2020-11-25T09:58:31Z</time>
</trkpt>
<trkpt lat="46.051455" lon="11.172543">
<time>2020-11-25T09:58:32Z</time>
</trkpt>
<trkpt lat="46.051443" lon="11.172534">
<time>2020-11-25T09:58:33Z</time>
</trkpt>
<trkpt lat="46.051428" lon="11.172525">
<time>2020-11-25T09:58:34Z</time>
</trkpt>
<trkpt lat="46.051426" lon="11.172506">
<time>2020-11-25T09:58:35Z</time>
</trkpt>
<trkpt lat="46.051423" lon="11.172489">
<time>2020-11-25T09:58:36Z</time>
</trkpt>
<trkpt lat="46.051415" lon="11.172478">
<time>2020-11-25T09:58:37Z</time>
</trkpt>
<trkpt lat="46.051413" lon="11.17247">
<time>2020-11-25T09:58:38Z</time>
</trkpt>
<trkpt lat="46.051416" lon="11.172459">
<time>2020-11-25T09:58:39Z</time>
</trkpt>
<trkpt lat="46.051418" lon="11.172448">
<time>2020-11-25T09:58:40Z</time>
</trkpt>
<trkpt lat="46.051421" lon="11.172439">
<time>2020-11-25T09:58:41Z</time>
</trkpt>
<trkpt lat="46.051422" lon="11.172433">
<time>2020-11-25T09:58:42Z</time>
</trkpt>
<trkpt lat="46.051423" lon="11.17243">
<time>2020-11-25T09:58:43Z</time>
</trkpt>
<trkpt lat="46.051429" lon="11.172426">
<time>2020-11-25T09:58:44Z</time>
</trkpt>
<trkpt lat="46.051433" lon="11.172422">
<time>2020-11-25T09:58:45Z</time>
</trkpt>
<trkpt lat="46.051443" lon="11.172411">
<time>2020-11-25T09:58:46Z</time>
</trkpt>
<trkpt lat="46.051456" lon="11.172401">
<time>2020-11-25T09:58:47Z</time>
</trkpt>
<trkpt lat="46.051473" lon="11.172386">
<time>2020-11-25T09:58:48Z</time>
</trkpt>
<trkpt lat="46.051479" lon="11.172377">
<time>2020-11-25T09:58:49Z</time>
</trkpt>
<trkpt lat="46.051488" lon="11.172372">
<time>2020-11-25T09:58:50Z</time>
</trkpt>
<trkpt lat="46.051488" lon="11.172372">
<time>2020-11-25T09:58:51Z</time>
</trkpt>
<trkpt lat="46.051491" lon="11.172375">
<time>2020-11-25T09:58:52Z</time>
</trkpt>
<trkpt lat="46.051489" lon="11.172375">
<time>2020-11-25T09:58:53Z</time>
</trkpt>
<trkpt lat="46.051483" lon="11.172374">
<time>2020-11-25T09:58:54Z</time>
</trkpt>
<trkpt lat="46.051476" lon="11.172371">
<time>2020-11-25T09:58:55Z</time>
</trkpt>
<trkpt lat="46.05147" lon="11.172367">
<time>2020-11-25T09:58:56Z</time>
</trkpt>
<trkpt lat="46.051467" lon="11.172362">
<time>2020-11-25T09:58:57Z</time>
</trkpt>
<trkpt lat="46.051462" lon="11.172357">
<time>2020-11-25T09:58:58Z</time>
</trkpt>
<trkpt lat="46.05145" lon="11.172352">
<time>2020-11-25T09:58:59Z</time>
</trkpt>
<trkpt lat="46.051434" lon="11.172348">
<time>2020-11-25T09:59:00Z</time>
</trkpt>
<trkpt lat="46.051433" lon="11.172343">
<time>2020-11-25T09:59:01Z</time>
</trkpt>
<trkpt lat="46.051436" lon="11.172336">
<time>2020-11-25T09:59:02Z</time>
</trkpt>
<trkpt lat="46.051435" lon="11.172329">
<time>2020-11-25T09:59:03Z</time>
</trkpt>
<trkpt lat="46.051433" lon="11.172322">
<time>2020-11-25T09:59:04Z</time>
</trkpt>
<trkpt lat="46.051429" lon="11.172313">
<time>2020-11-25T09:59:05Z</time>
</trkpt>
<trkpt lat="46.051421" lon="11.172306">
<time>2020-11-25T09:59:06Z</time>
</trkpt>
<trkpt lat="46.051413" lon="11.172301">
<time>2020-11-25T09:59:07Z</time>
</trkpt>
<trkpt lat="46.051392" lon="11.172296">
<time>2020-11-25T09:59:08Z</time>
</trkpt>
<trkpt lat="46.051375" lon="11.172296">
<time>2020-11-25T09:59:09Z</time>
</trkpt>
<trkpt lat="46.051363" lon="11.172291">
<time>2020-11-25T09:59:10Z</time>
</trkpt>
<trkpt lat="46.051362" lon="11.172285">
<time>2020-11-25T09:59:11Z</time>
</trkpt>
<trkpt lat="46.051357" lon="11.172278">
<time>2020-11-25T09:59:12Z</time>
</trkpt>
<trkpt lat="46.051351" lon="11.172273">
<time>2020-11-25T09:59:13Z</time>
</trkpt>
<trkpt lat="46.051345" lon="11.172265">
<time>2020-11-25T09:59:14Z</time>
</trkpt>
<trkpt lat="46.051343" lon="11.172257">
<time>2020-11-25T09:59:15Z</time>
</trkpt>
<trkpt lat="46.051341" lon="11.172249">
<time>2020-11-25T09:59:16Z</time>
</trkpt>
<trkpt lat="46.051338" lon="11.172242">
<time>2020-11-25T09:59:17Z</time>
</trkpt>
<trkpt lat="46.051337" lon="11.172236">
<time>2020-11-25T09:59:18Z</time>
</trkpt>
<trkpt lat="46.051332" lon="11.172231">
<time>2020-11-25T09:59:19Z</time>
</trkpt>
<trkpt lat="46.051335" lon="11.172224">
<time>2020-11-25T09:59:20Z</time>
</trkpt>
<trkpt lat="46.051337" lon="11.172219">
<time>2020-11-25T09:59:21Z</time>
</trkpt>
<trkpt lat="46.051331" lon="11.172212">
<time>2020-11-25T09:59:22Z</time>
</trkpt>
<trkpt lat="46.051328" lon="11.172208">
<time>2020-11-25T09:59:23Z</time>
</trkpt>
<trkpt lat="46.051314" lon="11.172208">
<time>2020-11-25T09:59:24Z</time>
</trkpt>
<trkpt lat="46.051303" lon="11.172204">
<time>2020-11-25T09:59:25Z</time>
</trkpt>
<trkpt lat="46.051203" lon="11.172198">
<time>2020-11-25T09:59:26Z</time>
</trkpt>
<trkpt lat="46.051177" lon="11.172192">
<time>2020-11-25T09:59:27Z</time>
</trkpt>
<trkpt lat="46.051145" lon="11.172182">
<time>2020-11-25T09:59:28Z</time>
</trkpt>
<trkpt lat="46.051138" lon="11.172179">
<time>2020-11-25T09:59:29Z</time>
</trkpt>
<trkpt lat="46.051117" lon="11.172175">
<time>2020-11-25T09:59:30Z</time>
</trkpt>
<trkpt lat="46.051112" lon="11.172164">
<time>2020-11-25T09:59:31Z</time>
</trkpt>
<trkpt lat="46.051107" lon="11.172152">
<time>2020-11-25T09:59:32Z</time>
</trkpt>
<trkpt lat="46.051093" lon="11.172144">
<time>2020-11-25T09:59:33Z</time>
</trkpt>
<trkpt lat="46.051088" lon="11.172136">
<time>2020-11-25T09:59:34Z</time>
</trkpt>
<trkpt lat="46.051083" lon="11.172123">
<time>2020-11-25T09:59:35Z</time>
</trkpt>
<trkpt lat="46.051079" lon="11.172111">
<time>2020-11-25T09:59:36Z</time>
</trkpt>
<trkpt lat="46.051079" lon="11.172091">
<time>2020-11-25T09:59:37Z</time>
</trkpt>
<trkpt lat="46.051074" lon="11.172078">
<time>2020-11-25T09:59:38Z</time>
</trkpt>
<trkpt lat="46.051074" lon="11.172062">
<time>2020-11-25T09:59:39Z</time>
</trkpt>
<trkpt lat="46.051074" lon="11.172042">
<time>2020-11-25T09:59:40Z</time>
</trkpt>
<trkpt lat="46.051073" lon="11.172026">
<time>2020-11-25T09:59:41Z</time>
</trkpt>
<trkpt lat="46.05107" lon="11.172013">
<time>2020-11-25T09:59:42Z</time>
</trkpt>
<trkpt lat="46.051069" lon="11.172005">
<time>2020-11-25T09:59:43Z</time>
</trkpt>
<trkpt lat="46.051071" lon="11.171998">
<time>2020-11-25T09:59:44Z</time>
</trkpt>
<trkpt lat="46.051074" lon="11.171989">
<time>2020-11-25T09:59:45Z</time>
</trkpt>
<trkpt lat="46.051085" lon="11.171978">
<time>2020-11-25T09:59:46Z</time>
</trkpt>
<trkpt lat="46.051099" lon="11.171967">
<time>2020-11-25T09:59:47Z</time>
</trkpt>
<trkpt lat="46.051112" lon="11.17196">
<time>2020-11-25T09:59:48Z</time>
</trkpt>
<trkpt lat="46.051126" lon="11.171956">
<time>2020-11-25T09:59:49Z</time>
</trkpt>
<trkpt lat="46.051132" lon="11.17195">
<time>2020-11-25T09:59:50Z</time>
</trkpt>
<trkpt lat="46.051137" lon="11.171946">
<time>2020-11-25T09:59:51Z</time>
</trkpt>
<trkpt lat="46.051141" lon="11.171939">
<time>2020-11-25T09:59:52Z</time>
</trkpt>
<trkpt lat="46.051143" lon="11.17193">
<time>2020-11-25T09:59:53Z</time>
</trkpt>
<trkpt lat="46.051151" lon="11.171921">
<time>2020-11-25T09:59:54Z</time>
</trkpt>
<trkpt lat="46.051151" lon="11.171911">
<time>2020-11-25T09:59:55Z</time>
</trkpt>
<trkpt lat="46.051149" lon="11.171905">
<time>2020-11-25T09:59:56Z</time>
</trkpt>
<trkpt lat="46.051149" lon="11.171902">
<time>2020-11-25T09:59:57Z</time>
</trkpt>
<trkpt lat="46.051152" lon="11.171897">
<time>2020-11-25T09:59:58Z</time>
</trkpt>
<trkpt lat="46.051155" lon="11.171891">
<time>2020-11-25T09:59:59Z</time>
</trkpt>
<trkpt lat="46.051159" lon="11.171888">
<time>2020-11-25T10:00:00Z</time>
</trkpt>
<trkpt lat="46.051163" lon="11.171888">
<time>2020-11-25T10:00:01Z</time>
</trkpt>
<trkpt lat="46.051171" lon="11.171884">
<time>2020-11-25T10:00:02Z</time>
</trkpt>
<trkpt lat="46.051175" lon="11.171879">
<time>2020-11-25T10:00:03Z</time>
</trkpt>
<trkpt lat="46.051174" lon="11.17188">
<time>2020-11-25T10:00:04Z</time>
</trkpt>
<trkpt lat="46.051173" lon="11.171881">
<time>2020-11-25T10:00:05Z</time>
</trkpt>
<trkpt lat="46.051171" lon="11.171883">
<time>2020-11-25T10:00:06Z</time>
</trkpt>
<trkpt lat="46.051169" lon="11.171883">
<time>2020-11-25T10:00:07Z</time>
</trkpt>
<trkpt lat="46.051167" lon="11.171884">
<time>2020-11-25T10:00:08Z</time>
</trkpt>
<trkpt lat="46.051165" lon="11.171885">
<time>2020-11-25T10:00:09Z</time>
</trkpt>
<trkpt lat="46.051162" lon="11.171889">
<time>2020-11-25T10:00:10Z</time>
</trkpt>
<trkpt lat="46.051157" lon="11.171896">
<time>2020-11-25T10:00:11Z</time>
</trkpt>
<trkpt lat="46.051155" lon="11.171901">
<time>2020-11-25T10:00:12Z</time>
</trkpt>
<trkpt lat="46.051156" lon="11.171903">
<time>2020-11-25T10:00:13Z</time>
</trkpt>
<trkpt lat="46.051155" lon="11.171904">
<time>2020-11-25T10:00:14Z</time>
</trkpt>
<trkpt lat="46.051156" lon="11.171903">
<time>2020-11-25T10:00:15Z</time>
</trkpt>
<trkpt lat="46.051155" lon="11.171903">
<time>2020-11-25T10:00:16Z</time>
</trkpt>
<trkpt lat="46.051155" lon="11.171904">
<time>2020-11-25T10:00:17Z</time>
</trkpt>
<trkpt lat="46.051157" lon="11.171904">
<time>2020-11-25T10:00:18Z</time>
</trkpt>
<trkpt lat="46.051153" lon="11.171904">
<time>2020-11-25T10:00:19Z</time>
</trkpt>
<trkpt lat="46.051147" lon="11.171903">
<time>2020-11-25T10:00:20Z</time>
</trkpt>
<trkpt lat="46.051136" lon="11.171904">
<time>2020-11-25T10:00:21Z</time>
</trkpt>
<trkpt lat="46.051121" lon="11.171906">
<time>2020-11-25T10:00:22Z</time>
</trkpt>
<trkpt lat="46.051114" lon="11.171908">
<time>2020-11-25T10:00:23Z</time>
</trkpt>
<trkpt lat="46.051105" lon="11.17191">
<time>2020-11-25T10:00:24Z</time>
</trkpt>
<trkpt lat="46.051095" lon="11.171907">
<time>2020-11-25T10:00:25Z</time>
</trkpt>
<trkpt lat="46.051079" lon="11.171903">
<time>2020-11-25T10:00:26Z</time>
</trkpt>
<trkpt lat="46.051062" lon="11.171897">
<time>2020-11-25T10:00:27Z</time>
</trkpt>
<trkpt lat="46.051055" lon="11.171894">
<time>2020-11-25T10:00:28Z</time>
</trkpt>
<trkpt lat="46.051046" lon="11.17189">
<time>2020-11-25T10:00:29Z</time>
</trkpt>
<trkpt lat="46.051033" lon="11.171889">
<time>2020-11-25T10:00:30Z</time>
</trkpt>
<trkpt lat="46.051019" lon="11.171887">
<time>2020-11-25T10:00:31Z</time>
</trkpt>
<trkpt lat="46.051008" lon="11.171886">
<time>2020-11-25T10:00:32Z</time>
</trkpt>
<trkpt lat="46.050997" lon="11.171889">
<time>2020-11-25T10:00:33Z</time>
</trkpt>
<trkpt lat="46.050987" lon="11.171891">
<time>2020-11-25T10:00:34Z</time>
</trkpt>
<trkpt lat="46.050966" lon="11.171886">
<time>2020-11-25T10:00:35Z</time>
</trkpt>
<trkpt lat="46.050949" lon="11.171879">
<time>2020-11-25T10:00:36Z</time>
</trkpt>
<trkpt lat="46.050933" lon="11.171871">
<time>2020-11-25T10:00:37Z</time>
</trkpt>
<trkpt lat="46.050913" lon="11.171866">
<time>2020-11-25T10:00:38Z</time>
</trkpt>
<trkpt lat="46.050906" lon="11.171862">
<time>2020-11-25T10:00:39Z</time>
</trkpt>
<trkpt lat="46.050901" lon="11.171856">
<time>2020-11-25T10:00:40Z</time>
</trkpt>
<trkpt lat="46.050899" lon="11.171851">
<time>2020-11-25T10:00:41Z</time>
</trkpt>
<trkpt lat="46.050899" lon="11.171849">
<time>2020-11-25T10:00:42Z</time>
</trkpt>
<trkpt lat="46.0509" lon="11.171846">
<time>2020-11-25T10:00:43Z</time>
</trkpt>
<trkpt lat="46.050898" lon="11.171845">
<time>2020-11-25T10:00:44Z</time>
</trkpt>
<trkpt lat="46.050898" lon="11.171837">
<time>2020-11-25T10:00:45Z</time>
</trkpt>
<trkpt lat="46.050894" lon="11.171835">
<time>2020-11-25T10:00:46Z</time>
</trkpt>
<trkpt lat="46.050885" lon="11.171825">
<time>2020-11-25T10:00:47Z</time>
</trkpt>
<trkpt lat="46.050873" lon="11.171817">
<time>2020-11-25T10:00:48Z</time>
</trkpt>
<trkpt lat="46.05086" lon="11.171812">
<time>2020-11-25T10:00:49Z</time>
</trkpt>
<trkpt lat="46.050856" lon="11.171806">
<time>2020-11-25T10:00:50Z</time>
</trkpt>
<trkpt lat="46.050858" lon="11.171803">
<time>2020-11-25T10:00:51Z</time>
</trkpt>
<trkpt lat="46.050853" lon="11.1718">
<time>2020-11-25T10:00:52Z</time>
</trkpt>
<trkpt lat="46.050849" lon="11.171797">
<time>2020-11-25T10:00:53Z</time>
</trkpt>
<trkpt lat="46.050847" lon="11.171793">
<time>2020-11-25T10:00:54Z</time>
</trkpt>
<trkpt lat="46.050844" lon="11.171793">
<time>2020-11-25T10:00:55Z</time>
</trkpt>
<trkpt lat="46.050845" lon="11.171792">
<time>2020-11-25T10:00:56Z</time>
</trkpt>
<trkpt lat="46.050841" lon="11.171792">
<time>2020-11-25T10:00:57Z</time>
</trkpt>
<trkpt lat="46.05084" lon="11.171789">
<time>2020-11-25T10:00:58Z</time>
</trkpt>
<trkpt lat="46.050823" lon="11.171788">
<time>2020-11-25T10:00:59Z</time>
</trkpt>
<trkpt lat="46.050814" lon="11.171786">
<time>2020-11-25T10:01:00Z</time>
</trkpt>
<trkpt lat="46.050797" lon="11.171785">
<time>2020-11-25T10:01:01Z</time>
</trkpt>
<trkpt lat="46.050792" lon="11.171783">
<time>2020-11-25T10:01:02Z</time>
</trkpt>
<trkpt lat="46.050785" lon="11.171784">
<time>2020-11-25T10:01:03Z</time>
</trkpt>
<trkpt lat="46.05078" lon="11.171786">
<time>2020-11-25T10:01:04Z</time>
</trkpt>
<trkpt lat="46.050787" lon="11.171787">
<time>2020-11-25T10:01:05Z</time>
</trkpt>
<trkpt lat="46.050783" lon="11.171791">
<time>2020-11-25T10:01:06Z</time>
</trkpt>
<trkpt lat="46.050777" lon="11.171794">
<time>2020-11-25T10:01:07Z</time>
</trkpt>
<trkpt lat="46.050777" lon="11.171793">
<time>2020-11-25T10:01:08Z</time>
</trkpt>
<trkpt lat="46.050778" lon="11.171792">
<time>2020-11-25T10:01:09Z</time>
</trkpt>
<trkpt lat="46.050774" lon="11.171789">
<time>2020-11-25T10:01:10Z</time>
</trkpt>
<trkpt lat="46.050763" lon="11.171794">
<time>2020-11-25T10:01:11Z</time>
</trkpt>
<trkpt lat="46.050763" lon="11.171789">
<time>2020-11-25T10:01:12Z</time>
</trkpt>
<trkpt lat="46.050759" lon="11.171786">
<time>2020-11-25T10:01:13Z</time>
</trkpt>
<trkpt lat="46.050757" lon="11.171785">
<time>2020-11-25T10:01:14Z</time>
</trkpt>
<trkpt lat="46.050754" lon="11.171783">
<time>2020-11-25T10:01:15Z</time>
</trkpt>
<trkpt lat="46.050751" lon="11.171781">
<time>2020-11-25T10:01:16Z</time>
</trkpt>
<trkpt lat="46.05074" lon="11.171776">
<time>2020-11-25T10:01:17Z</time>
</trkpt>
<trkpt lat="46.050725" lon="11.171773">
<time>2020-11-25T10:01:18Z</time>
</trkpt>
<trkpt lat="46.050704" lon="11.171768">
<time>2020-11-25T10:01:19Z</time>
</trkpt>
<trkpt lat="46.050686" lon="11.171766">
<time>2020-11-25T10:01:20Z</time>
</trkpt>
<trkpt lat="46.050669" lon="11.171763">
<time>2020-11-25T10:01:21Z</time>
</trkpt>
<trkpt lat="46.050654" lon="11.171761">
<time>2020-11-25T10:01:22Z</time>
</trkpt>
<trkpt lat="46.050636" lon="11.171762">
<time>2020-11-25T10:01:23Z</time>
</trkpt>
<trkpt lat="46.050615" lon="11.171761">
<time>2020-11-25T10:01:24Z</time>
</trkpt>
<trkpt lat="46.050594" lon="11.171756">
<time>2020-11-25T10:01:25Z</time>
</trkpt>
<trkpt lat="46.050569" lon="11.171751">
<time>2020-11-25T10:01:26Z</time>
</trkpt>
<trkpt lat="46.050549" lon="11.171738">
<time>2020-11-25T10:01:27Z</time>
</trkpt>
<trkpt lat="46.050532" lon="11.17172">
<time>2020-11-25T10:01:28Z</time>
</trkpt>
<trkpt lat="46.050519" lon="11.171705">
<time>2020-11-25T10:01:29Z</time>
</trkpt>
<trkpt lat="46.050509" lon="11.171694">
<time>2020-11-25T10:01:30Z</time>
</trkpt>
<trkpt lat="46.050502" lon="11.171687">
<time>2020-11-25T10:01:31Z</time>
</trkpt>
<trkpt lat="46.050494" lon="11.171682">
<time>2020-11-25T10:01:32Z</time>
</trkpt>
<trkpt lat="46.050489" lon="11.171677">
<time>2020-11-25T10:01:33Z</time>
</trkpt>
<trkpt lat="46.050486" lon="11.171671">
<time>2020-11-25T10:01:34Z</time>
</trkpt>
<trkpt lat="46.05048" lon="11.171664">
<time>2020-11-25T10:01:35Z</time>
</trkpt>
<trkpt lat="46.050473" lon="11.171651">
<time>2020-11-25T10:01:36Z</time>
</trkpt>
<trkpt lat="46.050461" lon="11.171633">
<time>2020-11-25T10:01:37Z</time>
</trkpt>
<trkpt lat="46.050454" lon="11.17162">
<time>2020-11-25T10:01:38Z</time>
</trkpt>
<trkpt lat="46.050443" lon="11.171608">
<time>2020-11-25T10:01:39Z</time>
</trkpt>
<trkpt lat="46.050432" lon="11.171595">
<time>2020-11-25T10:01:40Z</time>
</trkpt>
<trkpt lat="46.050426" lon="11.171587">
<time>2020-11-25T10:01:41Z</time>
</trkpt>
<trkpt lat="46.050421" lon="11.171586">
<time>2020-11-25T10:01:42Z</time>
</trkpt>
<trkpt lat="46.050418" lon="11.171584">
<time>2020-11-25T10:01:43Z</time>
</trkpt>
<trkpt lat="46.050418" lon="11.171584">
<time>2020-11-25T10:01:44Z</time>
</trkpt>
<trkpt lat="46.050417" lon="11.171582">
<time>2020-11-25T10:01:45Z</time>
</trkpt>
<trkpt lat="46.050414" lon="11.171577">
<time>2020-11-25T10:01:46Z</time>
</trkpt>
<trkpt lat="46.050406" lon="11.171578">
<time>2020-11-25T10:01:47Z</time>
</trkpt>
<trkpt lat="46.050405" lon="11.171578">
<time>2020-11-25T10:01:48Z</time>
</trkpt>
<trkpt lat="46.050402" lon="11.171575">
<time>2020-11-25T10:01:49Z</time>
</trkpt>
<trkpt lat="46.050401" lon="11.171571">
<time>2020-11-25T10:01:50Z</time>
</trkpt>
<trkpt lat="46.050399" lon="11.171566">
<time>2020-11-25T10:01:51Z</time>
</trkpt>
<trkpt lat="46.050396" lon="11.171563">
<time>2020-11-25T10:01:52Z</time>
</trkpt>
<trkpt lat="46.050393" lon="11.171561">
<time>2020-11-25T10:01:53Z</time>
</trkpt>
<trkpt lat="46.050389" lon="11.171564">
<time>2020-11-25T10:01:54Z</time>
</trkpt>
<trkpt lat="46.050388" lon="11.171566">
<time>2020-11-25T10:01:55Z</time>
</trkpt>
<trkpt lat="46.050384" lon="11.171567">
<time>2020-11-25T10:01:56Z</time>
</trkpt>
<trkpt lat="46.050378" lon="11.171571">
<time>2020-11-25T10:01:57Z</time>
</trkpt>
<trkpt lat="46.050371" lon="11.17158">
<time>2020-11-25T10:01:58Z</time>
</trkpt>
<trkpt lat="46.050365" lon="11.171588">
<time>2020-11-25T10:01:59Z</time>
</trkpt>
<trkpt lat="46.050361" lon="11.171592">
<time>2020-11-25T10:02:00Z</time>
</trkpt>
<trkpt lat="46.050357" lon="11.171594">
<time>2020-11-25T10:02:01Z</time>
</trkpt>
<trkpt lat="46.050352" lon="11.171601">
<time>2020-11-25T10:02:02Z</time>
</trkpt>
<trkpt lat="46.050347" lon="11.171608">
<time>2020-11-25T10:02:03Z</time>
</trkpt>
<trkpt lat="46.050341" lon="11.171615">
<time>2020-11-25T10:02:04Z</time>
</trkpt>
<trkpt lat="46.050336" lon="11.17162">
<time>2020-11-25T10:02:05Z</time>
</trkpt>
<trkpt lat="46.050332" lon="11.171627">
<time>2020-11-25T10:02:06Z</time>
</trkpt>
<trkpt lat="46.050328" lon="11.171632">
<time>2020-11-25T10:02:07Z</time>
</trkpt>
<trkpt lat="46.050325" lon="11.171641">
<time>2020-11-25T10:02:08Z</time>
</trkpt>
<trkpt lat="46.050325" lon="11.171646">
<time>2020-11-25T10:02:09Z</time>
</trkpt>
<trkpt lat="46.050321" lon="11.171653">
<time>2020-11-25T10:02:10Z</time>
</trkpt>
<trkpt lat="46.050316" lon="11.171663">
<time>2020-11-25T10:02:11Z</time>
</trkpt>
<trkpt lat="46.050311" lon="11.171667">
<time>2020-11-25T10:02:12Z</time>
</trkpt>
<trkpt lat="46.050306" lon="11.171672">
<time>2020-11-25T10:02:13Z</time>
</trkpt>
<trkpt lat="46.050299" lon="11.171676">
<time>2020-11-25T10:02:14Z</time>
</trkpt>
<trkpt lat="46.050282" lon="11.171681">
<time>2020-11-25T10:02:15Z</time>
</trkpt>
<trkpt lat="46.05026" lon="11.171683">
<time>2020-11-25T10:02:16Z</time>
</trkpt>
<trkpt lat="46.050249" lon="11.171684">
<time>2020-11-25T10:02:17Z</time>
</trkpt>
<trkpt lat="46.050236" lon="11.171687">
<time>2020-11-25T10:02:18Z</time>
</trkpt>
<trkpt lat="46.050225" lon="11.171687">
<time>2020-11-25T10:02:19Z</time>
</trkpt>
<trkpt lat="46.050218" lon="11.171688">
<time>2020-11-25T10:02:20Z</time>
</trkpt>
<trkpt lat="46.050205" lon="11.17169">
<time>2020-11-25T10:02:21Z</time>
</trkpt>
<trkpt lat="46.050195" lon="11.171688">
<time>2020-11-25T10:02:22Z</time>
</trkpt>
<trkpt lat="46.050183" lon="11.17169">
<time>2020-11-25T10:02:23Z</time>
</trkpt>
<trkpt lat="46.050173" lon="11.171693">
<time>2020-11-25T10:02:24Z</time>
</trkpt>
<trkpt lat="46.050164" lon="11.171696">
<time>2020-11-25T10:02:25Z</time>
</trkpt>
<trkpt lat="46.050156" lon="11.171701">
<time>2020-11-25T10:02:26Z</time>
</trkpt>
<trkpt lat="46.05015" lon="11.171708">
<time>2020-11-25T10:02:27Z</time>
</trkpt>
<trkpt lat="46.050146" lon="11.17171">
<time>2020-11-25T10:02:28Z</time>
</trkpt>
<trkpt lat="46.050142" lon="11.171709">
<time>2020-11-25T10:02:29Z</time>
</trkpt>
<trkpt lat="46.050131" lon="11.171714">
<time>2020-11-25T10:02:30Z</time>
</trkpt>
<trkpt lat="46.050119" lon="11.171716">
<time>2020-11-25T10:02:31Z</time>
</trkpt>
<trkpt lat="46.050108" lon="11.171716">
<time>2020-11-25T10:02:32Z</time>
</trkpt>
<trkpt lat="46.050101" lon="11.171712">
<time>2020-11-25T10:02:33Z</time>
</trkpt>
<trkpt lat="46.050092" lon="11.171707">
<time>2020-11-25T10:02:34Z</time>
</trkpt>
<trkpt lat="46.050083" lon="11.171702">
<time>2020-11-25T10:02:35Z</time>
</trkpt>
<trkpt lat="46.050068" lon="11.171701">
<time>2020-11-25T10:02:36Z</time>
</trkpt>
<trkpt lat="46.050058" lon="11.171694">
<time>2020-11-25T10:02:37Z</time>
</trkpt>
<trkpt lat="46.05005" lon="11.171687">
<time>2020-11-25T10:02:38Z</time>
</trkpt>
<trkpt lat="46.050042" lon="11.171677">
<time>2020-11-25T10:02:39Z</time>
</trkpt>
<trkpt lat="46.050031" lon="11.171669">
<time>2020-11-25T10:02:40Z</time>
</trkpt>
<trkpt lat="46.05002" lon="11.171661">
<time>2020-11-25T10:02:41Z</time>
</trkpt>
<trkpt lat="46.050003" lon="11.171657">
<time>2020-11-25T10:02:42Z</time>
</trkpt>
<trkpt lat="46.049988" lon="11.171653">
<time>2020-11-25T10:02:43Z</time>
</trkpt>
<trkpt lat="46.049977" lon="11.171648">
<time>2020-11-25T10:02:44Z</time>
</trkpt>
<trkpt lat="46.049968" lon="11.171644">
<time>2020-11-25T10:02:45Z</time>
</trkpt>
<trkpt lat="46.049955" lon="11.171642">
<time>2020-11-25T10:02:46Z</time>
</trkpt>
<trkpt lat="46.049947" lon="11.171645">
<time>2020-11-25T10:02:47Z</time>
</trkpt>
<trkpt lat="46.049938" lon="11.171646">
<time>2020-11-25T10:02:48Z</time>
</trkpt>
<trkpt lat="46.04993" lon="11.171649">
<time>2020-11-25T10:02:49Z</time>
</trkpt>
<trkpt lat="46.049926" lon="11.171652">
<time>2020-11-25T10:02:50Z</time>
</trkpt>
<trkpt lat="46.049921" lon="11.171652">
<time>2020-11-25T10:02:51Z</time>
</trkpt>
<trkpt lat="46.049914" lon="11.171659">
<time>2020-11-25T10:02:52Z</time>
</trkpt>
<trkpt lat="46.049907" lon="11.171662">
<time>2020-11-25T10:02:53Z</time>
</trkpt>
<trkpt lat="46.049899" lon="11.171661">
<time>2020-11-25T10:02:54Z</time>
</trkpt>
<trkpt lat="46.04989" lon="11.17166">
<time>2020-11-25T10:02:55Z</time>
</trkpt>
<trkpt lat="46.049873" lon="11.171658">
<time>2020-11-25T10:02:56Z</time>
</trkpt>
<trkpt lat="46.049863" lon="11.171655">
<time>2020-11-25T10:02:57Z</time>
</trkpt>
<trkpt lat="46.049855" lon="11.171652">
<time>2020-11-25T10:02:58Z</time>
</trkpt>
<trkpt lat="46.049848" lon="11.171649">
<time>2020-11-25T10:02:59Z</time>
</trkpt>
<trkpt lat="46.049841" lon="11.171646">
<time>2020-11-25T10:03:00Z</time>
</trkpt>
<trkpt lat="46.049834" lon="11.171645">
<time>2020-11-25T10:03:01Z</time>
</trkpt>
<trkpt lat="46.049832" lon="11.171644">
<time>2020-11-25T10:03:02Z</time>
</trkpt>
<trkpt lat="46.049829" lon="11.171644">
<time>2020-11-25T10:03:03Z</time>
</trkpt>
<trkpt lat="46.049826" lon="11.171644">
<time>2020-11-25T10:03:04Z</time>
</trkpt>
<trkpt lat="46.049821" lon="11.171648">
<time>2020-11-25T10:03:05Z</time>
</trkpt>
<trkpt lat="46.049816" lon="11.171651">
<time>2020-11-25T10:03:06Z</time>
</trkpt>
<trkpt lat="46.049814" lon="11.171654">
<time>2020-11-25T10:03:07Z</time>
</trkpt>
<trkpt lat="46.049813" lon="11.171656">
<time>2020-11-25T10:03:08Z</time>
</trkpt>
<trkpt lat="46.049812" lon="11.17166">
<time>2020-11-25T10:03:09Z</time>
</trkpt>
<trkpt lat="46.049806" lon="11.171665">
<time>2020-11-25T10:03:10Z</time>
</trkpt>
<trkpt lat="46.049798" lon="11.171668">
<time>2020-11-25T10:03:11Z</time>
</trkpt>
<trkpt lat="46.049786" lon="11.171672">
<time>2020-11-25T10:03:12Z</time>
</trkpt>
<trkpt lat="46.049775" lon="11.171676">
<time>2020-11-25T10:03:13Z</time>
</trkpt>
<trkpt lat="46.049766" lon="11.17168">
<time>2020-11-25T10:03:14Z</time>
</trkpt>
<trkpt lat="46.049758" lon="11.171682">
<time>2020-11-25T10:03:15Z</time>
</trkpt>
<trkpt lat="46.04975" lon="11.171684">
<time>2020-11-25T10:03:16Z</time>
</trkpt>
<trkpt lat="46.049741" lon="11.171682">
<time>2020-11-25T10:03:17Z</time>
</trkpt>
<trkpt lat="46.049736" lon="11.171681">
<time>2020-11-25T10:03:18Z</time>
</trkpt>
<trkpt lat="46.049732" lon="11.171678">
<time>2020-11-25T10:03:19Z</time>
</trkpt>
<trkpt lat="46.049729" lon="11.171679">
<time>2020-11-25T10:03:20Z</time>
</trkpt>
<trkpt lat="46.049726" lon="11.171683">
<time>2020-11-25T10:03:21Z</time>
</trkpt>
<trkpt lat="46.04972" lon="11.171676">
<time>2020-11-25T10:03:22Z</time>
</trkpt>
<trkpt lat="46.049714" lon="11.171674">
<time>2020-11-25T10:03:23Z</time>
</trkpt>
<trkpt lat="46.049707" lon="11.171675">
<time>2020-11-25T10:03:24Z</time>
</trkpt>
<trkpt lat="46.0497" lon="11.171673">
<time>2020-11-25T10:03:25Z</time>
</trkpt>
<trkpt lat="46.049692" lon="11.171661">
<time>2020-11-25T10:03:26Z</time>
</trkpt>
<trkpt lat="46.049684" lon="11.17165">
<time>2020-11-25T10:03:27Z</time>
</trkpt>
<trkpt lat="46.049678" lon="11.171646">
<time>2020-11-25T10:03:28Z</time>
</trkpt>
<trkpt lat="46.049671" lon="11.171638">
<time>2020-11-25T10:03:29Z</time>
</trkpt>
<trkpt lat="46.049674" lon="11.171625">
<time>2020-11-25T10:03:30Z</time>
</trkpt>
<trkpt lat="46.049681" lon="11.171615">
<time>2020-11-25T10:03:31Z</time>
</trkpt>
<trkpt lat="46.049685" lon="11.171611">
<time>2020-11-25T10:03:32Z</time>
</trkpt>
<trkpt lat="46.049688" lon="11.171607">
<time>2020-11-25T10:03:33Z</time>
</trkpt>
<trkpt lat="46.049692" lon="11.171605">
<time>2020-11-25T10:03:34Z</time>
</trkpt>
<trkpt lat="46.049694" lon="11.171605">
<time>2020-11-25T10:03:35Z</time>
</trkpt>
<trkpt lat="46.049694" lon="11.171606">
<time>2020-11-25T10:03:36Z</time>
</trkpt>
<trkpt lat="46.049695" lon="11.171605">
<time>2020-11-25T10:03:37Z</time>
</trkpt>
<trkpt lat="46.049694" lon="11.171605">
<time>2020-11-25T10:03:38Z</time>
</trkpt>
<trkpt lat="46.04969" lon="11.171603">
<time>2020-11-25T10:03:39Z</time>
</trkpt>
<trkpt lat="46.04968" lon="11.171602">
<time>2020-11-25T10:03:40Z</time>
</trkpt>
<trkpt lat="46.049672" lon="11.171602">
<time>2020-11-25T10:03:41Z</time>
</trkpt>
<trkpt lat="46.04966" lon="11.171606">
<time>2020-11-25T10:03:42Z</time>
</trkpt>
<trkpt lat="46.049651" lon="11.171607">
<time>2020-11-25T10:03:43Z</time>
</trkpt>
<trkpt lat="46.049645" lon="11.171602">
<time>2020-11-25T10:03:44Z</time>
</trkpt>
<trkpt lat="46.049637" lon="11.171596">
<time>2020-11-25T10:03:45Z</time>
</trkpt>
<trkpt lat="46.049632" lon="11.17159">
<time>2020-11-25T10:03:46Z</time>
</trkpt>
<trkpt lat="46.049629" lon="11.171584">
<time>2020-11-25T10:03:47Z</time>
</trkpt>
<trkpt lat="46.049627" lon="11.171581">
<time>2020-11-25T10:03:48Z</time>
</trkpt>
<trkpt lat="46.049621" lon="11.171577">
<time>2020-11-25T10:03:49Z</time>
</trkpt>
<trkpt lat="46.04962" lon="11.171573">
<time>2020-11-25T10:03:50Z</time>
</trkpt>
<trkpt lat="46.049618" lon="11.171569">
<time>2020-11-25T10:03:51Z</time>
</trkpt>
<trkpt lat="46.049615" lon="11.171569">
<time>2020-11-25T10:03:52Z</time>
</trkpt>
<trkpt lat="46.04961" lon="11.17157">
<time>2020-11-25T10:03:53Z</time>
</trkpt>
<trkpt lat="46.049608" lon="11.17157">
<time>2020-11-25T10:03:54Z</time>
</trkpt>
<trkpt lat="46.049597" lon="11.171572">
<time>2020-11-25T10:03:55Z</time>
</trkpt>
<trkpt lat="46.049591" lon="11.171567">
<time>2020-11-25T10:03:56Z</time>
</trkpt>
<trkpt lat="46.049587" lon="11.171564">
<time>2020-11-25T10:03:57Z</time>
</trkpt>
<trkpt lat="46.049587" lon="11.171558">
<time>2020-11-25T10:03:58Z</time>
</trkpt>
<trkpt lat="46.049587" lon="11.171556">
<time>2020-11-25T10:03:59Z</time>
</trkpt>
<trkpt lat="46.049587" lon="11.171556">
<time>2020-11-25T10:04:00Z</time>
</trkpt>
<trkpt lat="46.049582" lon="11.171556">
<time>2020-11-25T10:04:01Z</time>
</trkpt>
<trkpt lat="46.049581" lon="11.171561">
<time>2020-11-25T10:04:02Z</time>
</trkpt>
<trkpt lat="46.049583" lon="11.171564">
<time>2020-11-25T10:04:03Z</time>
</trkpt>
<trkpt lat="46.049581" lon="11.171566">
<time>2020-11-25T10:04:04Z</time>
</trkpt>
<trkpt lat="46.049576" lon="11.171567">
<time>2020-11-25T10:04:05Z</time>
</trkpt>
<trkpt lat="46.049565" lon="11.171563">
<time>2020-11-25T10:04:06Z</time>
</trkpt>
<trkpt lat="46.04956" lon="11.171561">
<time>2020-11-25T10:04:07Z</time>
</trkpt>
<trkpt lat="46.049555" lon="11.171562">
<time>2020-11-25T10:04:08Z</time>
</trkpt>
<trkpt lat="46.049549" lon="11.171562">
<time>2020-11-25T10:04:09Z</time>
</trkpt>
<trkpt lat="46.049544" lon="11.171567">
<time>2020-11-25T10:04:10Z</time>
</trkpt>
<trkpt lat="46.049538" lon="11.171569">
<time>2020-11-25T10:04:11Z</time>
</trkpt>
<trkpt lat="46.049535" lon="11.171571">
<time>2020-11-25T10:04:12Z</time>
</trkpt>
<trkpt lat="46.049532" lon="11.171577">
<time>2020-11-25T10:04:13Z</time>
</trkpt>
<trkpt lat="46.049533" lon="11.171585">
<time>2020-11-25T10:04:14Z</time>
</trkpt>
<trkpt lat="46.049528" lon="11.171587">
<time>2020-11-25T10:04:15Z</time>
</trkpt>
<trkpt lat="46.049518" lon="11.171588">
<time>2020-11-25T10:04:16Z</time>
</trkpt>
<trkpt lat="46.049512" lon="11.17159">
<time>2020-11-25T10:04:17Z</time>
</trkpt>
<trkpt lat="46.049501" lon="11.171586">
<time>2020-11-25T10:04:18Z</time>
</trkpt>
<trkpt lat="46.049487" lon="11.171583">
<time>2020-11-25T10:04:19Z</time>
</trkpt>
<trkpt lat="46.049475" lon="11.171589">
<time>2020-11-25T10:04:20Z</time>
</trkpt>
<trkpt lat="46.049462" lon="11.171594">
<time>2020-11-25T10:04:21Z</time>
</trkpt>
<trkpt lat="46.049447" lon="11.171601">
<time>2020-11-25T10:04:22Z</time>
</trkpt>
<trkpt lat="46.049433" lon="11.17161">
<time>2020-11-25T10:04:23Z</time>
</trkpt>
<trkpt lat="46.049422" lon="11.171619">
<time>2020-11-25T10:04:24Z</time>
</trkpt>
<trkpt lat="46.04941" lon="11.171625">
<time>2020-11-25T10:04:25Z</time>
</trkpt>
<trkpt lat="46.049403" lon="11.171631">
<time>2020-11-25T10:04:26Z</time>
</trkpt>
<trkpt lat="46.049397" lon="11.171632">
<time>2020-11-25T10:04:27Z</time>
</trkpt>
<trkpt lat="46.049391" lon="11.171636">
<time>2020-11-25T10:04:28Z</time>
</trkpt>
<trkpt lat="46.049384" lon="11.171637">
<time>2020-11-25T10:04:29Z</time>
</trkpt>
<trkpt lat="46.049378" lon="11.171632">
<time>2020-11-25T10:04:30Z</time>
</trkpt>
<trkpt lat="46.049373" lon="11.171634">
<time>2020-11-25T10:04:31Z</time>
</trkpt>
<trkpt lat="46.049369" lon="11.171635">
<time>2020-11-25T10:04:32Z</time>
</trkpt>
<trkpt lat="46.04936" lon="11.171641">
<time>2020-11-25T10:04:33Z</time>
</trkpt>
<trkpt lat="46.049354" lon="11.171645">
<time>2020-11-25T10:04:34Z</time>
</trkpt>
<trkpt lat="46.049349" lon="11.171644">
<time>2020-11-25T10:04:35Z</time>
</trkpt>
<trkpt lat="46.049349" lon="11.17164">
<time>2020-11-25T10:04:36Z</time>
</trkpt>
<trkpt lat="46.049352" lon="11.171633">
<time>2020-11-25T10:04:37Z</time>
</trkpt>
<trkpt lat="46.049344" lon="11.171636">
<time>2020-11-25T10:04:38Z</time>
</trkpt>
<trkpt lat="46.049343" lon="11.171633">
<time>2020-11-25T10:04:39Z</time>
</trkpt>
<trkpt lat="46.049341" lon="11.171631">
<time>2020-11-25T10:04:40Z</time>
</trkpt>
<trkpt lat="46.049333" lon="11.171629">
<time>2020-11-25T10:04:41Z</time>
</trkpt>
<trkpt lat="46.049327" lon="11.171622">
<time>2020-11-25T10:04:42Z</time>
</trkpt>
<trkpt lat="46.049323" lon="11.171615">
<time>2020-11-25T10:04:43Z</time>
</trkpt>
<trkpt lat="46.049319" lon="11.171606">
<time>2020-11-25T10:04:44Z</time>
</trkpt>
<trkpt lat="46.049314" lon="11.171598">
<time>2020-11-25T10:04:45Z</time>
</trkpt>
<trkpt lat="46.049305" lon="11.171587">
<time>2020-11-25T10:04:46Z</time>
</trkpt>
<trkpt lat="46.049306" lon="11.171575">
<time>2020-11-25T10:04:47Z</time>
</trkpt>
<trkpt lat="46.049303" lon="11.171565">
<time>2020-11-25T10:04:48Z</time>
</trkpt>
<trkpt lat="46.049304" lon="11.171554">
<time>2020-11-25T10:04:49Z</time>
</trkpt>
<trkpt lat="46.049302" lon="11.171537">
<time>2020-11-25T10:04:50Z</time>
</trkpt>
<trkpt lat="46.049297" lon="11.171504">
<time>2020-11-25T10:04:51Z</time>
</trkpt>
<trkpt lat="46.049295" lon="11.171491">
<time>2020-11-25T10:04:52Z</time>
</trkpt>
<trkpt lat="46.049288" lon="11.171471">
<time>2020-11-25T10:04:53Z</time>
</trkpt>
<trkpt lat="46.049287" lon="11.171461">
<time>2020-11-25T10:04:54Z</time>
</trkpt>
<trkpt lat="46.049276" lon="11.17145">
<time>2020-11-25T10:04:55Z</time>
</trkpt>
<trkpt lat="46.049274" lon="11.171434">
<time>2020-11-25T10:04:56Z</time>
</trkpt>
<trkpt lat="46.04927" lon="11.171424">
<time>2020-11-25T10:04:57Z</time>
</trkpt>
<trkpt lat="46.049268" lon="11.171419">
<time>2020-11-25T10:04:58Z</time>
</trkpt>
<trkpt lat="46.049261" lon="11.171417">
<time>2020-11-25T10:04:59Z</time>
</trkpt>
<trkpt lat="46.049253" lon="11.171416">
<time>2020-11-25T10:05:00Z</time>
</trkpt>
<trkpt lat="46.049245" lon="11.17141">
<time>2020-11-25T10:05:01Z</time>
</trkpt>
<trkpt lat="46.049237" lon="11.171409">
<time>2020-11-25T10:05:02Z</time>
</trkpt>
<trkpt lat="46.049231" lon="11.171407">
<time>2020-11-25T10:05:03Z</time>
</trkpt>
<trkpt lat="46.049227" lon="11.17141">
<time>2020-11-25T10:05:04Z</time>
</trkpt>
<trkpt lat="46.049221" lon="11.171411">
<time>2020-11-25T10:05:05Z</time>
</trkpt>
<trkpt lat="46.049213" lon="11.171414">
<time>2020-11-25T10:05:06Z</time>
</trkpt>
<trkpt lat="46.049205" lon="11.171415">
<time>2020-11-25T10:05:07Z</time>
</trkpt>
<trkpt lat="46.049197" lon="11.171414">
<time>2020-11-25T10:05:08Z</time>
</trkpt>
<trkpt lat="46.049186" lon="11.171411">
<time>2020-11-25T10:05:09Z</time>
</trkpt>
<trkpt lat="46.049174" lon="11.17141">
<time>2020-11-25T10:05:10Z</time>
</trkpt>
<trkpt lat="46.049163" lon="11.171408">
<time>2020-11-25T10:05:11Z</time>
</trkpt>
<trkpt lat="46.049153" lon="11.171411">
<time>2020-11-25T10:05:12Z</time>
</trkpt>
<trkpt lat="46.049143" lon="11.171414">
<time>2020-11-25T10:05:13Z</time>
</trkpt>
<trkpt lat="46.049134" lon="11.171418">
<time>2020-11-25T10:05:14Z</time>
</trkpt>
<trkpt lat="46.04913" lon="11.171417">
<time>2020-11-25T10:05:15Z</time>
</trkpt>
<trkpt lat="46.049129" lon="11.171413">
<time>2020-11-25T10:05:16Z</time>
</trkpt>
<trkpt lat="46.049128" lon="11.171413">
<time>2020-11-25T10:05:17Z</time>
</trkpt>
<trkpt lat="46.049127" lon="11.171402">
<time>2020-11-25T10:05:18Z</time>
</trkpt>
<trkpt lat="46.049126" lon="11.171393">
<time>2020-11-25T10:05:19Z</time>
</trkpt>
<trkpt lat="46.04913" lon="11.171384">
<time>2020-11-25T10:05:20Z</time>
</trkpt>
<trkpt lat="46.049134" lon="11.171379">
<time>2020-11-25T10:05:21Z</time>
</trkpt>
<trkpt lat="46.049138" lon="11.171376">
<time>2020-11-25T10:05:22Z</time>
</trkpt>
<trkpt lat="46.049138" lon="11.171371">
<time>2020-11-25T10:05:23Z</time>
</trkpt>
<trkpt lat="46.049146" lon="11.171362">
<time>2020-11-25T10:05:24Z</time>
</trkpt>
<trkpt lat="46.049148" lon="11.171354">
<time>2020-11-25T10:05:25Z</time>
</trkpt>
<trkpt lat="46.049148" lon="11.171343">
<time>2020-11-25T10:05:26Z</time>
</trkpt>
<trkpt lat="46.049142" lon="11.171336">
<time>2020-11-25T10:05:27Z</time>
</trkpt>
<trkpt lat="46.049131" lon="11.171329">
<time>2020-11-25T10:05:28Z</time>
</trkpt>
<trkpt lat="46.049128" lon="11.171316">
<time>2020-11-25T10:05:29Z</time>
</trkpt>
<trkpt lat="46.049124" lon="11.171306">
<time>2020-11-25T10:05:30Z</time>
</trkpt>
<trkpt lat="46.049127" lon="11.171284">
<time>2020-11-25T10:05:31Z</time>
</trkpt>
<trkpt lat="46.0491" lon="11.171265">
<time>2020-11-25T10:05:32Z</time>
</trkpt>
<trkpt lat="46.049087" lon="11.171238">
<time>2020-11-25T10:05:33Z</time>
</trkpt>
<trkpt lat="46.049082" lon="11.171213">
<time>2020-11-25T10:05:34Z</time>
</trkpt>
<trkpt lat="46.049079" lon="11.171188">
<time>2020-11-25T10:05:35Z</time>
</trkpt>
<trkpt lat="46.049072" lon="11.171165">
<time>2020-11-25T10:05:36Z</time>
</trkpt>
<trkpt lat="46.049064" lon="11.17115">
<time>2020-11-25T10:05:37Z</time>
</trkpt>
<trkpt lat="46.049059" lon="11.171138">
<time>2020-11-25T10:05:38Z</time>
</trkpt>
<trkpt lat="46.049053" lon="11.171132">
<time>2020-11-25T10:05:39Z</time>
</trkpt>
<trkpt lat="46.049048" lon="11.171123">
<time>2020-11-25T10:05:40Z</time>
</trkpt>
<trkpt lat="46.049047" lon="11.171117">
<time>2020-11-25T10:05:41Z</time>
</trkpt>
<trkpt lat="46.049045" lon="11.171109">
<time>2020-11-25T10:05:42Z</time>
</trkpt>
<trkpt lat="46.049039" lon="11.171099">
<time>2020-11-25T10:05:43Z</time>
</trkpt>
<trkpt lat="46.049033" lon="11.171088">
<time>2020-11-25T10:05:44Z</time>
</trkpt>
<trkpt lat="46.049032" lon="11.171064">
<time>2020-11-25T10:05:45Z</time>
</trkpt>
<trkpt lat="46.049026" lon="11.171042">
<time>2020-11-25T10:05:46Z</time>
</trkpt>
<trkpt lat="46.04902" lon="11.171019">
<time>2020-11-25T10:05:47Z</time>
</trkpt>
<trkpt lat="46.04901" lon="11.170992">
<time>2020-11-25T10:05:48Z</time>
</trkpt>
<trkpt lat="46.04901" lon="11.170962">
<time>2020-11-25T10:05:49Z</time>
</trkpt>
<trkpt lat="46.049014" lon="11.170932">
<time>2020-11-25T10:05:50Z</time>
</trkpt>
<trkpt lat="46.049016" lon="11.170904">
<time>2020-11-25T10:05:51Z</time>
</trkpt>
<trkpt lat="46.049021" lon="11.170877">
<time>2020-11-25T10:05:52Z</time>
</trkpt>
<trkpt lat="46.049024" lon="11.170852">
<time>2020-11-25T10:05:53Z</time>
</trkpt>
<trkpt lat="46.049031" lon="11.170825">
<time>2020-11-25T10:05:54Z</time>
</trkpt>
<trkpt lat="46.049042" lon="11.170787">
<time>2020-11-25T10:05:55Z</time>
</trkpt>
<trkpt lat="46.049048" lon="11.170757">
<time>2020-11-25T10:05:56Z</time>
</trkpt>
<trkpt lat="46.049052" lon="11.170725">
<time>2020-11-25T10:05:57Z</time>
</trkpt>
<trkpt lat="46.04905" lon="11.170695">
<time>2020-11-25T10:05:58Z</time>
</trkpt>
<trkpt lat="46.049049" lon="11.170671">
<time>2020-11-25T10:05:59Z</time>
</trkpt>
<trkpt lat="46.049048" lon="11.170649">
<time>2020-11-25T10:06:00Z</time>
</trkpt>
<trkpt lat="46.049045" lon="11.170627">
<time>2020-11-25T10:06:01Z</time>
</trkpt>
<trkpt lat="46.049046" lon="11.170604">
<time>2020-11-25T10:06:02Z</time>
</trkpt>
<trkpt lat="46.049046" lon="11.170583">
<time>2020-11-25T10:06:03Z</time>
</trkpt>
<trkpt lat="46.049046" lon="11.170561">
<time>2020-11-25T10:06:04Z</time>
</trkpt>
<trkpt lat="46.049054" lon="11.170537">
<time>2020-11-25T10:06:05Z</time>
</trkpt>
<trkpt lat="46.049064" lon="11.170512">
<time>2020-11-25T10:06:06Z</time>
</trkpt>
<trkpt lat="46.049072" lon="11.170487">
<time>2020-11-25T10:06:07Z</time>
</trkpt>
<trkpt lat="46.049079" lon="11.170464">
<time>2020-11-25T10:06:08Z</time>
</trkpt>
<trkpt lat="46.049084" lon="11.170446">
<time>2020-11-25T10:06:09Z</time>
</trkpt>
<trkpt lat="46.049088" lon="11.170431">
<time>2020-11-25T10:06:10Z</time>
</trkpt>
<trkpt lat="46.049093" lon="11.170409">
<time>2020-11-25T10:06:11Z</time>
</trkpt>
<trkpt lat="46.049093" lon="11.170385">
<time>2020-11-25T10:06:12Z</time>
</trkpt>
<trkpt lat="46.04909" lon="11.170362">
<time>2020-11-25T10:06:13Z</time>
</trkpt>
<trkpt lat="46.049087" lon="11.170337">
<time>2020-11-25T10:06:14Z</time>
</trkpt>
<trkpt lat="46.049079" lon="11.170304">
<time>2020-11-25T10:06:15Z</time>
</trkpt>
<trkpt lat="46.049065" lon="11.170275">
<time>2020-11-25T10:06:16Z</time>
</trkpt>
<trkpt lat="46.049057" lon="11.170244">
<time>2020-11-25T10:06:17Z</time>
</trkpt>
<trkpt lat="46.049049" lon="11.170209">
<time>2020-11-25T10:06:18Z</time>
</trkpt>
<trkpt lat="46.049044" lon="11.170174">
<time>2020-11-25T10:06:19Z</time>
</trkpt>
<trkpt lat="46.04904" lon="11.170146">
<time>2020-11-25T10:06:20Z</time>
</trkpt>
<trkpt lat="46.049034" lon="11.170121">
<time>2020-11-25T10:06:21Z</time>
</trkpt>
<trkpt lat="46.049032" lon="11.170097">
<time>2020-11-25T10:06:22Z</time>
</trkpt>
<trkpt lat="46.04903" lon="11.170073">
<time>2020-11-25T10:06:23Z</time>
</trkpt>
<trkpt lat="46.049029" lon="11.170046">
<time>2020-11-25T10:06:24Z</time>
</trkpt>
<trkpt lat="46.049029" lon="11.17002">
<time>2020-11-25T10:06:25Z</time>
</trkpt>
<trkpt lat="46.04903" lon="11.169997">
<time>2020-11-25T10:06:26Z</time>
</trkpt>
<trkpt lat="46.049033" lon="11.169977">
<time>2020-11-25T10:06:27Z</time>
</trkpt>
<trkpt lat="46.049032" lon="11.169955">
<time>2020-11-25T10:06:28Z</time>
</trkpt>
<trkpt lat="46.049037" lon="11.169933">
<time>2020-11-25T10:06:29Z</time>
</trkpt>
<trkpt lat="46.049037" lon="11.169909">
<time>2020-11-25T10:06:30Z</time>
</trkpt>
<trkpt lat="46.049034" lon="11.169889">
<time>2020-11-25T10:06:31Z</time>
</trkpt>
<trkpt lat="46.049033" lon="11.169873">
<time>2020-11-25T10:06:32Z</time>
</trkpt>
<trkpt lat="46.049033" lon="11.169855">
<time>2020-11-25T10:06:33Z</time>
</trkpt>
<trkpt lat="46.04903" lon="11.169842">
<time>2020-11-25T10:06:34Z</time>
</trkpt>
<trkpt lat="46.049019" lon="11.169828">
<time>2020-11-25T10:06:35Z</time>
</trkpt>
<trkpt lat="46.049013" lon="11.16981">
<time>2020-11-25T10:06:36Z</time>
</trkpt>
<trkpt lat="46.048999" lon="11.169787">
<time>2020-11-25T10:06:37Z</time>
</trkpt>
<trkpt lat="46.048983" lon="11.169767">
<time>2020-11-25T10:06:38Z</time>
</trkpt>
<trkpt lat="46.048969" lon="11.169748">
<time>2020-11-25T10:06:39Z</time>
</trkpt>
<trkpt lat="46.048959" lon="11.169724">
<time>2020-11-25T10:06:40Z</time>
</trkpt>
<trkpt lat="46.048949" lon="11.1697">
<time>2020-11-25T10:06:41Z</time>
</trkpt>
<trkpt lat="46.048931" lon="11.169681">
<time>2020-11-25T10:06:42Z</time>
</trkpt>
<trkpt lat="46.04891" lon="11.169661">
<time>2020-11-25T10:06:43Z</time>
</trkpt>
<trkpt lat="46.048886" lon="11.16964">
<time>2020-11-25T10:06:44Z</time>
</trkpt>
<trkpt lat="46.048861" lon="11.169618">
<time>2020-11-25T10:06:45Z</time>
</trkpt>
<trkpt lat="46.048829" lon="11.169595">
<time>2020-11-25T10:06:46Z</time>
</trkpt>
<trkpt lat="46.048796" lon="11.169576">
<time>2020-11-25T10:06:47Z</time>
</trkpt>
<trkpt lat="46.048758" lon="11.169557">
<time>2020-11-25T10:06:48Z</time>
</trkpt>
<trkpt lat="46.048724" lon="11.169532">
<time>2020-11-25T10:06:49Z</time>
</trkpt>
<trkpt lat="46.048687" lon="11.169506">
<time>2020-11-25T10:06:50Z</time>
</trkpt>
<trkpt lat="46.048653" lon="11.169479">
<time>2020-11-25T10:06:51Z</time>
</trkpt>
<trkpt lat="46.048621" lon="11.169454">
<time>2020-11-25T10:06:52Z</time>
</trkpt>
<trkpt lat="46.048581" lon="11.169431">
<time>2020-11-25T10:06:53Z</time>
</trkpt>
<trkpt lat="46.048548" lon="11.16941">
<time>2020-11-25T10:06:54Z</time>
</trkpt>
<trkpt lat="46.048517" lon="11.169383">
<time>2020-11-25T10:06:55Z</time>
</trkpt>
<trkpt lat="46.048486" lon="11.169351">
<time>2020-11-25T10:06:56Z</time>
</trkpt>
<trkpt lat="46.048456" lon="11.169318">
<time>2020-11-25T10:06:57Z</time>
</trkpt>
<trkpt lat="46.048426" lon="11.169286">
<time>2020-11-25T10:06:58Z</time>
</trkpt>
<trkpt lat="46.048397" lon="11.169255">
<time>2020-11-25T10:06:59Z</time>
</trkpt>
<trkpt lat="46.048368" lon="11.169223">
<time>2020-11-25T10:07:00Z</time>
</trkpt>
<trkpt lat="46.048337" lon="11.16919">
<time>2020-11-25T10:07:01Z</time>
</trkpt>
<trkpt lat="46.048307" lon="11.169151">
<time>2020-11-25T10:07:02Z</time>
</trkpt>
<trkpt lat="46.048282" lon="11.16912">
<time>2020-11-25T10:07:03Z</time>
</trkpt>
<trkpt lat="46.048264" lon="11.169086">
<time>2020-11-25T10:07:04Z</time>
</trkpt>
<trkpt lat="46.048247" lon="11.16905">
<time>2020-11-25T10:07:05Z</time>
</trkpt>
<trkpt lat="46.04823" lon="11.169014">
<time>2020-11-25T10:07:06Z</time>
</trkpt>
<trkpt lat="46.04821" lon="11.168972">
<time>2020-11-25T10:07:07Z</time>
</trkpt>
<trkpt lat="46.048197" lon="11.168925">
<time>2020-11-25T10:07:08Z</time>
</trkpt>
<trkpt lat="46.048183" lon="11.16888">
<time>2020-11-25T10:07:09Z</time>
</trkpt>
<trkpt lat="46.048174" lon="11.168837">
<time>2020-11-25T10:07:10Z</time>
</trkpt>
<trkpt lat="46.048164" lon="11.168795">
<time>2020-11-25T10:07:11Z</time>
</trkpt>
<trkpt lat="46.048145" lon="11.168765">
<time>2020-11-25T10:07:12Z</time>
</trkpt>
<trkpt lat="46.048123" lon="11.168735">
<time>2020-11-25T10:07:13Z</time>
</trkpt>
<trkpt lat="46.048098" lon="11.168702">
<time>2020-11-25T10:07:14Z</time>
</trkpt>
<trkpt lat="46.048076" lon="11.168671">
<time>2020-11-25T10:07:15Z</time>
</trkpt>
<trkpt lat="46.048057" lon="11.168642">
<time>2020-11-25T10:07:16Z</time>
</trkpt>
<trkpt lat="46.048043" lon="11.168612">
<time>2020-11-25T10:07:17Z</time>
</trkpt>
<trkpt lat="46.048032" lon="11.168582">
<time>2020-11-25T10:07:18Z</time>
</trkpt>
<trkpt lat="46.048027" lon="11.168545">
<time>2020-11-25T10:07:19Z</time>
</trkpt>
<trkpt lat="46.048019" lon="11.168505">
<time>2020-11-25T10:07:20Z</time>
</trkpt>
<trkpt lat="46.048012" lon="11.168469">
<time>2020-11-25T10:07:21Z</time>
</trkpt>
<trkpt lat="46.048008" lon="11.168429">
<time>2020-11-25T10:07:22Z</time>
</trkpt>
<trkpt lat="46.048005" lon="11.168387">
<time>2020-11-25T10:07:23Z</time>
</trkpt>
<trkpt lat="46.048001" lon="11.168345">
<time>2020-11-25T10:07:24Z</time>
</trkpt>
<trkpt lat="46.048" lon="11.168308">
<time>2020-11-25T10:07:25Z</time>
</trkpt>
<trkpt lat="46.047999" lon="11.168266">
<time>2020-11-25T10:07:26Z</time>
</trkpt>
<trkpt lat="46.047992" lon="11.16822">
<time>2020-11-25T10:07:27Z</time>
</trkpt>
<trkpt lat="46.047986" lon="11.168169">
<time>2020-11-25T10:07:28Z</time>
</trkpt>
<trkpt lat="46.047977" lon="11.168126">
<time>2020-11-25T10:07:29Z</time>
</trkpt>
<trkpt lat="46.047971" lon="11.168086">
<time>2020-11-25T10:07:30Z</time>
</trkpt>
<trkpt lat="46.047966" lon="11.16804">
<time>2020-11-25T10:07:31Z</time>
</trkpt>
<trkpt lat="46.047966" lon="11.167996">
<time>2020-11-25T10:07:32Z</time>
</trkpt>
<trkpt lat="46.047965" lon="11.167948">
<time>2020-11-25T10:07:33Z</time>
</trkpt>
<trkpt lat="46.047951" lon="11.167895">
<time>2020-11-25T10:07:34Z</time>
</trkpt>
<trkpt lat="46.047948" lon="11.167847">
<time>2020-11-25T10:07:35Z</time>
</trkpt>
<trkpt lat="46.047938" lon="11.167802">
<time>2020-11-25T10:07:36Z</time>
</trkpt>
<trkpt lat="46.047937" lon="11.167761">
<time>2020-11-25T10:07:37Z</time>
</trkpt>
<trkpt lat="46.047939" lon="11.167715">
<time>2020-11-25T10:07:38Z</time>
</trkpt>
<trkpt lat="46.047936" lon="11.167671">
<time>2020-11-25T10:07:39Z</time>
</trkpt>
<trkpt lat="46.047937" lon="11.16763">
<time>2020-11-25T10:07:40Z</time>
</trkpt>
<trkpt lat="46.047946" lon="11.167587">
<time>2020-11-25T10:07:41Z</time>
</trkpt>
<trkpt lat="46.04795" lon="11.167543">
<time>2020-11-25T10:07:42Z</time>
</trkpt>
<trkpt lat="46.047958" lon="11.167499">
<time>2020-11-25T10:07:43Z</time>
</trkpt>
<trkpt lat="46.047966" lon="11.167459">
<time>2020-11-25T10:07:44Z</time>
</trkpt>
<trkpt lat="46.047971" lon="11.167419">
<time>2020-11-25T10:07:45Z</time>
</trkpt>
<trkpt lat="46.047976" lon="11.167378">
<time>2020-11-25T10:07:46Z</time>
</trkpt>
<trkpt lat="46.047981" lon="11.167338">
<time>2020-11-25T10:07:47Z</time>
</trkpt>
<trkpt lat="46.047979" lon="11.167294">
<time>2020-11-25T10:07:48Z</time>
</trkpt>
<trkpt lat="46.047985" lon="11.167258">
<time>2020-11-25T10:07:49Z</time>
</trkpt>
<trkpt lat="46.047994" lon="11.167225">
<time>2020-11-25T10:07:50Z</time>
</trkpt>
<trkpt lat="46.048007" lon="11.167185">
<time>2020-11-25T10:07:51Z</time>
</trkpt>
<trkpt lat="46.048022" lon="11.167146">
<time>2020-11-25T10:07:52Z</time>
</trkpt>
<trkpt lat="46.048046" lon="11.16711">
<time>2020-11-25T10:07:53Z</time>
</trkpt>
<trkpt lat="46.048063" lon="11.167079">
<time>2020-11-25T10:07:54Z</time>
</trkpt>
<trkpt lat="46.048074" lon="11.167036">
<time>2020-11-25T10:07:55Z</time>
</trkpt>
<trkpt lat="46.048084" lon="11.166995">
<time>2020-11-25T10:07:56Z</time>
</trkpt>
<trkpt lat="46.048091" lon="11.166959">
<time>2020-11-25T10:07:57Z</time>
</trkpt>
<trkpt lat="46.048098" lon="11.166921">
<time>2020-11-25T10:07:58Z</time>
</trkpt>
<trkpt lat="46.048099" lon="11.166875">
<time>2020-11-25T10:07:59Z</time>
</trkpt>
<trkpt lat="46.0481" lon="11.166836">
<time>2020-11-25T10:08:00Z</time>
</trkpt>
<trkpt lat="46.048109" lon="11.166788">
<time>2020-11-25T10:08:01Z</time>
</trkpt>
<trkpt lat="46.048127" lon="11.166736">
<time>2020-11-25T10:08:02Z</time>
</trkpt>
<trkpt lat="46.048133" lon="11.166692">
<time>2020-11-25T10:08:03Z</time>
</trkpt>
<trkpt lat="46.048142" lon="11.166648">
<time>2020-11-25T10:08:04Z</time>
</trkpt>
<trkpt lat="46.048146" lon="11.16661">
<time>2020-11-25T10:08:05Z</time>
</trkpt>
<trkpt lat="46.048153" lon="11.166573">
<time>2020-11-25T10:08:06Z</time>
</trkpt>
<trkpt lat="46.048155" lon="11.166541">
<time>2020-11-25T10:08:07Z</time>
</trkpt>
<trkpt lat="46.048153" lon="11.166514">
<time>2020-11-25T10:08:08Z</time>
</trkpt>
<trkpt lat="46.048144" lon="11.166487">
<time>2020-11-25T10:08:09Z</time>
</trkpt>
<trkpt lat="46.048145" lon="11.166459">
<time>2020-11-25T10:08:10Z</time>
</trkpt>
<trkpt lat="46.04815" lon="11.166433">
<time>2020-11-25T10:08:11Z</time>
</trkpt>
<trkpt lat="46.04815" lon="11.16641">
<time>2020-11-25T10:08:12Z</time>
</trkpt>
<trkpt lat="46.048149" lon="11.166387">
<time>2020-11-25T10:08:13Z</time>
</trkpt>
<trkpt lat="46.048153" lon="11.166361">
<time>2020-11-25T10:08:14Z</time>
</trkpt>
<trkpt lat="46.048156" lon="11.166336">
<time>2020-11-25T10:08:15Z</time>
</trkpt>
<trkpt lat="46.04816" lon="11.166307">
<time>2020-11-25T10:08:16Z</time>
</trkpt>
<trkpt lat="46.048156" lon="11.166277">
<time>2020-11-25T10:08:17Z</time>
</trkpt>
<trkpt lat="46.048148" lon="11.166253">
<time>2020-11-25T10:08:18Z</time>
</trkpt>
<trkpt lat="46.048136" lon="11.166234">
<time>2020-11-25T10:08:19Z</time>
</trkpt>
<trkpt lat="46.048121" lon="11.166204">
<time>2020-11-25T10:08:20Z</time>
</trkpt>
<trkpt lat="46.048102" lon="11.166174">
<time>2020-11-25T10:08:21Z</time>
</trkpt>
<trkpt lat="46.048092" lon="11.166146">
<time>2020-11-25T10:08:22Z</time>
</trkpt>
<trkpt lat="46.048085" lon="11.166119">
<time>2020-11-25T10:08:23Z</time>
</trkpt>
<trkpt lat="46.048081" lon="11.16609">
<time>2020-11-25T10:08:24Z</time>
</trkpt>
<trkpt lat="46.048083" lon="11.166061">
<time>2020-11-25T10:08:25Z</time>
</trkpt>
<trkpt lat="46.048086" lon="11.166034">
<time>2020-11-25T10:08:26Z</time>
</trkpt>
<trkpt lat="46.048088" lon="11.166004">
<time>2020-11-25T10:08:27Z</time>
</trkpt>
<trkpt lat="46.048089" lon="11.165979">
<time>2020-11-25T10:08:28Z</time>
</trkpt>
<trkpt lat="46.048091" lon="11.165952">
<time>2020-11-25T10:08:29Z</time>
</trkpt>
<trkpt lat="46.048093" lon="11.165923">
<time>2020-11-25T10:08:30Z</time>
</trkpt>
<trkpt lat="46.048096" lon="11.165897">
<time>2020-11-25T10:08:31Z</time>
</trkpt>
<trkpt lat="46.048099" lon="11.165869">
<time>2020-11-25T10:08:32Z</time>
</trkpt>
<trkpt lat="46.048099" lon="11.16584">
<time>2020-11-25T10:08:33Z</time>
</trkpt>
<trkpt lat="46.048102" lon="11.165811">
<time>2020-11-25T10:08:34Z</time>
</trkpt>
<trkpt lat="46.048106" lon="11.165781">
<time>2020-11-25T10:08:35Z</time>
</trkpt>
<trkpt lat="46.048112" lon="11.165753">
<time>2020-11-25T10:08:36Z</time>
</trkpt>
<trkpt lat="46.048119" lon="11.165728">
<time>2020-11-25T10:08:37Z</time>
</trkpt>
<trkpt lat="46.048123" lon="11.165702">
<time>2020-11-25T10:08:38Z</time>
</trkpt>
<trkpt lat="46.048126" lon="11.165674">
<time>2020-11-25T10:08:39Z</time>
</trkpt>
<trkpt lat="46.048133" lon="11.16565">
<time>2020-11-25T10:08:40Z</time>
</trkpt>
<trkpt lat="46.048142" lon="11.165619">
<time>2020-11-25T10:08:41Z</time>
</trkpt>
<trkpt lat="46.048149" lon="11.165583">
<time>2020-11-25T10:08:42Z</time>
</trkpt>
<trkpt lat="46.048155" lon="11.165548">
<time>2020-11-25T10:08:43Z</time>
</trkpt>
<trkpt lat="46.048158" lon="11.165515">
<time>2020-11-25T10:08:44Z</time>
</trkpt>
<trkpt lat="46.048154" lon="11.165472">
<time>2020-11-25T10:08:45Z</time>
</trkpt>
<trkpt lat="46.048154" lon="11.165437">
<time>2020-11-25T10:08:46Z</time>
</trkpt>
<trkpt lat="46.048155" lon="11.165408">
<time>2020-11-25T10:08:47Z</time>
</trkpt>
<trkpt lat="46.048154" lon="11.165373">
<time>2020-11-25T10:08:48Z</time>
</trkpt>
<trkpt lat="46.048151" lon="11.165338">
<time>2020-11-25T10:08:49Z</time>
</trkpt>
<trkpt lat="46.048147" lon="11.165304">
<time>2020-11-25T10:08:50Z</time>
</trkpt>
<trkpt lat="46.048128" lon="11.165259">
<time>2020-11-25T10:08:51Z</time>
</trkpt>
<trkpt lat="46.048123" lon="11.165226">
<time>2020-11-25T10:08:52Z</time>
</trkpt>
<trkpt lat="46.04811" lon="11.165187">
<time>2020-11-25T10:08:53Z</time>
</trkpt>
<trkpt lat="46.048108" lon="11.165158">
<time>2020-11-25T10:08:54Z</time>
</trkpt>
<trkpt lat="46.048092" lon="11.165124">
<time>2020-11-25T10:08:55Z</time>
</trkpt>
<trkpt lat="46.048085" lon="11.165101">
<time>2020-11-25T10:08:56Z</time>
</trkpt>
<trkpt lat="46.048075" lon="11.165078">
<time>2020-11-25T10:08:57Z</time>
</trkpt>
<trkpt lat="46.048072" lon="11.16505">
<time>2020-11-25T10:08:58Z</time>
</trkpt>
<trkpt lat="46.048066" lon="11.16502">
<time>2020-11-25T10:08:59Z</time>
</trkpt>
<trkpt lat="46.048062" lon="11.164992">
<time>2020-11-25T10:09:00Z</time>
</trkpt>
<trkpt lat="46.048059" lon="11.164966">
<time>2020-11-25T10:09:01Z</time>
</trkpt>
<trkpt lat="46.048055" lon="11.164944">
<time>2020-11-25T10:09:02Z</time>
</trkpt>
<trkpt lat="46.048052" lon="11.16493">
<time>2020-11-25T10:09:03Z</time>
</trkpt>
<trkpt lat="46.048054" lon="11.164922">
<time>2020-11-25T10:09:04Z</time>
</trkpt>
<trkpt lat="46.048054" lon="11.164914">
<time>2020-11-25T10:09:05Z</time>
</trkpt>
<trkpt lat="46.048056" lon="11.164908">
<time>2020-11-25T10:09:06Z</time>
</trkpt>
<trkpt lat="46.048058" lon="11.164908">
<time>2020-11-25T10:09:07Z</time>
</trkpt>
<trkpt lat="46.048063" lon="11.164906">
<time>2020-11-25T10:09:08Z</time>
</trkpt>
<trkpt lat="46.048066" lon="11.164905">
<time>2020-11-25T10:09:09Z</time>
</trkpt>
<trkpt lat="46.048069" lon="11.16491">
<time>2020-11-25T10:09:10Z</time>
</trkpt>
<trkpt lat="46.048074" lon="11.164919">
<time>2020-11-25T10:09:11Z</time>
</trkpt>
<trkpt lat="46.048072" lon="11.164926">
<time>2020-11-25T10:09:12Z</time>
</trkpt>
<trkpt lat="46.048068" lon="11.164935">
<time>2020-11-25T10:09:13Z</time>
</trkpt>
<trkpt lat="46.048069" lon="11.164947">
<time>2020-11-25T10:09:14Z</time>
</trkpt>
<trkpt lat="46.048072" lon="11.164955">
<time>2020-11-25T10:09:15Z</time>
</trkpt>
<trkpt lat="46.04808" lon="11.164966">
<time>2020-11-25T10:09:16Z</time>
</trkpt>
<trkpt lat="46.048083" lon="11.164978">
<time>2020-11-25T10:09:17Z</time>
</trkpt>
<trkpt lat="46.048082" lon="11.164987">
<time>2020-11-25T10:09:18Z</time>
</trkpt>
<trkpt lat="46.048084" lon="11.164996">
<time>2020-11-25T10:09:19Z</time>
</trkpt>
<trkpt lat="46.04809" lon="11.165003">
<time>2020-11-25T10:09:20Z</time>
</trkpt>
<trkpt lat="46.048094" lon="11.16501">
<time>2020-11-25T10:09:21Z</time>
</trkpt>
<trkpt lat="46.048098" lon="11.165017">
<time>2020-11-25T10:09:22Z</time>
</trkpt>
<trkpt lat="46.048099" lon="11.165029">
<time>2020-11-25T10:09:23Z</time>
</trkpt>
<trkpt lat="46.048113" lon="11.165034">
<time>2020-11-25T10:09:24Z</time>
</trkpt>
<trkpt lat="46.048117" lon="11.16504">
<time>2020-11-25T10:09:25Z</time>
</trkpt>
<trkpt lat="46.048129" lon="11.165046">
<time>2020-11-25T10:09:26Z</time>
</trkpt>
<trkpt lat="46.048136" lon="11.165052">
<time>2020-11-25T10:09:27Z</time>
</trkpt>
<trkpt lat="46.048139" lon="11.165061">
<time>2020-11-25T10:09:28Z</time>
</trkpt>
<trkpt lat="46.048154" lon="11.165065">
<time>2020-11-25T10:09:29Z</time>
</trkpt>
<trkpt lat="46.048158" lon="11.165072">
<time>2020-11-25T10:09:30Z</time>
</trkpt>
<trkpt lat="46.048162" lon="11.165077">
<time>2020-11-25T10:09:31Z</time>
</trkpt>
<trkpt lat="46.048168" lon="11.165078">
<time>2020-11-25T10:09:32Z</time>
</trkpt>
<trkpt lat="46.048173" lon="11.165085">
<time>2020-11-25T10:09:33Z</time>
</trkpt>
<trkpt lat="46.048178" lon="11.165094">
<time>2020-11-25T10:09:34Z</time>
</trkpt>
<trkpt lat="46.048177" lon="11.165109">
<time>2020-11-25T10:09:35Z</time>
</trkpt>
<trkpt lat="46.04818" lon="11.165118">
<time>2020-11-25T10:09:36Z</time>
</trkpt>
<trkpt lat="46.048187" lon="11.165123">
<time>2020-11-25T10:09:37Z</time>
</trkpt>
<trkpt lat="46.048199" lon="11.165124">
<time>2020-11-25T10:09:38Z</time>
</trkpt>
<trkpt lat="46.048208" lon="11.16513">
<time>2020-11-25T10:09:39Z</time>
</trkpt>
<trkpt lat="46.048217" lon="11.165139">
<time>2020-11-25T10:09:40Z</time>
</trkpt>
<trkpt lat="46.048222" lon="11.165152">
<time>2020-11-25T10:09:41Z</time>
</trkpt>
<trkpt lat="46.048226" lon="11.165156">
<time>2020-11-25T10:09:42Z</time>
</trkpt>
<trkpt lat="46.048228" lon="11.165168">
<time>2020-11-25T10:09:43Z</time>
</trkpt>
<trkpt lat="46.048231" lon="11.165177">
<time>2020-11-25T10:09:44Z</time>
</trkpt>
<trkpt lat="46.048234" lon="11.165195">
<time>2020-11-25T10:09:45Z</time>
</trkpt>
<trkpt lat="46.048236" lon="11.16521">
<time>2020-11-25T10:09:46Z</time>
</trkpt>
<trkpt lat="46.048241" lon="11.165221">
<time>2020-11-25T10:09:47Z</time>
</trkpt>
<trkpt lat="46.048243" lon="11.165233">
<time>2020-11-25T10:09:48Z</time>
</trkpt>
<trkpt lat="46.04824" lon="11.165249">
<time>2020-11-25T10:09:49Z</time>
</trkpt>
<trkpt lat="46.048227" lon="11.165267">
<time>2020-11-25T10:09:50Z</time>
</trkpt>
<trkpt lat="46.048201" lon="11.165291">
<time>2020-11-25T10:09:51Z</time>
</trkpt>
<trkpt lat="46.048198" lon="11.165303">
<time>2020-11-25T10:09:52Z</time>
</trkpt>
<trkpt lat="46.048197" lon="11.165314">
<time>2020-11-25T10:09:53Z</time>
</trkpt>
<trkpt lat="46.048193" lon="11.165328">
<time>2020-11-25T10:09:54Z</time>
</trkpt>
<trkpt lat="46.04819" lon="11.165341">
<time>2020-11-25T10:09:55Z</time>
</trkpt>
<trkpt lat="46.048187" lon="11.165353">
<time>2020-11-25T10:09:56Z</time>
</trkpt>
<trkpt lat="46.048177" lon="11.165371">
<time>2020-11-25T10:09:57Z</time>
</trkpt>
<trkpt lat="46.048168" lon="11.165393">
<time>2020-11-25T10:09:58Z</time>
</trkpt>
<trkpt lat="46.048157" lon="11.165408">
<time>2020-11-25T10:09:59Z</time>
</trkpt>
<trkpt lat="46.048145" lon="11.165417">
<time>2020-11-25T10:10:00Z</time>
</trkpt>
<trkpt lat="46.048138" lon="11.165427">
<time>2020-11-25T10:10:01Z</time>
</trkpt>
<trkpt lat="46.048133" lon="11.165436">
<time>2020-11-25T10:10:02Z</time>
</trkpt>
<trkpt lat="46.04813" lon="11.165442">
<time>2020-11-25T10:10:03Z</time>
</trkpt>
<trkpt lat="46.048128" lon="11.16545">
<time>2020-11-25T10:10:04Z</time>
</trkpt>
<trkpt lat="46.048126" lon="11.165458">
<time>2020-11-25T10:10:05Z</time>
</trkpt>
<trkpt lat="46.048124" lon="11.165465">
<time>2020-11-25T10:10:06Z</time>
</trkpt>
<trkpt lat="46.048123" lon="11.165473">
<time>2020-11-25T10:10:07Z</time>
</trkpt>
<trkpt lat="46.048119" lon="11.165488">
<time>2020-11-25T10:10:08Z</time>
</trkpt>
<trkpt lat="46.048113" lon="11.165499">
<time>2020-11-25T10:10:09Z</time>
</trkpt>
<trkpt lat="46.04811" lon="11.165509">
<time>2020-11-25T10:10:10Z</time>
</trkpt>
<trkpt lat="46.048109" lon="11.165524">
<time>2020-11-25T10:10:11Z</time>
</trkpt>
<trkpt lat="46.048107" lon="11.165539">
<time>2020-11-25T10:10:12Z</time>
</trkpt>
<trkpt lat="46.04811" lon="11.165553">
<time>2020-11-25T10:10:13Z</time>
</trkpt>
<trkpt lat="46.048108" lon="11.16557">
<time>2020-11-25T10:10:14Z</time>
</trkpt>
<trkpt lat="46.048104" lon="11.165595">
<time>2020-11-25T10:10:15Z</time>
</trkpt>
<trkpt lat="46.048107" lon="11.165608">
<time>2020-11-25T10:10:16Z</time>
</trkpt>
<trkpt lat="46.048108" lon="11.165627">
<time>2020-11-25T10:10:17Z</time>
</trkpt>
<trkpt lat="46.048114" lon="11.165641">
<time>2020-11-25T10:10:18Z</time>
</trkpt>
<trkpt lat="46.048119" lon="11.165652">
<time>2020-11-25T10:10:19Z</time>
</trkpt>
<trkpt lat="46.048123" lon="11.165661">
<time>2020-11-25T10:10:20Z</time>
</trkpt>
<trkpt lat="46.048129" lon="11.165671">
<time>2020-11-25T10:10:21Z</time>
</trkpt>
<trkpt lat="46.048127" lon="11.165692">
<time>2020-11-25T10:10:22Z</time>
</trkpt>
<trkpt lat="46.048127" lon="11.165705">
<time>2020-11-25T10:10:23Z</time>
</trkpt>
<trkpt lat="46.048128" lon="11.165713">
<time>2020-11-25T10:10:24Z</time>
</trkpt>
<trkpt lat="46.048127" lon="11.165724">
<time>2020-11-25T10:10:25Z</time>
</trkpt>
<trkpt lat="46.048128" lon="11.165735">
<time>2020-11-25T10:10:26Z</time>
</trkpt>
<trkpt lat="46.048128" lon="11.165751">
<time>2020-11-25T10:10:27Z</time>
</trkpt>
<trkpt lat="46.048131" lon="11.165763">
<time>2020-11-25T10:10:28Z</time>
</trkpt>
<trkpt lat="46.048137" lon="11.165774">
<time>2020-11-25T10:10:29Z</time>
</trkpt>
<trkpt lat="46.048142" lon="11.165785">
<time>2020-11-25T10:10:30Z</time>
</trkpt>
<trkpt lat="46.048149" lon="11.165791">
<time>2020-11-25T10:10:31Z</time>
</trkpt>
<trkpt lat="46.048151" lon="11.165801">
<time>2020-11-25T10:10:32Z</time>
</trkpt>
<trkpt lat="46.048149" lon="11.165819">
<time>2020-11-25T10:10:33Z</time>
</trkpt>
<trkpt lat="46.048148" lon="11.165828">
<time>2020-11-25T10:10:34Z</time>
</trkpt>
<trkpt lat="46.048139" lon="11.165848">
<time>2020-11-25T10:10:35Z</time>
</trkpt>
<trkpt lat="46.048136" lon="11.165854">
<time>2020-11-25T10:10:36Z</time>
</trkpt>
<trkpt lat="46.048128" lon="11.165864">
<time>2020-11-25T10:10:37Z</time>
</trkpt>
<trkpt lat="46.048123" lon="11.165872">
<time>2020-11-25T10:10:38Z</time>
</trkpt>
<trkpt lat="46.048119" lon="11.165877">
<time>2020-11-25T10:10:39Z</time>
</trkpt>
<trkpt lat="46.048117" lon="11.165879">
<time>2020-11-25T10:10:40Z</time>
</trkpt>
<trkpt lat="46.048114" lon="11.165879">
<time>2020-11-25T10:10:41Z</time>
</trkpt>
<trkpt lat="46.048113" lon="11.165879">
<time>2020-11-25T10:10:42Z</time>
</trkpt>
<trkpt lat="46.048109" lon="11.165882">
<time>2020-11-25T10:10:43Z</time>
</trkpt>
<trkpt lat="46.048103" lon="11.165886">
<time>2020-11-25T10:10:44Z</time>
</trkpt>
<trkpt lat="46.048101" lon="11.165889">
<time>2020-11-25T10:10:45Z</time>
</trkpt>
<trkpt lat="46.048099" lon="11.165896">
<time>2020-11-25T10:10:46Z</time>
</trkpt>
<trkpt lat="46.048098" lon="11.165902">
<time>2020-11-25T10:10:47Z</time>
</trkpt>
<trkpt lat="46.048095" lon="11.165908">
<time>2020-11-25T10:10:48Z</time>
</trkpt>
<trkpt lat="46.048087" lon="11.165917">
<time>2020-11-25T10:10:49Z</time>
</trkpt>
<trkpt lat="46.048083" lon="11.165928">
<time>2020-11-25T10:10:50Z</time>
</trkpt>
<trkpt lat="46.048076" lon="11.165937">
<time>2020-11-25T10:10:51Z</time>
</trkpt>
<trkpt lat="46.048067" lon="11.165942">
<time>2020-11-25T10:10:52Z</time>
</trkpt>
<trkpt lat="46.048059" lon="11.165945">
<time>2020-11-25T10:10:53Z</time>
</trkpt>
<trkpt lat="46.048048" lon="11.165947">
<time>2020-11-25T10:10:54Z</time>
</trkpt>
<trkpt lat="46.048037" lon="11.165951">
<time>2020-11-25T10:10:55Z</time>
</trkpt>
<trkpt lat="46.048027" lon="11.165952">
<time>2020-11-25T10:10:56Z</time>
</trkpt>
<trkpt lat="46.048015" lon="11.16595">
<time>2020-11-25T10:10:57Z</time>
</trkpt>
<trkpt lat="46.048004" lon="11.165944">
<time>2020-11-25T10:10:58Z</time>
</trkpt>
<trkpt lat="46.047991" lon="11.165942">
<time>2020-11-25T10:10:59Z</time>
</trkpt>
<trkpt lat="46.047983" lon="11.165937">
<time>2020-11-25T10:11:00Z</time>
</trkpt>
<trkpt lat="46.04798" lon="11.165932">
<time>2020-11-25T10:11:01Z</time>
</trkpt>
<trkpt lat="46.047977" lon="11.165926">
<time>2020-11-25T10:11:02Z</time>
</trkpt>
<trkpt lat="46.047967" lon="11.165924">
<time>2020-11-25T10:11:03Z</time>
</trkpt>
<trkpt lat="46.047957" lon="11.165922">
<time>2020-11-25T10:11:04Z</time>
</trkpt>
<trkpt lat="46.047949" lon="11.165923">
<time>2020-11-25T10:11:05Z</time>
</trkpt>
<trkpt lat="46.047942" lon="11.165924">
<time>2020-11-25T10:11:06Z</time>
</trkpt>
<trkpt lat="46.047934" lon="11.165922">
<time>2020-11-25T10:11:07Z</time>
</trkpt>
<trkpt lat="46.047924" lon="11.16591">
<time>2020-11-25T10:11:08Z</time>
</trkpt>
<trkpt lat="46.047916" lon="11.165908">
<time>2020-11-25T10:11:09Z</time>
</trkpt>
<trkpt lat="46.047908" lon="11.165909">
<time>2020-11-25T10:11:10Z</time>
</trkpt>
<trkpt lat="46.047904" lon="11.165914">
<time>2020-11-25T10:11:11Z</time>
</trkpt>
<trkpt lat="46.047894" lon="11.165926">
<time>2020-11-25T10:11:12Z</time>
</trkpt>
<trkpt lat="46.047882" lon="11.165932">
<time>2020-11-25T10:11:13Z</time>
</trkpt>
<trkpt lat="46.047878" lon="11.165944">
<time>2020-11-25T10:11:14Z</time>
</trkpt>
<trkpt lat="46.047875" lon="11.165951">
<time>2020-11-25T10:11:15Z</time>
</trkpt>
<trkpt lat="46.047874" lon="11.165948">
<time>2020-11-25T10:11:16Z</time>
</trkpt>
<trkpt lat="46.047863" lon="11.165945">
<time>2020-11-25T10:11:17Z</time>
</trkpt>
<trkpt lat="46.047861" lon="11.165942">
<time>2020-11-25T10:11:18Z</time>
</trkpt>
<trkpt lat="46.047858" lon="11.16594">
<time>2020-11-25T10:11:19Z</time>
</trkpt>
<trkpt lat="46.047851" lon="11.165938">
<time>2020-11-25T10:11:20Z</time>
</trkpt>
<trkpt lat="46.047844" lon="11.165934">
<time>2020-11-25T10:11:21Z</time>
</trkpt>
<trkpt lat="46.047836" lon="11.165931">
<time>2020-11-25T10:11:22Z</time>
</trkpt>
<trkpt lat="46.04782" lon="11.165929">
<time>2020-11-25T10:11:23Z</time>
</trkpt>
<trkpt lat="46.047804" lon="11.16593">
<time>2020-11-25T10:11:24Z</time>
</trkpt>
<trkpt lat="46.047794" lon="11.165932">
<time>2020-11-25T10:11:25Z</time>
</trkpt>
<trkpt lat="46.047793" lon="11.16594">
<time>2020-11-25T10:11:26Z</time>
</trkpt>
<trkpt lat="46.047785" lon="11.16595">
<time>2020-11-25T10:11:27Z</time>
</trkpt>
<trkpt lat="46.047772" lon="11.165955">
<time>2020-11-25T10:11:28Z</time>
</trkpt>
<trkpt lat="46.047754" lon="11.165966">
<time>2020-11-25T10:11:29Z</time>
</trkpt>
<trkpt lat="46.04774" lon="11.165971">
<time>2020-11-25T10:11:30Z</time>
</trkpt>
<trkpt lat="46.047723" lon="11.165977">
<time>2020-11-25T10:11:31Z</time>
</trkpt>
<trkpt lat="46.047706" lon="11.165983">
<time>2020-11-25T10:11:32Z</time>
</trkpt>
<trkpt lat="46.047693" lon="11.165985">
<time>2020-11-25T10:11:33Z</time>
</trkpt>
<trkpt lat="46.047681" lon="11.165984">
<time>2020-11-25T10:11:34Z</time>
</trkpt>
<trkpt lat="46.047672" lon="11.165981">
<time>2020-11-25T10:11:35Z</time>
</trkpt>
<trkpt lat="46.047666" lon="11.165978">
<time>2020-11-25T10:11:36Z</time>
</trkpt>
<trkpt lat="46.047664" lon="11.165979">
<time>2020-11-25T10:11:37Z</time>
</trkpt>
<trkpt lat="46.047664" lon="11.165981">
<time>2020-11-25T10:11:38Z</time>
</trkpt>
<trkpt lat="46.047664" lon="11.165983">
<time>2020-11-25T10:11:39Z</time>
</trkpt>
<trkpt lat="46.047658" lon="11.165995">
<time>2020-11-25T10:11:40Z</time>
</trkpt>
<trkpt lat="46.047651" lon="11.166008">
<time>2020-11-25T10:11:41Z</time>
</trkpt>
<trkpt lat="46.047646" lon="11.166019">
<time>2020-11-25T10:11:42Z</time>
</trkpt>
<trkpt lat="46.047641" lon="11.16603">
<time>2020-11-25T10:11:43Z</time>
</trkpt>
<trkpt lat="46.04764" lon="11.166042">
<time>2020-11-25T10:11:44Z</time>
</trkpt>
<trkpt lat="46.047636" lon="11.166054">
<time>2020-11-25T10:11:45Z</time>
</trkpt>
<trkpt lat="46.047633" lon="11.166062">
<time>2020-11-25T10:11:46Z</time>
</trkpt>
<trkpt lat="46.047636" lon="11.166068">
<time>2020-11-25T10:11:47Z</time>
</trkpt>
<trkpt lat="46.047637" lon="11.166074">
<time>2020-11-25T10:11:48Z</time>
</trkpt>
<trkpt lat="46.047633" lon="11.166077">
<time>2020-11-25T10:11:49Z</time>
</trkpt>
<trkpt lat="46.04763" lon="11.16608">
<time>2020-11-25T10:11:50Z</time>
</trkpt>
<trkpt lat="46.047629" lon="11.166084">
<time>2020-11-25T10:11:51Z</time>
</trkpt>
<trkpt lat="46.047628" lon="11.166086">
<time>2020-11-25T10:11:52Z</time>
</trkpt>
<trkpt lat="46.047633" lon="11.166079">
<time>2020-11-25T10:11:53Z</time>
</trkpt>
<trkpt lat="46.047637" lon="11.166076">
<time>2020-11-25T10:11:54Z</time>
</trkpt>
<trkpt lat="46.047643" lon="11.166076">
<time>2020-11-25T10:11:55Z</time>
</trkpt>
<trkpt lat="46.047651" lon="11.166079">
<time>2020-11-25T10:11:56Z</time>
</trkpt>
<trkpt lat="46.047659" lon="11.166078">
<time>2020-11-25T10:11:57Z</time>
</trkpt>
<trkpt lat="46.047664" lon="11.166085">
<time>2020-11-25T10:11:58Z</time>
</trkpt>
<trkpt lat="46.04767" lon="11.166092">
<time>2020-11-25T10:11:59Z</time>
</trkpt>
<trkpt lat="46.047674" lon="11.166096">
<time>2020-11-25T10:12:00Z</time>
</trkpt>
<trkpt lat="46.047675" lon="11.166096">
<time>2020-11-25T10:12:01Z</time>
</trkpt>
<trkpt lat="46.047683" lon="11.166091">
<time>2020-11-25T10:12:02Z</time>
</trkpt>
<trkpt lat="46.047695" lon="11.166086">
<time>2020-11-25T10:12:03Z</time>
</trkpt>
<trkpt lat="46.047704" lon="11.166085">
<time>2020-11-25T10:12:04Z</time>
</trkpt>
<trkpt lat="46.047718" lon="11.166088">
<time>2020-11-25T10:12:05Z</time>
</trkpt>
<trkpt lat="46.047732" lon="11.166093">
<time>2020-11-25T10:12:06Z</time>
</trkpt>
<trkpt lat="46.04774" lon="11.166098">
<time>2020-11-25T10:12:07Z</time>
</trkpt>
<trkpt lat="46.047744" lon="11.166105">
<time>2020-11-25T10:12:08Z</time>
</trkpt>
<trkpt lat="46.047748" lon="11.166111">
<time>2020-11-25T10:12:09Z</time>
</trkpt>
<trkpt lat="46.047754" lon="11.166119">
<time>2020-11-25T10:12:10Z</time>
</trkpt>
<trkpt lat="46.047758" lon="11.166126">
<time>2020-11-25T10:12:11Z</time>
</trkpt>
<trkpt lat="46.047761" lon="11.166131">
<time>2020-11-25T10:12:12Z</time>
</trkpt>
<trkpt lat="46.047762" lon="11.166137">
<time>2020-11-25T10:12:13Z</time>
</trkpt>
<trkpt lat="46.047761" lon="11.166141">
<time>2020-11-25T10:12:14Z</time>
</trkpt>
<trkpt lat="46.047763" lon="11.166148">
<time>2020-11-25T10:12:15Z</time>
</trkpt>
<trkpt lat="46.047766" lon="11.166156">
<time>2020-11-25T10:12:16Z</time>
</trkpt>
<trkpt lat="46.047782" lon="11.166166">
<time>2020-11-25T10:12:17Z</time>
</trkpt>
<trkpt lat="46.047793" lon="11.166174">
<time>2020-11-25T10:12:18Z</time>
</trkpt>
<trkpt lat="46.047801" lon="11.166182">
<time>2020-11-25T10:12:19Z</time>
</trkpt>
<trkpt lat="46.04781" lon="11.166188">
<time>2020-11-25T10:12:20Z</time>
</trkpt>
<trkpt lat="46.047819" lon="11.166194">
<time>2020-11-25T10:12:21Z</time>
</trkpt>
<trkpt lat="46.047828" lon="11.166197">
<time>2020-11-25T10:12:22Z</time>
</trkpt>
<trkpt lat="46.047835" lon="11.166199">
<time>2020-11-25T10:12:23Z</time>
</trkpt>
<trkpt lat="46.047839" lon="11.166201">
<time>2020-11-25T10:12:24Z</time>
</trkpt>
<trkpt lat="46.047845" lon="11.166209">
<time>2020-11-25T10:12:25Z</time>
</trkpt>
<trkpt lat="46.047855" lon="11.166218">
<time>2020-11-25T10:12:26Z</time>
</trkpt>
<trkpt lat="46.047864" lon="11.166225">
<time>2020-11-25T10:12:27Z</time>
</trkpt>
<trkpt lat="46.04787" lon="11.166231">
<time>2020-11-25T10:12:28Z</time>
</trkpt>
<trkpt lat="46.047874" lon="11.166235">
<time>2020-11-25T10:12:29Z</time>
</trkpt>
<trkpt lat="46.047876" lon="11.166238">
<time>2020-11-25T10:12:30Z</time>
</trkpt>
<trkpt lat="46.047878" lon="11.166241">
<time>2020-11-25T10:12:31Z</time>
</trkpt>
<trkpt lat="46.047878" lon="11.166248">
<time>2020-11-25T10:12:32Z</time>
</trkpt>
<trkpt lat="46.047883" lon="11.166255">
<time>2020-11-25T10:12:33Z</time>
</trkpt>
<trkpt lat="46.047891" lon="11.16626">
<time>2020-11-25T10:12:34Z</time>
</trkpt>
<trkpt lat="46.047898" lon="11.166264">
<time>2020-11-25T10:12:35Z</time>
</trkpt>
<trkpt lat="46.047905" lon="11.166266">
<time>2020-11-25T10:12:36Z</time>
</trkpt>
<trkpt lat="46.047907" lon="11.166278">
<time>2020-11-25T10:12:37Z</time>
</trkpt>
<trkpt lat="46.047908" lon="11.166288">
<time>2020-11-25T10:12:38Z</time>
</trkpt>
<trkpt lat="46.047912" lon="11.166284">
<time>2020-11-25T10:12:39Z</time>
</trkpt>
<trkpt lat="46.047914" lon="11.166289">
<time>2020-11-25T10:12:40Z</time>
</trkpt>
<trkpt lat="46.047911" lon="11.16629">
<time>2020-11-25T10:12:41Z</time>
</trkpt>
<trkpt lat="46.047909" lon="11.166293">
<time>2020-11-25T10:12:42Z</time>
</trkpt>
<trkpt lat="46.047906" lon="11.166299">
<time>2020-11-25T10:12:43Z</time>
</trkpt>
<trkpt lat="46.047903" lon="11.166306">
<time>2020-11-25T10:12:44Z</time>
</trkpt>
<trkpt lat="46.047903" lon="11.166312">
<time>2020-11-25T10:12:45Z</time>
</trkpt>
<trkpt lat="46.047907" lon="11.166316">
<time>2020-11-25T10:12:46Z</time>
</trkpt>
<trkpt lat="46.047907" lon="11.166321">
<time>2020-11-25T10:12:47Z</time>
</trkpt>
<trkpt lat="46.047905" lon="11.166325">
<time>2020-11-25T10:12:48Z</time>
</trkpt>
<trkpt lat="46.047901" lon="11.166334">
<time>2020-11-25T10:12:49Z</time>
</trkpt>
<trkpt lat="46.047887" lon="11.166341">
<time>2020-11-25T10:12:50Z</time>
</trkpt>
<trkpt lat="46.047886" lon="11.166349">
<time>2020-11-25T10:12:51Z</time>
</trkpt>
<trkpt lat="46.047877" lon="11.166362">
<time>2020-11-25T10:12:52Z</time>
</trkpt>
<trkpt lat="46.047875" lon="11.166375">
<time>2020-11-25T10:12:53Z</time>
</trkpt>
<trkpt lat="46.047871" lon="11.166389">
<time>2020-11-25T10:12:54Z</time>
</trkpt>
<trkpt lat="46.047868" lon="11.1664">
<time>2020-11-25T10:12:55Z</time>
</trkpt>
<trkpt lat="46.047865" lon="11.166413">
<time>2020-11-25T10:12:56Z</time>
</trkpt>
<trkpt lat="46.047865" lon="11.166425">
<time>2020-11-25T10:12:57Z</time>
</trkpt>
<trkpt lat="46.047864" lon="11.166434">
<time>2020-11-25T10:12:58Z</time>
</trkpt>
<trkpt lat="46.047862" lon="11.166439">
<time>2020-11-25T10:12:59Z</time>
</trkpt>
<trkpt lat="46.047861" lon="11.166444">
<time>2020-11-25T10:13:00Z</time>
</trkpt>
<trkpt lat="46.047858" lon="11.16646">
<time>2020-11-25T10:13:01Z</time>
</trkpt>
<trkpt lat="46.047854" lon="11.166468">
<time>2020-11-25T10:13:02Z</time>
</trkpt>
<trkpt lat="46.047855" lon="11.166476">
<time>2020-11-25T10:13:03Z</time>
</trkpt>
<trkpt lat="46.047854" lon="11.166482">
<time>2020-11-25T10:13:04Z</time>
</trkpt>
<trkpt lat="46.047856" lon="11.166491">
<time>2020-11-25T10:13:05Z</time>
</trkpt>
<trkpt lat="46.047859" lon="11.166502">
<time>2020-11-25T10:13:06Z</time>
</trkpt>
<trkpt lat="46.047861" lon="11.166511">
<time>2020-11-25T10:13:07Z</time>
</trkpt>
<trkpt lat="46.047861" lon="11.166522">
<time>2020-11-25T10:13:08Z</time>
</trkpt>
<trkpt lat="46.047859" lon="11.166533">
<time>2020-11-25T10:13:09Z</time>
</trkpt>
<trkpt lat="46.047859" lon="11.166541">
<time>2020-11-25T10:13:10Z</time>
</trkpt>
<trkpt lat="46.047855" lon="11.166554">
<time>2020-11-25T10:13:11Z</time>
</trkpt>
<trkpt lat="46.047852" lon="11.166566">
<time>2020-11-25T10:13:12Z</time>
</trkpt>
<trkpt lat="46.047854" lon="11.166575">
<time>2020-11-25T10:13:13Z</time>
</trkpt>
<trkpt lat="46.047865" lon="11.166592">
<time>2020-11-25T10:13:14Z</time>
</trkpt>
<trkpt lat="46.047873" lon="11.16661">
<time>2020-11-25T10:13:15Z</time>
</trkpt>
<trkpt lat="46.047884" lon="11.166624">
<time>2020-11-25T10:13:16Z</time>
</trkpt>
<trkpt lat="46.047894" lon="11.166639">
<time>2020-11-25T10:13:17Z</time>
</trkpt>
<trkpt lat="46.047905" lon="11.166651">
<time>2020-11-25T10:13:18Z</time>
</trkpt>
<trkpt lat="46.047913" lon="11.166659">
<time>2020-11-25T10:13:19Z</time>
</trkpt>
<trkpt lat="46.047918" lon="11.166666">
<time>2020-11-25T10:13:20Z</time>
</trkpt>
<trkpt lat="46.047923" lon="11.166673">
<time>2020-11-25T10:13:21Z</time>
</trkpt>
<trkpt lat="46.047923" lon="11.166678">
<time>2020-11-25T10:13:22Z</time>
</trkpt>
<trkpt lat="46.047924" lon="11.166684">
<time>2020-11-25T10:13:23Z</time>
</trkpt>
<trkpt lat="46.047924" lon="11.166683">
<time>2020-11-25T10:13:24Z</time>
</trkpt>
<trkpt lat="46.047922" lon="11.166687">
<time>2020-11-25T10:13:25Z</time>
</trkpt>
<trkpt lat="46.047922" lon="11.166696">
<time>2020-11-25T10:13:26Z</time>
</trkpt>
<trkpt lat="46.047924" lon="11.166705">
<time>2020-11-25T10:13:27Z</time>
</trkpt>
<trkpt lat="46.047928" lon="11.166711">
<time>2020-11-25T10:13:28Z</time>
</trkpt>
<trkpt lat="46.047929" lon="11.166721">
<time>2020-11-25T10:13:29Z</time>
</trkpt>
<trkpt lat="46.04793" lon="11.166735">
<time>2020-11-25T10:13:30Z</time>
</trkpt>
<trkpt lat="46.047942" lon="11.166758">
<time>2020-11-25T10:13:31Z</time>
</trkpt>
<trkpt lat="46.047942" lon="11.166781">
<time>2020-11-25T10:13:32Z</time>
</trkpt>
<trkpt lat="46.04795" lon="11.166797">
<time>2020-11-25T10:13:33Z</time>
</trkpt>
<trkpt lat="46.047952" lon="11.166807">
<time>2020-11-25T10:13:34Z</time>
</trkpt>
<trkpt lat="46.047957" lon="11.166819">
<time>2020-11-25T10:13:35Z</time>
</trkpt>
<trkpt lat="46.047959" lon="11.166832">
<time>2020-11-25T10:13:36Z</time>
</trkpt>
<trkpt lat="46.047962" lon="11.166848">
<time>2020-11-25T10:13:37Z</time>
</trkpt>
<trkpt lat="46.04796" lon="11.166874">
<time>2020-11-25T10:13:38Z</time>
</trkpt>
<trkpt lat="46.047949" lon="11.166905">
<time>2020-11-25T10:13:39Z</time>
</trkpt>
<trkpt lat="46.047936" lon="11.166935">
<time>2020-11-25T10:13:40Z</time>
</trkpt>
<trkpt lat="46.04793" lon="11.166953">
<time>2020-11-25T10:13:41Z</time>
</trkpt>
<trkpt lat="46.047927" lon="11.166966">
<time>2020-11-25T10:13:42Z</time>
</trkpt>
<trkpt lat="46.04793" lon="11.166975">
<time>2020-11-25T10:13:43Z</time>
</trkpt>
<trkpt lat="46.047931" lon="11.166982">
<time>2020-11-25T10:13:44Z</time>
</trkpt>
<trkpt lat="46.047931" lon="11.16699">
<time>2020-11-25T10:13:45Z</time>
</trkpt>
<trkpt lat="46.047926" lon="11.166999">
<time>2020-11-25T10:13:46Z</time>
</trkpt>
<trkpt lat="46.047913" lon="11.167016">
<time>2020-11-25T10:13:47Z</time>
</trkpt>
<trkpt lat="46.047901" lon="11.167031">
<time>2020-11-25T10:13:48Z</time>
</trkpt>
<trkpt lat="46.047896" lon="11.167046">
<time>2020-11-25T10:13:49Z</time>
</trkpt>
<trkpt lat="46.047898" lon="11.167054">
<time>2020-11-25T10:13:50Z</time>
</trkpt>
<trkpt lat="46.047899" lon="11.167061">
<time>2020-11-25T10:13:51Z</time>
</trkpt>
<trkpt lat="46.047901" lon="11.167068">
<time>2020-11-25T10:13:52Z</time>
</trkpt>
<trkpt lat="46.0479" lon="11.167076">
<time>2020-11-25T10:13:53Z</time>
</trkpt>
<trkpt lat="46.047894" lon="11.167085">
<time>2020-11-25T10:13:54Z</time>
</trkpt>
<trkpt lat="46.047891" lon="11.167094">
<time>2020-11-25T10:13:55Z</time>
</trkpt>
<trkpt lat="46.047884" lon="11.167106">
<time>2020-11-25T10:13:56Z</time>
</trkpt>
<trkpt lat="46.047883" lon="11.167116">
<time>2020-11-25T10:13:57Z</time>
</trkpt>
<trkpt lat="46.047883" lon="11.167125">
<time>2020-11-25T10:13:58Z</time>
</trkpt>
<trkpt lat="46.047884" lon="11.167134">
<time>2020-11-25T10:13:59Z</time>
</trkpt>
<trkpt lat="46.047883" lon="11.167137">
<time>2020-11-25T10:14:00Z</time>
</trkpt>
<trkpt lat="46.047881" lon="11.167143">
<time>2020-11-25T10:14:01Z</time>
</trkpt>
<trkpt lat="46.047882" lon="11.167145">
<time>2020-11-25T10:14:02Z</time>
</trkpt>
<trkpt lat="46.047887" lon="11.167144">
<time>2020-11-25T10:14:03Z</time>
</trkpt>
<trkpt lat="46.047886" lon="11.167139">
<time>2020-11-25T10:14:04Z</time>
</trkpt>
<trkpt lat="46.047881" lon="11.167132">
<time>2020-11-25T10:14:05Z</time>
</trkpt>
<trkpt lat="46.047868" lon="11.167127">
<time>2020-11-25T10:14:06Z</time>
</trkpt>
<trkpt lat="46.047856" lon="11.16712">
<time>2020-11-25T10:14:07Z</time>
</trkpt>
<trkpt lat="46.04785" lon="11.167116">
<time>2020-11-25T10:14:08Z</time>
</trkpt>
<trkpt lat="46.047844" lon="11.167112">
<time>2020-11-25T10:14:09Z</time>
</trkpt>
<trkpt lat="46.047839" lon="11.167102">
<time>2020-11-25T10:14:10Z</time>
</trkpt>
<trkpt lat="46.04784" lon="11.167091">
<time>2020-11-25T10:14:11Z</time>
</trkpt>
<trkpt lat="46.047839" lon="11.167076">
<time>2020-11-25T10:14:12Z</time>
</trkpt>
<trkpt lat="46.047836" lon="11.167059">
<time>2020-11-25T10:14:13Z</time>
</trkpt>
<trkpt lat="46.047835" lon="11.167047">
<time>2020-11-25T10:14:14Z</time>
</trkpt>
<trkpt lat="46.047832" lon="11.167033">
<time>2020-11-25T10:14:15Z</time>
</trkpt>
<trkpt lat="46.047826" lon="11.167025">
<time>2020-11-25T10:14:16Z</time>
</trkpt>
<trkpt lat="46.047817" lon="11.167019">
<time>2020-11-25T10:14:17Z</time>
</trkpt>
<trkpt lat="46.047801" lon="11.167013">
<time>2020-11-25T10:14:18Z</time>
</trkpt>
<trkpt lat="46.047793" lon="11.167004">
<time>2020-11-25T10:14:19Z</time>
</trkpt>
<trkpt lat="46.04778" lon="11.167001">
<time>2020-11-25T10:14:20Z</time>
</trkpt>
<trkpt lat="46.047759" lon="11.167">
<time>2020-11-25T10:14:21Z</time>
</trkpt>
<trkpt lat="46.047743" lon="11.167002">
<time>2020-11-25T10:14:22Z</time>
</trkpt>
<trkpt lat="46.047725" lon="11.167003">
<time>2020-11-25T10:14:23Z</time>
</trkpt>
<trkpt lat="46.047713" lon="11.167001">
<time>2020-11-25T10:14:24Z</time>
</trkpt>
<trkpt lat="46.047704" lon="11.166998">
<time>2020-11-25T10:14:25Z</time>
</trkpt>
<trkpt lat="46.047692" lon="11.166998">
<time>2020-11-25T10:14:26Z</time>
</trkpt>
<trkpt lat="46.04768" lon="11.166996">
<time>2020-11-25T10:14:27Z</time>
</trkpt>
<trkpt lat="46.04767" lon="11.166993">
<time>2020-11-25T10:14:28Z</time>
</trkpt>
<trkpt lat="46.047659" lon="11.166989">
<time>2020-11-25T10:14:29Z</time>
</trkpt>
<trkpt lat="46.047655" lon="11.166984">
<time>2020-11-25T10:14:30Z</time>
</trkpt>
<trkpt lat="46.047645" lon="11.166972">
<time>2020-11-25T10:14:31Z</time>
</trkpt>
<trkpt lat="46.047636" lon="11.166967">
<time>2020-11-25T10:14:32Z</time>
</trkpt>
<trkpt lat="46.04763" lon="11.166961">
<time>2020-11-25T10:14:33Z</time>
</trkpt>
<trkpt lat="46.047627" lon="11.166958">
<time>2020-11-25T10:14:34Z</time>
</trkpt>
<trkpt lat="46.047616" lon="11.166955">
<time>2020-11-25T10:14:35Z</time>
</trkpt>
<trkpt lat="46.047605" lon="11.166953">
<time>2020-11-25T10:14:36Z</time>
</trkpt>
<trkpt lat="46.047591" lon="11.166946">
<time>2020-11-25T10:14:37Z</time>
</trkpt>
<trkpt lat="46.047581" lon="11.166939">
<time>2020-11-25T10:14:38Z</time>
</trkpt>
<trkpt lat="46.047573" lon="11.166932">
<time>2020-11-25T10:14:39Z</time>
</trkpt>
<trkpt lat="46.047561" lon="11.166925">
<time>2020-11-25T10:14:40Z</time>
</trkpt>
<trkpt lat="46.047553" lon="11.16692">
<time>2020-11-25T10:14:41Z</time>
</trkpt>
<trkpt lat="46.047547" lon="11.166921">
<time>2020-11-25T10:14:42Z</time>
</trkpt>
<trkpt lat="46.047545" lon="11.166917">
<time>2020-11-25T10:14:43Z</time>
</trkpt>
<trkpt lat="46.047539" lon="11.166911">
<time>2020-11-25T10:14:44Z</time>
</trkpt>
<trkpt lat="46.04753" lon="11.166904">
<time>2020-11-25T10:14:45Z</time>
</trkpt>
<trkpt lat="46.047519" lon="11.166899">
<time>2020-11-25T10:14:46Z</time>
</trkpt>
<trkpt lat="46.04751" lon="11.166896">
<time>2020-11-25T10:14:47Z</time>
</trkpt>
<trkpt lat="46.047504" lon="11.166894">
<time>2020-11-25T10:14:48Z</time>
</trkpt>
<trkpt lat="46.047497" lon="11.166894">
<time>2020-11-25T10:14:49Z</time>
</trkpt>
<trkpt lat="46.047493" lon="11.166892">
<time>2020-11-25T10:14:50Z</time>
</trkpt>
<trkpt lat="46.047491" lon="11.166896">
<time>2020-11-25T10:14:51Z</time>
</trkpt>
<trkpt lat="46.047495" lon="11.166897">
<time>2020-11-25T10:14:52Z</time>
</trkpt>
<trkpt lat="46.047499" lon="11.1669">
<time>2020-11-25T10:14:53Z</time>
</trkpt>
<trkpt lat="46.047504" lon="11.1669">
<time>2020-11-25T10:14:54Z</time>
</trkpt>
<trkpt lat="46.047509" lon="11.166907">
<time>2020-11-25T10:14:55Z</time>
</trkpt>
<trkpt lat="46.047509" lon="11.166911">
<time>2020-11-25T10:14:56Z</time>
</trkpt>
<trkpt lat="46.047519" lon="11.166909">
<time>2020-11-25T10:14:57Z</time>
</trkpt>
<trkpt lat="46.047517" lon="11.166915">
<time>2020-11-25T10:14:58Z</time>
</trkpt>
<trkpt lat="46.047522" lon="11.166911">
<time>2020-11-25T10:14:59Z</time>
</trkpt>
<trkpt lat="46.047529" lon="11.166915">
<time>2020-11-25T10:15:00Z</time>
</trkpt>
<trkpt lat="46.047537" lon="11.166922">
<time>2020-11-25T10:15:01Z</time>
</trkpt>
<trkpt lat="46.047538" lon="11.166925">
<time>2020-11-25T10:15:02Z</time>
</trkpt>
<trkpt lat="46.04754" lon="11.166921">
<time>2020-11-25T10:15:03Z</time>
</trkpt>
<trkpt lat="46.047544" lon="11.166917">
<time>2020-11-25T10:15:04Z</time>
</trkpt>
<trkpt lat="46.047549" lon="11.166909">
<time>2020-11-25T10:15:05Z</time>
</trkpt>
<trkpt lat="46.047546" lon="11.166915">
<time>2020-11-25T10:15:06Z</time>
</trkpt>
<trkpt lat="46.04754" lon="11.166922">
<time>2020-11-25T10:15:07Z</time>
</trkpt>
<trkpt lat="46.047536" lon="11.166928">
<time>2020-11-25T10:15:08Z</time>
</trkpt>
<trkpt lat="46.047535" lon="11.166934">
<time>2020-11-25T10:15:09Z</time>
</trkpt>
<trkpt lat="46.047534" lon="11.166939">
<time>2020-11-25T10:15:10Z</time>
</trkpt>
<trkpt lat="46.047533" lon="11.166948">
<time>2020-11-25T10:15:11Z</time>
</trkpt>
<trkpt lat="46.047533" lon="11.166956">
<time>2020-11-25T10:15:12Z</time>
</trkpt>
<trkpt lat="46.047529" lon="11.166965">
<time>2020-11-25T10:15:13Z</time>
</trkpt>
<trkpt lat="46.047525" lon="11.166973">
<time>2020-11-25T10:15:14Z</time>
</trkpt>
<trkpt lat="46.047519" lon="11.166983">
<time>2020-11-25T10:15:15Z</time>
</trkpt>
<trkpt lat="46.047508" lon="11.166993">
<time>2020-11-25T10:15:16Z</time>
</trkpt>
<trkpt lat="46.047497" lon="11.166998">
<time>2020-11-25T10:15:17Z</time>
</trkpt>
<trkpt lat="46.047493" lon="11.166995">
<time>2020-11-25T10:15:18Z</time>
</trkpt>
<trkpt lat="46.047485" lon="11.166994">
<time>2020-11-25T10:15:19Z</time>
</trkpt>
<trkpt lat="46.047478" lon="11.166993">
<time>2020-11-25T10:15:20Z</time>
</trkpt>
<trkpt lat="46.04747" lon="11.166988">
<time>2020-11-25T10:15:21Z</time>
</trkpt>
<trkpt lat="46.047463" lon="11.166988">
<time>2020-11-25T10:15:22Z</time>
</trkpt>
<trkpt lat="46.047457" lon="11.166989">
<time>2020-11-25T10:15:23Z</time>
</trkpt>
<trkpt lat="46.047452" lon="11.166993">
<time>2020-11-25T10:15:24Z</time>
</trkpt>
<trkpt lat="46.047443" lon="11.166997">
<time>2020-11-25T10:15:25Z</time>
</trkpt>
<trkpt lat="46.047433" lon="11.166995">
<time>2020-11-25T10:15:26Z</time>
</trkpt>
<trkpt lat="46.047424" lon="11.166993">
<time>2020-11-25T10:15:27Z</time>
</trkpt>
<trkpt lat="46.047414" lon="11.166994">
<time>2020-11-25T10:15:28Z</time>
</trkpt>
<trkpt lat="46.047411" lon="11.166995">
<time>2020-11-25T10:15:29Z</time>
</trkpt>
<trkpt lat="46.047408" lon="11.166993">
<time>2020-11-25T10:15:30Z</time>
</trkpt>
<trkpt lat="46.047407" lon="11.166994">
<time>2020-11-25T10:15:31Z</time>
</trkpt>
<trkpt lat="46.047409" lon="11.167">
<time>2020-11-25T10:15:32Z</time>
</trkpt>
<trkpt lat="46.047408" lon="11.167004">
<time>2020-11-25T10:15:33Z</time>
</trkpt>
<trkpt lat="46.047411" lon="11.167005">
<time>2020-11-25T10:15:34Z</time>
</trkpt>
<trkpt lat="46.047411" lon="11.16701">
<time>2020-11-25T10:15:35Z</time>
</trkpt>
<trkpt lat="46.047412" lon="11.167015">
<time>2020-11-25T10:15:36Z</time>
</trkpt>
<trkpt lat="46.047414" lon="11.167021">
<time>2020-11-25T10:15:37Z</time>
</trkpt>
<trkpt lat="46.047411" lon="11.167028">
<time>2020-11-25T10:15:38Z</time>
</trkpt>
<trkpt lat="46.047407" lon="11.167036">
<time>2020-11-25T10:15:39Z</time>
</trkpt>
<trkpt lat="46.047405" lon="11.167044">
<time>2020-11-25T10:15:40Z</time>
</trkpt>
<trkpt lat="46.047402" lon="11.167055">
<time>2020-11-25T10:15:41Z</time>
</trkpt>
<trkpt lat="46.047394" lon="11.167068">
<time>2020-11-25T10:15:42Z</time>
</trkpt>
<trkpt lat="46.04739" lon="11.167078">
<time>2020-11-25T10:15:43Z</time>
</trkpt>
<trkpt lat="46.047388" lon="11.167085">
<time>2020-11-25T10:15:44Z</time>
</trkpt>
<trkpt lat="46.047386" lon="11.167088">
<time>2020-11-25T10:15:45Z</time>
</trkpt>
<trkpt lat="46.047383" lon="11.167094">
<time>2020-11-25T10:15:46Z</time>
</trkpt>
<trkpt lat="46.047384" lon="11.167097">
<time>2020-11-25T10:15:47Z</time>
</trkpt>
<trkpt lat="46.04739" lon="11.167098">
<time>2020-11-25T10:15:48Z</time>
</trkpt>
<trkpt lat="46.047398" lon="11.1671">
<time>2020-11-25T10:15:49Z</time>
</trkpt>
<trkpt lat="46.047405" lon="11.167103">
<time>2020-11-25T10:15:50Z</time>
</trkpt>
<trkpt lat="46.04741" lon="11.167106">
<time>2020-11-25T10:15:51Z</time>
</trkpt>
<trkpt lat="46.047413" lon="11.167107">
<time>2020-11-25T10:15:52Z</time>
</trkpt>
<trkpt lat="46.047416" lon="11.167108">
<time>2020-11-25T10:15:53Z</time>
</trkpt>
<trkpt lat="46.047419" lon="11.167106">
<time>2020-11-25T10:15:54Z</time>
</trkpt>
<trkpt lat="46.047426" lon="11.167101">
<time>2020-11-25T10:15:55Z</time>
</trkpt>
<trkpt lat="46.047433" lon="11.167094">
<time>2020-11-25T10:15:56Z</time>
</trkpt>
<trkpt lat="46.047436" lon="11.16709">
<time>2020-11-25T10:15:57Z</time>
</trkpt>
<trkpt lat="46.04744" lon="11.167086">
<time>2020-11-25T10:15:58Z</time>
</trkpt>
<trkpt lat="46.047442" lon="11.167084">
<time>2020-11-25T10:15:59Z</time>
</trkpt>
<trkpt lat="46.047445" lon="11.167082">
<time>2020-11-25T10:16:00Z</time>
</trkpt>
<trkpt lat="46.047449" lon="11.16708">
<time>2020-11-25T10:16:01Z</time>
</trkpt>
<trkpt lat="46.04745" lon="11.16708">
<time>2020-11-25T10:16:02Z</time>
</trkpt>
<trkpt lat="46.047451" lon="11.16708">
<time>2020-11-25T10:16:03Z</time>
</trkpt>
<trkpt lat="46.047448" lon="11.16708">
<time>2020-11-25T10:16:04Z</time>
</trkpt>
<trkpt lat="46.047448" lon="11.167081">
<time>2020-11-25T10:16:05Z</time>
</trkpt>
<trkpt lat="46.047449" lon="11.167081">
<time>2020-11-25T10:16:06Z</time>
</trkpt>
<trkpt lat="46.047445" lon="11.167091">
<time>2020-11-25T10:16:07Z</time>
</trkpt>
<trkpt lat="46.047443" lon="11.167098">
<time>2020-11-25T10:16:08Z</time>
</trkpt>
<trkpt lat="46.047434" lon="11.167121">
<time>2020-11-25T10:16:09Z</time>
</trkpt>
<trkpt lat="46.047433" lon="11.167127">
<time>2020-11-25T10:16:10Z</time>
</trkpt>
<trkpt lat="46.047429" lon="11.167134">
<time>2020-11-25T10:16:11Z</time>
</trkpt>
<trkpt lat="46.047427" lon="11.167136">
<time>2020-11-25T10:16:12Z</time>
</trkpt>
<trkpt lat="46.047425" lon="11.167141">
<time>2020-11-25T10:16:13Z</time>
</trkpt>
<trkpt lat="46.047425" lon="11.167143">
<time>2020-11-25T10:16:14Z</time>
</trkpt>
<trkpt lat="46.047426" lon="11.167146">
<time>2020-11-25T10:16:15Z</time>
</trkpt>
<trkpt lat="46.047426" lon="11.167153">
<time>2020-11-25T10:16:16Z</time>
</trkpt>
<trkpt lat="46.047428" lon="11.16716">
<time>2020-11-25T10:16:17Z</time>
</trkpt>
<trkpt lat="46.047438" lon="11.167163">
<time>2020-11-25T10:16:18Z</time>
</trkpt>
<trkpt lat="46.047445" lon="11.167171">
<time>2020-11-25T10:16:19Z</time>
</trkpt>
<trkpt lat="46.047451" lon="11.16718">
<time>2020-11-25T10:16:20Z</time>
</trkpt>
<trkpt lat="46.047459" lon="11.167187">
<time>2020-11-25T10:16:21Z</time>
</trkpt>
<trkpt lat="46.047476" lon="11.167187">
<time>2020-11-25T10:16:22Z</time>
</trkpt>
<trkpt lat="46.047489" lon="11.167189">
<time>2020-11-25T10:16:23Z</time>
</trkpt>
<trkpt lat="46.047498" lon="11.167192">
<time>2020-11-25T10:16:24Z</time>
</trkpt>
<trkpt lat="46.047501" lon="11.1672">
<time>2020-11-25T10:16:25Z</time>
</trkpt>
<trkpt lat="46.047505" lon="11.167206">
<time>2020-11-25T10:16:26Z</time>
</trkpt>
<trkpt lat="46.047509" lon="11.167213">
<time>2020-11-25T10:16:27Z</time>
</trkpt>
<trkpt lat="46.047516" lon="11.167225">
<time>2020-11-25T10:16:28Z</time>
</trkpt>
<trkpt lat="46.047525" lon="11.167231">
<time>2020-11-25T10:16:29Z</time>
</trkpt>
<trkpt lat="46.047533" lon="11.167241">
<time>2020-11-25T10:16:30Z</time>
</trkpt>
<trkpt lat="46.047537" lon="11.167249">
<time>2020-11-25T10:16:31Z</time>
</trkpt>
<trkpt lat="46.047545" lon="11.167257">
<time>2020-11-25T10:16:32Z</time>
</trkpt>
<trkpt lat="46.047553" lon="11.167265">
<time>2020-11-25T10:16:33Z</time>
</trkpt>
<trkpt lat="46.047559" lon="11.167272">
<time>2020-11-25T10:16:34Z</time>
</trkpt>
<trkpt lat="46.047561" lon="11.167279">
<time>2020-11-25T10:16:35Z</time>
</trkpt>
<trkpt lat="46.047562" lon="11.16729">
<time>2020-11-25T10:16:36Z</time>
</trkpt>
<trkpt lat="46.047563" lon="11.167301">
<time>2020-11-25T10:16:37Z</time>
</trkpt>
<trkpt lat="46.047563" lon="11.167317">
<time>2020-11-25T10:16:38Z</time>
</trkpt>
<trkpt lat="46.04756" lon="11.167332">
<time>2020-11-25T10:16:39Z</time>
</trkpt>
<trkpt lat="46.047557" lon="11.167346">
<time>2020-11-25T10:16:40Z</time>
</trkpt>
<trkpt lat="46.047557" lon="11.167354">
<time>2020-11-25T10:16:41Z</time>
</trkpt>
<trkpt lat="46.047556" lon="11.16736">
<time>2020-11-25T10:16:42Z</time>
</trkpt>
<trkpt lat="46.047559" lon="11.167367">
<time>2020-11-25T10:16:43Z</time>
</trkpt>
<trkpt lat="46.047564" lon="11.167375">
<time>2020-11-25T10:16:44Z</time>
</trkpt>
<trkpt lat="46.047567" lon="11.167384">
<time>2020-11-25T10:16:45Z</time>
</trkpt>
<trkpt lat="46.047575" lon="11.167392">
<time>2020-11-25T10:16:46Z</time>
</trkpt>
<trkpt lat="46.047581" lon="11.167401">
<time>2020-11-25T10:16:47Z</time>
</trkpt>
<trkpt lat="46.047588" lon="11.167408">
<time>2020-11-25T10:16:48Z</time>
</trkpt>
<trkpt lat="46.047594" lon="11.167417">
<time>2020-11-25T10:16:49Z</time>
</trkpt>
<trkpt lat="46.047599" lon="11.167423">
<time>2020-11-25T10:16:50Z</time>
</trkpt>
<trkpt lat="46.047608" lon="11.167431">
<time>2020-11-25T10:16:51Z</time>
</trkpt>
<trkpt lat="46.047617" lon="11.167443">
<time>2020-11-25T10:16:52Z</time>
</trkpt>
<trkpt lat="46.047626" lon="11.167453">
<time>2020-11-25T10:16:53Z</time>
</trkpt>
<trkpt lat="46.047631" lon="11.167466">
<time>2020-11-25T10:16:54Z</time>
</trkpt>
<trkpt lat="46.047635" lon="11.167478">
<time>2020-11-25T10:16:55Z</time>
</trkpt>
<trkpt lat="46.047639" lon="11.167489">
<time>2020-11-25T10:16:56Z</time>
</trkpt>
<trkpt lat="46.047644" lon="11.1675">
<time>2020-11-25T10:16:57Z</time>
</trkpt>
<trkpt lat="46.047652" lon="11.167507">
<time>2020-11-25T10:16:58Z</time>
</trkpt>
<trkpt lat="46.047662" lon="11.16751">
<time>2020-11-25T10:16:59Z</time>
</trkpt>
<trkpt lat="46.047672" lon="11.167513">
<time>2020-11-25T10:17:00Z</time>
</trkpt>
<trkpt lat="46.047678" lon="11.167516">
<time>2020-11-25T10:17:01Z</time>
</trkpt>
<trkpt lat="46.047683" lon="11.167515">
<time>2020-11-25T10:17:02Z</time>
</trkpt>
<trkpt lat="46.047685" lon="11.167518">
<time>2020-11-25T10:17:03Z</time>
</trkpt>
<trkpt lat="46.047689" lon="11.167517">
<time>2020-11-25T10:17:04Z</time>
</trkpt>
<trkpt lat="46.04769" lon="11.167518">
<time>2020-11-25T10:17:05Z</time>
</trkpt>
<trkpt lat="46.047689" lon="11.167522">
<time>2020-11-25T10:17:06Z</time>
</trkpt>
<trkpt lat="46.047697" lon="11.167539">
<time>2020-11-25T10:17:07Z</time>
</trkpt>
<trkpt lat="46.0477" lon="11.167549">
<time>2020-11-25T10:17:08Z</time>
</trkpt>
<trkpt lat="46.047696" lon="11.167558">
<time>2020-11-25T10:17:09Z</time>
</trkpt>
<trkpt lat="46.047691" lon="11.167568">
<time>2020-11-25T10:17:10Z</time>
</trkpt>
<trkpt lat="46.04769" lon="11.167574">
<time>2020-11-25T10:17:11Z</time>
</trkpt>
<trkpt lat="46.047685" lon="11.167576">
<time>2020-11-25T10:17:12Z</time>
</trkpt>
<trkpt lat="46.04768" lon="11.167576">
<time>2020-11-25T10:17:13Z</time>
</trkpt>
<trkpt lat="46.047675" lon="11.167576">
<time>2020-11-25T10:17:14Z</time>
</trkpt>
<trkpt lat="46.04767" lon="11.167584">
<time>2020-11-25T10:17:15Z</time>
</trkpt>
<trkpt lat="46.047662" lon="11.167603">
<time>2020-11-25T10:17:16Z</time>
</trkpt>
<trkpt lat="46.047657" lon="11.167615">
<time>2020-11-25T10:17:17Z</time>
</trkpt>
<trkpt lat="46.047657" lon="11.167621">
<time>2020-11-25T10:17:18Z</time>
</trkpt>
<trkpt lat="46.047658" lon="11.167629">
<time>2020-11-25T10:17:19Z</time>
</trkpt>
<trkpt lat="46.047664" lon="11.167633">
<time>2020-11-25T10:17:20Z</time>
</trkpt>
<trkpt lat="46.047665" lon="11.167631">
<time>2020-11-25T10:17:21Z</time>
</trkpt>
<trkpt lat="46.047667" lon="11.167627">
<time>2020-11-25T10:17:22Z</time>
</trkpt>
<trkpt lat="46.047673" lon="11.167625">
<time>2020-11-25T10:17:23Z</time>
</trkpt>
<trkpt lat="46.047685" lon="11.167622">
<time>2020-11-25T10:17:24Z</time>
</trkpt>
<trkpt lat="46.047693" lon="11.167616">
<time>2020-11-25T10:17:25Z</time>
</trkpt>
<trkpt lat="46.047701" lon="11.167612">
<time>2020-11-25T10:17:26Z</time>
</trkpt>
<trkpt lat="46.047711" lon="11.16761">
<time>2020-11-25T10:17:27Z</time>
</trkpt>
<trkpt lat="46.047716" lon="11.167612">
<time>2020-11-25T10:17:28Z</time>
</trkpt>
<trkpt lat="46.047722" lon="11.167617">
<time>2020-11-25T10:17:29Z</time>
</trkpt>
<trkpt lat="46.047733" lon="11.16762">
<time>2020-11-25T10:17:30Z</time>
</trkpt>
<trkpt lat="46.047746" lon="11.167619">
<time>2020-11-25T10:17:31Z</time>
</trkpt>
<trkpt lat="46.047758" lon="11.167614">
<time>2020-11-25T10:17:32Z</time>
</trkpt>
<trkpt lat="46.047769" lon="11.16761">
<time>2020-11-25T10:17:33Z</time>
</trkpt>
<trkpt lat="46.047783" lon="11.167603">
<time>2020-11-25T10:17:34Z</time>
</trkpt>
<trkpt lat="46.047795" lon="11.167604">
<time>2020-11-25T10:17:35Z</time>
</trkpt>
<trkpt lat="46.047806" lon="11.167605">
<time>2020-11-25T10:17:36Z</time>
</trkpt>
<trkpt lat="46.047817" lon="11.167599">
<time>2020-11-25T10:17:37Z</time>
</trkpt>
<trkpt lat="46.047825" lon="11.167596">
<time>2020-11-25T10:17:38Z</time>
</trkpt>
<trkpt lat="46.047835" lon="11.167599">
<time>2020-11-25T10:17:39Z</time>
</trkpt>
<trkpt lat="46.047844" lon="11.167598">
<time>2020-11-25T10:17:40Z</time>
</trkpt>
<trkpt lat="46.047852" lon="11.167598">
<time>2020-11-25T10:17:41Z</time>
</trkpt>
<trkpt lat="46.047858" lon="11.167602">
<time>2020-11-25T10:17:42Z</time>
</trkpt>
<trkpt lat="46.047863" lon="11.167603">
<time>2020-11-25T10:17:43Z</time>
</trkpt>
<trkpt lat="46.047869" lon="11.167603">
<time>2020-11-25T10:17:44Z</time>
</trkpt>
<trkpt lat="46.04788" lon="11.1676">
<time>2020-11-25T10:17:45Z</time>
</trkpt>
<trkpt lat="46.047889" lon="11.167591">
<time>2020-11-25T10:17:46Z</time>
</trkpt>
<trkpt lat="46.047897" lon="11.167588">
<time>2020-11-25T10:17:47Z</time>
</trkpt>
<trkpt lat="46.047901" lon="11.167584">
<time>2020-11-25T10:17:48Z</time>
</trkpt>
<trkpt lat="46.047906" lon="11.167586">
<time>2020-11-25T10:17:49Z</time>
</trkpt>
<trkpt lat="46.047909" lon="11.167601">
<time>2020-11-25T10:17:50Z</time>
</trkpt>
<trkpt lat="46.047917" lon="11.167605">
<time>2020-11-25T10:17:51Z</time>
</trkpt>
<trkpt lat="46.047923" lon="11.167607">
<time>2020-11-25T10:17:52Z</time>
</trkpt>
<trkpt lat="46.047927" lon="11.167609">
<time>2020-11-25T10:17:53Z</time>
</trkpt>
<trkpt lat="46.04793" lon="11.167609">
<time>2020-11-25T10:17:54Z</time>
</trkpt>
<trkpt lat="46.047933" lon="11.167609">
<time>2020-11-25T10:17:55Z</time>
</trkpt>
<trkpt lat="46.047935" lon="11.167607">
<time>2020-11-25T10:17:56Z</time>
</trkpt>
<trkpt lat="46.047938" lon="11.167607">
<time>2020-11-25T10:17:57Z</time>
</trkpt>
<trkpt lat="46.04794" lon="11.167601">
<time>2020-11-25T10:17:58Z</time>
</trkpt>
<trkpt lat="46.047938" lon="11.167594">
<time>2020-11-25T10:17:59Z</time>
</trkpt>
<trkpt lat="46.047939" lon="11.167589">
<time>2020-11-25T10:18:00Z</time>
</trkpt>
<trkpt lat="46.047943" lon="11.167588">
<time>2020-11-25T10:18:01Z</time>
</trkpt>
<trkpt lat="46.047946" lon="11.167588">
<time>2020-11-25T10:18:02Z</time>
</trkpt>
<trkpt lat="46.047948" lon="11.167582">
<time>2020-11-25T10:18:03Z</time>
</trkpt>
<trkpt lat="46.047947" lon="11.167572">
<time>2020-11-25T10:18:04Z</time>
</trkpt>
<trkpt lat="46.047944" lon="11.167568">
<time>2020-11-25T10:18:05Z</time>
</trkpt>
<trkpt lat="46.047936" lon="11.167571">
<time>2020-11-25T10:18:06Z</time>
</trkpt>
<trkpt lat="46.047934" lon="11.167563">
<time>2020-11-25T10:18:07Z</time>
</trkpt>
<trkpt lat="46.047939" lon="11.167557">
<time>2020-11-25T10:18:08Z</time>
</trkpt>
<trkpt lat="46.047939" lon="11.167562">
<time>2020-11-25T10:18:09Z</time>
</trkpt>
<trkpt lat="46.047943" lon="11.167561">
<time>2020-11-25T10:18:10Z</time>
</trkpt>
<trkpt lat="46.047951" lon="11.167563">
<time>2020-11-25T10:18:11Z</time>
</trkpt>
<trkpt lat="46.047953" lon="11.167561">
<time>2020-11-25T10:18:12Z</time>
</trkpt>
<trkpt lat="46.047955" lon="11.167558">
<time>2020-11-25T10:18:13Z</time>
</trkpt>
<trkpt lat="46.047954" lon="11.167557">
<time>2020-11-25T10:18:14Z</time>
</trkpt>
<trkpt lat="46.047967" lon="11.16755">
<time>2020-11-25T10:18:15Z</time>
</trkpt>
<trkpt lat="46.047969" lon="11.167547">
<time>2020-11-25T10:18:16Z</time>
</trkpt>
<trkpt lat="46.047977" lon="11.167542">
<time>2020-11-25T10:18:17Z</time>
</trkpt>
<trkpt lat="46.047984" lon="11.167537">
<time>2020-11-25T10:18:18Z</time>
</trkpt>
<trkpt lat="46.047988" lon="11.167539">
<time>2020-11-25T10:18:19Z</time>
</trkpt>
<trkpt lat="46.047994" lon="11.167535">
<time>2020-11-25T10:18:20Z</time>
</trkpt>
<trkpt lat="46.047998" lon="11.167526">
<time>2020-11-25T10:18:21Z</time>
</trkpt>
<trkpt lat="46.048" lon="11.16752">
<time>2020-11-25T10:18:22Z</time>
</trkpt>
<trkpt lat="46.047998" lon="11.167518">
<time>2020-11-25T10:18:23Z</time>
</trkpt>
<trkpt lat="46.047995" lon="11.167518">
<time>2020-11-25T10:18:24Z</time>
</trkpt>
<trkpt lat="46.047998" lon="11.167518">
<time>2020-11-25T10:18:25Z</time>
</trkpt>
<trkpt lat="46.048009" lon="11.167514">
<time>2020-11-25T10:18:26Z</time>
</trkpt>
<trkpt lat="46.048008" lon="11.167515">
<time>2020-11-25T10:18:27Z</time>
</trkpt>
<trkpt lat="46.048011" lon="11.167512">
<time>2020-11-25T10:18:28Z</time>
</trkpt>
<trkpt lat="46.048012" lon="11.167512">
<time>2020-11-25T10:18:29Z</time>
</trkpt>
<trkpt lat="46.048015" lon="11.167512">
<time>2020-11-25T10:18:30Z</time>
</trkpt>
<trkpt lat="46.04802" lon="11.167508">
<time>2020-11-25T10:18:31Z</time>
</trkpt>
<trkpt lat="46.048019" lon="11.167506">
<time>2020-11-25T10:18:32Z</time>
</trkpt>
<trkpt lat="46.048012" lon="11.167504">
<time>2020-11-25T10:18:33Z</time>
</trkpt>
<trkpt lat="46.048009" lon="11.167504">
<time>2020-11-25T10:18:34Z</time>
</trkpt>
<trkpt lat="46.048008" lon="11.167512">
<time>2020-11-25T10:18:35Z</time>
</trkpt>
<trkpt lat="46.048008" lon="11.167516">
<time>2020-11-25T10:18:36Z</time>
</trkpt>
<trkpt lat="46.048005" lon="11.167529">
<time>2020-11-25T10:18:37Z</time>
</trkpt>
<trkpt lat="46.047996" lon="11.167548">
<time>2020-11-25T10:18:38Z</time>
</trkpt>
<trkpt lat="46.047987" lon="11.16756">
<time>2020-11-25T10:18:39Z</time>
</trkpt>
<trkpt lat="46.04798" lon="11.167568">
<time>2020-11-25T10:18:40Z</time>
</trkpt>
<trkpt lat="46.04797" lon="11.167579">
<time>2020-11-25T10:18:41Z</time>
</trkpt>
<trkpt lat="46.047964" lon="11.167588">
<time>2020-11-25T10:18:42Z</time>
</trkpt>
<trkpt lat="46.047955" lon="11.167594">
<time>2020-11-25T10:18:43Z</time>
</trkpt>
<trkpt lat="46.047954" lon="11.167599">
<time>2020-11-25T10:18:44Z</time>
</trkpt>
<trkpt lat="46.047952" lon="11.167602">
<time>2020-11-25T10:18:45Z</time>
</trkpt>
<trkpt lat="46.047951" lon="11.167604">
<time>2020-11-25T10:18:46Z</time>
</trkpt>
<trkpt lat="46.047953" lon="11.167604">
<time>2020-11-25T10:18:47Z</time>
</trkpt>
<trkpt lat="46.047954" lon="11.167605">
<time>2020-11-25T10:18:48Z</time>
</trkpt>
<trkpt lat="46.047957" lon="11.16761">
<time>2020-11-25T10:18:49Z</time>
</trkpt>
<trkpt lat="46.047959" lon="11.167615">
<time>2020-11-25T10:18:50Z</time>
</trkpt>
<trkpt lat="46.04796" lon="11.167619">
<time>2020-11-25T10:18:51Z</time>
</trkpt>
<trkpt lat="46.04796" lon="11.16762">
<time>2020-11-25T10:18:52Z</time>
</trkpt>
<trkpt lat="46.04796" lon="11.167622">
<time>2020-11-25T10:18:53Z</time>
</trkpt>
<trkpt lat="46.047955" lon="11.167619">
<time>2020-11-25T10:18:54Z</time>
</trkpt>
<trkpt lat="46.047949" lon="11.167616">
<time>2020-11-25T10:18:55Z</time>
</trkpt>
<trkpt lat="46.047946" lon="11.167619">
<time>2020-11-25T10:18:56Z</time>
</trkpt>
<trkpt lat="46.047943" lon="11.167624">
<time>2020-11-25T10:18:57Z</time>
</trkpt>
<trkpt lat="46.047938" lon="11.167634">
<time>2020-11-25T10:18:58Z</time>
</trkpt>
<trkpt lat="46.047935" lon="11.167641">
<time>2020-11-25T10:18:59Z</time>
</trkpt>
<trkpt lat="46.047932" lon="11.167642">
<time>2020-11-25T10:19:00Z</time>
</trkpt>
<trkpt lat="46.047926" lon="11.167641">
<time>2020-11-25T10:19:01Z</time>
</trkpt>
<trkpt lat="46.047918" lon="11.167638">
<time>2020-11-25T10:19:02Z</time>
</trkpt>
<trkpt lat="46.047909" lon="11.167633">
<time>2020-11-25T10:19:03Z</time>
</trkpt>
<trkpt lat="46.047897" lon="11.16763">
<time>2020-11-25T10:19:04Z</time>
</trkpt>
<trkpt lat="46.047885" lon="11.167628">
<time>2020-11-25T10:19:05Z</time>
</trkpt>
<trkpt lat="46.047875" lon="11.167637">
<time>2020-11-25T10:19:06Z</time>
</trkpt>
<trkpt lat="46.047869" lon="11.167643">
<time>2020-11-25T10:19:07Z</time>
</trkpt>
<trkpt lat="46.047865" lon="11.167655">
<time>2020-11-25T10:19:08Z</time>
</trkpt>
<trkpt lat="46.047856" lon="11.167674">
<time>2020-11-25T10:19:09Z</time>
</trkpt>
<trkpt lat="46.047856" lon="11.16769">
<time>2020-11-25T10:19:10Z</time>
</trkpt>
<trkpt lat="46.047855" lon="11.167704">
<time>2020-11-25T10:19:11Z</time>
</trkpt>
<trkpt lat="46.047854" lon="11.167716">
<time>2020-11-25T10:19:12Z</time>
</trkpt>
<trkpt lat="46.047852" lon="11.167729">
<time>2020-11-25T10:19:13Z</time>
</trkpt>
<trkpt lat="46.047837" lon="11.167741">
<time>2020-11-25T10:19:14Z</time>
</trkpt>
<trkpt lat="46.047822" lon="11.167757">
<time>2020-11-25T10:19:15Z</time>
</trkpt>
<trkpt lat="46.047807" lon="11.167769">
<time>2020-11-25T10:19:16Z</time>
</trkpt>
<trkpt lat="46.047799" lon="11.167774">
<time>2020-11-25T10:19:17Z</time>
</trkpt>
<trkpt lat="46.047794" lon="11.167781">
<time>2020-11-25T10:19:18Z</time>
</trkpt>
<trkpt lat="46.047792" lon="11.167785">
<time>2020-11-25T10:19:19Z</time>
</trkpt>
<trkpt lat="46.047789" lon="11.167787">
<time>2020-11-25T10:19:20Z</time>
</trkpt>
<trkpt lat="46.047788" lon="11.167786">
<time>2020-11-25T10:19:21Z</time>
</trkpt>
<trkpt lat="46.047789" lon="11.16779">
<time>2020-11-25T10:19:22Z</time>
</trkpt>
<trkpt lat="46.047791" lon="11.167791">
<time>2020-11-25T10:19:23Z</time>
</trkpt>
<trkpt lat="46.047794" lon="11.167798">
<time>2020-11-25T10:19:24Z</time>
</trkpt>
<trkpt lat="46.047791" lon="11.167803">
<time>2020-11-25T10:19:25Z</time>
</trkpt>
<trkpt lat="46.047787" lon="11.167807">
<time>2020-11-25T10:19:26Z</time>
</trkpt>
<trkpt lat="46.047784" lon="11.167806">
<time>2020-11-25T10:19:27Z</time>
</trkpt>
<trkpt lat="46.047782" lon="11.167806">
<time>2020-11-25T10:19:28Z</time>
</trkpt>
<trkpt lat="46.04778" lon="11.167812">
<time>2020-11-25T10:19:29Z</time>
</trkpt>
<trkpt lat="46.047779" lon="11.167817">
<time>2020-11-25T10:19:30Z</time>
</trkpt>
<trkpt lat="46.047775" lon="11.167821">
<time>2020-11-25T10:19:31Z</time>
</trkpt>
<trkpt lat="46.047773" lon="11.167834">
<time>2020-11-25T10:19:32Z</time>
</trkpt>
<trkpt lat="46.047771" lon="11.167845">
<time>2020-11-25T10:19:33Z</time>
</trkpt>
<trkpt lat="46.047771" lon="11.167855">
<time>2020-11-25T10:19:34Z</time>
</trkpt>
<trkpt lat="46.04777" lon="11.167868">
<time>2020-11-25T10:19:35Z</time>
</trkpt>
<trkpt lat="46.047768" lon="11.16788">
<time>2020-11-25T10:19:36Z</time>
</trkpt>
<trkpt lat="46.047766" lon="11.16789">
<time>2020-11-25T10:19:37Z</time>
</trkpt>
<trkpt lat="46.047762" lon="11.167899">
<time>2020-11-25T10:19:38Z</time>
</trkpt>
<trkpt lat="46.04776" lon="11.167906">
<time>2020-11-25T10:19:39Z</time>
</trkpt>
<trkpt lat="46.047758" lon="11.167912">
<time>2020-11-25T10:19:40Z</time>
</trkpt>
<trkpt lat="46.047755" lon="11.167919">
<time>2020-11-25T10:19:41Z</time>
</trkpt>
<trkpt lat="46.047752" lon="11.167927">
<time>2020-11-25T10:19:42Z</time>
</trkpt>
<trkpt lat="46.04775" lon="11.167935">
<time>2020-11-25T10:19:43Z</time>
</trkpt>
<trkpt lat="46.047744" lon="11.167941">
<time>2020-11-25T10:19:44Z</time>
</trkpt>
<trkpt lat="46.047741" lon="11.167947">
<time>2020-11-25T10:19:45Z</time>
</trkpt>
<trkpt lat="46.047739" lon="11.167951">
<time>2020-11-25T10:19:46Z</time>
</trkpt>
<trkpt lat="46.047738" lon="11.167953">
<time>2020-11-25T10:19:47Z</time>
</trkpt>
<trkpt lat="46.047735" lon="11.167956">
<time>2020-11-25T10:19:48Z</time>
</trkpt>
<trkpt lat="46.047734" lon="11.167962">
<time>2020-11-25T10:19:49Z</time>
</trkpt>
<trkpt lat="46.047733" lon="11.167969">
<time>2020-11-25T10:19:50Z</time>
</trkpt>
<trkpt lat="46.047727" lon="11.167967">
<time>2020-11-25T10:19:51Z</time>
</trkpt>
<trkpt lat="46.047725" lon="11.167971">
<time>2020-11-25T10:19:52Z</time>
</trkpt>
<trkpt lat="46.047724" lon="11.167973">
<time>2020-11-25T10:19:53Z</time>
</trkpt>
<trkpt lat="46.047724" lon="11.167974">
<time>2020-11-25T10:19:54Z</time>
</trkpt>
<trkpt lat="46.047723" lon="11.167973">
<time>2020-11-25T10:19:55Z</time>
</trkpt>
<trkpt lat="46.047721" lon="11.167974">
<time>2020-11-25T10:19:56Z</time>
</trkpt>
<trkpt lat="46.04772" lon="11.167974">
<time>2020-11-25T10:19:57Z</time>
</trkpt>
<trkpt lat="46.047718" lon="11.167975">
<time>2020-11-25T10:19:58Z</time>
</trkpt>
<trkpt lat="46.047716" lon="11.167975">
<time>2020-11-25T10:19:59Z</time>
</trkpt>
<trkpt lat="46.047716" lon="11.167975">
<time>2020-11-25T10:20:00Z</time>
</trkpt>
<trkpt lat="46.047717" lon="11.167975">
<time>2020-11-25T10:20:01Z</time>
</trkpt>
<trkpt lat="46.047716" lon="11.167975">
<time>2020-11-25T10:20:02Z</time>
</trkpt>
<trkpt lat="46.047716" lon="11.167976">
<time>2020-11-25T10:20:03Z</time>
</trkpt>
<trkpt lat="46.047717" lon="11.167976">
<time>2020-11-25T10:20:04Z</time>
</trkpt>
<trkpt lat="46.047717" lon="11.167976">
<time>2020-11-25T10:20:05Z</time>
</trkpt>
<trkpt lat="46.047716" lon="11.167977">
<time>2020-11-25T10:20:06Z</time>
</trkpt>
<trkpt lat="46.047716" lon="11.167978">
<time>2020-11-25T10:20:07Z</time>
</trkpt>
<trkpt lat="46.047715" lon="11.16798">
<time>2020-11-25T10:20:08Z</time>
</trkpt>
<trkpt lat="46.047714" lon="11.167981">
<time>2020-11-25T10:20:09Z</time>
</trkpt>
<trkpt lat="46.047713" lon="11.167981">
<time>2020-11-25T10:20:10Z</time>
</trkpt>
<trkpt lat="46.047713" lon="11.167982">
<time>2020-11-25T10:20:11Z</time>
</trkpt>
<trkpt lat="46.047713" lon="11.167984">
<time>2020-11-25T10:20:12Z</time>
</trkpt>
<trkpt lat="46.047715" lon="11.167984">
<time>2020-11-25T10:20:13Z</time>
</trkpt>
<trkpt lat="46.047715" lon="11.167984">
<time>2020-11-25T10:20:14Z</time>
</trkpt>
<trkpt lat="46.047716" lon="11.167984">
<time>2020-11-25T10:20:15Z</time>
</trkpt>
<trkpt lat="46.047716" lon="11.167984">
<time>2020-11-25T10:20:16Z</time>
</trkpt>
<trkpt lat="46.047716" lon="11.167984">
<time>2020-11-25T10:20:17Z</time>
</trkpt>
<trkpt lat="46.047715" lon="11.167984">
<time>2020-11-25T10:20:18Z</time>
</trkpt>
<trkpt lat="46.047715" lon="11.167985">
<time>2020-11-25T10:20:19Z</time>
</trkpt>
<trkpt lat="46.047713" lon="11.167985">
<time>2020-11-25T10:20:20Z</time>
</trkpt>
<trkpt lat="46.047712" lon="11.167985">
<time>2020-11-25T10:20:21Z</time>
</trkpt>
<trkpt lat="46.04771" lon="11.167983">
<time>2020-11-25T10:20:22Z</time>
</trkpt>
<trkpt lat="46.047709" lon="11.167983">
<time>2020-11-25T10:20:23Z</time>
</trkpt>
<trkpt lat="46.047709" lon="11.167983">
<time>2020-11-25T10:20:24Z</time>
</trkpt>
<trkpt lat="46.047709" lon="11.167983">
<time>2020-11-25T10:20:25Z</time>
</trkpt>
<trkpt lat="46.047709" lon="11.167982">
<time>2020-11-25T10:20:26Z</time>
</trkpt>
<trkpt lat="46.047711" lon="11.167981">
<time>2020-11-25T10:20:27Z</time>
</trkpt>
<trkpt lat="46.047711" lon="11.167979">
<time>2020-11-25T10:20:28Z</time>
</trkpt>
<trkpt lat="46.047711" lon="11.167978">
<time>2020-11-25T10:20:29Z</time>
</trkpt>
<trkpt lat="46.047713" lon="11.167978">
<time>2020-11-25T10:20:30Z</time>
</trkpt>
<trkpt lat="46.047713" lon="11.167978">
<time>2020-11-25T10:20:31Z</time>
</trkpt>
<trkpt lat="46.04771" lon="11.167977">
<time>2020-11-25T10:20:32Z</time>
</trkpt>
<trkpt lat="46.047706" lon="11.167976">
<time>2020-11-25T10:20:33Z</time>
</trkpt>
<trkpt lat="46.047701" lon="11.167979">
<time>2020-11-25T10:20:34Z</time>
</trkpt>
<trkpt lat="46.047696" lon="11.167982">
<time>2020-11-25T10:20:35Z</time>
</trkpt>
<trkpt lat="46.047691" lon="11.167987">
<time>2020-11-25T10:20:36Z</time>
</trkpt>
<trkpt lat="46.04769" lon="11.168001">
<time>2020-11-25T10:20:37Z</time>
</trkpt>
<trkpt lat="46.047692" lon="11.168019">
<time>2020-11-25T10:20:38Z</time>
</trkpt>
<trkpt lat="46.04769" lon="11.168029">
<time>2020-11-25T10:20:39Z</time>
</trkpt>
<trkpt lat="46.047687" lon="11.168037">
<time>2020-11-25T10:20:40Z</time>
</trkpt>
<trkpt lat="46.047681" lon="11.168043">
<time>2020-11-25T10:20:41Z</time>
</trkpt>
<trkpt lat="46.047673" lon="11.168052">
<time>2020-11-25T10:20:42Z</time>
</trkpt>
<trkpt lat="46.04767" lon="11.168067">
<time>2020-11-25T10:20:43Z</time>
</trkpt>
<trkpt lat="46.047662" lon="11.168084">
<time>2020-11-25T10:20:44Z</time>
</trkpt>
<trkpt lat="46.047657" lon="11.168098">
<time>2020-11-25T10:20:45Z</time>
</trkpt>
<trkpt lat="46.047652" lon="11.168111">
<time>2020-11-25T10:20:46Z</time>
</trkpt>
<trkpt lat="46.047646" lon="11.168122">
<time>2020-11-25T10:20:47Z</time>
</trkpt>
<trkpt lat="46.047635" lon="11.168137">
<time>2020-11-25T10:20:48Z</time>
</trkpt>
<trkpt lat="46.047626" lon="11.168152">
<time>2020-11-25T10:20:49Z</time>
</trkpt>
<trkpt lat="46.047616" lon="11.168167">
<time>2020-11-25T10:20:50Z</time>
</trkpt>
<trkpt lat="46.047604" lon="11.168178">
<time>2020-11-25T10:20:51Z</time>
</trkpt>
<trkpt lat="46.047596" lon="11.168192">
<time>2020-11-25T10:20:52Z</time>
</trkpt>
<trkpt lat="46.04759" lon="11.168204">
<time>2020-11-25T10:20:53Z</time>
</trkpt>
<trkpt lat="46.047585" lon="11.168216">
<time>2020-11-25T10:20:54Z</time>
</trkpt>
<trkpt lat="46.047582" lon="11.168229">
<time>2020-11-25T10:20:55Z</time>
</trkpt>
<trkpt lat="46.047578" lon="11.168238">
<time>2020-11-25T10:20:56Z</time>
</trkpt>
<trkpt lat="46.047572" lon="11.168246">
<time>2020-11-25T10:20:57Z</time>
</trkpt>
<trkpt lat="46.047563" lon="11.168261">
<time>2020-11-25T10:20:58Z</time>
</trkpt>
<trkpt lat="46.04755" lon="11.168269">
<time>2020-11-25T10:20:59Z</time>
</trkpt>
<trkpt lat="46.047543" lon="11.168272">
<time>2020-11-25T10:21:00Z</time>
</trkpt>
<trkpt lat="46.047531" lon="11.168275">
<time>2020-11-25T10:21:01Z</time>
</trkpt>
<trkpt lat="46.047521" lon="11.16828">
<time>2020-11-25T10:21:02Z</time>
</trkpt>
<trkpt lat="46.047515" lon="11.168286">
<time>2020-11-25T10:21:03Z</time>
</trkpt>
<trkpt lat="46.04751" lon="11.16829">
<time>2020-11-25T10:21:04Z</time>
</trkpt>
<trkpt lat="46.047508" lon="11.168296">
<time>2020-11-25T10:21:05Z</time>
</trkpt>
<trkpt lat="46.047503" lon="11.168302">
<time>2020-11-25T10:21:06Z</time>
</trkpt>
<trkpt lat="46.047498" lon="11.168308">
<time>2020-11-25T10:21:07Z</time>
</trkpt>
<trkpt lat="46.047492" lon="11.168316">
<time>2020-11-25T10:21:08Z</time>
</trkpt>
<trkpt lat="46.047486" lon="11.168324">
<time>2020-11-25T10:21:09Z</time>
</trkpt>
<trkpt lat="46.04748" lon="11.168332">
<time>2020-11-25T10:21:10Z</time>
</trkpt>
<trkpt lat="46.047475" lon="11.16834">
<time>2020-11-25T10:21:11Z</time>
</trkpt>
<trkpt lat="46.047471" lon="11.168351">
<time>2020-11-25T10:21:12Z</time>
</trkpt>
<trkpt lat="46.047469" lon="11.168355">
<time>2020-11-25T10:21:13Z</time>
</trkpt>
<trkpt lat="46.047463" lon="11.168362">
<time>2020-11-25T10:21:14Z</time>
</trkpt>
<trkpt lat="46.047459" lon="11.168366">
<time>2020-11-25T10:21:15Z</time>
</trkpt>
<trkpt lat="46.047453" lon="11.168371">
<time>2020-11-25T10:21:16Z</time>
</trkpt>
<trkpt lat="46.04745" lon="11.168378">
<time>2020-11-25T10:21:17Z</time>
</trkpt>
<trkpt lat="46.047445" lon="11.168392">
<time>2020-11-25T10:21:18Z</time>
</trkpt>
<trkpt lat="46.04744" lon="11.168409">
<time>2020-11-25T10:21:19Z</time>
</trkpt>
<trkpt lat="46.047439" lon="11.168423">
<time>2020-11-25T10:21:20Z</time>
</trkpt>
<trkpt lat="46.047436" lon="11.168434">
<time>2020-11-25T10:21:21Z</time>
</trkpt>
<trkpt lat="46.047435" lon="11.168442">
<time>2020-11-25T10:21:22Z</time>
</trkpt>
<trkpt lat="46.047434" lon="11.168451">
<time>2020-11-25T10:21:23Z</time>
</trkpt>
<trkpt lat="46.047428" lon="11.168457">
<time>2020-11-25T10:21:24Z</time>
</trkpt>
<trkpt lat="46.047428" lon="11.168468">
<time>2020-11-25T10:21:25Z</time>
</trkpt>
<trkpt lat="46.047428" lon="11.168481">
<time>2020-11-25T10:21:26Z</time>
</trkpt>
<trkpt lat="46.047423" lon="11.168487">
<time>2020-11-25T10:21:27Z</time>
</trkpt>
<trkpt lat="46.04742" lon="11.168493">
<time>2020-11-25T10:21:28Z</time>
</trkpt>
<trkpt lat="46.047419" lon="11.168495">
<time>2020-11-25T10:21:29Z</time>
</trkpt>
<trkpt lat="46.047418" lon="11.1685">
<time>2020-11-25T10:21:30Z</time>
</trkpt>
<trkpt lat="46.047416" lon="11.168504">
<time>2020-11-25T10:21:31Z</time>
</trkpt>
<trkpt lat="46.047416" lon="11.168508">
<time>2020-11-25T10:21:32Z</time>
</trkpt>
<trkpt lat="46.047415" lon="11.168512">
<time>2020-11-25T10:21:33Z</time>
</trkpt>
<trkpt lat="46.047413" lon="11.168516">
<time>2020-11-25T10:21:34Z</time>
</trkpt>
<trkpt lat="46.047413" lon="11.168518">
<time>2020-11-25T10:21:35Z</time>
</trkpt>
<trkpt lat="46.04741" lon="11.168519">
<time>2020-11-25T10:21:36Z</time>
</trkpt>
<trkpt lat="46.047405" lon="11.168521">
<time>2020-11-25T10:21:37Z</time>
</trkpt>
<trkpt lat="46.047402" lon="11.168521">
<time>2020-11-25T10:21:38Z</time>
</trkpt>
<trkpt lat="46.0474" lon="11.168522">
<time>2020-11-25T10:21:39Z</time>
</trkpt>
<trkpt lat="46.047396" lon="11.168522">
<time>2020-11-25T10:21:40Z</time>
</trkpt>
<trkpt lat="46.04739" lon="11.16852">
<time>2020-11-25T10:21:41Z</time>
</trkpt>
<trkpt lat="46.047385" lon="11.168518">
<time>2020-11-25T10:21:42Z</time>
</trkpt>
<trkpt lat="46.047377" lon="11.168514">
<time>2020-11-25T10:21:43Z</time>
</trkpt>
<trkpt lat="46.047371" lon="11.168512">
<time>2020-11-25T10:21:44Z</time>
</trkpt>
<trkpt lat="46.047363" lon="11.168509">
<time>2020-11-25T10:21:45Z</time>
</trkpt>
<trkpt lat="46.047358" lon="11.16851">
<time>2020-11-25T10:21:46Z</time>
</trkpt>
<trkpt lat="46.047353" lon="11.168512">
<time>2020-11-25T10:21:47Z</time>
</trkpt>
<trkpt lat="46.047352" lon="11.168512">
<time>2020-11-25T10:21:48Z</time>
</trkpt>
<trkpt lat="46.04735" lon="11.168511">
<time>2020-11-25T10:21:49Z</time>
</trkpt>
<trkpt lat="46.047349" lon="11.168518">
<time>2020-11-25T10:21:50Z</time>
</trkpt>
<trkpt lat="46.047347" lon="11.168525">
<time>2020-11-25T10:21:51Z</time>
</trkpt>
<trkpt lat="46.047346" lon="11.168533">
<time>2020-11-25T10:21:52Z</time>
</trkpt>
<trkpt lat="46.047343" lon="11.168539">
<time>2020-11-25T10:21:53Z</time>
</trkpt>
<trkpt lat="46.047344" lon="11.168549">
<time>2020-11-25T10:21:54Z</time>
</trkpt>
<trkpt lat="46.047343" lon="11.168552">
<time>2020-11-25T10:21:55Z</time>
</trkpt>
<trkpt lat="46.047345" lon="11.168557">
<time>2020-11-25T10:21:56Z</time>
</trkpt>
<trkpt lat="46.047347" lon="11.168563">
<time>2020-11-25T10:21:57Z</time>
</trkpt>
<trkpt lat="46.047348" lon="11.168574">
<time>2020-11-25T10:21:58Z</time>
</trkpt>
<trkpt lat="46.04735" lon="11.168583">
<time>2020-11-25T10:21:59Z</time>
</trkpt>
<trkpt lat="46.04735" lon="11.168587">
<time>2020-11-25T10:22:00Z</time>
</trkpt>
<trkpt lat="46.047352" lon="11.168589">
<time>2020-11-25T10:22:01Z</time>
</trkpt>
<trkpt lat="46.047353" lon="11.168595">
<time>2020-11-25T10:22:02Z</time>
</trkpt>
<trkpt lat="46.047352" lon="11.168597">
<time>2020-11-25T10:22:03Z</time>
</trkpt>
<trkpt lat="46.047356" lon="11.168596">
<time>2020-11-25T10:22:04Z</time>
</trkpt>
<trkpt lat="46.047359" lon="11.168595">
<time>2020-11-25T10:22:05Z</time>
</trkpt>
<trkpt lat="46.047361" lon="11.168604">
<time>2020-11-25T10:22:06Z</time>
</trkpt>
<trkpt lat="46.047362" lon="11.168615">
<time>2020-11-25T10:22:07Z</time>
</trkpt>
<trkpt lat="46.047363" lon="11.168624">
<time>2020-11-25T10:22:08Z</time>
</trkpt>
<trkpt lat="46.047364" lon="11.168631">
<time>2020-11-25T10:22:09Z</time>
</trkpt>
<trkpt lat="46.047365" lon="11.168647">
<time>2020-11-25T10:22:10Z</time>
</trkpt>
<trkpt lat="46.047369" lon="11.168656">
<time>2020-11-25T10:22:11Z</time>
</trkpt>
<trkpt lat="46.047371" lon="11.168668">
<time>2020-11-25T10:22:12Z</time>
</trkpt>
<trkpt lat="46.047373" lon="11.168674">
<time>2020-11-25T10:22:13Z</time>
</trkpt>
<trkpt lat="46.047373" lon="11.168683">
<time>2020-11-25T10:22:14Z</time>
</trkpt>
<trkpt lat="46.047379" lon="11.168693">
<time>2020-11-25T10:22:15Z</time>
</trkpt>
<trkpt lat="46.047383" lon="11.1687">
<time>2020-11-25T10:22:16Z</time>
</trkpt>
<trkpt lat="46.047384" lon="11.16871">
<time>2020-11-25T10:22:17Z</time>
</trkpt>
<trkpt lat="46.047384" lon="11.168714">
<time>2020-11-25T10:22:18Z</time>
</trkpt>
<trkpt lat="46.047383" lon="11.168724">
<time>2020-11-25T10:22:19Z</time>
</trkpt>
<trkpt lat="46.047384" lon="11.168737">
<time>2020-11-25T10:22:20Z</time>
</trkpt>
<trkpt lat="46.047388" lon="11.168748">
<time>2020-11-25T10:22:21Z</time>
</trkpt>
<trkpt lat="46.047391" lon="11.16876">
<time>2020-11-25T10:22:22Z</time>
</trkpt>
<trkpt lat="46.047393" lon="11.168772">
<time>2020-11-25T10:22:23Z</time>
</trkpt>
<trkpt lat="46.047395" lon="11.168787">
<time>2020-11-25T10:22:24Z</time>
</trkpt>
<trkpt lat="46.047398" lon="11.168804">
<time>2020-11-25T10:22:25Z</time>
</trkpt>
<trkpt lat="46.0474" lon="11.16882">
<time>2020-11-25T10:22:26Z</time>
</trkpt>
<trkpt lat="46.047403" lon="11.168833">
<time>2020-11-25T10:22:27Z</time>
</trkpt>
<trkpt lat="46.047405" lon="11.168845">
<time>2020-11-25T10:22:28Z</time>
</trkpt>
<trkpt lat="46.047407" lon="11.168856">
<time>2020-11-25T10:22:29Z</time>
</trkpt>
<trkpt lat="46.047409" lon="11.168865">
<time>2020-11-25T10:22:30Z</time>
</trkpt>
<trkpt lat="46.04741" lon="11.168868">
<time>2020-11-25T10:22:31Z</time>
</trkpt>
<trkpt lat="46.047409" lon="11.168876">
<time>2020-11-25T10:22:32Z</time>
</trkpt>
<trkpt lat="46.047408" lon="11.16889">
<time>2020-11-25T10:22:33Z</time>
</trkpt>
<trkpt lat="46.047419" lon="11.168898">
<time>2020-11-25T10:22:34Z</time>
</trkpt>
<trkpt lat="46.047425" lon="11.168907">
<time>2020-11-25T10:22:35Z</time>
</trkpt>
<trkpt lat="46.047426" lon="11.168914">
<time>2020-11-25T10:22:36Z</time>
</trkpt>
<trkpt lat="46.047426" lon="11.16892">
<time>2020-11-25T10:22:37Z</time>
</trkpt>
<trkpt lat="46.047429" lon="11.168926">
<time>2020-11-25T10:22:38Z</time>
</trkpt>
<trkpt lat="46.047435" lon="11.168934">
<time>2020-11-25T10:22:39Z</time>
</trkpt>
<trkpt lat="46.047437" lon="11.168942">
<time>2020-11-25T10:22:40Z</time>
</trkpt>
<trkpt lat="46.047441" lon="11.168948">
<time>2020-11-25T10:22:41Z</time>
</trkpt>
<trkpt lat="46.047445" lon="11.168955">
<time>2020-11-25T10:22:42Z</time>
</trkpt>
<trkpt lat="46.047451" lon="11.168962">
<time>2020-11-25T10:22:43Z</time>
</trkpt>
<trkpt lat="46.047439" lon="11.168978">
<time>2020-11-25T10:22:44Z</time>
</trkpt>
<trkpt lat="46.04744" lon="11.168986">
<time>2020-11-25T10:22:45Z</time>
</trkpt>
<trkpt lat="46.04744" lon="11.168993">
<time>2020-11-25T10:22:46Z</time>
</trkpt>
<trkpt lat="46.047441" lon="11.169005">
<time>2020-11-25T10:22:47Z</time>
</trkpt>
<trkpt lat="46.047445" lon="11.169013">
<time>2020-11-25T10:22:48Z</time>
</trkpt>
<trkpt lat="46.047445" lon="11.169026">
<time>2020-11-25T10:22:49Z</time>
</trkpt>
<trkpt lat="46.047446" lon="11.169034">
<time>2020-11-25T10:22:50Z</time>
</trkpt>
<trkpt lat="46.047448" lon="11.169039">
<time>2020-11-25T10:22:51Z</time>
</trkpt>
<trkpt lat="46.047448" lon="11.169045">
<time>2020-11-25T10:22:52Z</time>
</trkpt>
<trkpt lat="46.047455" lon="11.169044">
<time>2020-11-25T10:22:53Z</time>
</trkpt>
<trkpt lat="46.047452" lon="11.169048">
<time>2020-11-25T10:22:54Z</time>
</trkpt>
<trkpt lat="46.047454" lon="11.169046">
<time>2020-11-25T10:22:55Z</time>
</trkpt>
<trkpt lat="46.04746" lon="11.169043">
<time>2020-11-25T10:22:56Z</time>
</trkpt>
<trkpt lat="46.047458" lon="11.169042">
<time>2020-11-25T10:22:57Z</time>
</trkpt>
<trkpt lat="46.047465" lon="11.169045">
<time>2020-11-25T10:22:58Z</time>
</trkpt>
<trkpt lat="46.047474" lon="11.169058">
<time>2020-11-25T10:22:59Z</time>
</trkpt>
<trkpt lat="46.047478" lon="11.169061">
<time>2020-11-25T10:23:00Z</time>
</trkpt>
<trkpt lat="46.047483" lon="11.169068">
<time>2020-11-25T10:23:01Z</time>
</trkpt>
<trkpt lat="46.047485" lon="11.169072">
<time>2020-11-25T10:23:02Z</time>
</trkpt>
<trkpt lat="46.047487" lon="11.169072">
<time>2020-11-25T10:23:03Z</time>
</trkpt>
<trkpt lat="46.047495" lon="11.169073">
<time>2020-11-25T10:23:04Z</time>
</trkpt>
<trkpt lat="46.047494" lon="11.16908">
<time>2020-11-25T10:23:05Z</time>
</trkpt>
<trkpt lat="46.047492" lon="11.169086">
<time>2020-11-25T10:23:06Z</time>
</trkpt>
<trkpt lat="46.047492" lon="11.169087">
<time>2020-11-25T10:23:07Z</time>
</trkpt>
<trkpt lat="46.047485" lon="11.169093">
<time>2020-11-25T10:23:08Z</time>
</trkpt>
<trkpt lat="46.04748" lon="11.169102">
<time>2020-11-25T10:23:09Z</time>
</trkpt>
<trkpt lat="46.047478" lon="11.169109">
<time>2020-11-25T10:23:10Z</time>
</trkpt>
<trkpt lat="46.047471" lon="11.169119">
<time>2020-11-25T10:23:11Z</time>
</trkpt>
<trkpt lat="46.047467" lon="11.169126">
<time>2020-11-25T10:23:12Z</time>
</trkpt>
<trkpt lat="46.047468" lon="11.169126">
<time>2020-11-25T10:23:13Z</time>
</trkpt>
<trkpt lat="46.047468" lon="11.169127">
<time>2020-11-25T10:23:14Z</time>
</trkpt>
<trkpt lat="46.047467" lon="11.169127">
<time>2020-11-25T10:23:15Z</time>
</trkpt>
<trkpt lat="46.047466" lon="11.169127">
<time>2020-11-25T10:23:16Z</time>
</trkpt>
<trkpt lat="46.047469" lon="11.169125">
<time>2020-11-25T10:23:17Z</time>
</trkpt>
<trkpt lat="46.04747" lon="11.169127">
<time>2020-11-25T10:23:18Z</time>
</trkpt>
<trkpt lat="46.047472" lon="11.169131">
<time>2020-11-25T10:23:19Z</time>
</trkpt>
<trkpt lat="46.047475" lon="11.169137">
<time>2020-11-25T10:23:20Z</time>
</trkpt>
<trkpt lat="46.047479" lon="11.169147">
<time>2020-11-25T10:23:21Z</time>
</trkpt>
<trkpt lat="46.047481" lon="11.169154">
<time>2020-11-25T10:23:22Z</time>
</trkpt>
<trkpt lat="46.047483" lon="11.169159">
<time>2020-11-25T10:23:23Z</time>
</trkpt>
<trkpt lat="46.047476" lon="11.169163">
<time>2020-11-25T10:23:24Z</time>
</trkpt>
<trkpt lat="46.047473" lon="11.169167">
<time>2020-11-25T10:23:25Z</time>
</trkpt>
<trkpt lat="46.047468" lon="11.169171">
<time>2020-11-25T10:23:26Z</time>
</trkpt>
<trkpt lat="46.047466" lon="11.169173">
<time>2020-11-25T10:23:27Z</time>
</trkpt>
<trkpt lat="46.047464" lon="11.169175">
<time>2020-11-25T10:23:28Z</time>
</trkpt>
<trkpt lat="46.04746" lon="11.169179">
<time>2020-11-25T10:23:29Z</time>
</trkpt>
<trkpt lat="46.047452" lon="11.169183">
<time>2020-11-25T10:23:30Z</time>
</trkpt>
<trkpt lat="46.047443" lon="11.169188">
<time>2020-11-25T10:23:31Z</time>
</trkpt>
<trkpt lat="46.047428" lon="11.169196">
<time>2020-11-25T10:23:32Z</time>
</trkpt>
<trkpt lat="46.047421" lon="11.169199">
<time>2020-11-25T10:23:33Z</time>
</trkpt>
<trkpt lat="46.047416" lon="11.169202">
<time>2020-11-25T10:23:34Z</time>
</trkpt>
<trkpt lat="46.047408" lon="11.169205">
<time>2020-11-25T10:23:35Z</time>
</trkpt>
<trkpt lat="46.047402" lon="11.169211">
<time>2020-11-25T10:23:36Z</time>
</trkpt>
<trkpt lat="46.047395" lon="11.169214">
<time>2020-11-25T10:23:37Z</time>
</trkpt>
<trkpt lat="46.047383" lon="11.169223">
<time>2020-11-25T10:23:38Z</time>
</trkpt>
<trkpt lat="46.047375" lon="11.169232">
<time>2020-11-25T10:23:39Z</time>
</trkpt>
<trkpt lat="46.047366" lon="11.169235">
<time>2020-11-25T10:23:40Z</time>
</trkpt>
<trkpt lat="46.047358" lon="11.169242">
<time>2020-11-25T10:23:41Z</time>
</trkpt>
<trkpt lat="46.047344" lon="11.169252">
<time>2020-11-25T10:23:42Z</time>
</trkpt>
<trkpt lat="46.047331" lon="11.169265">
<time>2020-11-25T10:23:43Z</time>
</trkpt>
<trkpt lat="46.047322" lon="11.169274">
<time>2020-11-25T10:23:44Z</time>
</trkpt>
<trkpt lat="46.04731" lon="11.169282">
<time>2020-11-25T10:23:45Z</time>
</trkpt>
<trkpt lat="46.047304" lon="11.169283">
<time>2020-11-25T10:23:46Z</time>
</trkpt>
<trkpt lat="46.047298" lon="11.169285">
<time>2020-11-25T10:23:47Z</time>
</trkpt>
<trkpt lat="46.047287" lon="11.169288">
<time>2020-11-25T10:23:48Z</time>
</trkpt>
<trkpt lat="46.04728" lon="11.169285">
<time>2020-11-25T10:23:49Z</time>
</trkpt>
<trkpt lat="46.047275" lon="11.169277">
<time>2020-11-25T10:23:50Z</time>
</trkpt>
<trkpt lat="46.047264" lon="11.169277">
<time>2020-11-25T10:23:51Z</time>
</trkpt>
<trkpt lat="46.047256" lon="11.169277">
<time>2020-11-25T10:23:52Z</time>
</trkpt>
<trkpt lat="46.047243" lon="11.169287">
<time>2020-11-25T10:23:53Z</time>
</trkpt>
<trkpt lat="46.047236" lon="11.16929">
<time>2020-11-25T10:23:54Z</time>
</trkpt>
<trkpt lat="46.047229" lon="11.169293">
<time>2020-11-25T10:23:55Z</time>
</trkpt>
<trkpt lat="46.047228" lon="11.169292">
<time>2020-11-25T10:23:56Z</time>
</trkpt>
<trkpt lat="46.047227" lon="11.16929">
<time>2020-11-25T10:23:57Z</time>
</trkpt>
<trkpt lat="46.047223" lon="11.169288">
<time>2020-11-25T10:23:58Z</time>
</trkpt>
<trkpt lat="46.047222" lon="11.169286">
<time>2020-11-25T10:23:59Z</time>
</trkpt>
<trkpt lat="46.04722" lon="11.169289">
<time>2020-11-25T10:24:00Z</time>
</trkpt>
<trkpt lat="46.047218" lon="11.169293">
<time>2020-11-25T10:24:01Z</time>
</trkpt>
<trkpt lat="46.047215" lon="11.169294">
<time>2020-11-25T10:24:02Z</time>
</trkpt>
<trkpt lat="46.047212" lon="11.169298">
<time>2020-11-25T10:24:03Z</time>
</trkpt>
<trkpt lat="46.047207" lon="11.169302">
<time>2020-11-25T10:24:04Z</time>
</trkpt>
<trkpt lat="46.047208" lon="11.169304">
<time>2020-11-25T10:24:05Z</time>
</trkpt>
<trkpt lat="46.047213" lon="11.169307">
<time>2020-11-25T10:24:06Z</time>
</trkpt>
<trkpt lat="46.047217" lon="11.169308">
<time>2020-11-25T10:24:07Z</time>
</trkpt>
<trkpt lat="46.047217" lon="11.16931">
<time>2020-11-25T10:24:08Z</time>
</trkpt>
<trkpt lat="46.04722" lon="11.169311">
<time>2020-11-25T10:24:09Z</time>
</trkpt>
<trkpt lat="46.04722" lon="11.169311">
<time>2020-11-25T10:24:10Z</time>
</trkpt>
<trkpt lat="46.04722" lon="11.169311">
<time>2020-11-25T10:24:11Z</time>
</trkpt>
<trkpt lat="46.04722" lon="11.169311">
<time>2020-11-25T10:24:12Z</time>
</trkpt>
<trkpt lat="46.047219" lon="11.169311">
<time>2020-11-25T10:24:13Z</time>
</trkpt>
<trkpt lat="46.047218" lon="11.169312">
<time>2020-11-25T10:24:14Z</time>
</trkpt>
<trkpt lat="46.047218" lon="11.169311">
<time>2020-11-25T10:24:15Z</time>
</trkpt>
<trkpt lat="46.047217" lon="11.169311">
<time>2020-11-25T10:24:16Z</time>
</trkpt>
<trkpt lat="46.047214" lon="11.169312">
<time>2020-11-25T10:24:17Z</time>
</trkpt>
<trkpt lat="46.04721" lon="11.169314">
<time>2020-11-25T10:24:18Z</time>
</trkpt>
<trkpt lat="46.047207" lon="11.169319">
<time>2020-11-25T10:24:19Z</time>
</trkpt>
<trkpt lat="46.047205" lon="11.169321">
<time>2020-11-25T10:24:20Z</time>
</trkpt>
<trkpt lat="46.047202" lon="11.169325">
<time>2020-11-25T10:24:21Z</time>
</trkpt>
<trkpt lat="46.0472" lon="11.169327">
<time>2020-11-25T10:24:22Z</time>
</trkpt>
<trkpt lat="46.047196" lon="11.169326">
<time>2020-11-25T10:24:23Z</time>
</trkpt>
<trkpt lat="46.047192" lon="11.169326">
<time>2020-11-25T10:24:24Z</time>
</trkpt>
<trkpt lat="46.04719" lon="11.169324">
<time>2020-11-25T10:24:25Z</time>
</trkpt>
<trkpt lat="46.047187" lon="11.169327">
<time>2020-11-25T10:24:26Z</time>
</trkpt>
<trkpt lat="46.047184" lon="11.169329">
<time>2020-11-25T10:24:27Z</time>
</trkpt>
<trkpt lat="46.047185" lon="11.16934">
<time>2020-11-25T10:24:28Z</time>
</trkpt>
<trkpt lat="46.047185" lon="11.169346">
<time>2020-11-25T10:24:29Z</time>
</trkpt>
<trkpt lat="46.047183" lon="11.169349">
<time>2020-11-25T10:24:30Z</time>
</trkpt>
<trkpt lat="46.047181" lon="11.169349">
<time>2020-11-25T10:24:31Z</time>
</trkpt>
<trkpt lat="46.047181" lon="11.169347">
<time>2020-11-25T10:24:32Z</time>
</trkpt>
<trkpt lat="46.047182" lon="11.169341">
<time>2020-11-25T10:24:33Z</time>
</trkpt>
<trkpt lat="46.047182" lon="11.169337">
<time>2020-11-25T10:24:34Z</time>
</trkpt>
<trkpt lat="46.047182" lon="11.169338">
<time>2020-11-25T10:24:35Z</time>
</trkpt>
<trkpt lat="46.047174" lon="11.169341">
<time>2020-11-25T10:24:36Z</time>
</trkpt>
<trkpt lat="46.047169" lon="11.16934">
<time>2020-11-25T10:24:37Z</time>
</trkpt>
<trkpt lat="46.047168" lon="11.169336">
<time>2020-11-25T10:24:38Z</time>
</trkpt>
<trkpt lat="46.047166" lon="11.169333">
<time>2020-11-25T10:24:39Z</time>
</trkpt>
<trkpt lat="46.047162" lon="11.169329">
<time>2020-11-25T10:24:40Z</time>
</trkpt>
<trkpt lat="46.047156" lon="11.169328">
<time>2020-11-25T10:24:41Z</time>
</trkpt>
<trkpt lat="46.047153" lon="11.169328">
<time>2020-11-25T10:24:42Z</time>
</trkpt>
<trkpt lat="46.047147" lon="11.169326">
<time>2020-11-25T10:24:43Z</time>
</trkpt>
<trkpt lat="46.047142" lon="11.169319">
<time>2020-11-25T10:24:44Z</time>
</trkpt>
<trkpt lat="46.047138" lon="11.169314">
<time>2020-11-25T10:24:45Z</time>
</trkpt>
<trkpt lat="46.047135" lon="11.169307">
<time>2020-11-25T10:24:46Z</time>
</trkpt>
<trkpt lat="46.04713" lon="11.169302">
<time>2020-11-25T10:24:47Z</time>
</trkpt>
<trkpt lat="46.047126" lon="11.169296">
<time>2020-11-25T10:24:48Z</time>
</trkpt>
<trkpt lat="46.047124" lon="11.16929">
<time>2020-11-25T10:24:49Z</time>
</trkpt>
<trkpt lat="46.047127" lon="11.169277">
<time>2020-11-25T10:24:50Z</time>
</trkpt>
<trkpt lat="46.047129" lon="11.169267">
<time>2020-11-25T10:24:51Z</time>
</trkpt>
<trkpt lat="46.047128" lon="11.169254">
<time>2020-11-25T10:24:52Z</time>
</trkpt>
<trkpt lat="46.047128" lon="11.169246">
<time>2020-11-25T10:24:53Z</time>
</trkpt>
<trkpt lat="46.047126" lon="11.169242">
<time>2020-11-25T10:24:54Z</time>
</trkpt>
<trkpt lat="46.047126" lon="11.16924">
<time>2020-11-25T10:24:55Z</time>
</trkpt>
<trkpt lat="46.047121" lon="11.169238">
<time>2020-11-25T10:24:56Z</time>
</trkpt>
<trkpt lat="46.047116" lon="11.16923">
<time>2020-11-25T10:24:57Z</time>
</trkpt>
<trkpt lat="46.047107" lon="11.169226">
<time>2020-11-25T10:24:58Z</time>
</trkpt>
<trkpt lat="46.047102" lon="11.169226">
<time>2020-11-25T10:24:59Z</time>
</trkpt>
<trkpt lat="46.047095" lon="11.169226">
<time>2020-11-25T10:25:00Z</time>
</trkpt>
<trkpt lat="46.047089" lon="11.169226">
<time>2020-11-25T10:25:01Z</time>
</trkpt>
<trkpt lat="46.047085" lon="11.169226">
<time>2020-11-25T10:25:02Z</time>
</trkpt>
<trkpt lat="46.04708" lon="11.169223">
<time>2020-11-25T10:25:03Z</time>
</trkpt>
<trkpt lat="46.047077" lon="11.169222">
<time>2020-11-25T10:25:04Z</time>
</trkpt>
<trkpt lat="46.047074" lon="11.169219">
<time>2020-11-25T10:25:05Z</time>
</trkpt>
<trkpt lat="46.047072" lon="11.169213">
<time>2020-11-25T10:25:06Z</time>
</trkpt>
<trkpt lat="46.047069" lon="11.169211">
<time>2020-11-25T10:25:07Z</time>
</trkpt>
<trkpt lat="46.047067" lon="11.169218">
<time>2020-11-25T10:25:08Z</time>
</trkpt>
<trkpt lat="46.047064" lon="11.16923">
<time>2020-11-25T10:25:09Z</time>
</trkpt>
<trkpt lat="46.04706" lon="11.169237">
<time>2020-11-25T10:25:10Z</time>
</trkpt>
<trkpt lat="46.047059" lon="11.169237">
<time>2020-11-25T10:25:11Z</time>
</trkpt>
<trkpt lat="46.047057" lon="11.169244">
<time>2020-11-25T10:25:12Z</time>
</trkpt>
<trkpt lat="46.047057" lon="11.169251">
<time>2020-11-25T10:25:13Z</time>
</trkpt>
<trkpt lat="46.047055" lon="11.169259">
<time>2020-11-25T10:25:14Z</time>
</trkpt>
<trkpt lat="46.047053" lon="11.169259">
<time>2020-11-25T10:25:15Z</time>
</trkpt>
<trkpt lat="46.047052" lon="11.169261">
<time>2020-11-25T10:25:16Z</time>
</trkpt>
<trkpt lat="46.047051" lon="11.169261">
<time>2020-11-25T10:25:17Z</time>
</trkpt>
<trkpt lat="46.047058" lon="11.169252">
<time>2020-11-25T10:25:18Z</time>
</trkpt>
<trkpt lat="46.047054" lon="11.169253">
<time>2020-11-25T10:25:19Z</time>
</trkpt>
<trkpt lat="46.047056" lon="11.169252">
<time>2020-11-25T10:25:20Z</time>
</trkpt>
<trkpt lat="46.047057" lon="11.169253">
<time>2020-11-25T10:25:21Z</time>
</trkpt>
<trkpt lat="46.047059" lon="11.169256">
<time>2020-11-25T10:25:22Z</time>
</trkpt>
<trkpt lat="46.047066" lon="11.169252">
<time>2020-11-25T10:25:23Z</time>
</trkpt>
<trkpt lat="46.047071" lon="11.169252">
<time>2020-11-25T10:25:24Z</time>
</trkpt>
<trkpt lat="46.04707" lon="11.169259">
<time>2020-11-25T10:25:25Z</time>
</trkpt>
<trkpt lat="46.04707" lon="11.169266">
<time>2020-11-25T10:25:26Z</time>
</trkpt>
<trkpt lat="46.047067" lon="11.169268">
<time>2020-11-25T10:25:27Z</time>
</trkpt>
<trkpt lat="46.047067" lon="11.169271">
<time>2020-11-25T10:25:28Z</time>
</trkpt>
<trkpt lat="46.047067" lon="11.169272">
<time>2020-11-25T10:25:29Z</time>
</trkpt>
<trkpt lat="46.04707" lon="11.169283">
<time>2020-11-25T10:25:30Z</time>
</trkpt>
<trkpt lat="46.047068" lon="11.169284">
<time>2020-11-25T10:25:31Z</time>
</trkpt>
<trkpt lat="46.047068" lon="11.16929">
<time>2020-11-25T10:25:32Z</time>
</trkpt>
<trkpt lat="46.047068" lon="11.169296">
<time>2020-11-25T10:25:33Z</time>
</trkpt>
<trkpt lat="46.047071" lon="11.169296">
<time>2020-11-25T10:25:34Z</time>
</trkpt>
<trkpt lat="46.047071" lon="11.169295">
<time>2020-11-25T10:25:35Z</time>
</trkpt>
<trkpt lat="46.047067" lon="11.169298">
<time>2020-11-25T10:25:36Z</time>
</trkpt>
<trkpt lat="46.047068" lon="11.169304">
<time>2020-11-25T10:25:37Z</time>
</trkpt>
<trkpt lat="46.04707" lon="11.169314">
<time>2020-11-25T10:25:38Z</time>
</trkpt>
<trkpt lat="46.047071" lon="11.169325">
<time>2020-11-25T10:25:39Z</time>
</trkpt>
<trkpt lat="46.047072" lon="11.169335">
<time>2020-11-25T10:25:40Z</time>
</trkpt>
<trkpt lat="46.047075" lon="11.169345">
<time>2020-11-25T10:25:41Z</time>
</trkpt>
<trkpt lat="46.047078" lon="11.16935">
<time>2020-11-25T10:25:42Z</time>
</trkpt>
<trkpt lat="46.04708" lon="11.169355">
<time>2020-11-25T10:25:43Z</time>
</trkpt>
<trkpt lat="46.047079" lon="11.169356">
<time>2020-11-25T10:25:44Z</time>
</trkpt>
<trkpt lat="46.047075" lon="11.169355">
<time>2020-11-25T10:25:45Z</time>
</trkpt>
<trkpt lat="46.047074" lon="11.169354">
<time>2020-11-25T10:25:46Z</time>
</trkpt>
<trkpt lat="46.047072" lon="11.169356">
<time>2020-11-25T10:25:47Z</time>
</trkpt>
<trkpt lat="46.047071" lon="11.169359">
<time>2020-11-25T10:25:48Z</time>
</trkpt>
<trkpt lat="46.047068" lon="11.169366">
<time>2020-11-25T10:25:49Z</time>
</trkpt>
<trkpt lat="46.047068" lon="11.16937">
<time>2020-11-25T10:25:50Z</time>
</trkpt>
<trkpt lat="46.047065" lon="11.169375">
<time>2020-11-25T10:25:51Z</time>
</trkpt>
<trkpt lat="46.047061" lon="11.169378">
<time>2020-11-25T10:25:52Z</time>
</trkpt>
<trkpt lat="46.047059" lon="11.169382">
<time>2020-11-25T10:25:53Z</time>
</trkpt>
<trkpt lat="46.047052" lon="11.169385">
<time>2020-11-25T10:25:54Z</time>
</trkpt>
<trkpt lat="46.047045" lon="11.169389">
<time>2020-11-25T10:25:55Z</time>
</trkpt>
<trkpt lat="46.047039" lon="11.169389">
<time>2020-11-25T10:25:56Z</time>
</trkpt>
<trkpt lat="46.047037" lon="11.169392">
<time>2020-11-25T10:25:57Z</time>
</trkpt>
<trkpt lat="46.047033" lon="11.169395">
<time>2020-11-25T10:25:58Z</time>
</trkpt>
<trkpt lat="46.047029" lon="11.1694">
<time>2020-11-25T10:25:59Z</time>
</trkpt>
<trkpt lat="46.047026" lon="11.169404">
<time>2020-11-25T10:26:00Z</time>
</trkpt>
<trkpt lat="46.047023" lon="11.169409">
<time>2020-11-25T10:26:01Z</time>
</trkpt>
<trkpt lat="46.047019" lon="11.169412">
<time>2020-11-25T10:26:02Z</time>
</trkpt>
<trkpt lat="46.047015" lon="11.16942">
<time>2020-11-25T10:26:03Z</time>
</trkpt>
<trkpt lat="46.047013" lon="11.169425">
<time>2020-11-25T10:26:04Z</time>
</trkpt>
<trkpt lat="46.04701" lon="11.169435">
<time>2020-11-25T10:26:05Z</time>
</trkpt>
<trkpt lat="46.047005" lon="11.169448">
<time>2020-11-25T10:26:06Z</time>
</trkpt>
<trkpt lat="46.047001" lon="11.169454">
<time>2020-11-25T10:26:07Z</time>
</trkpt>
<trkpt lat="46.046998" lon="11.169457">
<time>2020-11-25T10:26:08Z</time>
</trkpt>
<trkpt lat="46.046996" lon="11.16946">
<time>2020-11-25T10:26:09Z</time>
</trkpt>
<trkpt lat="46.046994" lon="11.169463">
<time>2020-11-25T10:26:10Z</time>
</trkpt>
<trkpt lat="46.046988" lon="11.169471">
<time>2020-11-25T10:26:11Z</time>
</trkpt>
<trkpt lat="46.046982" lon="11.169477">
<time>2020-11-25T10:26:12Z</time>
</trkpt>
<trkpt lat="46.046979" lon="11.16948">
<time>2020-11-25T10:26:13Z</time>
</trkpt>
<trkpt lat="46.046977" lon="11.169485">
<time>2020-11-25T10:26:14Z</time>
</trkpt>
<trkpt lat="46.046974" lon="11.169488">
<time>2020-11-25T10:26:15Z</time>
</trkpt>
<trkpt lat="46.046971" lon="11.169492">
<time>2020-11-25T10:26:16Z</time>
</trkpt>
<trkpt lat="46.046968" lon="11.169497">
<time>2020-11-25T10:26:17Z</time>
</trkpt>
<trkpt lat="46.046965" lon="11.1695">
<time>2020-11-25T10:26:18Z</time>
</trkpt>
<trkpt lat="46.046962" lon="11.169506">
<time>2020-11-25T10:26:19Z</time>
</trkpt>
<trkpt lat="46.046957" lon="11.169515">
<time>2020-11-25T10:26:20Z</time>
</trkpt>
<trkpt lat="46.046952" lon="11.169519">
<time>2020-11-25T10:26:21Z</time>
</trkpt>
<trkpt lat="46.046945" lon="11.169517">
<time>2020-11-25T10:26:22Z</time>
</trkpt>
<trkpt lat="46.04694" lon="11.169518">
<time>2020-11-25T10:26:23Z</time>
</trkpt>
<trkpt lat="46.046935" lon="11.169515">
<time>2020-11-25T10:26:24Z</time>
</trkpt>
<trkpt lat="46.046932" lon="11.169513">
<time>2020-11-25T10:26:25Z</time>
</trkpt>
<trkpt lat="46.046931" lon="11.16951">
<time>2020-11-25T10:26:26Z</time>
</trkpt>
<trkpt lat="46.046924" lon="11.169511">
<time>2020-11-25T10:26:27Z</time>
</trkpt>
<trkpt lat="46.04692" lon="11.169511">
<time>2020-11-25T10:26:28Z</time>
</trkpt>
<trkpt lat="46.046915" lon="11.169512">
<time>2020-11-25T10:26:29Z</time>
</trkpt>
<trkpt lat="46.046909" lon="11.169515">
<time>2020-11-25T10:26:30Z</time>
</trkpt>
<trkpt lat="46.046904" lon="11.169522">
<time>2020-11-25T10:26:31Z</time>
</trkpt>
<trkpt lat="46.046899" lon="11.169528">
<time>2020-11-25T10:26:32Z</time>
</trkpt>
<trkpt lat="46.046889" lon="11.169532">
<time>2020-11-25T10:26:33Z</time>
</trkpt>
<trkpt lat="46.046883" lon="11.169532">
<time>2020-11-25T10:26:34Z</time>
</trkpt>
<trkpt lat="46.046878" lon="11.169533">
<time>2020-11-25T10:26:35Z</time>
</trkpt>
<trkpt lat="46.046874" lon="11.169531">
<time>2020-11-25T10:26:36Z</time>
</trkpt>
<trkpt lat="46.046871" lon="11.169529">
<time>2020-11-25T10:26:37Z</time>
</trkpt>
<trkpt lat="46.04687" lon="11.16953">
<time>2020-11-25T10:26:38Z</time>
</trkpt>
<trkpt lat="46.04687" lon="11.169529">
<time>2020-11-25T10:26:39Z</time>
</trkpt>
<trkpt lat="46.046869" lon="11.169524">
<time>2020-11-25T10:26:40Z</time>
</trkpt>
<trkpt lat="46.046869" lon="11.169522">
<time>2020-11-25T10:26:41Z</time>
</trkpt>
<trkpt lat="46.046867" lon="11.169521">
<time>2020-11-25T10:26:42Z</time>
</trkpt>
<trkpt lat="46.046865" lon="11.16952">
<time>2020-11-25T10:26:43Z</time>
</trkpt>
<trkpt lat="46.046864" lon="11.16952">
<time>2020-11-25T10:26:44Z</time>
</trkpt>
<trkpt lat="46.046863" lon="11.16952">
<time>2020-11-25T10:26:45Z</time>
</trkpt>
<trkpt lat="46.046863" lon="11.16952">
<time>2020-11-25T10:26:46Z</time>
</trkpt>
<trkpt lat="46.046864" lon="11.16952">
<time>2020-11-25T10:26:47Z</time>
</trkpt>
<trkpt lat="46.046863" lon="11.169519">
<time>2020-11-25T10:26:48Z</time>
</trkpt>
<trkpt lat="46.046864" lon="11.169519">
<time>2020-11-25T10:26:49Z</time>
</trkpt>
<trkpt lat="46.046864" lon="11.169518">
<time>2020-11-25T10:26:50Z</time>
</trkpt>
<trkpt lat="46.046865" lon="11.169517">
<time>2020-11-25T10:26:51Z</time>
</trkpt>
<trkpt lat="46.046865" lon="11.169516">
<time>2020-11-25T10:26:52Z</time>
</trkpt>
<trkpt lat="46.046866" lon="11.169515">
<time>2020-11-25T10:26:53Z</time>
</trkpt>
<trkpt lat="46.046866" lon="11.169515">
<time>2020-11-25T10:26:54Z</time>
</trkpt>
<trkpt lat="46.046864" lon="11.169515">
<time>2020-11-25T10:26:55Z</time>
</trkpt>
<trkpt lat="46.046864" lon="11.169514">
<time>2020-11-25T10:26:56Z</time>
</trkpt>
<trkpt lat="46.046863" lon="11.169514">
<time>2020-11-25T10:26:57Z</time>
</trkpt>
<trkpt lat="46.046863" lon="11.169515">
<time>2020-11-25T10:26:58Z</time>
</trkpt>
<trkpt lat="46.046862" lon="11.169517">
<time>2020-11-25T10:26:59Z</time>
</trkpt>
<trkpt lat="46.046861" lon="11.16952">
<time>2020-11-25T10:27:00Z</time>
</trkpt>
<trkpt lat="46.046861" lon="11.16952">
<time>2020-11-25T10:27:01Z</time>
</trkpt>
<trkpt lat="46.04686" lon="11.169519">
<time>2020-11-25T10:27:02Z</time>
</trkpt>
<trkpt lat="46.04686" lon="11.169519">
<time>2020-11-25T10:27:03Z</time>
</trkpt>
<trkpt lat="46.04686" lon="11.169518">
<time>2020-11-25T10:27:04Z</time>
</trkpt>
<trkpt lat="46.04686" lon="11.169518">
<time>2020-11-25T10:27:05Z</time>
</trkpt>
<trkpt lat="46.046859" lon="11.169518">
<time>2020-11-25T10:27:06Z</time>
</trkpt>
<trkpt lat="46.046858" lon="11.16952">
<time>2020-11-25T10:27:07Z</time>
</trkpt>
<trkpt lat="46.046856" lon="11.169521">
<time>2020-11-25T10:27:08Z</time>
</trkpt>
<trkpt lat="46.046856" lon="11.169522">
<time>2020-11-25T10:27:09Z</time>
</trkpt>
<trkpt lat="46.046856" lon="11.169523">
<time>2020-11-25T10:27:10Z</time>
</trkpt>
<trkpt lat="46.046856" lon="11.169524">
<time>2020-11-25T10:27:11Z</time>
</trkpt>
<trkpt lat="46.046855" lon="11.169526">
<time>2020-11-25T10:27:12Z</time>
</trkpt>
<trkpt lat="46.046854" lon="11.16953">
<time>2020-11-25T10:27:13Z</time>
</trkpt>
<trkpt lat="46.046851" lon="11.169534">
<time>2020-11-25T10:27:14Z</time>
</trkpt>
<trkpt lat="46.046847" lon="11.169539">
<time>2020-11-25T10:27:15Z</time>
</trkpt>
<trkpt lat="46.046844" lon="11.169544">
<time>2020-11-25T10:27:16Z</time>
</trkpt>
<trkpt lat="46.046841" lon="11.16955">
<time>2020-11-25T10:27:17Z</time>
</trkpt>
<trkpt lat="46.046839" lon="11.169556">
<time>2020-11-25T10:27:18Z</time>
</trkpt>
<trkpt lat="46.046837" lon="11.16956">
<time>2020-11-25T10:27:19Z</time>
</trkpt>
<trkpt lat="46.046835" lon="11.169564">
<time>2020-11-25T10:27:20Z</time>
</trkpt>
<trkpt lat="46.046834" lon="11.169565">
<time>2020-11-25T10:27:21Z</time>
</trkpt>
<trkpt lat="46.046831" lon="11.169564">
<time>2020-11-25T10:27:22Z</time>
</trkpt>
<trkpt lat="46.046826" lon="11.169561">
<time>2020-11-25T10:27:23Z</time>
</trkpt>
<trkpt lat="46.046823" lon="11.169561">
<time>2020-11-25T10:27:24Z</time>
</trkpt>
<trkpt lat="46.046822" lon="11.169561">
<time>2020-11-25T10:27:25Z</time>
</trkpt>
<trkpt lat="46.046822" lon="11.169561">
<time>2020-11-25T10:27:26Z</time>
</trkpt>
<trkpt lat="46.046824" lon="11.169565">
<time>2020-11-25T10:27:27Z</time>
</trkpt>
<trkpt lat="46.046825" lon="11.169573">
<time>2020-11-25T10:27:28Z</time>
</trkpt>
<trkpt lat="46.046827" lon="11.169584">
<time>2020-11-25T10:27:29Z</time>
</trkpt>
<trkpt lat="46.046828" lon="11.169596">
<time>2020-11-25T10:27:30Z</time>
</trkpt>
<trkpt lat="46.046829" lon="11.169609">
<time>2020-11-25T10:27:31Z</time>
</trkpt>
<trkpt lat="46.046832" lon="11.16962">
<time>2020-11-25T10:27:32Z</time>
</trkpt>
<trkpt lat="46.046834" lon="11.169628">
<time>2020-11-25T10:27:33Z</time>
</trkpt>
<trkpt lat="46.046837" lon="11.169634">
<time>2020-11-25T10:27:34Z</time>
</trkpt>
<trkpt lat="46.04684" lon="11.169641">
<time>2020-11-25T10:27:35Z</time>
</trkpt>
<trkpt lat="46.046841" lon="11.169651">
<time>2020-11-25T10:27:36Z</time>
</trkpt>
<trkpt lat="46.04684" lon="11.169658">
<time>2020-11-25T10:27:37Z</time>
</trkpt>
<trkpt lat="46.04684" lon="11.169668">
<time>2020-11-25T10:27:38Z</time>
</trkpt>
<trkpt lat="46.04684" lon="11.169681">
<time>2020-11-25T10:27:39Z</time>
</trkpt>
<trkpt lat="46.046843" lon="11.169693">
<time>2020-11-25T10:27:40Z</time>
</trkpt>
<trkpt lat="46.046846" lon="11.1697">
<time>2020-11-25T10:27:41Z</time>
</trkpt>
<trkpt lat="46.046852" lon="11.169705">
<time>2020-11-25T10:27:42Z</time>
</trkpt>
<trkpt lat="46.046856" lon="11.16971">
<time>2020-11-25T10:27:43Z</time>
</trkpt>
<trkpt lat="46.046859" lon="11.169714">
<time>2020-11-25T10:27:44Z</time>
</trkpt>
<trkpt lat="46.04686" lon="11.169717">
<time>2020-11-25T10:27:45Z</time>
</trkpt>
<trkpt lat="46.046862" lon="11.169725">
<time>2020-11-25T10:27:46Z</time>
</trkpt>
<trkpt lat="46.046865" lon="11.169735">
<time>2020-11-25T10:27:47Z</time>
</trkpt>
<trkpt lat="46.046867" lon="11.169744">
<time>2020-11-25T10:27:48Z</time>
</trkpt>
<trkpt lat="46.046867" lon="11.169757">
<time>2020-11-25T10:27:49Z</time>
</trkpt>
<trkpt lat="46.046865" lon="11.169768">
<time>2020-11-25T10:27:50Z</time>
</trkpt>
<trkpt lat="46.046866" lon="11.169776">
<time>2020-11-25T10:27:51Z</time>
</trkpt>
<trkpt lat="46.046864" lon="11.16978">
<time>2020-11-25T10:27:52Z</time>
</trkpt>
<trkpt lat="46.046863" lon="11.169784">
<time>2020-11-25T10:27:53Z</time>
</trkpt>
<trkpt lat="46.046862" lon="11.169787">
<time>2020-11-25T10:27:54Z</time>
</trkpt>
<trkpt lat="46.046861" lon="11.16979">
<time>2020-11-25T10:27:55Z</time>
</trkpt>
<trkpt lat="46.046864" lon="11.169796">
<time>2020-11-25T10:27:56Z</time>
</trkpt>
<trkpt lat="46.046863" lon="11.169797">
<time>2020-11-25T10:27:57Z</time>
</trkpt>
<trkpt lat="46.046864" lon="11.169803">
<time>2020-11-25T10:27:58Z</time>
</trkpt>
<trkpt lat="46.046865" lon="11.169805">
<time>2020-11-25T10:27:59Z</time>
</trkpt>
<trkpt lat="46.046869" lon="11.169807">
<time>2020-11-25T10:28:00Z</time>
</trkpt>
<trkpt lat="46.046872" lon="11.169807">
<time>2020-11-25T10:28:01Z</time>
</trkpt>
<trkpt lat="46.046874" lon="11.169806">
<time>2020-11-25T10:28:02Z</time>
</trkpt>
<trkpt lat="46.046876" lon="11.169805">
<time>2020-11-25T10:28:03Z</time>
</trkpt>
<trkpt lat="46.046875" lon="11.169807">
<time>2020-11-25T10:28:04Z</time>
</trkpt>
<trkpt lat="46.046874" lon="11.169809">
<time>2020-11-25T10:28:05Z</time>
</trkpt>
<trkpt lat="46.046874" lon="11.169808">
<time>2020-11-25T10:28:06Z</time>
</trkpt>
<trkpt lat="46.04687" lon="11.169805">
<time>2020-11-25T10:28:07Z</time>
</trkpt>
<trkpt lat="46.046871" lon="11.169806">
<time>2020-11-25T10:28:08Z</time>
</trkpt>
<trkpt lat="46.046872" lon="11.169806">
<time>2020-11-25T10:28:09Z</time>
</trkpt>
<trkpt lat="46.046867" lon="11.169805">
<time>2020-11-25T10:28:10Z</time>
</trkpt>
<trkpt lat="46.046864" lon="11.169802">
<time>2020-11-25T10:28:11Z</time>
</trkpt>
<trkpt lat="46.046862" lon="11.169798">
<time>2020-11-25T10:28:12Z</time>
</trkpt>
<trkpt lat="46.046857" lon="11.1698">
<time>2020-11-25T10:28:13Z</time>
</trkpt>
<trkpt lat="46.046854" lon="11.169802">
<time>2020-11-25T10:28:14Z</time>
</trkpt>
<trkpt lat="46.046851" lon="11.169805">
<time>2020-11-25T10:28:15Z</time>
</trkpt>
<trkpt lat="46.046848" lon="11.169808">
<time>2020-11-25T10:28:16Z</time>
</trkpt>
<trkpt lat="46.046848" lon="11.169808">
<time>2020-11-25T10:28:17Z</time>
</trkpt>
<trkpt lat="46.046851" lon="11.169805">
<time>2020-11-25T10:28:18Z</time>
</trkpt>
<trkpt lat="46.046853" lon="11.1698">
<time>2020-11-25T10:28:19Z</time>
</trkpt>
<trkpt lat="46.046853" lon="11.169793">
<time>2020-11-25T10:28:20Z</time>
</trkpt>
<trkpt lat="46.046852" lon="11.169792">
<time>2020-11-25T10:28:21Z</time>
</trkpt>
<trkpt lat="46.046852" lon="11.169791">
<time>2020-11-25T10:28:22Z</time>
</trkpt>
<trkpt lat="46.046851" lon="11.16979">
<time>2020-11-25T10:28:23Z</time>
</trkpt>
<trkpt lat="46.046851" lon="11.169787">
<time>2020-11-25T10:28:24Z</time>
</trkpt>
<trkpt lat="46.046851" lon="11.169786">
<time>2020-11-25T10:28:25Z</time>
</trkpt>
<trkpt lat="46.04685" lon="11.169783">
<time>2020-11-25T10:28:26Z</time>
</trkpt>
<trkpt lat="46.046849" lon="11.16978">
<time>2020-11-25T10:28:27Z</time>
</trkpt>
<trkpt lat="46.046849" lon="11.169776">
<time>2020-11-25T10:28:28Z</time>
</trkpt>
<trkpt lat="46.04685" lon="11.169771">
<time>2020-11-25T10:28:29Z</time>
</trkpt>
<trkpt lat="46.046851" lon="11.169767">
<time>2020-11-25T10:28:30Z</time>
</trkpt>
<trkpt lat="46.046851" lon="11.169761">
<time>2020-11-25T10:28:31Z</time>
</trkpt>
<trkpt lat="46.046853" lon="11.169754">
<time>2020-11-25T10:28:32Z</time>
</trkpt>
<trkpt lat="46.046857" lon="11.169745">
<time>2020-11-25T10:28:33Z</time>
</trkpt>
<trkpt lat="46.046862" lon="11.169737">
<time>2020-11-25T10:28:34Z</time>
</trkpt>
<trkpt lat="46.046866" lon="11.16973">
<time>2020-11-25T10:28:35Z</time>
</trkpt>
<trkpt lat="46.046872" lon="11.169722">
<time>2020-11-25T10:28:36Z</time>
</trkpt>
<trkpt lat="46.046874" lon="11.169714">
<time>2020-11-25T10:28:37Z</time>
</trkpt>
<trkpt lat="46.046875" lon="11.169705">
<time>2020-11-25T10:28:38Z</time>
</trkpt>
<trkpt lat="46.046871" lon="11.169699">
<time>2020-11-25T10:28:39Z</time>
</trkpt>
<trkpt lat="46.046869" lon="11.169692">
<time>2020-11-25T10:28:40Z</time>
</trkpt>
<trkpt lat="46.046865" lon="11.169689">
<time>2020-11-25T10:28:41Z</time>
</trkpt>
<trkpt lat="46.04686" lon="11.169688">
<time>2020-11-25T10:28:42Z</time>
</trkpt>
<trkpt lat="46.046854" lon="11.169686">
<time>2020-11-25T10:28:43Z</time>
</trkpt>
<trkpt lat="46.046845" lon="11.169683">
<time>2020-11-25T10:28:44Z</time>
</trkpt>
<trkpt lat="46.046836" lon="11.169682">
<time>2020-11-25T10:28:45Z</time>
</trkpt>
<trkpt lat="46.046827" lon="11.169684">
<time>2020-11-25T10:28:46Z</time>
</trkpt>
<trkpt lat="46.046819" lon="11.169688">
<time>2020-11-25T10:28:47Z</time>
</trkpt>
<trkpt lat="46.046812" lon="11.169685">
<time>2020-11-25T10:28:48Z</time>
</trkpt>
<trkpt lat="46.046804" lon="11.169688">
<time>2020-11-25T10:28:49Z</time>
</trkpt>
<trkpt lat="46.0468" lon="11.169689">
<time>2020-11-25T10:28:50Z</time>
</trkpt>
<trkpt lat="46.046796" lon="11.169688">
<time>2020-11-25T10:28:51Z</time>
</trkpt>
<trkpt lat="46.04679" lon="11.16969">
<time>2020-11-25T10:28:52Z</time>
</trkpt>
<trkpt lat="46.046778" lon="11.169695">
<time>2020-11-25T10:28:53Z</time>
</trkpt>
<trkpt lat="46.046771" lon="11.169701">
<time>2020-11-25T10:28:54Z</time>
</trkpt>
<trkpt lat="46.04677" lon="11.169704">
<time>2020-11-25T10:28:55Z</time>
</trkpt>
<trkpt lat="46.046765" lon="11.169708">
<time>2020-11-25T10:28:56Z</time>
</trkpt>
<trkpt lat="46.04676" lon="11.169716">
<time>2020-11-25T10:28:57Z</time>
</trkpt>
<trkpt lat="46.046749" lon="11.169723">
<time>2020-11-25T10:28:58Z</time>
</trkpt>
<trkpt lat="46.046734" lon="11.169727">
<time>2020-11-25T10:28:59Z</time>
</trkpt>
<trkpt lat="46.046721" lon="11.169731">
<time>2020-11-25T10:29:00Z</time>
</trkpt>
<trkpt lat="46.046707" lon="11.169735">
<time>2020-11-25T10:29:01Z</time>
</trkpt>
<trkpt lat="46.046692" lon="11.169739">
<time>2020-11-25T10:29:02Z</time>
</trkpt>
<trkpt lat="46.04668" lon="11.169742">
<time>2020-11-25T10:29:03Z</time>
</trkpt>
<trkpt lat="46.046668" lon="11.169745">
<time>2020-11-25T10:29:04Z</time>
</trkpt>
<trkpt lat="46.046659" lon="11.169748">
<time>2020-11-25T10:29:05Z</time>
</trkpt>
<trkpt lat="46.046654" lon="11.169754">
<time>2020-11-25T10:29:06Z</time>
</trkpt>
<trkpt lat="46.046649" lon="11.169758">
<time>2020-11-25T10:29:07Z</time>
</trkpt>
<trkpt lat="46.046643" lon="11.169767">
<time>2020-11-25T10:29:08Z</time>
</trkpt>
<trkpt lat="46.046638" lon="11.169776">
<time>2020-11-25T10:29:09Z</time>
</trkpt>
<trkpt lat="46.046631" lon="11.169781">
<time>2020-11-25T10:29:10Z</time>
</trkpt>
<trkpt lat="46.046624" lon="11.169786">
<time>2020-11-25T10:29:11Z</time>
</trkpt>
<trkpt lat="46.046618" lon="11.169794">
<time>2020-11-25T10:29:12Z</time>
</trkpt>
<trkpt lat="46.046611" lon="11.169799">
<time>2020-11-25T10:29:13Z</time>
</trkpt>
<trkpt lat="46.046605" lon="11.169803">
<time>2020-11-25T10:29:14Z</time>
</trkpt>
<trkpt lat="46.046599" lon="11.169808">
<time>2020-11-25T10:29:15Z</time>
</trkpt>
<trkpt lat="46.046594" lon="11.169815">
<time>2020-11-25T10:29:16Z</time>
</trkpt>
<trkpt lat="46.046591" lon="11.169825">
<time>2020-11-25T10:29:17Z</time>
</trkpt>
<trkpt lat="46.046587" lon="11.16983">
<time>2020-11-25T10:29:18Z</time>
</trkpt>
<trkpt lat="46.046579" lon="11.169836">
<time>2020-11-25T10:29:19Z</time>
</trkpt>
<trkpt lat="46.046575" lon="11.169844">
<time>2020-11-25T10:29:20Z</time>
</trkpt>
<trkpt lat="46.046569" lon="11.169848">
<time>2020-11-25T10:29:21Z</time>
</trkpt>
<trkpt lat="46.046562" lon="11.169854">
<time>2020-11-25T10:29:22Z</time>
</trkpt>
<trkpt lat="46.046557" lon="11.169861">
<time>2020-11-25T10:29:23Z</time>
</trkpt>
<trkpt lat="46.046553" lon="11.169867">
<time>2020-11-25T10:29:24Z</time>
</trkpt>
<trkpt lat="46.046549" lon="11.169875">
<time>2020-11-25T10:29:25Z</time>
</trkpt>
<trkpt lat="46.046543" lon="11.169881">
<time>2020-11-25T10:29:26Z</time>
</trkpt>
<trkpt lat="46.046534" lon="11.16989">
<time>2020-11-25T10:29:27Z</time>
</trkpt>
<trkpt lat="46.046526" lon="11.169895">
<time>2020-11-25T10:29:28Z</time>
</trkpt>
<trkpt lat="46.046518" lon="11.169899">
<time>2020-11-25T10:29:29Z</time>
</trkpt>
<trkpt lat="46.046507" lon="11.169897">
<time>2020-11-25T10:29:30Z</time>
</trkpt>
<trkpt lat="46.046495" lon="11.169901">
<time>2020-11-25T10:29:31Z</time>
</trkpt>
<trkpt lat="46.046486" lon="11.169901">
<time>2020-11-25T10:29:32Z</time>
</trkpt>
<trkpt lat="46.04648" lon="11.1699">
<time>2020-11-25T10:29:33Z</time>
</trkpt>
<trkpt lat="46.046477" lon="11.169902">
<time>2020-11-25T10:29:34Z</time>
</trkpt>
<trkpt lat="46.046471" lon="11.169904">
<time>2020-11-25T10:29:35Z</time>
</trkpt>
<trkpt lat="46.046463" lon="11.169904">
<time>2020-11-25T10:29:36Z</time>
</trkpt>
<trkpt lat="46.046457" lon="11.169906">
<time>2020-11-25T10:29:37Z</time>
</trkpt>
<trkpt lat="46.046453" lon="11.169906">
<time>2020-11-25T10:29:38Z</time>
</trkpt>
<trkpt lat="46.046445" lon="11.169904">
<time>2020-11-25T10:29:39Z</time>
</trkpt>
<trkpt lat="46.046439" lon="11.169906">
<time>2020-11-25T10:29:40Z</time>
</trkpt>
<trkpt lat="46.046434" lon="11.169905">
<time>2020-11-25T10:29:41Z</time>
</trkpt>
<trkpt lat="46.04643" lon="11.169915">
<time>2020-11-25T10:29:42Z</time>
</trkpt>
<trkpt lat="46.046414" lon="11.169942">
<time>2020-11-25T10:29:43Z</time>
</trkpt>
<trkpt lat="46.04641" lon="11.169952">
<time>2020-11-25T10:29:44Z</time>
</trkpt>
<trkpt lat="46.046405" lon="11.169962">
<time>2020-11-25T10:29:45Z</time>
</trkpt>
<trkpt lat="46.0464" lon="11.169971">
<time>2020-11-25T10:29:46Z</time>
</trkpt>
<trkpt lat="46.046392" lon="11.169976">
<time>2020-11-25T10:29:47Z</time>
</trkpt>
<trkpt lat="46.046384" lon="11.169979">
<time>2020-11-25T10:29:48Z</time>
</trkpt>
<trkpt lat="46.046374" lon="11.169987">
<time>2020-11-25T10:29:49Z</time>
</trkpt>
<trkpt lat="46.046371" lon="11.169994">
<time>2020-11-25T10:29:50Z</time>
</trkpt>
<trkpt lat="46.046369" lon="11.170003">
<time>2020-11-25T10:29:51Z</time>
</trkpt>
<trkpt lat="46.046366" lon="11.170006">
<time>2020-11-25T10:29:52Z</time>
</trkpt>
<trkpt lat="46.046366" lon="11.170015">
<time>2020-11-25T10:29:53Z</time>
</trkpt>
<trkpt lat="46.046364" lon="11.170022">
<time>2020-11-25T10:29:54Z</time>
</trkpt>
<trkpt lat="46.046363" lon="11.170028">
<time>2020-11-25T10:29:55Z</time>
</trkpt>
<trkpt lat="46.04636" lon="11.170032">
<time>2020-11-25T10:29:56Z</time>
</trkpt>
<trkpt lat="46.046357" lon="11.170038">
<time>2020-11-25T10:29:57Z</time>
</trkpt>
<trkpt lat="46.046353" lon="11.170046">
<time>2020-11-25T10:29:58Z</time>
</trkpt>
<trkpt lat="46.046349" lon="11.170056">
<time>2020-11-25T10:29:59Z</time>
</trkpt>
<trkpt lat="46.04634" lon="11.170069">
<time>2020-11-25T10:30:00Z</time>
</trkpt>
<trkpt lat="46.046329" lon="11.17008">
<time>2020-11-25T10:30:01Z</time>
</trkpt>
<trkpt lat="46.046319" lon="11.170085">
<time>2020-11-25T10:30:02Z</time>
</trkpt>
<trkpt lat="46.046312" lon="11.170089">
<time>2020-11-25T10:30:03Z</time>
</trkpt>
<trkpt lat="46.0463" lon="11.170095">
<time>2020-11-25T10:30:04Z</time>
</trkpt>
<trkpt lat="46.046293" lon="11.170099">
<time>2020-11-25T10:30:05Z</time>
</trkpt>
<trkpt lat="46.046286" lon="11.170103">
<time>2020-11-25T10:30:06Z</time>
</trkpt>
<trkpt lat="46.046281" lon="11.1701">
<time>2020-11-25T10:30:07Z</time>
</trkpt>
<trkpt lat="46.046274" lon="11.170097">
<time>2020-11-25T10:30:08Z</time>
</trkpt>
<trkpt lat="46.046268" lon="11.170094">
<time>2020-11-25T10:30:09Z</time>
</trkpt>
<trkpt lat="46.046262" lon="11.170091">
<time>2020-11-25T10:30:10Z</time>
</trkpt>
<trkpt lat="46.046256" lon="11.170084">
<time>2020-11-25T10:30:11Z</time>
</trkpt>
<trkpt lat="46.046249" lon="11.170077">
<time>2020-11-25T10:30:12Z</time>
</trkpt>
<trkpt lat="46.046244" lon="11.170071">
<time>2020-11-25T10:30:13Z</time>
</trkpt>
<trkpt lat="46.046237" lon="11.170066">
<time>2020-11-25T10:30:14Z</time>
</trkpt>
<trkpt lat="46.046232" lon="11.17006">
<time>2020-11-25T10:30:15Z</time>
</trkpt>
<trkpt lat="46.046225" lon="11.17005">
<time>2020-11-25T10:30:16Z</time>
</trkpt>
<trkpt lat="46.046217" lon="11.170045">
<time>2020-11-25T10:30:17Z</time>
</trkpt>
<trkpt lat="46.046212" lon="11.170042">
<time>2020-11-25T10:30:18Z</time>
</trkpt>
<trkpt lat="46.046205" lon="11.170042">
<time>2020-11-25T10:30:19Z</time>
</trkpt>
<trkpt lat="46.0462" lon="11.170042">
<time>2020-11-25T10:30:20Z</time>
</trkpt>
<trkpt lat="46.046197" lon="11.170044">
<time>2020-11-25T10:30:21Z</time>
</trkpt>
<trkpt lat="46.04619" lon="11.17005">
<time>2020-11-25T10:30:22Z</time>
</trkpt>
<trkpt lat="46.046184" lon="11.170049">
<time>2020-11-25T10:30:23Z</time>
</trkpt>
<trkpt lat="46.046176" lon="11.170055">
<time>2020-11-25T10:30:24Z</time>
</trkpt>
<trkpt lat="46.046171" lon="11.170055">
<time>2020-11-25T10:30:25Z</time>
</trkpt>
<trkpt lat="46.046166" lon="11.17006">
<time>2020-11-25T10:30:26Z</time>
</trkpt>
<trkpt lat="46.046158" lon="11.170066">
<time>2020-11-25T10:30:27Z</time>
</trkpt>
<trkpt lat="46.046154" lon="11.17007">
<time>2020-11-25T10:30:28Z</time>
</trkpt>
<trkpt lat="46.046146" lon="11.170077">
<time>2020-11-25T10:30:29Z</time>
</trkpt>
<trkpt lat="46.04614" lon="11.17008">
<time>2020-11-25T10:30:30Z</time>
</trkpt>
<trkpt lat="46.046135" lon="11.170081">
<time>2020-11-25T10:30:31Z</time>
</trkpt>
<trkpt lat="46.046129" lon="11.170082">
<time>2020-11-25T10:30:32Z</time>
</trkpt>
<trkpt lat="46.04612" lon="11.170081">
<time>2020-11-25T10:30:33Z</time>
</trkpt>
<trkpt lat="46.046116" lon="11.170082">
<time>2020-11-25T10:30:34Z</time>
</trkpt>
<trkpt lat="46.046111" lon="11.170084">
<time>2020-11-25T10:30:35Z</time>
</trkpt>
<trkpt lat="46.046105" lon="11.170086">
<time>2020-11-25T10:30:36Z</time>
</trkpt>
<trkpt lat="46.0461" lon="11.170087">
<time>2020-11-25T10:30:37Z</time>
</trkpt>
<trkpt lat="46.046093" lon="11.170085">
<time>2020-11-25T10:30:38Z</time>
</trkpt>
<trkpt lat="46.046085" lon="11.170083">
<time>2020-11-25T10:30:39Z</time>
</trkpt>
<trkpt lat="46.046081" lon="11.170084">
<time>2020-11-25T10:30:40Z</time>
</trkpt>
<trkpt lat="46.046077" lon="11.170092">
<time>2020-11-25T10:30:41Z</time>
</trkpt>
<trkpt lat="46.046074" lon="11.170094">
<time>2020-11-25T10:30:42Z</time>
</trkpt>
<trkpt lat="46.046072" lon="11.170096">
<time>2020-11-25T10:30:43Z</time>
</trkpt>
<trkpt lat="46.046068" lon="11.170096">
<time>2020-11-25T10:30:44Z</time>
</trkpt>
<trkpt lat="46.046067" lon="11.170101">
<time>2020-11-25T10:30:45Z</time>
</trkpt>
<trkpt lat="46.046065" lon="11.170101">
<time>2020-11-25T10:30:46Z</time>
</trkpt>
<trkpt lat="46.046064" lon="11.170103">
<time>2020-11-25T10:30:47Z</time>
</trkpt>
<trkpt lat="46.046062" lon="11.170105">
<time>2020-11-25T10:30:48Z</time>
</trkpt>
<trkpt lat="46.046059" lon="11.170105">
<time>2020-11-25T10:30:49Z</time>
</trkpt>
<trkpt lat="46.046061" lon="11.170106">
<time>2020-11-25T10:30:50Z</time>
</trkpt>
<trkpt lat="46.04606" lon="11.170106">
<time>2020-11-25T10:30:51Z</time>
</trkpt>
<trkpt lat="46.046059" lon="11.170107">
<time>2020-11-25T10:30:52Z</time>
</trkpt>
<trkpt lat="46.046056" lon="11.170109">
<time>2020-11-25T10:30:53Z</time>
</trkpt>
<trkpt lat="46.046054" lon="11.170109">
<time>2020-11-25T10:30:54Z</time>
</trkpt>
<trkpt lat="46.046051" lon="11.170111">
<time>2020-11-25T10:30:55Z</time>
</trkpt>
<trkpt lat="46.046045" lon="11.170117">
<time>2020-11-25T10:30:56Z</time>
</trkpt>
<trkpt lat="46.046041" lon="11.17012">
<time>2020-11-25T10:30:57Z</time>
</trkpt>
<trkpt lat="46.046032" lon="11.170122">
<time>2020-11-25T10:30:58Z</time>
</trkpt>
<trkpt lat="46.046021" lon="11.170121">
<time>2020-11-25T10:30:59Z</time>
</trkpt>
<trkpt lat="46.046012" lon="11.170118">
<time>2020-11-25T10:31:00Z</time>
</trkpt>
<trkpt lat="46.046001" lon="11.170115">
<time>2020-11-25T10:31:01Z</time>
</trkpt>
<trkpt lat="46.045993" lon="11.170115">
<time>2020-11-25T10:31:02Z</time>
</trkpt>
<trkpt lat="46.045984" lon="11.170115">
<time>2020-11-25T10:31:03Z</time>
</trkpt>
<trkpt lat="46.045975" lon="11.17011">
<time>2020-11-25T10:31:04Z</time>
</trkpt>
<trkpt lat="46.045968" lon="11.170113">
<time>2020-11-25T10:31:05Z</time>
</trkpt>
<trkpt lat="46.045965" lon="11.17011">
<time>2020-11-25T10:31:06Z</time>
</trkpt>
<trkpt lat="46.045957" lon="11.170111">
<time>2020-11-25T10:31:07Z</time>
</trkpt>
<trkpt lat="46.045951" lon="11.170107">
<time>2020-11-25T10:31:08Z</time>
</trkpt>
<trkpt lat="46.045946" lon="11.170107">
<time>2020-11-25T10:31:09Z</time>
</trkpt>
<trkpt lat="46.04594" lon="11.170109">
<time>2020-11-25T10:31:10Z</time>
</trkpt>
<trkpt lat="46.045934" lon="11.170117">
<time>2020-11-25T10:31:11Z</time>
</trkpt>
<trkpt lat="46.04593" lon="11.170125">
<time>2020-11-25T10:31:12Z</time>
</trkpt>
<trkpt lat="46.045924" lon="11.170133">
<time>2020-11-25T10:31:13Z</time>
</trkpt>
<trkpt lat="46.04592" lon="11.170135">
<time>2020-11-25T10:31:14Z</time>
</trkpt>
<trkpt lat="46.045916" lon="11.170136">
<time>2020-11-25T10:31:15Z</time>
</trkpt>
<trkpt lat="46.045911" lon="11.170138">
<time>2020-11-25T10:31:16Z</time>
</trkpt>
<trkpt lat="46.045906" lon="11.170144">
<time>2020-11-25T10:31:17Z</time>
</trkpt>
<trkpt lat="46.045898" lon="11.170156">
<time>2020-11-25T10:31:18Z</time>
</trkpt>
<trkpt lat="46.045891" lon="11.170169">
<time>2020-11-25T10:31:19Z</time>
</trkpt>
<trkpt lat="46.045888" lon="11.170179">
<time>2020-11-25T10:31:20Z</time>
</trkpt>
<trkpt lat="46.045885" lon="11.17019">
<time>2020-11-25T10:31:21Z</time>
</trkpt>
<trkpt lat="46.04588" lon="11.170199">
<time>2020-11-25T10:31:22Z</time>
</trkpt>
<trkpt lat="46.045875" lon="11.170207">
<time>2020-11-25T10:31:23Z</time>
</trkpt>
<trkpt lat="46.045869" lon="11.170212">
<time>2020-11-25T10:31:24Z</time>
</trkpt>
<trkpt lat="46.045863" lon="11.170219">
<time>2020-11-25T10:31:25Z</time>
</trkpt>
<trkpt lat="46.045859" lon="11.170226">
<time>2020-11-25T10:31:26Z</time>
</trkpt>
<trkpt lat="46.04585" lon="11.170231">
<time>2020-11-25T10:31:27Z</time>
</trkpt>
<trkpt lat="46.045844" lon="11.170236">
<time>2020-11-25T10:31:28Z</time>
</trkpt>
<trkpt lat="46.04584" lon="11.170244">
<time>2020-11-25T10:31:29Z</time>
</trkpt>
<trkpt lat="46.045835" lon="11.170244">
<time>2020-11-25T10:31:30Z</time>
</trkpt>
<trkpt lat="46.045829" lon="11.170246">
<time>2020-11-25T10:31:31Z</time>
</trkpt>
<trkpt lat="46.045821" lon="11.170249">
<time>2020-11-25T10:31:32Z</time>
</trkpt>
<trkpt lat="46.045815" lon="11.170248">
<time>2020-11-25T10:31:33Z</time>
</trkpt>
<trkpt lat="46.045806" lon="11.170237">
<time>2020-11-25T10:31:34Z</time>
</trkpt>
<trkpt lat="46.045802" lon="11.170237">
<time>2020-11-25T10:31:35Z</time>
</trkpt>
<trkpt lat="46.045796" lon="11.170234">
<time>2020-11-25T10:31:36Z</time>
</trkpt>
<trkpt lat="46.045789" lon="11.170234">
<time>2020-11-25T10:31:37Z</time>
</trkpt>
<trkpt lat="46.045777" lon="11.170238">
<time>2020-11-25T10:31:38Z</time>
</trkpt>
<trkpt lat="46.04577" lon="11.17024">
<time>2020-11-25T10:31:39Z</time>
</trkpt>
<trkpt lat="46.045765" lon="11.170244">
<time>2020-11-25T10:31:40Z</time>
</trkpt>
<trkpt lat="46.045758" lon="11.170244">
<time>2020-11-25T10:31:41Z</time>
</trkpt>
<trkpt lat="46.04575" lon="11.170248">
<time>2020-11-25T10:31:42Z</time>
</trkpt>
<trkpt lat="46.045748" lon="11.17025">
<time>2020-11-25T10:31:43Z</time>
</trkpt>
<trkpt lat="46.045744" lon="11.170248">
<time>2020-11-25T10:31:44Z</time>
</trkpt>
<trkpt lat="46.045742" lon="11.170248">
<time>2020-11-25T10:31:45Z</time>
</trkpt>
<trkpt lat="46.045739" lon="11.170243">
<time>2020-11-25T10:31:46Z</time>
</trkpt>
<trkpt lat="46.045734" lon="11.170233">
<time>2020-11-25T10:31:47Z</time>
</trkpt>
<trkpt lat="46.04573" lon="11.170229">
<time>2020-11-25T10:31:48Z</time>
</trkpt>
<trkpt lat="46.045722" lon="11.170226">
<time>2020-11-25T10:31:49Z</time>
</trkpt>
<trkpt lat="46.045715" lon="11.170222">
<time>2020-11-25T10:31:50Z</time>
</trkpt>
<trkpt lat="46.045707" lon="11.170207">
<time>2020-11-25T10:31:51Z</time>
</trkpt>
<trkpt lat="46.045699" lon="11.170209">
<time>2020-11-25T10:31:52Z</time>
</trkpt>
<trkpt lat="46.045693" lon="11.17021">
<time>2020-11-25T10:31:53Z</time>
</trkpt>
<trkpt lat="46.045688" lon="11.170207">
<time>2020-11-25T10:31:54Z</time>
</trkpt>
<trkpt lat="46.045682" lon="11.170201">
<time>2020-11-25T10:31:55Z</time>
</trkpt>
<trkpt lat="46.04568" lon="11.170199">
<time>2020-11-25T10:31:56Z</time>
</trkpt>
<trkpt lat="46.04568" lon="11.170201">
<time>2020-11-25T10:31:57Z</time>
</trkpt>
<trkpt lat="46.045679" lon="11.170202">
<time>2020-11-25T10:31:58Z</time>
</trkpt>
<trkpt lat="46.045677" lon="11.170203">
<time>2020-11-25T10:31:59Z</time>
</trkpt>
<trkpt lat="46.045673" lon="11.170207">
<time>2020-11-25T10:32:00Z</time>
</trkpt>
<trkpt lat="46.045671" lon="11.170212">
<time>2020-11-25T10:32:01Z</time>
</trkpt>
<trkpt lat="46.045669" lon="11.170215">
<time>2020-11-25T10:32:02Z</time>
</trkpt>
<trkpt lat="46.045667" lon="11.170222">
<time>2020-11-25T10:32:03Z</time>
</trkpt>
<trkpt lat="46.045665" lon="11.170228">
<time>2020-11-25T10:32:04Z</time>
</trkpt>
<trkpt lat="46.045661" lon="11.170234">
<time>2020-11-25T10:32:05Z</time>
</trkpt>
<trkpt lat="46.045657" lon="11.170245">
<time>2020-11-25T10:32:06Z</time>
</trkpt>
<trkpt lat="46.045654" lon="11.170259">
<time>2020-11-25T10:32:07Z</time>
</trkpt>
<trkpt lat="46.045649" lon="11.170272">
<time>2020-11-25T10:32:08Z</time>
</trkpt>
<trkpt lat="46.045638" lon="11.170282">
<time>2020-11-25T10:32:09Z</time>
</trkpt>
<trkpt lat="46.045625" lon="11.170301">
<time>2020-11-25T10:32:10Z</time>
</trkpt>
<trkpt lat="46.045616" lon="11.170313">
<time>2020-11-25T10:32:11Z</time>
</trkpt>
<trkpt lat="46.045607" lon="11.170323">
<time>2020-11-25T10:32:12Z</time>
</trkpt>
<trkpt lat="46.045605" lon="11.170343">
<time>2020-11-25T10:32:13Z</time>
</trkpt>
<trkpt lat="46.045593" lon="11.17036">
<time>2020-11-25T10:32:14Z</time>
</trkpt>
<trkpt lat="46.045569" lon="11.170384">
<time>2020-11-25T10:32:15Z</time>
</trkpt>
<trkpt lat="46.04555" lon="11.170411">
<time>2020-11-25T10:32:16Z</time>
</trkpt>
<trkpt lat="46.045532" lon="11.170432">
<time>2020-11-25T10:32:17Z</time>
</trkpt>
<trkpt lat="46.045516" lon="11.170445">
<time>2020-11-25T10:32:18Z</time>
</trkpt>
<trkpt lat="46.045503" lon="11.170457">
<time>2020-11-25T10:32:19Z</time>
</trkpt>
<trkpt lat="46.04549" lon="11.170464">
<time>2020-11-25T10:32:20Z</time>
</trkpt>
<trkpt lat="46.045481" lon="11.170463">
<time>2020-11-25T10:32:21Z</time>
</trkpt>
<trkpt lat="46.045475" lon="11.170464">
<time>2020-11-25T10:32:22Z</time>
</trkpt>
<trkpt lat="46.04547" lon="11.170465">
<time>2020-11-25T10:32:23Z</time>
</trkpt>
<trkpt lat="46.045462" lon="11.170467">
<time>2020-11-25T10:32:24Z</time>
</trkpt>
<trkpt lat="46.045457" lon="11.170467">
<time>2020-11-25T10:32:25Z</time>
</trkpt>
<trkpt lat="46.045453" lon="11.170463">
<time>2020-11-25T10:32:26Z</time>
</trkpt>
<trkpt lat="46.045446" lon="11.170456">
<time>2020-11-25T10:32:27Z</time>
</trkpt>
<trkpt lat="46.045438" lon="11.170456">
<time>2020-11-25T10:32:28Z</time>
</trkpt>
<trkpt lat="46.045432" lon="11.170456">
<time>2020-11-25T10:32:29Z</time>
</trkpt>
<trkpt lat="46.045425" lon="11.170458">
<time>2020-11-25T10:32:30Z</time>
</trkpt>
<trkpt lat="46.045422" lon="11.170464">
<time>2020-11-25T10:32:31Z</time>
</trkpt>
<trkpt lat="46.045422" lon="11.170469">
<time>2020-11-25T10:32:32Z</time>
</trkpt>
<trkpt lat="46.045415" lon="11.170485">
<time>2020-11-25T10:32:33Z</time>
</trkpt>
<trkpt lat="46.045416" lon="11.170491">
<time>2020-11-25T10:32:34Z</time>
</trkpt>
<trkpt lat="46.04541" lon="11.170511">
<time>2020-11-25T10:32:35Z</time>
</trkpt>
<trkpt lat="46.045414" lon="11.170521">
<time>2020-11-25T10:32:36Z</time>
</trkpt>
<trkpt lat="46.045411" lon="11.170526">
<time>2020-11-25T10:32:37Z</time>
</trkpt>
<trkpt lat="46.045407" lon="11.170531">
<time>2020-11-25T10:32:38Z</time>
</trkpt>
<trkpt lat="46.045403" lon="11.170538">
<time>2020-11-25T10:32:39Z</time>
</trkpt>
<trkpt lat="46.045397" lon="11.170546">
<time>2020-11-25T10:32:40Z</time>
</trkpt>
<trkpt lat="46.045391" lon="11.170555">
<time>2020-11-25T10:32:41Z</time>
</trkpt>
<trkpt lat="46.04538" lon="11.170562">
<time>2020-11-25T10:32:42Z</time>
</trkpt>
<trkpt lat="46.045372" lon="11.170565">
<time>2020-11-25T10:32:43Z</time>
</trkpt>
<trkpt lat="46.045361" lon="11.170569">
<time>2020-11-25T10:32:44Z</time>
</trkpt>
<trkpt lat="46.045345" lon="11.170576">
<time>2020-11-25T10:32:45Z</time>
</trkpt>
<trkpt lat="46.04533" lon="11.170584">
<time>2020-11-25T10:32:46Z</time>
</trkpt>
<trkpt lat="46.045313" lon="11.170591">
<time>2020-11-25T10:32:47Z</time>
</trkpt>
<trkpt lat="46.04529" lon="11.170598">
<time>2020-11-25T10:32:48Z</time>
</trkpt>
<trkpt lat="46.04527" lon="11.170608">
<time>2020-11-25T10:32:49Z</time>
</trkpt>
<trkpt lat="46.045257" lon="11.170616">
<time>2020-11-25T10:32:50Z</time>
</trkpt>
<trkpt lat="46.045244" lon="11.170622">
<time>2020-11-25T10:32:51Z</time>
</trkpt>
<trkpt lat="46.045232" lon="11.170626">
<time>2020-11-25T10:32:52Z</time>
</trkpt>
<trkpt lat="46.045221" lon="11.170628">
<time>2020-11-25T10:32:53Z</time>
</trkpt>
<trkpt lat="46.045213" lon="11.170624">
<time>2020-11-25T10:32:54Z</time>
</trkpt>
<trkpt lat="46.045203" lon="11.170623">
<time>2020-11-25T10:32:55Z</time>
</trkpt>
<trkpt lat="46.045193" lon="11.170627">
<time>2020-11-25T10:32:56Z</time>
</trkpt>
<trkpt lat="46.045185" lon="11.170634">
<time>2020-11-25T10:32:57Z</time>
</trkpt>
<trkpt lat="46.045179" lon="11.170638">
<time>2020-11-25T10:32:58Z</time>
</trkpt>
<trkpt lat="46.045172" lon="11.170643">
<time>2020-11-25T10:32:59Z</time>
</trkpt>
<trkpt lat="46.045163" lon="11.170648">
<time>2020-11-25T10:33:00Z</time>
</trkpt>
<trkpt lat="46.045155" lon="11.170654">
<time>2020-11-25T10:33:01Z</time>
</trkpt>
<trkpt lat="46.045149" lon="11.170659">
<time>2020-11-25T10:33:02Z</time>
</trkpt>
<trkpt lat="46.045142" lon="11.170661">
<time>2020-11-25T10:33:03Z</time>
</trkpt>
<trkpt lat="46.045132" lon="11.170661">
<time>2020-11-25T10:33:04Z</time>
</trkpt>
<trkpt lat="46.045123" lon="11.170665">
<time>2020-11-25T10:33:05Z</time>
</trkpt>
<trkpt lat="46.045116" lon="11.170664">
<time>2020-11-25T10:33:06Z</time>
</trkpt>
<trkpt lat="46.045111" lon="11.170662">
<time>2020-11-25T10:33:07Z</time>
</trkpt>
<trkpt lat="46.045106" lon="11.170663">
<time>2020-11-25T10:33:08Z</time>
</trkpt>
<trkpt lat="46.0451" lon="11.170665">
<time>2020-11-25T10:33:09Z</time>
</trkpt>
<trkpt lat="46.045089" lon="11.170672">
<time>2020-11-25T10:33:10Z</time>
</trkpt>
<trkpt lat="46.045079" lon="11.170679">
<time>2020-11-25T10:33:11Z</time>
</trkpt>
<trkpt lat="46.045068" lon="11.170691">
<time>2020-11-25T10:33:12Z</time>
</trkpt>
<trkpt lat="46.045056" lon="11.170702">
<time>2020-11-25T10:33:13Z</time>
</trkpt>
<trkpt lat="46.045046" lon="11.170717">
<time>2020-11-25T10:33:14Z</time>
</trkpt>
<trkpt lat="46.045037" lon="11.170729">
<time>2020-11-25T10:33:15Z</time>
</trkpt>
<trkpt lat="46.045027" lon="11.170749">
<time>2020-11-25T10:33:16Z</time>
</trkpt>
<trkpt lat="46.04502" lon="11.170763">
<time>2020-11-25T10:33:17Z</time>
</trkpt>
<trkpt lat="46.045011" lon="11.170773">
<time>2020-11-25T10:33:18Z</time>
</trkpt>
<trkpt lat="46.045002" lon="11.170778">
<time>2020-11-25T10:33:19Z</time>
</trkpt>
<trkpt lat="46.04499" lon="11.17078">
<time>2020-11-25T10:33:20Z</time>
</trkpt>
<trkpt lat="46.04498" lon="11.170789">
<time>2020-11-25T10:33:21Z</time>
</trkpt>
<trkpt lat="46.04497" lon="11.170804">
<time>2020-11-25T10:33:22Z</time>
</trkpt>
<trkpt lat="46.044961" lon="11.170814">
<time>2020-11-25T10:33:23Z</time>
</trkpt>
<trkpt lat="46.044952" lon="11.170819">
<time>2020-11-25T10:33:24Z</time>
</trkpt>
<trkpt lat="46.044949" lon="11.170823">
<time>2020-11-25T10:33:25Z</time>
</trkpt>
<trkpt lat="46.044947" lon="11.170828">
<time>2020-11-25T10:33:26Z</time>
</trkpt>
<trkpt lat="46.044943" lon="11.170835">
<time>2020-11-25T10:33:27Z</time>
</trkpt>
<trkpt lat="46.044937" lon="11.170844">
<time>2020-11-25T10:33:28Z</time>
</trkpt>
<trkpt lat="46.044928" lon="11.17085">
<time>2020-11-25T10:33:29Z</time>
</trkpt>
<trkpt lat="46.04492" lon="11.17086">
<time>2020-11-25T10:33:30Z</time>
</trkpt>
<trkpt lat="46.04491" lon="11.170868">
<time>2020-11-25T10:33:31Z</time>
</trkpt>
<trkpt lat="46.044901" lon="11.170878">
<time>2020-11-25T10:33:32Z</time>
</trkpt>
<trkpt lat="46.044892" lon="11.170876">
<time>2020-11-25T10:33:33Z</time>
</trkpt>
<trkpt lat="46.044885" lon="11.170876">
<time>2020-11-25T10:33:34Z</time>
</trkpt>
<trkpt lat="46.044876" lon="11.170872">
<time>2020-11-25T10:33:35Z</time>
</trkpt>
<trkpt lat="46.044862" lon="11.170871">
<time>2020-11-25T10:33:36Z</time>
</trkpt>
<trkpt lat="46.044856" lon="11.170873">
<time>2020-11-25T10:33:37Z</time>
</trkpt>
<trkpt lat="46.04485" lon="11.17088">
<time>2020-11-25T10:33:38Z</time>
</trkpt>
<trkpt lat="46.044843" lon="11.170888">
<time>2020-11-25T10:33:39Z</time>
</trkpt>
<trkpt lat="46.044836" lon="11.170898">
<time>2020-11-25T10:33:40Z</time>
</trkpt>
<trkpt lat="46.04483" lon="11.170908">
<time>2020-11-25T10:33:41Z</time>
</trkpt>
<trkpt lat="46.044824" lon="11.170916">
<time>2020-11-25T10:33:42Z</time>
</trkpt>
<trkpt lat="46.044817" lon="11.170925">
<time>2020-11-25T10:33:43Z</time>
</trkpt>
<trkpt lat="46.044813" lon="11.170933">
<time>2020-11-25T10:33:44Z</time>
</trkpt>
<trkpt lat="46.044811" lon="11.170944">
<time>2020-11-25T10:33:45Z</time>
</trkpt>
<trkpt lat="46.044804" lon="11.170959">
<time>2020-11-25T10:33:46Z</time>
</trkpt>
<trkpt lat="46.044801" lon="11.170971">
<time>2020-11-25T10:33:47Z</time>
</trkpt>
<trkpt lat="46.044796" lon="11.170991">
<time>2020-11-25T10:33:48Z</time>
</trkpt>
<trkpt lat="46.044792" lon="11.17101">
<time>2020-11-25T10:33:49Z</time>
</trkpt>
<trkpt lat="46.044788" lon="11.171028">
<time>2020-11-25T10:33:50Z</time>
</trkpt>
<trkpt lat="46.044787" lon="11.171041">
<time>2020-11-25T10:33:51Z</time>
</trkpt>
<trkpt lat="46.044782" lon="11.17105">
<time>2020-11-25T10:33:52Z</time>
</trkpt>
<trkpt lat="46.044775" lon="11.171057">
<time>2020-11-25T10:33:53Z</time>
</trkpt>
<trkpt lat="46.044776" lon="11.171073">
<time>2020-11-25T10:33:54Z</time>
</trkpt>
<trkpt lat="46.044772" lon="11.171087">
<time>2020-11-25T10:33:55Z</time>
</trkpt>
<trkpt lat="46.044773" lon="11.171096">
<time>2020-11-25T10:33:56Z</time>
</trkpt>
<trkpt lat="46.044778" lon="11.171109">
<time>2020-11-25T10:33:57Z</time>
</trkpt>
<trkpt lat="46.044778" lon="11.171122">
<time>2020-11-25T10:33:58Z</time>
</trkpt>
<trkpt lat="46.044781" lon="11.171134">
<time>2020-11-25T10:33:59Z</time>
</trkpt>
<trkpt lat="46.04478" lon="11.171141">
<time>2020-11-25T10:34:00Z</time>
</trkpt>
<trkpt lat="46.044779" lon="11.171144">
<time>2020-11-25T10:34:01Z</time>
</trkpt>
<trkpt lat="46.044776" lon="11.171145">
<time>2020-11-25T10:34:02Z</time>
</trkpt>
<trkpt lat="46.04477" lon="11.171147">
<time>2020-11-25T10:34:03Z</time>
</trkpt>
<trkpt lat="46.044767" lon="11.171151">
<time>2020-11-25T10:34:04Z</time>
</trkpt>
<trkpt lat="46.044765" lon="11.171168">
<time>2020-11-25T10:34:05Z</time>
</trkpt>
<trkpt lat="46.04477" lon="11.171181">
<time>2020-11-25T10:34:06Z</time>
</trkpt>
<trkpt lat="46.044771" lon="11.171192">
<time>2020-11-25T10:34:07Z</time>
</trkpt>
<trkpt lat="46.044772" lon="11.171199">
<time>2020-11-25T10:34:08Z</time>
</trkpt>
<trkpt lat="46.044774" lon="11.1712">
<time>2020-11-25T10:34:09Z</time>
</trkpt>
<trkpt lat="46.044774" lon="11.171201">
<time>2020-11-25T10:34:10Z</time>
</trkpt>
<trkpt lat="46.044778" lon="11.171205">
<time>2020-11-25T10:34:11Z</time>
</trkpt>
<trkpt lat="46.044781" lon="11.171207">
<time>2020-11-25T10:34:12Z</time>
</trkpt>
<trkpt lat="46.044786" lon="11.17122">
<time>2020-11-25T10:34:13Z</time>
</trkpt>
<trkpt lat="46.044791" lon="11.17123">
<time>2020-11-25T10:34:14Z</time>
</trkpt>
<trkpt lat="46.044794" lon="11.171238">
<time>2020-11-25T10:34:15Z</time>
</trkpt>
<trkpt lat="46.044808" lon="11.171256">
<time>2020-11-25T10:34:16Z</time>
</trkpt>
<trkpt lat="46.044815" lon="11.171277">
<time>2020-11-25T10:34:17Z</time>
</trkpt>
<trkpt lat="46.044821" lon="11.171293">
<time>2020-11-25T10:34:18Z</time>
</trkpt>
<trkpt lat="46.044828" lon="11.171302">
<time>2020-11-25T10:34:19Z</time>
</trkpt>
<trkpt lat="46.044832" lon="11.17131">
<time>2020-11-25T10:34:20Z</time>
</trkpt>
<trkpt lat="46.044832" lon="11.171313">
<time>2020-11-25T10:34:21Z</time>
</trkpt>
<trkpt lat="46.044833" lon="11.171315">
<time>2020-11-25T10:34:22Z</time>
</trkpt>
<trkpt lat="46.044833" lon="11.171321">
<time>2020-11-25T10:34:23Z</time>
</trkpt>
<trkpt lat="46.044833" lon="11.171331">
<time>2020-11-25T10:34:24Z</time>
</trkpt>
<trkpt lat="46.044831" lon="11.171345">
<time>2020-11-25T10:34:25Z</time>
</trkpt>
<trkpt lat="46.044834" lon="11.171354">
<time>2020-11-25T10:34:26Z</time>
</trkpt>
<trkpt lat="46.04484" lon="11.171364">
<time>2020-11-25T10:34:27Z</time>
</trkpt>
<trkpt lat="46.044844" lon="11.171373">
<time>2020-11-25T10:34:28Z</time>
</trkpt>
<trkpt lat="46.04485" lon="11.171382">
<time>2020-11-25T10:34:29Z</time>
</trkpt>
<trkpt lat="46.044855" lon="11.171394">
<time>2020-11-25T10:34:30Z</time>
</trkpt>
<trkpt lat="46.044868" lon="11.171413">
<time>2020-11-25T10:34:31Z</time>
</trkpt>
<trkpt lat="46.044874" lon="11.171425">
<time>2020-11-25T10:34:32Z</time>
</trkpt>
<trkpt lat="46.044881" lon="11.17144">
<time>2020-11-25T10:34:33Z</time>
</trkpt>
<trkpt lat="46.044887" lon="11.171451">
<time>2020-11-25T10:34:34Z</time>
</trkpt>
<trkpt lat="46.04489" lon="11.171459">
<time>2020-11-25T10:34:35Z</time>
</trkpt>
<trkpt lat="46.044892" lon="11.171465">
<time>2020-11-25T10:34:36Z</time>
</trkpt>
<trkpt lat="46.044895" lon="11.171472">
<time>2020-11-25T10:34:37Z</time>
</trkpt>
<trkpt lat="46.044899" lon="11.17148">
<time>2020-11-25T10:34:38Z</time>
</trkpt>
<trkpt lat="46.044903" lon="11.171493">
<time>2020-11-25T10:34:39Z</time>
</trkpt>
<trkpt lat="46.04491" lon="11.171512">
<time>2020-11-25T10:34:40Z</time>
</trkpt>
<trkpt lat="46.04492" lon="11.171532">
<time>2020-11-25T10:34:41Z</time>
</trkpt>
<trkpt lat="46.044929" lon="11.171558">
<time>2020-11-25T10:34:42Z</time>
</trkpt>
<trkpt lat="46.044947" lon="11.171579">
<time>2020-11-25T10:34:43Z</time>
</trkpt>
<trkpt lat="46.044961" lon="11.171597">
<time>2020-11-25T10:34:44Z</time>
</trkpt>
<trkpt lat="46.044977" lon="11.171611">
<time>2020-11-25T10:34:45Z</time>
</trkpt>
<trkpt lat="46.044997" lon="11.171628">
<time>2020-11-25T10:34:46Z</time>
</trkpt>
<trkpt lat="46.045016" lon="11.171639">
<time>2020-11-25T10:34:47Z</time>
</trkpt>
<trkpt lat="46.045042" lon="11.171642">
<time>2020-11-25T10:34:48Z</time>
</trkpt>
<trkpt lat="46.045071" lon="11.171656">
<time>2020-11-25T10:34:49Z</time>
</trkpt>
<trkpt lat="46.045092" lon="11.171666">
<time>2020-11-25T10:34:50Z</time>
</trkpt>
<trkpt lat="46.045113" lon="11.171677">
<time>2020-11-25T10:34:51Z</time>
</trkpt>
<trkpt lat="46.045132" lon="11.171691">
<time>2020-11-25T10:34:52Z</time>
</trkpt>
<trkpt lat="46.045152" lon="11.171707">
<time>2020-11-25T10:34:53Z</time>
</trkpt>
<trkpt lat="46.045172" lon="11.171723">
<time>2020-11-25T10:34:54Z</time>
</trkpt>
<trkpt lat="46.045188" lon="11.17174">
<time>2020-11-25T10:34:55Z</time>
</trkpt>
<trkpt lat="46.045205" lon="11.171756">
<time>2020-11-25T10:34:56Z</time>
</trkpt>
<trkpt lat="46.045223" lon="11.171769">
<time>2020-11-25T10:34:57Z</time>
</trkpt>
<trkpt lat="46.045245" lon="11.171784">
<time>2020-11-25T10:34:58Z</time>
</trkpt>
<trkpt lat="46.04526" lon="11.171794">
<time>2020-11-25T10:34:59Z</time>
</trkpt>
<trkpt lat="46.045272" lon="11.171801">
<time>2020-11-25T10:35:00Z</time>
</trkpt>
<trkpt lat="46.045291" lon="11.171809">
<time>2020-11-25T10:35:01Z</time>
</trkpt>
<trkpt lat="46.04531" lon="11.171819">
<time>2020-11-25T10:35:02Z</time>
</trkpt>
</trkseg>
<name>Nichi</name>
</trk>
</gpx>